<?xml version="1.0" encoding="UTF-8" standalone="no" ?><gpx xmlns="http://www.topografix.com/GPX/1/1" xmlns:gpxx="http://www.garmin.com/xmlschemas/GpxExtensions/v3" xmlns:wptx1="http://www.garmin.com/xmlschemas/WaypointExtension/v1" xmlns:gpxtpx="http://www.garmin.com/xmlschemas/TrackPointExtension/v1" creator="GuideVTT.com" version="1.1" xmlns:xsi="http://www.w3.org/2001/XMLSchema-instance" xsi:schemaLocation="http://www.topografix.com/GPX/1/1 http://www.topografix.com/GPX/1/1/gpx.xsd http://www.garmin.com/xmlschemas/GpxExtensions/v3 http://www8.garmin.com/xmlschemas/GpxExtensionsv3.xsd http://www.garmin.com/xmlschemas/WaypointExtension/v1 http://www8.garmin.com/xmlschemas/WaypointExtensionv1.xsd http://www.garmin.com/xmlschemas/TrackPointExtension/v1 http://www.garmin.com/xmlschemas/TrackPointExtensionv1.xsd">
<metadata><link href="http://www.garmin.com"><text>Garmin International</text></link><time>2013-06-22T15:13:50Z</time></metadata>
<trk><name>2017-04-17-01-data.gpx</name><extensions><gpxx:TrackExtension><gpxx:DisplayColor>Cyan</gpxx:DisplayColor></gpxx:TrackExtension></extensions><trkseg>
<trkpt lat="48.496602" lon="2.634845"><ele></ele><time>2019-1-17T9:48:50Z</time></trkpt>
<trkpt lat="48.496554" lon="2.634876"><ele></ele><time>2019-1-17T9:48:53Z</time></trkpt>
<trkpt lat="48.496489" lon="2.635044"><ele></ele><time>2019-1-17T9:48:56Z</time></trkpt>
<trkpt lat="48.496418" lon="2.635134"><ele></ele><time>2019-1-17T9:48:59Z</time></trkpt>
<trkpt lat="48.496347" lon="2.635257"><ele></ele><time>2019-1-17T9:49:2Z</time></trkpt>
<trkpt lat="48.496258" lon="2.635369"><ele></ele><time>2019-1-17T9:49:5Z</time></trkpt>
<trkpt lat="48.496154" lon="2.635472"><ele></ele><time>2019-1-17T9:49:8Z</time></trkpt>
<trkpt lat="48.495976" lon="2.635578"><ele></ele><time>2019-1-17T9:49:11Z</time></trkpt>
<trkpt lat="48.495884" lon="2.635673"><ele></ele><time>2019-1-17T9:49:14Z</time></trkpt>
<trkpt lat="48.495785" lon="2.635739"><ele></ele><time>2019-1-17T9:49:17Z</time></trkpt>
<trkpt lat="48.495719" lon="2.63588"><ele></ele><time>2019-1-17T9:49:20Z</time></trkpt>
<trkpt lat="48.495672" lon="2.636015"><ele></ele><time>2019-1-17T9:49:23Z</time></trkpt>
<trkpt lat="48.495606" lon="2.636181"><ele></ele><time>2019-1-17T9:49:26Z</time></trkpt>
<trkpt lat="48.495518" lon="2.636284"><ele></ele><time>2019-1-17T9:49:29Z</time></trkpt>
<trkpt lat="48.495437" lon="2.63638"><ele></ele><time>2019-1-17T9:49:32Z</time></trkpt>
<trkpt lat="48.495332" lon="2.636467"><ele></ele><time>2019-1-17T9:49:35Z</time></trkpt>
<trkpt lat="48.495238" lon="2.636547"><ele></ele><time>2019-1-17T9:49:38Z</time></trkpt>
<trkpt lat="48.495146" lon="2.636623"><ele></ele><time>2019-1-17T9:49:41Z</time></trkpt>
<trkpt lat="48.495035" lon="2.636711"><ele></ele><time>2019-1-17T9:49:44Z</time></trkpt>
<trkpt lat="48.494974" lon="2.636878"><ele></ele><time>2019-1-17T9:49:47Z</time></trkpt>
<trkpt lat="48.494846" lon="2.636964"><ele></ele><time>2019-1-17T9:49:50Z</time></trkpt>
<trkpt lat="48.49473" lon="2.637052"><ele></ele><time>2019-1-17T9:49:53Z</time></trkpt>
<trkpt lat="48.494644" lon="2.63715"><ele></ele><time>2019-1-17T9:49:56Z</time></trkpt>
<trkpt lat="48.494576" lon="2.637293"><ele></ele><time>2019-1-17T9:49:59Z</time></trkpt>
<trkpt lat="48.49448" lon="2.63743"><ele></ele><time>2019-1-17T9:50:2Z</time></trkpt>
<trkpt lat="48.494406" lon="2.637525"><ele></ele><time>2019-1-17T9:50:5Z</time></trkpt>
<trkpt lat="48.494339" lon="2.637622"><ele></ele><time>2019-1-17T9:50:8Z</time></trkpt>
<trkpt lat="48.494244" lon="2.637752"><ele></ele><time>2019-1-17T9:50:11Z</time></trkpt>
<trkpt lat="48.494128" lon="2.637875"><ele></ele><time>2019-1-17T9:50:14Z</time></trkpt>
<trkpt lat="48.494059" lon="2.637972"><ele></ele><time>2019-1-17T9:50:17Z</time></trkpt>
<trkpt lat="48.493983" lon="2.638115"><ele></ele><time>2019-1-17T9:50:20Z</time></trkpt>
<trkpt lat="48.493881" lon="2.638226"><ele></ele><time>2019-1-17T9:50:23Z</time></trkpt>
<trkpt lat="48.49381" lon="2.638312"><ele></ele><time>2019-1-17T9:50:26Z</time></trkpt>
<trkpt lat="48.493729" lon="2.638381"><ele></ele><time>2019-1-17T9:50:29Z</time></trkpt>
<trkpt lat="48.493653" lon="2.638476"><ele></ele><time>2019-1-17T9:50:32Z</time></trkpt>
<trkpt lat="48.493554" lon="2.638618"><ele></ele><time>2019-1-17T9:50:35Z</time></trkpt>
<trkpt lat="48.493463" lon="2.638723"><ele></ele><time>2019-1-17T9:50:38Z</time></trkpt>
<trkpt lat="48.49336" lon="2.638851"><ele></ele><time>2019-1-17T9:50:41Z</time></trkpt>
<trkpt lat="48.493276" lon="2.639009"><ele></ele><time>2019-1-17T9:50:44Z</time></trkpt>
<trkpt lat="48.493198" lon="2.639111"><ele></ele><time>2019-1-17T9:50:47Z</time></trkpt>
<trkpt lat="48.493104" lon="2.639257"><ele></ele><time>2019-1-17T9:50:50Z</time></trkpt>
<trkpt lat="48.493025" lon="2.639334"><ele></ele><time>2019-1-17T9:50:53Z</time></trkpt>
<trkpt lat="48.492944" lon="2.639466"><ele></ele><time>2019-1-17T9:50:56Z</time></trkpt>
<trkpt lat="48.492823" lon="2.639519"><ele></ele><time>2019-1-17T9:50:59Z</time></trkpt>
<trkpt lat="48.492735" lon="2.639613"><ele></ele><time>2019-1-17T9:51:2Z</time></trkpt>
<trkpt lat="48.492667" lon="2.639713"><ele></ele><time>2019-1-17T9:51:5Z</time></trkpt>
<trkpt lat="48.492577" lon="2.639791"><ele></ele><time>2019-1-17T9:51:8Z</time></trkpt>
<trkpt lat="48.492479" lon="2.639927"><ele></ele><time>2019-1-17T9:51:11Z</time></trkpt>
<trkpt lat="48.492391" lon="2.640021"><ele></ele><time>2019-1-17T9:51:14Z</time></trkpt>
<trkpt lat="48.492306" lon="2.640076"><ele></ele><time>2019-1-17T9:51:17Z</time></trkpt>
<trkpt lat="48.492267" lon="2.640211"><ele></ele><time>2019-1-17T9:51:20Z</time></trkpt>
<trkpt lat="48.492174" lon="2.64031"><ele></ele><time>2019-1-17T9:51:23Z</time></trkpt>
<trkpt lat="48.492098" lon="2.640396"><ele></ele><time>2019-1-17T9:51:26Z</time></trkpt>
<trkpt lat="48.492015" lon="2.640486"><ele></ele><time>2019-1-17T9:51:29Z</time></trkpt>
<trkpt lat="48.491916" lon="2.640523"><ele></ele><time>2019-1-17T9:51:32Z</time></trkpt>
<trkpt lat="48.49186" lon="2.640655"><ele></ele><time>2019-1-17T9:51:35Z</time></trkpt>
<trkpt lat="48.491788" lon="2.640781"><ele></ele><time>2019-1-17T9:51:38Z</time></trkpt>
<trkpt lat="48.491705" lon="2.640886"><ele></ele><time>2019-1-17T9:51:41Z</time></trkpt>
<trkpt lat="48.491607" lon="2.64094"><ele></ele><time>2019-1-17T9:51:44Z</time></trkpt>
<trkpt lat="48.491519" lon="2.641023"><ele></ele><time>2019-1-17T9:51:47Z</time></trkpt>
<trkpt lat="48.491473" lon="2.641174"><ele></ele><time>2019-1-17T9:51:50Z</time></trkpt>
<trkpt lat="48.491414" lon="2.641302"><ele></ele><time>2019-1-17T9:51:53Z</time></trkpt>
<trkpt lat="48.491322" lon="2.641412"><ele></ele><time>2019-1-17T9:51:56Z</time></trkpt>
<trkpt lat="48.491215" lon="2.641494"><ele></ele><time>2019-1-17T9:51:59Z</time></trkpt>
<trkpt lat="48.491126" lon="2.641586"><ele></ele><time>2019-1-17T9:52:2Z</time></trkpt>
<trkpt lat="48.490998" lon="2.641711"><ele></ele><time>2019-1-17T9:52:5Z</time></trkpt>
<trkpt lat="48.490927" lon="2.641816"><ele></ele><time>2019-1-17T9:52:8Z</time></trkpt>
<trkpt lat="48.490833" lon="2.641938"><ele></ele><time>2019-1-17T9:52:11Z</time></trkpt>
<trkpt lat="48.490753" lon="2.642035"><ele></ele><time>2019-1-17T9:52:14Z</time></trkpt>
<trkpt lat="48.490641" lon="2.642143"><ele></ele><time>2019-1-17T9:52:17Z</time></trkpt>
<trkpt lat="48.490584" lon="2.642287"><ele></ele><time>2019-1-17T9:52:20Z</time></trkpt>
<trkpt lat="48.490504" lon="2.642398"><ele></ele><time>2019-1-17T9:52:23Z</time></trkpt>
<trkpt lat="48.490414" lon="2.642503"><ele></ele><time>2019-1-17T9:52:26Z</time></trkpt>
<trkpt lat="48.490298" lon="2.642593"><ele></ele><time>2019-1-17T9:52:29Z</time></trkpt>
<trkpt lat="48.490196" lon="2.642681"><ele></ele><time>2019-1-17T9:52:32Z</time></trkpt>
<trkpt lat="48.490105" lon="2.642769"><ele></ele><time>2019-1-17T9:52:35Z</time></trkpt>
<trkpt lat="48.490057" lon="2.642916"><ele></ele><time>2019-1-17T9:52:38Z</time></trkpt>
<trkpt lat="48.490016" lon="2.643052"><ele></ele><time>2019-1-17T9:52:41Z</time></trkpt>
<trkpt lat="48.489965" lon="2.643169"><ele></ele><time>2019-1-17T9:52:44Z</time></trkpt>
<trkpt lat="48.489843" lon="2.643297"><ele></ele><time>2019-1-17T9:52:47Z</time></trkpt>
<trkpt lat="48.489758" lon="2.643389"><ele></ele><time>2019-1-17T9:52:50Z</time></trkpt>
<trkpt lat="48.489675" lon="2.643453"><ele></ele><time>2019-1-17T9:52:53Z</time></trkpt>
<trkpt lat="48.489595" lon="2.643554"><ele></ele><time>2019-1-17T9:52:56Z</time></trkpt>
<trkpt lat="48.489516" lon="2.643719"><ele></ele><time>2019-1-17T9:52:59Z</time></trkpt>
<trkpt lat="48.489492" lon="2.64386"><ele></ele><time>2019-1-17T9:53:2Z</time></trkpt>
<trkpt lat="48.489477" lon="2.644044"><ele></ele><time>2019-1-17T9:53:5Z</time></trkpt>
<trkpt lat="48.489448" lon="2.64419"><ele></ele><time>2019-1-17T9:53:8Z</time></trkpt>
<trkpt lat="48.489389" lon="2.64437"><ele></ele><time>2019-1-17T9:53:11Z</time></trkpt>
<trkpt lat="48.489358" lon="2.644532"><ele></ele><time>2019-1-17T9:53:14Z</time></trkpt>
<trkpt lat="48.489322" lon="2.644669"><ele></ele><time>2019-1-17T9:53:17Z</time></trkpt>
<trkpt lat="48.489304" lon="2.644841"><ele></ele><time>2019-1-17T9:53:20Z</time></trkpt>
<trkpt lat="48.489229" lon="2.645025"><ele></ele><time>2019-1-17T9:53:23Z</time></trkpt>
<trkpt lat="48.489172" lon="2.645202"><ele></ele><time>2019-1-17T9:53:26Z</time></trkpt>
<trkpt lat="48.489148" lon="2.645345"><ele></ele><time>2019-1-17T9:53:29Z</time></trkpt>
<trkpt lat="48.489114" lon="2.645483"><ele></ele><time>2019-1-17T9:53:32Z</time></trkpt>
<trkpt lat="48.489085" lon="2.645707"><ele></ele><time>2019-1-17T9:53:35Z</time></trkpt>
<trkpt lat="48.489032" lon="2.645864"><ele></ele><time>2019-1-17T9:53:38Z</time></trkpt>
<trkpt lat="48.489006" lon="2.646032"><ele></ele><time>2019-1-17T9:53:41Z</time></trkpt>
<trkpt lat="48.488966" lon="2.646165"><ele></ele><time>2019-1-17T9:53:44Z</time></trkpt>
<trkpt lat="48.488932" lon="2.646304"><ele></ele><time>2019-1-17T9:53:47Z</time></trkpt>
<trkpt lat="48.488864" lon="2.646515"><ele></ele><time>2019-1-17T9:53:50Z</time></trkpt>
<trkpt lat="48.488797" lon="2.6467"><ele></ele><time>2019-1-17T9:53:53Z</time></trkpt>
<trkpt lat="48.488732" lon="2.646866"><ele></ele><time>2019-1-17T9:53:56Z</time></trkpt>
<trkpt lat="48.488662" lon="2.646969"><ele></ele><time>2019-1-17T9:53:59Z</time></trkpt>
<trkpt lat="48.488597" lon="2.647131"><ele></ele><time>2019-1-17T9:54:2Z</time></trkpt>
<trkpt lat="48.48854" lon="2.647265"><ele></ele><time>2019-1-17T9:54:5Z</time></trkpt>
<trkpt lat="48.488456" lon="2.64737"><ele></ele><time>2019-1-17T9:54:8Z</time></trkpt>
<trkpt lat="48.488386" lon="2.647495"><ele></ele><time>2019-1-17T9:54:11Z</time></trkpt>
<trkpt lat="48.488313" lon="2.647627"><ele></ele><time>2019-1-17T9:54:14Z</time></trkpt>
<trkpt lat="48.488239" lon="2.647768"><ele></ele><time>2019-1-17T9:54:17Z</time></trkpt>
<trkpt lat="48.48818" lon="2.647931"><ele></ele><time>2019-1-17T9:54:20Z</time></trkpt>
<trkpt lat="48.48811" lon="2.648052"><ele></ele><time>2019-1-17T9:54:23Z</time></trkpt>
<trkpt lat="48.488047" lon="2.648169"><ele></ele><time>2019-1-17T9:54:26Z</time></trkpt>
<trkpt lat="48.487997" lon="2.648288"><ele></ele><time>2019-1-17T9:54:29Z</time></trkpt>
<trkpt lat="48.487958" lon="2.648422"><ele></ele><time>2019-1-17T9:54:32Z</time></trkpt>
<trkpt lat="48.487932" lon="2.648607"><ele></ele><time>2019-1-17T9:54:35Z</time></trkpt>
<trkpt lat="48.487829" lon="2.648788"><ele></ele><time>2019-1-17T9:54:38Z</time></trkpt>
<trkpt lat="48.48775" lon="2.648877"><ele></ele><time>2019-1-17T9:54:41Z</time></trkpt>
<trkpt lat="48.487687" lon="2.648999"><ele></ele><time>2019-1-17T9:54:44Z</time></trkpt>
<trkpt lat="48.487617" lon="2.649143"><ele></ele><time>2019-1-17T9:54:47Z</time></trkpt>
<trkpt lat="48.487556" lon="2.649303"><ele></ele><time>2019-1-17T9:54:50Z</time></trkpt>
<trkpt lat="48.487471" lon="2.649432"><ele></ele><time>2019-1-17T9:54:53Z</time></trkpt>
<trkpt lat="48.487411" lon="2.649548"><ele></ele><time>2019-1-17T9:54:56Z</time></trkpt>
<trkpt lat="48.48734" lon="2.649685"><ele></ele><time>2019-1-17T9:54:59Z</time></trkpt>
<trkpt lat="48.487267" lon="2.64981"><ele></ele><time>2019-1-17T9:55:2Z</time></trkpt>
<trkpt lat="48.487198" lon="2.649934"><ele></ele><time>2019-1-17T9:55:5Z</time></trkpt>
<trkpt lat="48.487107" lon="2.650092"><ele></ele><time>2019-1-17T9:55:8Z</time></trkpt>
<trkpt lat="48.487026" lon="2.650205"><ele></ele><time>2019-1-17T9:55:11Z</time></trkpt>
<trkpt lat="48.486962" lon="2.650397"><ele></ele><time>2019-1-17T9:55:14Z</time></trkpt>
<trkpt lat="48.486888" lon="2.650546"><ele></ele><time>2019-1-17T9:55:17Z</time></trkpt>
<trkpt lat="48.486822" lon="2.650684"><ele></ele><time>2019-1-17T9:55:20Z</time></trkpt>
<trkpt lat="48.486764" lon="2.650817"><ele></ele><time>2019-1-17T9:55:23Z</time></trkpt>
<trkpt lat="48.486683" lon="2.650963"><ele></ele><time>2019-1-17T9:55:26Z</time></trkpt>
<trkpt lat="48.48661" lon="2.651122"><ele></ele><time>2019-1-17T9:55:29Z</time></trkpt>
<trkpt lat="48.486537" lon="2.651274"><ele></ele><time>2019-1-17T9:55:32Z</time></trkpt>
<trkpt lat="48.486459" lon="2.651419"><ele></ele><time>2019-1-17T9:55:35Z</time></trkpt>
<trkpt lat="48.486428" lon="2.651555"><ele></ele><time>2019-1-17T9:55:38Z</time></trkpt>
<trkpt lat="48.486354" lon="2.65173"><ele></ele><time>2019-1-17T9:55:41Z</time></trkpt>
<trkpt lat="48.486271" lon="2.651878"><ele></ele><time>2019-1-17T9:55:44Z</time></trkpt>
<trkpt lat="48.486215" lon="2.652008"><ele></ele><time>2019-1-17T9:55:47Z</time></trkpt>
<trkpt lat="48.48614" lon="2.652156"><ele></ele><time>2019-1-17T9:55:50Z</time></trkpt>
<trkpt lat="48.486081" lon="2.652276"><ele></ele><time>2019-1-17T9:55:53Z</time></trkpt>
<trkpt lat="48.485997" lon="2.652418"><ele></ele><time>2019-1-17T9:55:56Z</time></trkpt>
<trkpt lat="48.48595" lon="2.652556"><ele></ele><time>2019-1-17T9:55:59Z</time></trkpt>
<trkpt lat="48.485869" lon="2.65264"><ele></ele><time>2019-1-17T9:56:2Z</time></trkpt>
<trkpt lat="48.485807" lon="2.652796"><ele></ele><time>2019-1-17T9:56:5Z</time></trkpt>
<trkpt lat="48.485751" lon="2.652939"><ele></ele><time>2019-1-17T9:56:8Z</time></trkpt>
<trkpt lat="48.485691" lon="2.653071"><ele></ele><time>2019-1-17T9:56:11Z</time></trkpt>
<trkpt lat="48.485616" lon="2.653221"><ele></ele><time>2019-1-17T9:56:14Z</time></trkpt>
<trkpt lat="48.485538" lon="2.653382"><ele></ele><time>2019-1-17T9:56:17Z</time></trkpt>
<trkpt lat="48.485483" lon="2.653527"><ele></ele><time>2019-1-17T9:56:20Z</time></trkpt>
<trkpt lat="48.485444" lon="2.653715"><ele></ele><time>2019-1-17T9:56:23Z</time></trkpt>
<trkpt lat="48.485392" lon="2.653917"><ele></ele><time>2019-1-17T9:56:26Z</time></trkpt>
<trkpt lat="48.485367" lon="2.654066"><ele></ele><time>2019-1-17T9:56:29Z</time></trkpt>
<trkpt lat="48.485336" lon="2.654219"><ele></ele><time>2019-1-17T9:56:32Z</time></trkpt>
<trkpt lat="48.48534" lon="2.654409"><ele></ele><time>2019-1-17T9:56:35Z</time></trkpt>
<trkpt lat="48.485321" lon="2.654601"><ele></ele><time>2019-1-17T9:56:38Z</time></trkpt>
<trkpt lat="48.485315" lon="2.654753"><ele></ele><time>2019-1-17T9:56:41Z</time></trkpt>
<trkpt lat="48.485284" lon="2.654885"><ele></ele><time>2019-1-17T9:56:44Z</time></trkpt>
<trkpt lat="48.485296" lon="2.65506"><ele></ele><time>2019-1-17T9:56:47Z</time></trkpt>
<trkpt lat="48.485231" lon="2.65521"><ele></ele><time>2019-1-17T9:56:50Z</time></trkpt>
<trkpt lat="48.485199" lon="2.65535"><ele></ele><time>2019-1-17T9:56:53Z</time></trkpt>
<trkpt lat="48.485179" lon="2.655506"><ele></ele><time>2019-1-17T9:56:56Z</time></trkpt>
<trkpt lat="48.485186" lon="2.655649"><ele></ele><time>2019-1-17T9:56:59Z</time></trkpt>
<trkpt lat="48.485146" lon="2.655783"><ele></ele><time>2019-1-17T9:57:2Z</time></trkpt>
<trkpt lat="48.485138" lon="2.655944"><ele></ele><time>2019-1-17T9:57:5Z</time></trkpt>
<trkpt lat="48.4851" lon="2.656106"><ele></ele><time>2019-1-17T9:57:8Z</time></trkpt>
<trkpt lat="48.485045" lon="2.656267"><ele></ele><time>2019-1-17T9:57:11Z</time></trkpt>
<trkpt lat="48.48505" lon="2.65642"><ele></ele><time>2019-1-17T9:57:14Z</time></trkpt>
<trkpt lat="48.485039" lon="2.656591"><ele></ele><time>2019-1-17T9:57:17Z</time></trkpt>
<trkpt lat="48.485017" lon="2.656766"><ele></ele><time>2019-1-17T9:57:20Z</time></trkpt>
<trkpt lat="48.485005" lon="2.656911"><ele></ele><time>2019-1-17T9:57:23Z</time></trkpt>
<trkpt lat="48.484971" lon="2.657138"><ele></ele><time>2019-1-17T9:57:26Z</time></trkpt>
<trkpt lat="48.484953" lon="2.657271"><ele></ele><time>2019-1-17T9:57:29Z</time></trkpt>
<trkpt lat="48.484917" lon="2.657463"><ele></ele><time>2019-1-17T9:57:32Z</time></trkpt>
<trkpt lat="48.484926" lon="2.657638"><ele></ele><time>2019-1-17T9:57:35Z</time></trkpt>
<trkpt lat="48.48492" lon="2.657779"><ele></ele><time>2019-1-17T9:57:38Z</time></trkpt>
<trkpt lat="48.48489" lon="2.65791"><ele></ele><time>2019-1-17T9:57:41Z</time></trkpt>
<trkpt lat="48.484856" lon="2.658062"><ele></ele><time>2019-1-17T9:57:44Z</time></trkpt>
<trkpt lat="48.484836" lon="2.658208"><ele></ele><time>2019-1-17T9:57:47Z</time></trkpt>
<trkpt lat="48.48482" lon="2.658403"><ele></ele><time>2019-1-17T9:57:50Z</time></trkpt>
<trkpt lat="48.484787" lon="2.658561"><ele></ele><time>2019-1-17T9:57:53Z</time></trkpt>
<trkpt lat="48.484759" lon="2.658699"><ele></ele><time>2019-1-17T9:57:56Z</time></trkpt>
<trkpt lat="48.48473" lon="2.658894"><ele></ele><time>2019-1-17T9:57:59Z</time></trkpt>
<trkpt lat="48.484717" lon="2.659031"><ele></ele><time>2019-1-17T9:58:2Z</time></trkpt>
<trkpt lat="48.484708" lon="2.659201"><ele></ele><time>2019-1-17T9:58:5Z</time></trkpt>
<trkpt lat="48.484674" lon="2.659365"><ele></ele><time>2019-1-17T9:58:8Z</time></trkpt>
<trkpt lat="48.484638" lon="2.659525"><ele></ele><time>2019-1-17T9:58:11Z</time></trkpt>
<trkpt lat="48.484594" lon="2.659662"><ele></ele><time>2019-1-17T9:58:14Z</time></trkpt>
<trkpt lat="48.484511" lon="2.6598"><ele></ele><time>2019-1-17T9:58:17Z</time></trkpt>
<trkpt lat="48.484513" lon="2.659966"><ele></ele><time>2019-1-17T9:58:20Z</time></trkpt>
<trkpt lat="48.484468" lon="2.660151"><ele></ele><time>2019-1-17T9:58:23Z</time></trkpt>
<trkpt lat="48.484443" lon="2.660367"><ele></ele><time>2019-1-17T9:58:26Z</time></trkpt>
<trkpt lat="48.48442" lon="2.660557"><ele></ele><time>2019-1-17T9:58:29Z</time></trkpt>
<trkpt lat="48.484378" lon="2.66075"><ele></ele><time>2019-1-17T9:58:32Z</time></trkpt>
<trkpt lat="48.484362" lon="2.660936"><ele></ele><time>2019-1-17T9:58:35Z</time></trkpt>
<trkpt lat="48.484319" lon="2.66106"><ele></ele><time>2019-1-17T9:58:38Z</time></trkpt>
<trkpt lat="48.484302" lon="2.661194"><ele></ele><time>2019-1-17T9:58:41Z</time></trkpt>
<trkpt lat="48.484289" lon="2.661335"><ele></ele><time>2019-1-17T9:58:44Z</time></trkpt>
<trkpt lat="48.484214" lon="2.661535"><ele></ele><time>2019-1-17T9:58:47Z</time></trkpt>
<trkpt lat="48.484153" lon="2.661674"><ele></ele><time>2019-1-17T9:58:50Z</time></trkpt>
<trkpt lat="48.48412" lon="2.661805"><ele></ele><time>2019-1-17T9:58:53Z</time></trkpt>
<trkpt lat="48.484085" lon="2.661932"><ele></ele><time>2019-1-17T9:58:56Z</time></trkpt>
<trkpt lat="48.484048" lon="2.662077"><ele></ele><time>2019-1-17T9:58:59Z</time></trkpt>
<trkpt lat="48.484023" lon="2.662214"><ele></ele><time>2019-1-17T9:59:2Z</time></trkpt>
<trkpt lat="48.483973" lon="2.662345"><ele></ele><time>2019-1-17T9:59:5Z</time></trkpt>
<trkpt lat="48.483949" lon="2.662486"><ele></ele><time>2019-1-17T9:59:8Z</time></trkpt>
<trkpt lat="48.4839" lon="2.662604"><ele></ele><time>2019-1-17T9:59:11Z</time></trkpt>
<trkpt lat="48.483879" lon="2.662738"><ele></ele><time>2019-1-17T9:59:14Z</time></trkpt>
<trkpt lat="48.483921" lon="2.662867"><ele></ele><time>2019-1-17T9:59:17Z</time></trkpt>
<trkpt lat="48.48386" lon="2.662973"><ele></ele><time>2019-1-17T9:59:20Z</time></trkpt>
<trkpt lat="48.483793" lon="2.663081"><ele></ele><time>2019-1-17T9:59:23Z</time></trkpt>
<trkpt lat="48.483735" lon="2.663219"><ele></ele><time>2019-1-17T9:59:26Z</time></trkpt>
<trkpt lat="48.483705" lon="2.663365"><ele></ele><time>2019-1-17T9:59:29Z</time></trkpt>
<trkpt lat="48.483697" lon="2.663524"><ele></ele><time>2019-1-17T9:59:32Z</time></trkpt>
<trkpt lat="48.483665" lon="2.663651"><ele></ele><time>2019-1-17T9:59:35Z</time></trkpt>
<trkpt lat="48.483642" lon="2.663804"><ele></ele><time>2019-1-17T9:59:38Z</time></trkpt>
<trkpt lat="48.483603" lon="2.663964"><ele></ele><time>2019-1-17T9:59:41Z</time></trkpt>
<trkpt lat="48.48357" lon="2.664144"><ele></ele><time>2019-1-17T9:59:44Z</time></trkpt>
<trkpt lat="48.483547" lon="2.66433"><ele></ele><time>2019-1-17T9:59:47Z</time></trkpt>
<trkpt lat="48.483508" lon="2.664466"><ele></ele><time>2019-1-17T9:59:50Z</time></trkpt>
<trkpt lat="48.483474" lon="2.664634"><ele></ele><time>2019-1-17T9:59:53Z</time></trkpt>
<trkpt lat="48.483445" lon="2.664816"><ele></ele><time>2019-1-17T9:59:56Z</time></trkpt>
<trkpt lat="48.483388" lon="2.664969"><ele></ele><time>2019-1-17T9:59:59Z</time></trkpt>
<trkpt lat="48.483312" lon="2.665077"><ele></ele><time>2019-1-17T10:0:2Z</time></trkpt>
<trkpt lat="48.483221" lon="2.665086"><ele></ele><time>2019-1-17T10:0:5Z</time></trkpt>
<trkpt lat="48.483128" lon="2.665072"><ele></ele><time>2019-1-17T10:0:8Z</time></trkpt>
<trkpt lat="48.483008" lon="2.665056"><ele></ele><time>2019-1-17T10:0:11Z</time></trkpt>
<trkpt lat="48.48291" lon="2.665016"><ele></ele><time>2019-1-17T10:0:14Z</time></trkpt>
<trkpt lat="48.482797" lon="2.664959"><ele></ele><time>2019-1-17T10:0:17Z</time></trkpt>
<trkpt lat="48.482753" lon="2.66476"><ele></ele><time>2019-1-17T10:0:20Z</time></trkpt>
<trkpt lat="48.482707" lon="2.664643"><ele></ele><time>2019-1-17T10:0:23Z</time></trkpt>
<trkpt lat="48.482679" lon="2.664479"><ele></ele><time>2019-1-17T10:0:26Z</time></trkpt>
<trkpt lat="48.482626" lon="2.664302"><ele></ele><time>2019-1-17T10:0:29Z</time></trkpt>
<trkpt lat="48.482643" lon="2.66416"><ele></ele><time>2019-1-17T10:0:32Z</time></trkpt>
<trkpt lat="48.482621" lon="2.664013"><ele></ele><time>2019-1-17T10:0:35Z</time></trkpt>
<trkpt lat="48.482666" lon="2.663829"><ele></ele><time>2019-1-17T10:0:38Z</time></trkpt>
<trkpt lat="48.482611" lon="2.66367"><ele></ele><time>2019-1-17T10:0:41Z</time></trkpt>
<trkpt lat="48.482584" lon="2.66348"><ele></ele><time>2019-1-17T10:0:44Z</time></trkpt>
<trkpt lat="48.482513" lon="2.66324"><ele></ele><time>2019-1-17T10:0:47Z</time></trkpt>
<trkpt lat="48.482477" lon="2.663084"><ele></ele><time>2019-1-17T10:0:50Z</time></trkpt>
<trkpt lat="48.482448" lon="2.662928"><ele></ele><time>2019-1-17T10:0:53Z</time></trkpt>
<trkpt lat="48.482395" lon="2.662817"><ele></ele><time>2019-1-17T10:0:56Z</time></trkpt>
<trkpt lat="48.48238" lon="2.662659"><ele></ele><time>2019-1-17T10:0:59Z</time></trkpt>
<trkpt lat="48.482314" lon="2.662551"><ele></ele><time>2019-1-17T10:1:2Z</time></trkpt>
<trkpt lat="48.48226" lon="2.662434"><ele></ele><time>2019-1-17T10:1:5Z</time></trkpt>
<trkpt lat="48.482217" lon="2.662203"><ele></ele><time>2019-1-17T10:1:8Z</time></trkpt>
<trkpt lat="48.482119" lon="2.662061"><ele></ele><time>2019-1-17T10:1:11Z</time></trkpt>
<trkpt lat="48.482038" lon="2.661935"><ele></ele><time>2019-1-17T10:1:14Z</time></trkpt>
<trkpt lat="48.481991" lon="2.661792"><ele></ele><time>2019-1-17T10:1:17Z</time></trkpt>
<trkpt lat="48.481911" lon="2.66164"><ele></ele><time>2019-1-17T10:1:20Z</time></trkpt>
<trkpt lat="48.481834" lon="2.661439"><ele></ele><time>2019-1-17T10:1:23Z</time></trkpt>
<trkpt lat="48.48173" lon="2.661196"><ele></ele><time>2019-1-17T10:1:26Z</time></trkpt>
<trkpt lat="48.481689" lon="2.661042"><ele></ele><time>2019-1-17T10:1:29Z</time></trkpt>
<trkpt lat="48.481614" lon="2.660916"><ele></ele><time>2019-1-17T10:1:32Z</time></trkpt>
<trkpt lat="48.481508" lon="2.660773"><ele></ele><time>2019-1-17T10:1:35Z</time></trkpt>
<trkpt lat="48.481531" lon="2.660626"><ele></ele><time>2019-1-17T10:1:38Z</time></trkpt>
<trkpt lat="48.481501" lon="2.660453"><ele></ele><time>2019-1-17T10:1:41Z</time></trkpt>
<trkpt lat="48.481428" lon="2.660278"><ele></ele><time>2019-1-17T10:1:44Z</time></trkpt>
<trkpt lat="48.481392" lon="2.660152"><ele></ele><time>2019-1-17T10:1:47Z</time></trkpt>
<trkpt lat="48.481318" lon="2.659963"><ele></ele><time>2019-1-17T10:1:50Z</time></trkpt>
<trkpt lat="48.481256" lon="2.659744"><ele></ele><time>2019-1-17T10:1:53Z</time></trkpt>
<trkpt lat="48.481305" lon="2.659627"><ele></ele><time>2019-1-17T10:1:56Z</time></trkpt>
<trkpt lat="48.4813" lon="2.659449"><ele></ele><time>2019-1-17T10:1:59Z</time></trkpt>
<trkpt lat="48.481259" lon="2.659304"><ele></ele><time>2019-1-17T10:2:2Z</time></trkpt>
<trkpt lat="48.481323" lon="2.659162"><ele></ele><time>2019-1-17T10:2:5Z</time></trkpt>
<trkpt lat="48.481352" lon="2.658979"><ele></ele><time>2019-1-17T10:2:8Z</time></trkpt>
<trkpt lat="48.481351" lon="2.658816"><ele></ele><time>2019-1-17T10:2:11Z</time></trkpt>
<trkpt lat="48.481294" lon="2.658648"><ele></ele><time>2019-1-17T10:2:14Z</time></trkpt>
<trkpt lat="48.481204" lon="2.658393"><ele></ele><time>2019-1-17T10:2:17Z</time></trkpt>
<trkpt lat="48.481097" lon="2.658254"><ele></ele><time>2019-1-17T10:2:20Z</time></trkpt>
<trkpt lat="48.480993" lon="2.658106"><ele></ele><time>2019-1-17T10:2:23Z</time></trkpt>
<trkpt lat="48.480979" lon="2.657947"><ele></ele><time>2019-1-17T10:2:26Z</time></trkpt>
<trkpt lat="48.480927" lon="2.65782"><ele></ele><time>2019-1-17T10:2:29Z</time></trkpt>
<trkpt lat="48.480856" lon="2.657703"><ele></ele><time>2019-1-17T10:2:32Z</time></trkpt>
<trkpt lat="48.480784" lon="2.657558"><ele></ele><time>2019-1-17T10:2:35Z</time></trkpt>
<trkpt lat="48.48068" lon="2.657375"><ele></ele><time>2019-1-17T10:2:38Z</time></trkpt>
<trkpt lat="48.480611" lon="2.657217"><ele></ele><time>2019-1-17T10:2:41Z</time></trkpt>
<trkpt lat="48.480582" lon="2.657076"><ele></ele><time>2019-1-17T10:2:44Z</time></trkpt>
<trkpt lat="48.480481" lon="2.656882"><ele></ele><time>2019-1-17T10:2:47Z</time></trkpt>
<trkpt lat="48.48035" lon="2.656635"><ele></ele><time>2019-1-17T10:2:50Z</time></trkpt>
<trkpt lat="48.480287" lon="2.656536"><ele></ele><time>2019-1-17T10:2:53Z</time></trkpt>
<trkpt lat="48.480207" lon="2.656391"><ele></ele><time>2019-1-17T10:2:56Z</time></trkpt>
<trkpt lat="48.480152" lon="2.656264"><ele></ele><time>2019-1-17T10:2:59Z</time></trkpt>
<trkpt lat="48.480076" lon="2.656131"><ele></ele><time>2019-1-17T10:3:2Z</time></trkpt>
<trkpt lat="48.479992" lon="2.655994"><ele></ele><time>2019-1-17T10:3:5Z</time></trkpt>
<trkpt lat="48.479967" lon="2.655862"><ele></ele><time>2019-1-17T10:3:8Z</time></trkpt>
<trkpt lat="48.479945" lon="2.655709"><ele></ele><time>2019-1-17T10:3:11Z</time></trkpt>
<trkpt lat="48.479892" lon="2.655527"><ele></ele><time>2019-1-17T10:3:14Z</time></trkpt>
<trkpt lat="48.479833" lon="2.655355"><ele></ele><time>2019-1-17T10:3:17Z</time></trkpt>
<trkpt lat="48.479777" lon="2.655131"><ele></ele><time>2019-1-17T10:3:20Z</time></trkpt>
<trkpt lat="48.479735" lon="2.654868"><ele></ele><time>2019-1-17T10:3:23Z</time></trkpt>
<trkpt lat="48.479642" lon="2.654691"><ele></ele><time>2019-1-17T10:3:26Z</time></trkpt>
<trkpt lat="48.479568" lon="2.654514"><ele></ele><time>2019-1-17T10:3:29Z</time></trkpt>
<trkpt lat="48.479493" lon="2.654345"><ele></ele><time>2019-1-17T10:3:32Z</time></trkpt>
<trkpt lat="48.479448" lon="2.654176"><ele></ele><time>2019-1-17T10:3:35Z</time></trkpt>
<trkpt lat="48.479357" lon="2.654109"><ele></ele><time>2019-1-17T10:3:38Z</time></trkpt>
<trkpt lat="48.479323" lon="2.653971"><ele></ele><time>2019-1-17T10:3:41Z</time></trkpt>
<trkpt lat="48.479264" lon="2.653824"><ele></ele><time>2019-1-17T10:3:44Z</time></trkpt>
<trkpt lat="48.479197" lon="2.653687"><ele></ele><time>2019-1-17T10:3:47Z</time></trkpt>
<trkpt lat="48.479223" lon="2.653495"><ele></ele><time>2019-1-17T10:3:50Z</time></trkpt>
<trkpt lat="48.479201" lon="2.653327"><ele></ele><time>2019-1-17T10:3:53Z</time></trkpt>
<trkpt lat="48.479161" lon="2.653154"><ele></ele><time>2019-1-17T10:3:56Z</time></trkpt>
<trkpt lat="48.479095" lon="2.653003"><ele></ele><time>2019-1-17T10:3:59Z</time></trkpt>
<trkpt lat="48.479092" lon="2.652838"><ele></ele><time>2019-1-17T10:4:2Z</time></trkpt>
<trkpt lat="48.479105" lon="2.652679"><ele></ele><time>2019-1-17T10:4:5Z</time></trkpt>
<trkpt lat="48.47902" lon="2.65261"><ele></ele><time>2019-1-17T10:4:8Z</time></trkpt>
<trkpt lat="48.478918" lon="2.652558"><ele></ele><time>2019-1-17T10:4:11Z</time></trkpt>
<trkpt lat="48.478842" lon="2.652413"><ele></ele><time>2019-1-17T10:4:14Z</time></trkpt>
<trkpt lat="48.478727" lon="2.652334"><ele></ele><time>2019-1-17T10:4:17Z</time></trkpt>
<trkpt lat="48.478637" lon="2.652317"><ele></ele><time>2019-1-17T10:4:20Z</time></trkpt>
<trkpt lat="48.47853" lon="2.652392"><ele></ele><time>2019-1-17T10:4:23Z</time></trkpt>
<trkpt lat="48.478425" lon="2.652451"><ele></ele><time>2019-1-17T10:4:26Z</time></trkpt>
<trkpt lat="48.478312" lon="2.652577"><ele></ele><time>2019-1-17T10:4:29Z</time></trkpt>
<trkpt lat="48.47821" lon="2.652673"><ele></ele><time>2019-1-17T10:4:32Z</time></trkpt>
<trkpt lat="48.478135" lon="2.652797"><ele></ele><time>2019-1-17T10:4:35Z</time></trkpt>
<trkpt lat="48.478062" lon="2.652926"><ele></ele><time>2019-1-17T10:4:38Z</time></trkpt>
<trkpt lat="48.477995" lon="2.653042"><ele></ele><time>2019-1-17T10:4:41Z</time></trkpt>
<trkpt lat="48.477875" lon="2.653102"><ele></ele><time>2019-1-17T10:4:44Z</time></trkpt>
<trkpt lat="48.47779" lon="2.653172"><ele></ele><time>2019-1-17T10:4:47Z</time></trkpt>
<trkpt lat="48.477665" lon="2.653209"><ele></ele><time>2019-1-17T10:4:50Z</time></trkpt>
<trkpt lat="48.477571" lon="2.653252"><ele></ele><time>2019-1-17T10:4:53Z</time></trkpt>
<trkpt lat="48.477464" lon="2.653368"><ele></ele><time>2019-1-17T10:4:56Z</time></trkpt>
<trkpt lat="48.477362" lon="2.653424"><ele></ele><time>2019-1-17T10:4:59Z</time></trkpt>
<trkpt lat="48.477256" lon="2.653521"><ele></ele><time>2019-1-17T10:5:2Z</time></trkpt>
<trkpt lat="48.477139" lon="2.653627"><ele></ele><time>2019-1-17T10:5:5Z</time></trkpt>
<trkpt lat="48.477074" lon="2.653738"><ele></ele><time>2019-1-17T10:5:8Z</time></trkpt>
<trkpt lat="48.476975" lon="2.653855"><ele></ele><time>2019-1-17T10:5:11Z</time></trkpt>
<trkpt lat="48.476873" lon="2.65395"><ele></ele><time>2019-1-17T10:5:14Z</time></trkpt>
<trkpt lat="48.476793" lon="2.654021"><ele></ele><time>2019-1-17T10:5:17Z</time></trkpt>
<trkpt lat="48.476693" lon="2.654131"><ele></ele><time>2019-1-17T10:5:20Z</time></trkpt>
<trkpt lat="48.476572" lon="2.654244"><ele></ele><time>2019-1-17T10:5:23Z</time></trkpt>
<trkpt lat="48.476476" lon="2.654294"><ele></ele><time>2019-1-17T10:5:26Z</time></trkpt>
<trkpt lat="48.476344" lon="2.654373"><ele></ele><time>2019-1-17T10:5:29Z</time></trkpt>
<trkpt lat="48.476208" lon="2.654438"><ele></ele><time>2019-1-17T10:5:32Z</time></trkpt>
<trkpt lat="48.476123" lon="2.654502"><ele></ele><time>2019-1-17T10:5:35Z</time></trkpt>
<trkpt lat="48.476035" lon="2.654632"><ele></ele><time>2019-1-17T10:5:38Z</time></trkpt>
<trkpt lat="48.475975" lon="2.654736"><ele></ele><time>2019-1-17T10:5:41Z</time></trkpt>
<trkpt lat="48.475858" lon="2.654835"><ele></ele><time>2019-1-17T10:5:44Z</time></trkpt>
<trkpt lat="48.47576" lon="2.654944"><ele></ele><time>2019-1-17T10:5:47Z</time></trkpt>
<trkpt lat="48.47566" lon="2.655058"><ele></ele><time>2019-1-17T10:5:50Z</time></trkpt>
<trkpt lat="48.475509" lon="2.655109"><ele></ele><time>2019-1-17T10:5:53Z</time></trkpt>
<trkpt lat="48.475424" lon="2.655159"><ele></ele><time>2019-1-17T10:5:56Z</time></trkpt>
<trkpt lat="48.475298" lon="2.655261"><ele></ele><time>2019-1-17T10:5:59Z</time></trkpt>
<trkpt lat="48.475218" lon="2.65534"><ele></ele><time>2019-1-17T10:6:2Z</time></trkpt>
<trkpt lat="48.475124" lon="2.655428"><ele></ele><time>2019-1-17T10:6:5Z</time></trkpt>
<trkpt lat="48.47504" lon="2.655514"><ele></ele><time>2019-1-17T10:6:8Z</time></trkpt>
<trkpt lat="48.47484" lon="2.655669"><ele></ele><time>2019-1-17T10:6:11Z</time></trkpt>
<trkpt lat="48.474736" lon="2.655724"><ele></ele><time>2019-1-17T10:6:14Z</time></trkpt>
<trkpt lat="48.474622" lon="2.655849"><ele></ele><time>2019-1-17T10:6:17Z</time></trkpt>
<trkpt lat="48.474533" lon="2.655931"><ele></ele><time>2019-1-17T10:6:20Z</time></trkpt>
<trkpt lat="48.474428" lon="2.656057"><ele></ele><time>2019-1-17T10:6:23Z</time></trkpt>
<trkpt lat="48.474357" lon="2.656191"><ele></ele><time>2019-1-17T10:6:26Z</time></trkpt>
<trkpt lat="48.474218" lon="2.656331"><ele></ele><time>2019-1-17T10:6:29Z</time></trkpt>
<trkpt lat="48.474094" lon="2.656325"><ele></ele><time>2019-1-17T10:6:32Z</time></trkpt>
<trkpt lat="48.473986" lon="2.656407"><ele></ele><time>2019-1-17T10:6:35Z</time></trkpt>
<trkpt lat="48.473905" lon="2.656495"><ele></ele><time>2019-1-17T10:6:38Z</time></trkpt>
<trkpt lat="48.473818" lon="2.656567"><ele></ele><time>2019-1-17T10:6:41Z</time></trkpt>
<trkpt lat="48.47373" lon="2.656645"><ele></ele><time>2019-1-17T10:6:44Z</time></trkpt>
<trkpt lat="48.473577" lon="2.656753"><ele></ele><time>2019-1-17T10:6:47Z</time></trkpt>
<trkpt lat="48.473475" lon="2.656885"><ele></ele><time>2019-1-17T10:6:50Z</time></trkpt>
<trkpt lat="48.473359" lon="2.656947"><ele></ele><time>2019-1-17T10:6:53Z</time></trkpt>
<trkpt lat="48.47327" lon="2.656989"><ele></ele><time>2019-1-17T10:6:56Z</time></trkpt>
<trkpt lat="48.473172" lon="2.657071"><ele></ele><time>2019-1-17T10:6:59Z</time></trkpt>
<trkpt lat="48.473086" lon="2.657169"><ele></ele><time>2019-1-17T10:7:2Z</time></trkpt>
<trkpt lat="48.473018" lon="2.657261"><ele></ele><time>2019-1-17T10:7:5Z</time></trkpt>
<trkpt lat="48.472908" lon="2.657328"><ele></ele><time>2019-1-17T10:7:8Z</time></trkpt>
<trkpt lat="48.472838" lon="2.657429"><ele></ele><time>2019-1-17T10:7:11Z</time></trkpt>
<trkpt lat="48.472733" lon="2.657506"><ele></ele><time>2019-1-17T10:7:14Z</time></trkpt>
<trkpt lat="48.472644" lon="2.65759"><ele></ele><time>2019-1-17T10:7:17Z</time></trkpt>
<trkpt lat="48.472512" lon="2.657688"><ele></ele><time>2019-1-17T10:7:20Z</time></trkpt>
<trkpt lat="48.472405" lon="2.657738"><ele></ele><time>2019-1-17T10:7:23Z</time></trkpt>
<trkpt lat="48.472308" lon="2.657835"><ele></ele><time>2019-1-17T10:7:26Z</time></trkpt>
<trkpt lat="48.47219" lon="2.657942"><ele></ele><time>2019-1-17T10:7:29Z</time></trkpt>
<trkpt lat="48.472101" lon="2.657963"><ele></ele><time>2019-1-17T10:7:32Z</time></trkpt>
<trkpt lat="48.471969" lon="2.658021"><ele></ele><time>2019-1-17T10:7:35Z</time></trkpt>
<trkpt lat="48.471874" lon="2.658069"><ele></ele><time>2019-1-17T10:7:38Z</time></trkpt>
<trkpt lat="48.471829" lon="2.658227"><ele></ele><time>2019-1-17T10:7:41Z</time></trkpt>
<trkpt lat="48.471726" lon="2.658325"><ele></ele><time>2019-1-17T10:7:44Z</time></trkpt>
<trkpt lat="48.471617" lon="2.658452"><ele></ele><time>2019-1-17T10:7:47Z</time></trkpt>
<trkpt lat="48.471537" lon="2.65852"><ele></ele><time>2019-1-17T10:7:50Z</time></trkpt>
<trkpt lat="48.471459" lon="2.658613"><ele></ele><time>2019-1-17T10:7:53Z</time></trkpt>
<trkpt lat="48.471376" lon="2.658683"><ele></ele><time>2019-1-17T10:7:56Z</time></trkpt>
<trkpt lat="48.471272" lon="2.658813"><ele></ele><time>2019-1-17T10:7:59Z</time></trkpt>
<trkpt lat="48.471138" lon="2.658874"><ele></ele><time>2019-1-17T10:8:2Z</time></trkpt>
<trkpt lat="48.471054" lon="2.658926"><ele></ele><time>2019-1-17T10:8:5Z</time></trkpt>
<trkpt lat="48.470959" lon="2.658946"><ele></ele><time>2019-1-17T10:8:8Z</time></trkpt>
<trkpt lat="48.470819" lon="2.658909"><ele></ele><time>2019-1-17T10:8:11Z</time></trkpt>
<trkpt lat="48.470746" lon="2.658798"><ele></ele><time>2019-1-17T10:8:14Z</time></trkpt>
<trkpt lat="48.470654" lon="2.658826"><ele></ele><time>2019-1-17T10:8:17Z</time></trkpt>
<trkpt lat="48.470499" lon="2.658853"><ele></ele><time>2019-1-17T10:8:20Z</time></trkpt>
<trkpt lat="48.470363" lon="2.658751"><ele></ele><time>2019-1-17T10:8:23Z</time></trkpt>
<trkpt lat="48.470256" lon="2.658739"><ele></ele><time>2019-1-17T10:8:26Z</time></trkpt>
<trkpt lat="48.470139" lon="2.658693"><ele></ele><time>2019-1-17T10:8:29Z</time></trkpt>
<trkpt lat="48.470022" lon="2.658699"><ele></ele><time>2019-1-17T10:8:32Z</time></trkpt>
<trkpt lat="48.469873" lon="2.65868"><ele></ele><time>2019-1-17T10:8:35Z</time></trkpt>
<trkpt lat="48.469746" lon="2.658659"><ele></ele><time>2019-1-17T10:8:38Z</time></trkpt>
<trkpt lat="48.469604" lon="2.658664"><ele></ele><time>2019-1-17T10:8:41Z</time></trkpt>
<trkpt lat="48.469484" lon="2.658661"><ele></ele><time>2019-1-17T10:8:44Z</time></trkpt>
<trkpt lat="48.46934" lon="2.658655"><ele></ele><time>2019-1-17T10:8:47Z</time></trkpt>
<trkpt lat="48.469242" lon="2.658661"><ele></ele><time>2019-1-17T10:8:50Z</time></trkpt>
<trkpt lat="48.469114" lon="2.658636"><ele></ele><time>2019-1-17T10:8:53Z</time></trkpt>
<trkpt lat="48.469006" lon="2.658641"><ele></ele><time>2019-1-17T10:8:56Z</time></trkpt>
<trkpt lat="48.468885" lon="2.658591"><ele></ele><time>2019-1-17T10:8:59Z</time></trkpt>
<trkpt lat="48.468774" lon="2.658598"><ele></ele><time>2019-1-17T10:9:2Z</time></trkpt>
<trkpt lat="48.468635" lon="2.658618"><ele></ele><time>2019-1-17T10:9:5Z</time></trkpt>
<trkpt lat="48.468504" lon="2.658597"><ele></ele><time>2019-1-17T10:9:8Z</time></trkpt>
<trkpt lat="48.468398" lon="2.658654"><ele></ele><time>2019-1-17T10:9:11Z</time></trkpt>
<trkpt lat="48.468297" lon="2.658675"><ele></ele><time>2019-1-17T10:9:14Z</time></trkpt>
<trkpt lat="48.468166" lon="2.658608"><ele></ele><time>2019-1-17T10:9:17Z</time></trkpt>
<trkpt lat="48.468079" lon="2.65855"><ele></ele><time>2019-1-17T10:9:20Z</time></trkpt>
<trkpt lat="48.467978" lon="2.65852"><ele></ele><time>2019-1-17T10:9:23Z</time></trkpt>
<trkpt lat="48.46785" lon="2.658552"><ele></ele><time>2019-1-17T10:9:26Z</time></trkpt>
<trkpt lat="48.467748" lon="2.658564"><ele></ele><time>2019-1-17T10:9:29Z</time></trkpt>
<trkpt lat="48.467659" lon="2.658532"><ele></ele><time>2019-1-17T10:9:32Z</time></trkpt>
<trkpt lat="48.46755" lon="2.658457"><ele></ele><time>2019-1-17T10:9:35Z</time></trkpt>
<trkpt lat="48.467417" lon="2.658478"><ele></ele><time>2019-1-17T10:9:38Z</time></trkpt>
<trkpt lat="48.467286" lon="2.658453"><ele></ele><time>2019-1-17T10:9:41Z</time></trkpt>
<trkpt lat="48.467142" lon="2.658466"><ele></ele><time>2019-1-17T10:9:44Z</time></trkpt>
<trkpt lat="48.467048" lon="2.658441"><ele></ele><time>2019-1-17T10:9:47Z</time></trkpt>
<trkpt lat="48.466931" lon="2.658456"><ele></ele><time>2019-1-17T10:9:50Z</time></trkpt>
<trkpt lat="48.466801" lon="2.658429"><ele></ele><time>2019-1-17T10:9:53Z</time></trkpt>
<trkpt lat="48.466684" lon="2.658411"><ele></ele><time>2019-1-17T10:9:56Z</time></trkpt>
<trkpt lat="48.466588" lon="2.658314"><ele></ele><time>2019-1-17T10:9:59Z</time></trkpt>
<trkpt lat="48.466459" lon="2.65831"><ele></ele><time>2019-1-17T10:10:2Z</time></trkpt>
<trkpt lat="48.466361" lon="2.658268"><ele></ele><time>2019-1-17T10:10:5Z</time></trkpt>
<trkpt lat="48.466232" lon="2.658304"><ele></ele><time>2019-1-17T10:10:8Z</time></trkpt>
<trkpt lat="48.466124" lon="2.658311"><ele></ele><time>2019-1-17T10:10:11Z</time></trkpt>
<trkpt lat="48.465941" lon="2.658225"><ele></ele><time>2019-1-17T10:10:14Z</time></trkpt>
<trkpt lat="48.465823" lon="2.658285"><ele></ele><time>2019-1-17T10:10:17Z</time></trkpt>
<trkpt lat="48.465707" lon="2.658311"><ele></ele><time>2019-1-17T10:10:20Z</time></trkpt>
<trkpt lat="48.465607" lon="2.658366"><ele></ele><time>2019-1-17T10:10:23Z</time></trkpt>
<trkpt lat="48.465546" lon="2.658494"><ele></ele><time>2019-1-17T10:10:26Z</time></trkpt>
<trkpt lat="48.465386" lon="2.658453"><ele></ele><time>2019-1-17T10:10:29Z</time></trkpt>
<trkpt lat="48.465273" lon="2.658412"><ele></ele><time>2019-1-17T10:10:32Z</time></trkpt>
<trkpt lat="48.465126" lon="2.658422"><ele></ele><time>2019-1-17T10:10:35Z</time></trkpt>
<trkpt lat="48.465016" lon="2.658432"><ele></ele><time>2019-1-17T10:10:38Z</time></trkpt>
<trkpt lat="48.464919" lon="2.658429"><ele></ele><time>2019-1-17T10:10:41Z</time></trkpt>
<trkpt lat="48.464826" lon="2.658464"><ele></ele><time>2019-1-17T10:10:44Z</time></trkpt>
<trkpt lat="48.46471" lon="2.65849"><ele></ele><time>2019-1-17T10:10:47Z</time></trkpt>
<trkpt lat="48.46462" lon="2.658449"><ele></ele><time>2019-1-17T10:10:50Z</time></trkpt>
<trkpt lat="48.464491" lon="2.658464"><ele></ele><time>2019-1-17T10:10:53Z</time></trkpt>
<trkpt lat="48.46437" lon="2.658492"><ele></ele><time>2019-1-17T10:10:56Z</time></trkpt>
<trkpt lat="48.464253" lon="2.658459"><ele></ele><time>2019-1-17T10:10:59Z</time></trkpt>
<trkpt lat="48.464125" lon="2.658546"><ele></ele><time>2019-1-17T10:11:2Z</time></trkpt>
<trkpt lat="48.464014" lon="2.65868"><ele></ele><time>2019-1-17T10:11:5Z</time></trkpt>
<trkpt lat="48.463929" lon="2.658791"><ele></ele><time>2019-1-17T10:11:8Z</time></trkpt>
<trkpt lat="48.463871" lon="2.658896"><ele></ele><time>2019-1-17T10:11:11Z</time></trkpt>
<trkpt lat="48.463759" lon="2.658957"><ele></ele><time>2019-1-17T10:11:14Z</time></trkpt>
<trkpt lat="48.463681" lon="2.659035"><ele></ele><time>2019-1-17T10:11:17Z</time></trkpt>
<trkpt lat="48.463588" lon="2.659097"><ele></ele><time>2019-1-17T10:11:20Z</time></trkpt>
<trkpt lat="48.463493" lon="2.659167"><ele></ele><time>2019-1-17T10:11:23Z</time></trkpt>
<trkpt lat="48.463415" lon="2.659244"><ele></ele><time>2019-1-17T10:11:26Z</time></trkpt>
<trkpt lat="48.463321" lon="2.659338"><ele></ele><time>2019-1-17T10:11:29Z</time></trkpt>
<trkpt lat="48.463238" lon="2.659422"><ele></ele><time>2019-1-17T10:11:32Z</time></trkpt>
<trkpt lat="48.463111" lon="2.659511"><ele></ele><time>2019-1-17T10:11:35Z</time></trkpt>
<trkpt lat="48.462998" lon="2.659611"><ele></ele><time>2019-1-17T10:11:38Z</time></trkpt>
<trkpt lat="48.462901" lon="2.659695"><ele></ele><time>2019-1-17T10:11:41Z</time></trkpt>
<trkpt lat="48.462814" lon="2.659793"><ele></ele><time>2019-1-17T10:11:44Z</time></trkpt>
<trkpt lat="48.462711" lon="2.659865"><ele></ele><time>2019-1-17T10:11:47Z</time></trkpt>
<trkpt lat="48.462628" lon="2.65992"><ele></ele><time>2019-1-17T10:11:50Z</time></trkpt>
<trkpt lat="48.462535" lon="2.660013"><ele></ele><time>2019-1-17T10:11:53Z</time></trkpt>
<trkpt lat="48.46244" lon="2.660083"><ele></ele><time>2019-1-17T10:11:56Z</time></trkpt>
<trkpt lat="48.462343" lon="2.660116"><ele></ele><time>2019-1-17T10:11:59Z</time></trkpt>
<trkpt lat="48.462275" lon="2.660263"><ele></ele><time>2019-1-17T10:12:2Z</time></trkpt>
<trkpt lat="48.462132" lon="2.660351"><ele></ele><time>2019-1-17T10:12:5Z</time></trkpt>
<trkpt lat="48.462009" lon="2.660372"><ele></ele><time>2019-1-17T10:12:8Z</time></trkpt>
<trkpt lat="48.461909" lon="2.660403"><ele></ele><time>2019-1-17T10:12:11Z</time></trkpt>
<trkpt lat="48.461798" lon="2.660493"><ele></ele><time>2019-1-17T10:12:14Z</time></trkpt>
<trkpt lat="48.461696" lon="2.660527"><ele></ele><time>2019-1-17T10:12:17Z</time></trkpt>
<trkpt lat="48.461594" lon="2.66054"><ele></ele><time>2019-1-17T10:12:20Z</time></trkpt>
<trkpt lat="48.461491" lon="2.660502"><ele></ele><time>2019-1-17T10:12:23Z</time></trkpt>
<trkpt lat="48.461395" lon="2.660482"><ele></ele><time>2019-1-17T10:12:26Z</time></trkpt>
<trkpt lat="48.461306" lon="2.660461"><ele></ele><time>2019-1-17T10:12:29Z</time></trkpt>
<trkpt lat="48.461221" lon="2.660363"><ele></ele><time>2019-1-17T10:12:32Z</time></trkpt>
<trkpt lat="48.46113" lon="2.660336"><ele></ele><time>2019-1-17T10:12:35Z</time></trkpt>
<trkpt lat="48.461038" lon="2.660373"><ele></ele><time>2019-1-17T10:12:38Z</time></trkpt>
<trkpt lat="48.460932" lon="2.660445"><ele></ele><time>2019-1-17T10:12:41Z</time></trkpt>
<trkpt lat="48.460825" lon="2.660537"><ele></ele><time>2019-1-17T10:12:44Z</time></trkpt>
<trkpt lat="48.460754" lon="2.660621"><ele></ele><time>2019-1-17T10:12:47Z</time></trkpt>
<trkpt lat="48.460672" lon="2.660694"><ele></ele><time>2019-1-17T10:12:50Z</time></trkpt>
<trkpt lat="48.460611" lon="2.66081"><ele></ele><time>2019-1-17T10:12:53Z</time></trkpt>
<trkpt lat="48.460581" lon="2.660939"><ele></ele><time>2019-1-17T10:12:56Z</time></trkpt>
<trkpt lat="48.460483" lon="2.661026"><ele></ele><time>2019-1-17T10:12:59Z</time></trkpt>
<trkpt lat="48.460361" lon="2.661088"><ele></ele><time>2019-1-17T10:13:2Z</time></trkpt>
<trkpt lat="48.460265" lon="2.661184"><ele></ele><time>2019-1-17T10:13:5Z</time></trkpt>
<trkpt lat="48.460145" lon="2.661239"><ele></ele><time>2019-1-17T10:13:8Z</time></trkpt>
<trkpt lat="48.460048" lon="2.661299"><ele></ele><time>2019-1-17T10:13:11Z</time></trkpt>
<trkpt lat="48.459914" lon="2.661379"><ele></ele><time>2019-1-17T10:13:14Z</time></trkpt>
<trkpt lat="48.459821" lon="2.661426"><ele></ele><time>2019-1-17T10:13:17Z</time></trkpt>
<trkpt lat="48.459703" lon="2.661468"><ele></ele><time>2019-1-17T10:13:20Z</time></trkpt>
<trkpt lat="48.459627" lon="2.661585"><ele></ele><time>2019-1-17T10:13:23Z</time></trkpt>
<trkpt lat="48.459646" lon="2.661744"><ele></ele><time>2019-1-17T10:13:26Z</time></trkpt>
<trkpt lat="48.459627" lon="2.661892"><ele></ele><time>2019-1-17T10:13:29Z</time></trkpt>
<trkpt lat="48.45964" lon="2.662062"><ele></ele><time>2019-1-17T10:13:32Z</time></trkpt>
<trkpt lat="48.459642" lon="2.662217"><ele></ele><time>2019-1-17T10:13:35Z</time></trkpt>
<trkpt lat="48.459634" lon="2.662425"><ele></ele><time>2019-1-17T10:13:38Z</time></trkpt>
<trkpt lat="48.459602" lon="2.662577"><ele></ele><time>2019-1-17T10:13:41Z</time></trkpt>
<trkpt lat="48.459559" lon="2.662711"><ele></ele><time>2019-1-17T10:13:44Z</time></trkpt>
<trkpt lat="48.459549" lon="2.662854"><ele></ele><time>2019-1-17T10:13:47Z</time></trkpt>
<trkpt lat="48.459471" lon="2.663025"><ele></ele><time>2019-1-17T10:13:50Z</time></trkpt>
<trkpt lat="48.459403" lon="2.663159"><ele></ele><time>2019-1-17T10:13:53Z</time></trkpt>
<trkpt lat="48.45934" lon="2.663286"><ele></ele><time>2019-1-17T10:13:56Z</time></trkpt>
<trkpt lat="48.459291" lon="2.663463"><ele></ele><time>2019-1-17T10:13:59Z</time></trkpt>
<trkpt lat="48.459221" lon="2.663592"><ele></ele><time>2019-1-17T10:14:2Z</time></trkpt>
<trkpt lat="48.459166" lon="2.663752"><ele></ele><time>2019-1-17T10:14:5Z</time></trkpt>
<trkpt lat="48.459132" lon="2.663892"><ele></ele><time>2019-1-17T10:14:8Z</time></trkpt>
<trkpt lat="48.459092" lon="2.664063"><ele></ele><time>2019-1-17T10:14:11Z</time></trkpt>
<trkpt lat="48.459044" lon="2.664219"><ele></ele><time>2019-1-17T10:14:14Z</time></trkpt>
<trkpt lat="48.459028" lon="2.664377"><ele></ele><time>2019-1-17T10:14:17Z</time></trkpt>
<trkpt lat="48.458985" lon="2.664544"><ele></ele><time>2019-1-17T10:14:20Z</time></trkpt>
<trkpt lat="48.458961" lon="2.664717"><ele></ele><time>2019-1-17T10:14:23Z</time></trkpt>
<trkpt lat="48.4589" lon="2.664828"><ele></ele><time>2019-1-17T10:14:26Z</time></trkpt>
<trkpt lat="48.458852" lon="2.664983"><ele></ele><time>2019-1-17T10:14:29Z</time></trkpt>
<trkpt lat="48.458805" lon="2.665129"><ele></ele><time>2019-1-17T10:14:32Z</time></trkpt>
<trkpt lat="48.458779" lon="2.665284"><ele></ele><time>2019-1-17T10:14:35Z</time></trkpt>
<trkpt lat="48.45873" lon="2.665421"><ele></ele><time>2019-1-17T10:14:38Z</time></trkpt>
<trkpt lat="48.458665" lon="2.665539"><ele></ele><time>2019-1-17T10:14:41Z</time></trkpt>
<trkpt lat="48.458614" lon="2.665706"><ele></ele><time>2019-1-17T10:14:44Z</time></trkpt>
<trkpt lat="48.458558" lon="2.66583"><ele></ele><time>2019-1-17T10:14:47Z</time></trkpt>
<trkpt lat="48.458529" lon="2.665982"><ele></ele><time>2019-1-17T10:14:50Z</time></trkpt>
<trkpt lat="48.458501" lon="2.666127"><ele></ele><time>2019-1-17T10:14:53Z</time></trkpt>
<trkpt lat="48.458456" lon="2.666261"><ele></ele><time>2019-1-17T10:14:56Z</time></trkpt>
<trkpt lat="48.458433" lon="2.666404"><ele></ele><time>2019-1-17T10:14:59Z</time></trkpt>
<trkpt lat="48.458401" lon="2.666536"><ele></ele><time>2019-1-17T10:15:2Z</time></trkpt>
<trkpt lat="48.458333" lon="2.666655"><ele></ele><time>2019-1-17T10:15:5Z</time></trkpt>
<trkpt lat="48.458275" lon="2.666778"><ele></ele><time>2019-1-17T10:15:8Z</time></trkpt>
<trkpt lat="48.458233" lon="2.666927"><ele></ele><time>2019-1-17T10:15:11Z</time></trkpt>
<trkpt lat="48.458205" lon="2.667057"><ele></ele><time>2019-1-17T10:15:14Z</time></trkpt>
<trkpt lat="48.458164" lon="2.667201"><ele></ele><time>2019-1-17T10:15:17Z</time></trkpt>
<trkpt lat="48.458126" lon="2.667361"><ele></ele><time>2019-1-17T10:15:20Z</time></trkpt>
<trkpt lat="48.458075" lon="2.667479"><ele></ele><time>2019-1-17T10:15:23Z</time></trkpt>
<trkpt lat="48.45801" lon="2.667645"><ele></ele><time>2019-1-17T10:15:26Z</time></trkpt>
<trkpt lat="48.457959" lon="2.667786"><ele></ele><time>2019-1-17T10:15:29Z</time></trkpt>
<trkpt lat="48.457915" lon="2.667993"><ele></ele><time>2019-1-17T10:15:32Z</time></trkpt>
<trkpt lat="48.457857" lon="2.668178"><ele></ele><time>2019-1-17T10:15:35Z</time></trkpt>
<trkpt lat="48.457788" lon="2.66833"><ele></ele><time>2019-1-17T10:15:38Z</time></trkpt>
<trkpt lat="48.45776" lon="2.668484"><ele></ele><time>2019-1-17T10:15:41Z</time></trkpt>
<trkpt lat="48.457712" lon="2.668666"><ele></ele><time>2019-1-17T10:15:44Z</time></trkpt>
<trkpt lat="48.457649" lon="2.668869"><ele></ele><time>2019-1-17T10:15:47Z</time></trkpt>
<trkpt lat="48.457578" lon="2.66899"><ele></ele><time>2019-1-17T10:15:50Z</time></trkpt>
<trkpt lat="48.457519" lon="2.669208"><ele></ele><time>2019-1-17T10:15:53Z</time></trkpt>
<trkpt lat="48.457544" lon="2.669364"><ele></ele><time>2019-1-17T10:15:56Z</time></trkpt>
<trkpt lat="48.457455" lon="2.669508"><ele></ele><time>2019-1-17T10:15:59Z</time></trkpt>
<trkpt lat="48.457426" lon="2.669637"><ele></ele><time>2019-1-17T10:16:2Z</time></trkpt>
<trkpt lat="48.457343" lon="2.669792"><ele></ele><time>2019-1-17T10:16:5Z</time></trkpt>
<trkpt lat="48.457205" lon="2.669813"><ele></ele><time>2019-1-17T10:16:8Z</time></trkpt>
<trkpt lat="48.45709" lon="2.669807"><ele></ele><time>2019-1-17T10:16:11Z</time></trkpt>
<trkpt lat="48.456997" lon="2.669797"><ele></ele><time>2019-1-17T10:16:14Z</time></trkpt>
<trkpt lat="48.456896" lon="2.669719"><ele></ele><time>2019-1-17T10:16:17Z</time></trkpt>
<trkpt lat="48.45681" lon="2.6696"><ele></ele><time>2019-1-17T10:16:20Z</time></trkpt>
<trkpt lat="48.456733" lon="2.669513"><ele></ele><time>2019-1-17T10:16:23Z</time></trkpt>
<trkpt lat="48.45666" lon="2.669372"><ele></ele><time>2019-1-17T10:16:26Z</time></trkpt>
<trkpt lat="48.45665" lon="2.669201"><ele></ele><time>2019-1-17T10:16:29Z</time></trkpt>
<trkpt lat="48.456688" lon="2.669074"><ele></ele><time>2019-1-17T10:16:32Z</time></trkpt>
<trkpt lat="48.456701" lon="2.668894"><ele></ele><time>2019-1-17T10:16:35Z</time></trkpt>
<trkpt lat="48.456558" lon="2.668865"><ele></ele><time>2019-1-17T10:16:38Z</time></trkpt>
<trkpt lat="48.456506" lon="2.668713"><ele></ele><time>2019-1-17T10:16:41Z</time></trkpt>
<trkpt lat="48.456524" lon="2.668572"><ele></ele><time>2019-1-17T10:16:44Z</time></trkpt>
<trkpt lat="48.456462" lon="2.668452"><ele></ele><time>2019-1-17T10:16:47Z</time></trkpt>
<trkpt lat="48.456484" lon="2.668319"><ele></ele><time>2019-1-17T10:16:50Z</time></trkpt>
<trkpt lat="48.456413" lon="2.668166"><ele></ele><time>2019-1-17T10:16:53Z</time></trkpt>
<trkpt lat="48.456334" lon="2.66801"><ele></ele><time>2019-1-17T10:16:56Z</time></trkpt>
<trkpt lat="48.456227" lon="2.667904"><ele></ele><time>2019-1-17T10:16:59Z</time></trkpt>
<trkpt lat="48.456264" lon="2.667751"><ele></ele><time>2019-1-17T10:17:2Z</time></trkpt>
<trkpt lat="48.456158" lon="2.667628"><ele></ele><time>2019-1-17T10:17:5Z</time></trkpt>
<trkpt lat="48.456071" lon="2.667427"><ele></ele><time>2019-1-17T10:17:8Z</time></trkpt>
<trkpt lat="48.45619" lon="2.667496"><ele></ele><time>2019-1-17T10:17:11Z</time></trkpt>
<trkpt lat="48.456129" lon="2.667394"><ele></ele><time>2019-1-17T10:17:14Z</time></trkpt>
<trkpt lat="48.456058" lon="2.667254"><ele></ele><time>2019-1-17T10:17:17Z</time></trkpt>
<trkpt lat="48.455919" lon="2.667182"><ele></ele><time>2019-1-17T10:17:20Z</time></trkpt>
<trkpt lat="48.455796" lon="2.667088"><ele></ele><time>2019-1-17T10:17:23Z</time></trkpt>
<trkpt lat="48.455676" lon="2.667054"><ele></ele><time>2019-1-17T10:17:26Z</time></trkpt>
<trkpt lat="48.455628" lon="2.666877"><ele></ele><time>2019-1-17T10:17:29Z</time></trkpt>
<trkpt lat="48.455728" lon="2.666822"><ele></ele><time>2019-1-17T10:17:32Z</time></trkpt>
<trkpt lat="48.455624" lon="2.666754"><ele></ele><time>2019-1-17T10:17:35Z</time></trkpt>
<trkpt lat="48.455533" lon="2.666667"><ele></ele><time>2019-1-17T10:17:38Z</time></trkpt>
<trkpt lat="48.455413" lon="2.666619"><ele></ele><time>2019-1-17T10:17:41Z</time></trkpt>
<trkpt lat="48.455318" lon="2.66657"><ele></ele><time>2019-1-17T10:17:44Z</time></trkpt>
<trkpt lat="48.455232" lon="2.666523"><ele></ele><time>2019-1-17T10:17:47Z</time></trkpt>
<trkpt lat="48.455141" lon="2.666438"><ele></ele><time>2019-1-17T10:17:50Z</time></trkpt>
<trkpt lat="48.455046" lon="2.666347"><ele></ele><time>2019-1-17T10:17:53Z</time></trkpt>
<trkpt lat="48.455093" lon="2.666217"><ele></ele><time>2019-1-17T10:17:56Z</time></trkpt>
<trkpt lat="48.45501" lon="2.666144"><ele></ele><time>2019-1-17T10:17:59Z</time></trkpt>
<trkpt lat="48.455035" lon="2.66601"><ele></ele><time>2019-1-17T10:18:2Z</time></trkpt>
<trkpt lat="48.455039" lon="2.665866"><ele></ele><time>2019-1-17T10:18:5Z</time></trkpt>
<trkpt lat="48.454986" lon="2.665741"><ele></ele><time>2019-1-17T10:18:8Z</time></trkpt>
<trkpt lat="48.454899" lon="2.665683"><ele></ele><time>2019-1-17T10:18:11Z</time></trkpt>
<trkpt lat="48.454848" lon="2.665564"><ele></ele><time>2019-1-17T10:18:14Z</time></trkpt>
<trkpt lat="48.454848" lon="2.665408"><ele></ele><time>2019-1-17T10:18:17Z</time></trkpt>
<trkpt lat="48.454907" lon="2.665287"><ele></ele><time>2019-1-17T10:18:20Z</time></trkpt>
<trkpt lat="48.454813" lon="2.665222"><ele></ele><time>2019-1-17T10:18:23Z</time></trkpt>
<trkpt lat="48.454753" lon="2.665115"><ele></ele><time>2019-1-17T10:18:26Z</time></trkpt>
<trkpt lat="48.454729" lon="2.664974"><ele></ele><time>2019-1-17T10:18:29Z</time></trkpt>
<trkpt lat="48.454674" lon="2.664843"><ele></ele><time>2019-1-17T10:18:32Z</time></trkpt>
<trkpt lat="48.454596" lon="2.66477"><ele></ele><time>2019-1-17T10:18:35Z</time></trkpt>
<trkpt lat="48.454507" lon="2.664668"><ele></ele><time>2019-1-17T10:18:38Z</time></trkpt>
<trkpt lat="48.454492" lon="2.664499"><ele></ele><time>2019-1-17T10:18:41Z</time></trkpt>
<trkpt lat="48.4544" lon="2.664457"><ele></ele><time>2019-1-17T10:18:44Z</time></trkpt>
<trkpt lat="48.454408" lon="2.664305"><ele></ele><time>2019-1-17T10:18:47Z</time></trkpt>
<trkpt lat="48.454297" lon="2.664239"><ele></ele><time>2019-1-17T10:18:50Z</time></trkpt>
<trkpt lat="48.454292" lon="2.664056"><ele></ele><time>2019-1-17T10:18:53Z</time></trkpt>
<trkpt lat="48.454277" lon="2.663913"><ele></ele><time>2019-1-17T10:18:56Z</time></trkpt>
<trkpt lat="48.454244" lon="2.663764"><ele></ele><time>2019-1-17T10:18:59Z</time></trkpt>
<trkpt lat="48.454194" lon="2.663643"><ele></ele><time>2019-1-17T10:19:2Z</time></trkpt>
<trkpt lat="48.4541" lon="2.663667"><ele></ele><time>2019-1-17T10:19:5Z</time></trkpt>
<trkpt lat="48.454088" lon="2.663532"><ele></ele><time>2019-1-17T10:19:8Z</time></trkpt>
<trkpt lat="48.454113" lon="2.663382"><ele></ele><time>2019-1-17T10:19:11Z</time></trkpt>
<trkpt lat="48.454064" lon="2.663265"><ele></ele><time>2019-1-17T10:19:14Z</time></trkpt>
<trkpt lat="48.454034" lon="2.663134"><ele></ele><time>2019-1-17T10:19:17Z</time></trkpt>
<trkpt lat="48.454051" lon="2.662967"><ele></ele><time>2019-1-17T10:19:20Z</time></trkpt>
<trkpt lat="48.453991" lon="2.662865"><ele></ele><time>2019-1-17T10:19:23Z</time></trkpt>
<trkpt lat="48.454005" lon="2.662714"><ele></ele><time>2019-1-17T10:19:26Z</time></trkpt>
<trkpt lat="48.453909" lon="2.662671"><ele></ele><time>2019-1-17T10:19:29Z</time></trkpt>
<trkpt lat="48.45382" lon="2.662631"><ele></ele><time>2019-1-17T10:19:32Z</time></trkpt>
<trkpt lat="48.453806" lon="2.66249"><ele></ele><time>2019-1-17T10:19:35Z</time></trkpt>
<trkpt lat="48.45373" lon="2.662403"><ele></ele><time>2019-1-17T10:19:38Z</time></trkpt>
<trkpt lat="48.453645" lon="2.662356"><ele></ele><time>2019-1-17T10:19:41Z</time></trkpt>
<trkpt lat="48.453645" lon="2.662204"><ele></ele><time>2019-1-17T10:19:44Z</time></trkpt>
<trkpt lat="48.453705" lon="2.662019"><ele></ele><time>2019-1-17T10:19:47Z</time></trkpt>
<trkpt lat="48.453809" lon="2.661951"><ele></ele><time>2019-1-17T10:19:50Z</time></trkpt>
<trkpt lat="48.45392" lon="2.662034"><ele></ele><time>2019-1-17T10:19:53Z</time></trkpt>
<trkpt lat="48.453978" lon="2.662149"><ele></ele><time>2019-1-17T10:19:56Z</time></trkpt>
<trkpt lat="48.454017" lon="2.662281"><ele></ele><time>2019-1-17T10:19:59Z</time></trkpt>
<trkpt lat="48.454073" lon="2.66243"><ele></ele><time>2019-1-17T10:20:2Z</time></trkpt>
<trkpt lat="48.454129" lon="2.662577"><ele></ele><time>2019-1-17T10:20:5Z</time></trkpt>
<trkpt lat="48.454167" lon="2.66275"><ele></ele><time>2019-1-17T10:20:8Z</time></trkpt>
<trkpt lat="48.454202" lon="2.662953"><ele></ele><time>2019-1-17T10:20:11Z</time></trkpt>
<trkpt lat="48.454318" lon="2.663064"><ele></ele><time>2019-1-17T10:20:14Z</time></trkpt>
<trkpt lat="48.454397" lon="2.663198"><ele></ele><time>2019-1-17T10:20:17Z</time></trkpt>
<trkpt lat="48.454434" lon="2.66334"><ele></ele><time>2019-1-17T10:20:20Z</time></trkpt>
<trkpt lat="48.454451" lon="2.663519"><ele></ele><time>2019-1-17T10:20:23Z</time></trkpt>
<trkpt lat="48.454511" lon="2.663627"><ele></ele><time>2019-1-17T10:20:26Z</time></trkpt>
<trkpt lat="48.454605" lon="2.663782"><ele></ele><time>2019-1-17T10:20:29Z</time></trkpt>
<trkpt lat="48.454671" lon="2.663912"><ele></ele><time>2019-1-17T10:20:32Z</time></trkpt>
<trkpt lat="48.454762" lon="2.66403"><ele></ele><time>2019-1-17T10:20:35Z</time></trkpt>
<trkpt lat="48.45481" lon="2.664164"><ele></ele><time>2019-1-17T10:20:38Z</time></trkpt>
<trkpt lat="48.454894" lon="2.66428"><ele></ele><time>2019-1-17T10:20:41Z</time></trkpt>
<trkpt lat="48.454927" lon="2.664469"><ele></ele><time>2019-1-17T10:20:44Z</time></trkpt>
<trkpt lat="48.45501" lon="2.664681"><ele></ele><time>2019-1-17T10:20:47Z</time></trkpt>
<trkpt lat="48.455134" lon="2.664808"><ele></ele><time>2019-1-17T10:20:50Z</time></trkpt>
<trkpt lat="48.455179" lon="2.664926"><ele></ele><time>2019-1-17T10:20:53Z</time></trkpt>
<trkpt lat="48.455257" lon="2.66506"><ele></ele><time>2019-1-17T10:20:56Z</time></trkpt>
<trkpt lat="48.455343" lon="2.665179"><ele></ele><time>2019-1-17T10:20:59Z</time></trkpt>
<trkpt lat="48.455381" lon="2.665316"><ele></ele><time>2019-1-17T10:21:2Z</time></trkpt>
<trkpt lat="48.455425" lon="2.665444"><ele></ele><time>2019-1-17T10:21:5Z</time></trkpt>
<trkpt lat="48.4555" lon="2.665551"><ele></ele><time>2019-1-17T10:21:8Z</time></trkpt>
<trkpt lat="48.455574" lon="2.665736"><ele></ele><time>2019-1-17T10:21:11Z</time></trkpt>
<trkpt lat="48.455669" lon="2.665802"><ele></ele><time>2019-1-17T10:21:14Z</time></trkpt>
<trkpt lat="48.455793" lon="2.665921"><ele></ele><time>2019-1-17T10:21:17Z</time></trkpt>
<trkpt lat="48.45593" lon="2.665944"><ele></ele><time>2019-1-17T10:21:20Z</time></trkpt>
<trkpt lat="48.456048" lon="2.666039"><ele></ele><time>2019-1-17T10:21:23Z</time></trkpt>
<trkpt lat="48.456166" lon="2.666107"><ele></ele><time>2019-1-17T10:21:26Z</time></trkpt>
<trkpt lat="48.456249" lon="2.666205"><ele></ele><time>2019-1-17T10:21:29Z</time></trkpt>
<trkpt lat="48.456317" lon="2.666313"><ele></ele><time>2019-1-17T10:21:32Z</time></trkpt>
<trkpt lat="48.456398" lon="2.66642"><ele></ele><time>2019-1-17T10:21:35Z</time></trkpt>
<trkpt lat="48.456521" lon="2.666608"><ele></ele><time>2019-1-17T10:21:38Z</time></trkpt>
<trkpt lat="48.456584" lon="2.666733"><ele></ele><time>2019-1-17T10:21:41Z</time></trkpt>
<trkpt lat="48.456665" lon="2.666928"><ele></ele><time>2019-1-17T10:21:44Z</time></trkpt>
<trkpt lat="48.456759" lon="2.666939"><ele></ele><time>2019-1-17T10:21:47Z</time></trkpt>
<trkpt lat="48.45682" lon="2.667068"><ele></ele><time>2019-1-17T10:21:50Z</time></trkpt>
<trkpt lat="48.456903" lon="2.667197"><ele></ele><time>2019-1-17T10:21:53Z</time></trkpt>
<trkpt lat="48.457011" lon="2.667249"><ele></ele><time>2019-1-17T10:21:56Z</time></trkpt>
<trkpt lat="48.457107" lon="2.667254"><ele></ele><time>2019-1-17T10:21:59Z</time></trkpt>
<trkpt lat="48.457182" lon="2.667175"><ele></ele><time>2019-1-17T10:22:2Z</time></trkpt>
<trkpt lat="48.457278" lon="2.667107"><ele></ele><time>2019-1-17T10:22:5Z</time></trkpt>
<trkpt lat="48.457341" lon="2.66698"><ele></ele><time>2019-1-17T10:22:8Z</time></trkpt>
<trkpt lat="48.45734" lon="2.666845"><ele></ele><time>2019-1-17T10:22:11Z</time></trkpt>
<trkpt lat="48.45735" lon="2.666668"><ele></ele><time>2019-1-17T10:22:14Z</time></trkpt>
<trkpt lat="48.457391" lon="2.66648"><ele></ele><time>2019-1-17T10:22:17Z</time></trkpt>
<trkpt lat="48.457441" lon="2.666318"><ele></ele><time>2019-1-17T10:22:20Z</time></trkpt>
<trkpt lat="48.457445" lon="2.666179"><ele></ele><time>2019-1-17T10:22:23Z</time></trkpt>
<trkpt lat="48.45743" lon="2.666025"><ele></ele><time>2019-1-17T10:22:26Z</time></trkpt>
<trkpt lat="48.457397" lon="2.665894"><ele></ele><time>2019-1-17T10:22:29Z</time></trkpt>
<trkpt lat="48.457352" lon="2.665753"><ele></ele><time>2019-1-17T10:22:32Z</time></trkpt>
<trkpt lat="48.457264" lon="2.665575"><ele></ele><time>2019-1-17T10:22:35Z</time></trkpt>
<trkpt lat="48.457174" lon="2.665454"><ele></ele><time>2019-1-17T10:22:38Z</time></trkpt>
<trkpt lat="48.457129" lon="2.665263"><ele></ele><time>2019-1-17T10:22:41Z</time></trkpt>
<trkpt lat="48.457086" lon="2.665059"><ele></ele><time>2019-1-17T10:22:44Z</time></trkpt>
<trkpt lat="48.457031" lon="2.664948"><ele></ele><time>2019-1-17T10:22:47Z</time></trkpt>
<trkpt lat="48.456981" lon="2.664735"><ele></ele><time>2019-1-17T10:22:50Z</time></trkpt>
<trkpt lat="48.456968" lon="2.664589"><ele></ele><time>2019-1-17T10:22:53Z</time></trkpt>
<trkpt lat="48.457003" lon="2.664404"><ele></ele><time>2019-1-17T10:22:56Z</time></trkpt>
<trkpt lat="48.45696" lon="2.664262"><ele></ele><time>2019-1-17T10:22:59Z</time></trkpt>
<trkpt lat="48.456957" lon="2.664092"><ele></ele><time>2019-1-17T10:23:2Z</time></trkpt>
<trkpt lat="48.456909" lon="2.663964"><ele></ele><time>2019-1-17T10:23:5Z</time></trkpt>
<trkpt lat="48.456898" lon="2.663819"><ele></ele><time>2019-1-17T10:23:8Z</time></trkpt>
<trkpt lat="48.456864" lon="2.66365"><ele></ele><time>2019-1-17T10:23:11Z</time></trkpt>
<trkpt lat="48.456864" lon="2.663493"><ele></ele><time>2019-1-17T10:23:14Z</time></trkpt>
<trkpt lat="48.456786" lon="2.663365"><ele></ele><time>2019-1-17T10:23:17Z</time></trkpt>
<trkpt lat="48.456744" lon="2.663145"><ele></ele><time>2019-1-17T10:23:20Z</time></trkpt>
<trkpt lat="48.456665" lon="2.663056"><ele></ele><time>2019-1-17T10:23:23Z</time></trkpt>
<trkpt lat="48.456632" lon="2.662907"><ele></ele><time>2019-1-17T10:23:26Z</time></trkpt>
<trkpt lat="48.456563" lon="2.6628"><ele></ele><time>2019-1-17T10:23:29Z</time></trkpt>
<trkpt lat="48.456519" lon="2.662654"><ele></ele><time>2019-1-17T10:23:32Z</time></trkpt>
<trkpt lat="48.456458" lon="2.662526"><ele></ele><time>2019-1-17T10:23:35Z</time></trkpt>
<trkpt lat="48.456428" lon="2.662369"><ele></ele><time>2019-1-17T10:23:38Z</time></trkpt>
<trkpt lat="48.456365" lon="2.662194"><ele></ele><time>2019-1-17T10:23:41Z</time></trkpt>
<trkpt lat="48.456295" lon="2.662034"><ele></ele><time>2019-1-17T10:23:44Z</time></trkpt>
<trkpt lat="48.456278" lon="2.66185"><ele></ele><time>2019-1-17T10:23:47Z</time></trkpt>
<trkpt lat="48.456248" lon="2.661698"><ele></ele><time>2019-1-17T10:23:50Z</time></trkpt>
<trkpt lat="48.456227" lon="2.661511"><ele></ele><time>2019-1-17T10:23:53Z</time></trkpt>
<trkpt lat="48.456151" lon="2.661397"><ele></ele><time>2019-1-17T10:23:56Z</time></trkpt>
<trkpt lat="48.456126" lon="2.661244"><ele></ele><time>2019-1-17T10:23:59Z</time></trkpt>
<trkpt lat="48.456141" lon="2.661096"><ele></ele><time>2019-1-17T10:24:2Z</time></trkpt>
<trkpt lat="48.456157" lon="2.660905"><ele></ele><time>2019-1-17T10:24:5Z</time></trkpt>
<trkpt lat="48.456207" lon="2.660765"><ele></ele><time>2019-1-17T10:24:8Z</time></trkpt>
<trkpt lat="48.456227" lon="2.660606"><ele></ele><time>2019-1-17T10:24:11Z</time></trkpt>
<trkpt lat="48.456237" lon="2.660443"><ele></ele><time>2019-1-17T10:24:14Z</time></trkpt>
<trkpt lat="48.456213" lon="2.66026"><ele></ele><time>2019-1-17T10:24:17Z</time></trkpt>
<trkpt lat="48.456217" lon="2.660099"><ele></ele><time>2019-1-17T10:24:20Z</time></trkpt>
<trkpt lat="48.456255" lon="2.659973"><ele></ele><time>2019-1-17T10:24:23Z</time></trkpt>
<trkpt lat="48.456314" lon="2.659809"><ele></ele><time>2019-1-17T10:24:26Z</time></trkpt>
<trkpt lat="48.456361" lon="2.65968"><ele></ele><time>2019-1-17T10:24:29Z</time></trkpt>
<trkpt lat="48.456397" lon="2.659515"><ele></ele><time>2019-1-17T10:24:32Z</time></trkpt>
<trkpt lat="48.456406" lon="2.659338"><ele></ele><time>2019-1-17T10:24:35Z</time></trkpt>
<trkpt lat="48.456423" lon="2.659149"><ele></ele><time>2019-1-17T10:24:38Z</time></trkpt>
<trkpt lat="48.456492" lon="2.658995"><ele></ele><time>2019-1-17T10:24:41Z</time></trkpt>
<trkpt lat="48.456551" lon="2.658868"><ele></ele><time>2019-1-17T10:24:44Z</time></trkpt>
<trkpt lat="48.456599" lon="2.658703"><ele></ele><time>2019-1-17T10:24:47Z</time></trkpt>
<trkpt lat="48.456633" lon="2.658516"><ele></ele><time>2019-1-17T10:24:50Z</time></trkpt>
<trkpt lat="48.456702" lon="2.658316"><ele></ele><time>2019-1-17T10:24:53Z</time></trkpt>
<trkpt lat="48.456775" lon="2.65815"><ele></ele><time>2019-1-17T10:24:56Z</time></trkpt>
<trkpt lat="48.456848" lon="2.65804"><ele></ele><time>2019-1-17T10:24:59Z</time></trkpt>
<trkpt lat="48.456941" lon="2.657967"><ele></ele><time>2019-1-17T10:25:2Z</time></trkpt>
<trkpt lat="48.457039" lon="2.657875"><ele></ele><time>2019-1-17T10:25:5Z</time></trkpt>
<trkpt lat="48.45716" lon="2.657796"><ele></ele><time>2019-1-17T10:25:8Z</time></trkpt>
<trkpt lat="48.457244" lon="2.657713"><ele></ele><time>2019-1-17T10:25:11Z</time></trkpt>
<trkpt lat="48.457384" lon="2.657641"><ele></ele><time>2019-1-17T10:25:14Z</time></trkpt>
<trkpt lat="48.457513" lon="2.657572"><ele></ele><time>2019-1-17T10:25:17Z</time></trkpt>
<trkpt lat="48.457594" lon="2.657499"><ele></ele><time>2019-1-17T10:25:20Z</time></trkpt>
<trkpt lat="48.457693" lon="2.657535"><ele></ele><time>2019-1-17T10:25:23Z</time></trkpt>
<trkpt lat="48.457807" lon="2.657482"><ele></ele><time>2019-1-17T10:25:26Z</time></trkpt>
<trkpt lat="48.457899" lon="2.657454"><ele></ele><time>2019-1-17T10:25:29Z</time></trkpt>
<trkpt lat="48.458025" lon="2.65744"><ele></ele><time>2019-1-17T10:25:32Z</time></trkpt>
<trkpt lat="48.458158" lon="2.657419"><ele></ele><time>2019-1-17T10:25:35Z</time></trkpt>
<trkpt lat="48.458271" lon="2.657434"><ele></ele><time>2019-1-17T10:25:38Z</time></trkpt>
<trkpt lat="48.458414" lon="2.657349"><ele></ele><time>2019-1-17T10:25:41Z</time></trkpt>
<trkpt lat="48.458472" lon="2.657237"><ele></ele><time>2019-1-17T10:25:44Z</time></trkpt>
<trkpt lat="48.458569" lon="2.65715"><ele></ele><time>2019-1-17T10:25:47Z</time></trkpt>
<trkpt lat="48.458598" lon="2.657002"><ele></ele><time>2019-1-17T10:25:50Z</time></trkpt>
<trkpt lat="48.458653" lon="2.656828"><ele></ele><time>2019-1-17T10:25:53Z</time></trkpt>
<trkpt lat="48.458729" lon="2.656671"><ele></ele><time>2019-1-17T10:25:56Z</time></trkpt>
<trkpt lat="48.458825" lon="2.656607"><ele></ele><time>2019-1-17T10:25:59Z</time></trkpt>
<trkpt lat="48.458853" lon="2.656461"><ele></ele><time>2019-1-17T10:26:2Z</time></trkpt>
<trkpt lat="48.458931" lon="2.656388"><ele></ele><time>2019-1-17T10:26:5Z</time></trkpt>
<trkpt lat="48.458893" lon="2.65624"><ele></ele><time>2019-1-17T10:26:8Z</time></trkpt>
<trkpt lat="48.458941" lon="2.656073"><ele></ele><time>2019-1-17T10:26:11Z</time></trkpt>
<trkpt lat="48.459025" lon="2.655946"><ele></ele><time>2019-1-17T10:26:14Z</time></trkpt>
<trkpt lat="48.459112" lon="2.655881"><ele></ele><time>2019-1-17T10:26:17Z</time></trkpt>
<trkpt lat="48.45923" lon="2.655776"><ele></ele><time>2019-1-17T10:26:20Z</time></trkpt>
<trkpt lat="48.459322" lon="2.655597"><ele></ele><time>2019-1-17T10:26:23Z</time></trkpt>
<trkpt lat="48.459306" lon="2.655451"><ele></ele><time>2019-1-17T10:26:26Z</time></trkpt>
<trkpt lat="48.459351" lon="2.65531"><ele></ele><time>2019-1-17T10:26:29Z</time></trkpt>
<trkpt lat="48.459384" lon="2.655171"><ele></ele><time>2019-1-17T10:26:32Z</time></trkpt>
<trkpt lat="48.459424" lon="2.654968"><ele></ele><time>2019-1-17T10:26:35Z</time></trkpt>
<trkpt lat="48.459478" lon="2.654795"><ele></ele><time>2019-1-17T10:26:38Z</time></trkpt>
<trkpt lat="48.459556" lon="2.654648"><ele></ele><time>2019-1-17T10:26:41Z</time></trkpt>
<trkpt lat="48.459585" lon="2.654514"><ele></ele><time>2019-1-17T10:26:44Z</time></trkpt>
<trkpt lat="48.45959" lon="2.654378"><ele></ele><time>2019-1-17T10:26:47Z</time></trkpt>
<trkpt lat="48.459626" lon="2.654169"><ele></ele><time>2019-1-17T10:26:50Z</time></trkpt>
<trkpt lat="48.459642" lon="2.654023"><ele></ele><time>2019-1-17T10:26:53Z</time></trkpt>
<trkpt lat="48.45956" lon="2.653867"><ele></ele><time>2019-1-17T10:26:56Z</time></trkpt>
<trkpt lat="48.459493" lon="2.653742"><ele></ele><time>2019-1-17T10:26:59Z</time></trkpt>
<trkpt lat="48.459399" lon="2.65365"><ele></ele><time>2019-1-17T10:27:2Z</time></trkpt>
<trkpt lat="48.459306" lon="2.653544"><ele></ele><time>2019-1-17T10:27:5Z</time></trkpt>
<trkpt lat="48.459211" lon="2.65346"><ele></ele><time>2019-1-17T10:27:8Z</time></trkpt>
<trkpt lat="48.459115" lon="2.653417"><ele></ele><time>2019-1-17T10:27:11Z</time></trkpt>
<trkpt lat="48.459009" lon="2.653439"><ele></ele><time>2019-1-17T10:27:14Z</time></trkpt>
<trkpt lat="48.458918" lon="2.653486"><ele></ele><time>2019-1-17T10:27:17Z</time></trkpt>
<trkpt lat="48.458788" lon="2.65349"><ele></ele><time>2019-1-17T10:27:20Z</time></trkpt>
<trkpt lat="48.458638" lon="2.653455"><ele></ele><time>2019-1-17T10:27:23Z</time></trkpt>
<trkpt lat="48.458467" lon="2.653488"><ele></ele><time>2019-1-17T10:27:26Z</time></trkpt>
<trkpt lat="48.458364" lon="2.653501"><ele></ele><time>2019-1-17T10:27:29Z</time></trkpt>
<trkpt lat="48.458256" lon="2.653506"><ele></ele><time>2019-1-17T10:27:32Z</time></trkpt>
<trkpt lat="48.458123" lon="2.653426"><ele></ele><time>2019-1-17T10:27:35Z</time></trkpt>
<trkpt lat="48.458049" lon="2.65334"><ele></ele><time>2019-1-17T10:27:38Z</time></trkpt>
<trkpt lat="48.457954" lon="2.653274"><ele></ele><time>2019-1-17T10:27:41Z</time></trkpt>
<trkpt lat="48.45783" lon="2.653237"><ele></ele><time>2019-1-17T10:27:44Z</time></trkpt>
<trkpt lat="48.457683" lon="2.653131"><ele></ele><time>2019-1-17T10:27:47Z</time></trkpt>
<trkpt lat="48.457583" lon="2.653045"><ele></ele><time>2019-1-17T10:27:50Z</time></trkpt>
<trkpt lat="48.457557" lon="2.65283"><ele></ele><time>2019-1-17T10:27:53Z</time></trkpt>
<trkpt lat="48.457495" lon="2.652682"><ele></ele><time>2019-1-17T10:27:56Z</time></trkpt>
<trkpt lat="48.457469" lon="2.652539"><ele></ele><time>2019-1-17T10:27:59Z</time></trkpt>
<trkpt lat="48.457407" lon="2.652417"><ele></ele><time>2019-1-17T10:28:2Z</time></trkpt>
<trkpt lat="48.457458" lon="2.652292"><ele></ele><time>2019-1-17T10:28:5Z</time></trkpt>
<trkpt lat="48.457548" lon="2.652183"><ele></ele><time>2019-1-17T10:28:8Z</time></trkpt>
<trkpt lat="48.457666" lon="2.652026"><ele></ele><time>2019-1-17T10:28:11Z</time></trkpt>
<trkpt lat="48.457756" lon="2.651876"><ele></ele><time>2019-1-17T10:28:14Z</time></trkpt>
<trkpt lat="48.457881" lon="2.65182"><ele></ele><time>2019-1-17T10:28:17Z</time></trkpt>
<trkpt lat="48.45798" lon="2.651634"><ele></ele><time>2019-1-17T10:28:20Z</time></trkpt>
<trkpt lat="48.458106" lon="2.651539"><ele></ele><time>2019-1-17T10:28:23Z</time></trkpt>
<trkpt lat="48.458199" lon="2.651495"><ele></ele><time>2019-1-17T10:28:26Z</time></trkpt>
<trkpt lat="48.458344" lon="2.6514"><ele></ele><time>2019-1-17T10:28:29Z</time></trkpt>
<trkpt lat="48.458498" lon="2.651317"><ele></ele><time>2019-1-17T10:28:32Z</time></trkpt>
<trkpt lat="48.458553" lon="2.651207"><ele></ele><time>2019-1-17T10:28:35Z</time></trkpt>
<trkpt lat="48.458638" lon="2.651087"><ele></ele><time>2019-1-17T10:28:38Z</time></trkpt>
<trkpt lat="48.458682" lon="2.650898"><ele></ele><time>2019-1-17T10:28:41Z</time></trkpt>
<trkpt lat="48.45863" lon="2.650733"><ele></ele><time>2019-1-17T10:28:44Z</time></trkpt>
<trkpt lat="48.458621" lon="2.650542"><ele></ele><time>2019-1-17T10:28:47Z</time></trkpt>
<trkpt lat="48.458544" lon="2.650401"><ele></ele><time>2019-1-17T10:28:50Z</time></trkpt>
<trkpt lat="48.458495" lon="2.650187"><ele></ele><time>2019-1-17T10:28:53Z</time></trkpt>
<trkpt lat="48.458457" lon="2.650063"><ele></ele><time>2019-1-17T10:28:56Z</time></trkpt>
<trkpt lat="48.458398" lon="2.649902"><ele></ele><time>2019-1-17T10:28:59Z</time></trkpt>
<trkpt lat="48.458273" lon="2.649806"><ele></ele><time>2019-1-17T10:29:2Z</time></trkpt>
<trkpt lat="48.458182" lon="2.649696"><ele></ele><time>2019-1-17T10:29:5Z</time></trkpt>
<trkpt lat="48.458136" lon="2.649549"><ele></ele><time>2019-1-17T10:29:8Z</time></trkpt>
<trkpt lat="48.458101" lon="2.649398"><ele></ele><time>2019-1-17T10:29:11Z</time></trkpt>
<trkpt lat="48.458081" lon="2.649253"><ele></ele><time>2019-1-17T10:29:14Z</time></trkpt>
<trkpt lat="48.458113" lon="2.649097"><ele></ele><time>2019-1-17T10:29:17Z</time></trkpt>
<trkpt lat="48.458159" lon="2.648928"><ele></ele><time>2019-1-17T10:29:20Z</time></trkpt>
<trkpt lat="48.458178" lon="2.648792"><ele></ele><time>2019-1-17T10:29:23Z</time></trkpt>
<trkpt lat="48.458199" lon="2.648632"><ele></ele><time>2019-1-17T10:29:26Z</time></trkpt>
<trkpt lat="48.458292" lon="2.648449"><ele></ele><time>2019-1-17T10:29:29Z</time></trkpt>
<trkpt lat="48.458394" lon="2.648377"><ele></ele><time>2019-1-17T10:29:32Z</time></trkpt>
<trkpt lat="48.458552" lon="2.648322"><ele></ele><time>2019-1-17T10:29:35Z</time></trkpt>
<trkpt lat="48.458632" lon="2.648249"><ele></ele><time>2019-1-17T10:29:38Z</time></trkpt>
<trkpt lat="48.458769" lon="2.64817"><ele></ele><time>2019-1-17T10:29:41Z</time></trkpt>
<trkpt lat="48.458896" lon="2.648149"><ele></ele><time>2019-1-17T10:29:44Z</time></trkpt>
<trkpt lat="48.459002" lon="2.648152"><ele></ele><time>2019-1-17T10:29:47Z</time></trkpt>
<trkpt lat="48.459097" lon="2.648097"><ele></ele><time>2019-1-17T10:29:50Z</time></trkpt>
<trkpt lat="48.459279" lon="2.648042"><ele></ele><time>2019-1-17T10:29:53Z</time></trkpt>
<trkpt lat="48.459376" lon="2.647889"><ele></ele><time>2019-1-17T10:29:56Z</time></trkpt>
<trkpt lat="48.459471" lon="2.647806"><ele></ele><time>2019-1-17T10:29:59Z</time></trkpt>
<trkpt lat="48.459517" lon="2.647558"><ele></ele><time>2019-1-17T10:30:2Z</time></trkpt>
<trkpt lat="48.459523" lon="2.647412"><ele></ele><time>2019-1-17T10:30:5Z</time></trkpt>
<trkpt lat="48.45956" lon="2.647213"><ele></ele><time>2019-1-17T10:30:8Z</time></trkpt>
<trkpt lat="48.45955" lon="2.647006"><ele></ele><time>2019-1-17T10:30:11Z</time></trkpt>
<trkpt lat="48.459501" lon="2.646856"><ele></ele><time>2019-1-17T10:30:14Z</time></trkpt>
<trkpt lat="48.459477" lon="2.646676"><ele></ele><time>2019-1-17T10:30:17Z</time></trkpt>
<trkpt lat="48.459504" lon="2.64651"><ele></ele><time>2019-1-17T10:30:20Z</time></trkpt>
<trkpt lat="48.459519" lon="2.646368"><ele></ele><time>2019-1-17T10:30:23Z</time></trkpt>
<trkpt lat="48.459533" lon="2.64623"><ele></ele><time>2019-1-17T10:30:26Z</time></trkpt>
<trkpt lat="48.459477" lon="2.646051"><ele></ele><time>2019-1-17T10:30:29Z</time></trkpt>
<trkpt lat="48.459414" lon="2.645938"><ele></ele><time>2019-1-17T10:30:32Z</time></trkpt>
<trkpt lat="48.459331" lon="2.645837"><ele></ele><time>2019-1-17T10:30:35Z</time></trkpt>
<trkpt lat="48.45926" lon="2.645715"><ele></ele><time>2019-1-17T10:30:38Z</time></trkpt>
<trkpt lat="48.459162" lon="2.645604"><ele></ele><time>2019-1-17T10:30:41Z</time></trkpt>
<trkpt lat="48.459046" lon="2.645437"><ele></ele><time>2019-1-17T10:30:44Z</time></trkpt>
<trkpt lat="48.458995" lon="2.64524"><ele></ele><time>2019-1-17T10:30:47Z</time></trkpt>
<trkpt lat="48.458952" lon="2.645103"><ele></ele><time>2019-1-17T10:30:50Z</time></trkpt>
<trkpt lat="48.458975" lon="2.644953"><ele></ele><time>2019-1-17T10:30:53Z</time></trkpt>
<trkpt lat="48.458934" lon="2.644789"><ele></ele><time>2019-1-17T10:30:56Z</time></trkpt>
<trkpt lat="48.458955" lon="2.644599"><ele></ele><time>2019-1-17T10:30:59Z</time></trkpt>
<trkpt lat="48.459035" lon="2.64442"><ele></ele><time>2019-1-17T10:31:2Z</time></trkpt>
<trkpt lat="48.459035" lon="2.64427"><ele></ele><time>2019-1-17T10:31:5Z</time></trkpt>
<trkpt lat="48.459084" lon="2.644154"><ele></ele><time>2019-1-17T10:31:8Z</time></trkpt>
<trkpt lat="48.459081" lon="2.643999"><ele></ele><time>2019-1-17T10:31:11Z</time></trkpt>
<trkpt lat="48.459025" lon="2.643779"><ele></ele><time>2019-1-17T10:31:14Z</time></trkpt>
<trkpt lat="48.459114" lon="2.643646"><ele></ele><time>2019-1-17T10:31:17Z</time></trkpt>
<trkpt lat="48.45913" lon="2.643459"><ele></ele><time>2019-1-17T10:31:20Z</time></trkpt>
<trkpt lat="48.459196" lon="2.643313"><ele></ele><time>2019-1-17T10:31:23Z</time></trkpt>
<trkpt lat="48.459241" lon="2.643191"><ele></ele><time>2019-1-17T10:31:26Z</time></trkpt>
<trkpt lat="48.459281" lon="2.643014"><ele></ele><time>2019-1-17T10:31:29Z</time></trkpt>
<trkpt lat="48.459353" lon="2.642904"><ele></ele><time>2019-1-17T10:31:32Z</time></trkpt>
<trkpt lat="48.45939" lon="2.642746"><ele></ele><time>2019-1-17T10:31:35Z</time></trkpt>
<trkpt lat="48.459428" lon="2.642614"><ele></ele><time>2019-1-17T10:31:38Z</time></trkpt>
<trkpt lat="48.459437" lon="2.64243"><ele></ele><time>2019-1-17T10:31:41Z</time></trkpt>
<trkpt lat="48.459464" lon="2.642258"><ele></ele><time>2019-1-17T10:31:44Z</time></trkpt>
<trkpt lat="48.459474" lon="2.642092"><ele></ele><time>2019-1-17T10:31:47Z</time></trkpt>
<trkpt lat="48.45949" lon="2.641925"><ele></ele><time>2019-1-17T10:31:50Z</time></trkpt>
<trkpt lat="48.459485" lon="2.641733"><ele></ele><time>2019-1-17T10:31:53Z</time></trkpt>
<trkpt lat="48.459483" lon="2.641529"><ele></ele><time>2019-1-17T10:31:56Z</time></trkpt>
<trkpt lat="48.459449" lon="2.641375"><ele></ele><time>2019-1-17T10:31:59Z</time></trkpt>
<trkpt lat="48.459375" lon="2.641272"><ele></ele><time>2019-1-17T10:32:2Z</time></trkpt>
<trkpt lat="48.459271" lon="2.64129"><ele></ele><time>2019-1-17T10:32:5Z</time></trkpt>
<trkpt lat="48.45914" lon="2.641265"><ele></ele><time>2019-1-17T10:32:8Z</time></trkpt>
<trkpt lat="48.459027" lon="2.641244"><ele></ele><time>2019-1-17T10:32:11Z</time></trkpt>
<trkpt lat="48.458929" lon="2.641206"><ele></ele><time>2019-1-17T10:32:14Z</time></trkpt>
<trkpt lat="48.458827" lon="2.641169"><ele></ele><time>2019-1-17T10:32:17Z</time></trkpt>
<trkpt lat="48.458718" lon="2.641154"><ele></ele><time>2019-1-17T10:32:20Z</time></trkpt>
<trkpt lat="48.458594" lon="2.641157"><ele></ele><time>2019-1-17T10:32:23Z</time></trkpt>
<trkpt lat="48.458495" lon="2.641148"><ele></ele><time>2019-1-17T10:32:26Z</time></trkpt>
<trkpt lat="48.458384" lon="2.641154"><ele></ele><time>2019-1-17T10:32:29Z</time></trkpt>
<trkpt lat="48.458291" lon="2.641158"><ele></ele><time>2019-1-17T10:32:32Z</time></trkpt>
<trkpt lat="48.458182" lon="2.64116"><ele></ele><time>2019-1-17T10:32:35Z</time></trkpt>
<trkpt lat="48.458082" lon="2.64112"><ele></ele><time>2019-1-17T10:32:38Z</time></trkpt>
<trkpt lat="48.457968" lon="2.641075"><ele></ele><time>2019-1-17T10:32:41Z</time></trkpt>
<trkpt lat="48.457874" lon="2.640997"><ele></ele><time>2019-1-17T10:32:44Z</time></trkpt>
<trkpt lat="48.45782" lon="2.640865"><ele></ele><time>2019-1-17T10:32:47Z</time></trkpt>
<trkpt lat="48.457801" lon="2.640699"><ele></ele><time>2019-1-17T10:32:50Z</time></trkpt>
<trkpt lat="48.457748" lon="2.640581"><ele></ele><time>2019-1-17T10:32:53Z</time></trkpt>
<trkpt lat="48.457673" lon="2.6404"><ele></ele><time>2019-1-17T10:32:56Z</time></trkpt>
<trkpt lat="48.457575" lon="2.640335"><ele></ele><time>2019-1-17T10:32:59Z</time></trkpt>
<trkpt lat="48.45759" lon="2.640188"><ele></ele><time>2019-1-17T10:33:2Z</time></trkpt>
<trkpt lat="48.457519" lon="2.640076"><ele></ele><time>2019-1-17T10:33:5Z</time></trkpt>
<trkpt lat="48.457482" lon="2.639943"><ele></ele><time>2019-1-17T10:33:8Z</time></trkpt>
<trkpt lat="48.4575" lon="2.639788"><ele></ele><time>2019-1-17T10:33:11Z</time></trkpt>
<trkpt lat="48.457521" lon="2.639642"><ele></ele><time>2019-1-17T10:33:14Z</time></trkpt>
<trkpt lat="48.457552" lon="2.639459"><ele></ele><time>2019-1-17T10:33:17Z</time></trkpt>
<trkpt lat="48.45756" lon="2.639295"><ele></ele><time>2019-1-17T10:33:20Z</time></trkpt>
<trkpt lat="48.457563" lon="2.639136"><ele></ele><time>2019-1-17T10:33:23Z</time></trkpt>
<trkpt lat="48.457582" lon="2.638997"><ele></ele><time>2019-1-17T10:33:26Z</time></trkpt>
<trkpt lat="48.457701" lon="2.638888"><ele></ele><time>2019-1-17T10:33:29Z</time></trkpt>
<trkpt lat="48.457749" lon="2.638743"><ele></ele><time>2019-1-17T10:33:32Z</time></trkpt>
<trkpt lat="48.457728" lon="2.638566"><ele></ele><time>2019-1-17T10:33:35Z</time></trkpt>
<trkpt lat="48.457697" lon="2.638421"><ele></ele><time>2019-1-17T10:33:38Z</time></trkpt>
<trkpt lat="48.457592" lon="2.638366"><ele></ele><time>2019-1-17T10:33:41Z</time></trkpt>
<trkpt lat="48.457482" lon="2.638324"><ele></ele><time>2019-1-17T10:33:44Z</time></trkpt>
<trkpt lat="48.457381" lon="2.638368"><ele></ele><time>2019-1-17T10:33:47Z</time></trkpt>
<trkpt lat="48.457295" lon="2.638536"><ele></ele><time>2019-1-17T10:33:50Z</time></trkpt>
<trkpt lat="48.45723" lon="2.638688"><ele></ele><time>2019-1-17T10:33:53Z</time></trkpt>
<trkpt lat="48.457185" lon="2.638849"><ele></ele><time>2019-1-17T10:33:56Z</time></trkpt>
<trkpt lat="48.457131" lon="2.638983"><ele></ele><time>2019-1-17T10:33:59Z</time></trkpt>
<trkpt lat="48.457064" lon="2.639111"><ele></ele><time>2019-1-17T10:34:2Z</time></trkpt>
<trkpt lat="48.456961" lon="2.639186"><ele></ele><time>2019-1-17T10:34:5Z</time></trkpt>
<trkpt lat="48.456846" lon="2.63923"><ele></ele><time>2019-1-17T10:34:8Z</time></trkpt>
<trkpt lat="48.456713" lon="2.639281"><ele></ele><time>2019-1-17T10:34:11Z</time></trkpt>
<trkpt lat="48.45662" lon="2.639317"><ele></ele><time>2019-1-17T10:34:14Z</time></trkpt>
<trkpt lat="48.456493" lon="2.639368"><ele></ele><time>2019-1-17T10:34:17Z</time></trkpt>
<trkpt lat="48.456363" lon="2.639331"><ele></ele><time>2019-1-17T10:34:20Z</time></trkpt>
<trkpt lat="48.456245" lon="2.63923"><ele></ele><time>2019-1-17T10:34:23Z</time></trkpt>
<trkpt lat="48.456196" lon="2.63905"><ele></ele><time>2019-1-17T10:34:26Z</time></trkpt>
<trkpt lat="48.456136" lon="2.638822"><ele></ele><time>2019-1-17T10:34:29Z</time></trkpt>
<trkpt lat="48.456089" lon="2.638695"><ele></ele><time>2019-1-17T10:34:32Z</time></trkpt>
<trkpt lat="48.455977" lon="2.638702"><ele></ele><time>2019-1-17T10:34:35Z</time></trkpt>
<trkpt lat="48.455841" lon="2.638769"><ele></ele><time>2019-1-17T10:34:38Z</time></trkpt>
<trkpt lat="48.455734" lon="2.638842"><ele></ele><time>2019-1-17T10:34:41Z</time></trkpt>
<trkpt lat="48.455606" lon="2.638837"><ele></ele><time>2019-1-17T10:34:44Z</time></trkpt>
<trkpt lat="48.455483" lon="2.638854"><ele></ele><time>2019-1-17T10:34:47Z</time></trkpt>
<trkpt lat="48.455414" lon="2.638724"><ele></ele><time>2019-1-17T10:34:50Z</time></trkpt>
<trkpt lat="48.455344" lon="2.638639"><ele></ele><time>2019-1-17T10:34:53Z</time></trkpt>
<trkpt lat="48.455262" lon="2.63853"><ele></ele><time>2019-1-17T10:34:56Z</time></trkpt>
<trkpt lat="48.455168" lon="2.638525"><ele></ele><time>2019-1-17T10:34:59Z</time></trkpt>
<trkpt lat="48.455055" lon="2.638526"><ele></ele><time>2019-1-17T10:35:2Z</time></trkpt>
<trkpt lat="48.454959" lon="2.638531"><ele></ele><time>2019-1-17T10:35:5Z</time></trkpt>
<trkpt lat="48.454855" lon="2.638458"><ele></ele><time>2019-1-17T10:35:8Z</time></trkpt>
<trkpt lat="48.454804" lon="2.638341"><ele></ele><time>2019-1-17T10:35:11Z</time></trkpt>
<trkpt lat="48.454768" lon="2.638213"><ele></ele><time>2019-1-17T10:35:14Z</time></trkpt>
<trkpt lat="48.454722" lon="2.638064"><ele></ele><time>2019-1-17T10:35:17Z</time></trkpt>
<trkpt lat="48.454652" lon="2.637962"><ele></ele><time>2019-1-17T10:35:20Z</time></trkpt>
<trkpt lat="48.454559" lon="2.637864"><ele></ele><time>2019-1-17T10:35:23Z</time></trkpt>
<trkpt lat="48.454463" lon="2.637771"><ele></ele><time>2019-1-17T10:35:26Z</time></trkpt>
<trkpt lat="48.454386" lon="2.637641"><ele></ele><time>2019-1-17T10:35:29Z</time></trkpt>
<trkpt lat="48.454331" lon="2.637468"><ele></ele><time>2019-1-17T10:35:32Z</time></trkpt>
<trkpt lat="48.45429" lon="2.637272"><ele></ele><time>2019-1-17T10:35:35Z</time></trkpt>
<trkpt lat="48.454299" lon="2.637135"><ele></ele><time>2019-1-17T10:35:38Z</time></trkpt>
<trkpt lat="48.454291" lon="2.636956"><ele></ele><time>2019-1-17T10:35:41Z</time></trkpt>
<trkpt lat="48.454318" lon="2.636823"><ele></ele><time>2019-1-17T10:35:44Z</time></trkpt>
<trkpt lat="48.454263" lon="2.636632"><ele></ele><time>2019-1-17T10:35:47Z</time></trkpt>
<trkpt lat="48.454195" lon="2.636513"><ele></ele><time>2019-1-17T10:35:50Z</time></trkpt>
<trkpt lat="48.454089" lon="2.6364"><ele></ele><time>2019-1-17T10:35:53Z</time></trkpt>
<trkpt lat="48.454004" lon="2.636266"><ele></ele><time>2019-1-17T10:35:56Z</time></trkpt>
<trkpt lat="48.453894" lon="2.636249"><ele></ele><time>2019-1-17T10:35:59Z</time></trkpt>
<trkpt lat="48.453788" lon="2.636232"><ele></ele><time>2019-1-17T10:36:2Z</time></trkpt>
<trkpt lat="48.453665" lon="2.636285"><ele></ele><time>2019-1-17T10:36:5Z</time></trkpt>
<trkpt lat="48.453556" lon="2.636345"><ele></ele><time>2019-1-17T10:36:8Z</time></trkpt>
<trkpt lat="48.453457" lon="2.636408"><ele></ele><time>2019-1-17T10:36:11Z</time></trkpt>
<trkpt lat="48.453346" lon="2.636503"><ele></ele><time>2019-1-17T10:36:14Z</time></trkpt>
<trkpt lat="48.453254" lon="2.636535"><ele></ele><time>2019-1-17T10:36:17Z</time></trkpt>
<trkpt lat="48.453141" lon="2.636616"><ele></ele><time>2019-1-17T10:36:20Z</time></trkpt>
<trkpt lat="48.453036" lon="2.636644"><ele></ele><time>2019-1-17T10:36:23Z</time></trkpt>
<trkpt lat="48.452904" lon="2.636613"><ele></ele><time>2019-1-17T10:36:26Z</time></trkpt>
<trkpt lat="48.452799" lon="2.636583"><ele></ele><time>2019-1-17T10:36:29Z</time></trkpt>
<trkpt lat="48.452732" lon="2.636466"><ele></ele><time>2019-1-17T10:36:32Z</time></trkpt>
<trkpt lat="48.452617" lon="2.636353"><ele></ele><time>2019-1-17T10:36:35Z</time></trkpt>
<trkpt lat="48.452668" lon="2.636211"><ele></ele><time>2019-1-17T10:36:38Z</time></trkpt>
<trkpt lat="48.452594" lon="2.636088"><ele></ele><time>2019-1-17T10:36:41Z</time></trkpt>
<trkpt lat="48.452515" lon="2.635994"><ele></ele><time>2019-1-17T10:36:44Z</time></trkpt>
<trkpt lat="48.452396" lon="2.635952"><ele></ele><time>2019-1-17T10:36:47Z</time></trkpt>
<trkpt lat="48.452282" lon="2.636013"><ele></ele><time>2019-1-17T10:36:50Z</time></trkpt>
<trkpt lat="48.452169" lon="2.636064"><ele></ele><time>2019-1-17T10:36:53Z</time></trkpt>
<trkpt lat="48.45208" lon="2.636123"><ele></ele><time>2019-1-17T10:36:56Z</time></trkpt>
<trkpt lat="48.45198" lon="2.636034"><ele></ele><time>2019-1-17T10:36:59Z</time></trkpt>
<trkpt lat="48.451846" lon="2.635915"><ele></ele><time>2019-1-17T10:37:2Z</time></trkpt>
<trkpt lat="48.451822" lon="2.635775"><ele></ele><time>2019-1-17T10:37:5Z</time></trkpt>
<trkpt lat="48.451859" lon="2.635602"><ele></ele><time>2019-1-17T10:37:8Z</time></trkpt>
<trkpt lat="48.451872" lon="2.635438"><ele></ele><time>2019-1-17T10:37:11Z</time></trkpt>
<trkpt lat="48.451902" lon="2.635303"><ele></ele><time>2019-1-17T10:37:14Z</time></trkpt>
<trkpt lat="48.451883" lon="2.635135"><ele></ele><time>2019-1-17T10:37:17Z</time></trkpt>
<trkpt lat="48.451862" lon="2.634944"><ele></ele><time>2019-1-17T10:37:20Z</time></trkpt>
<trkpt lat="48.451987" lon="2.634836"><ele></ele><time>2019-1-17T10:37:23Z</time></trkpt>
<trkpt lat="48.451982" lon="2.634696"><ele></ele><time>2019-1-17T10:37:26Z</time></trkpt>
<trkpt lat="48.451992" lon="2.634538"><ele></ele><time>2019-1-17T10:37:29Z</time></trkpt>
<trkpt lat="48.452005" lon="2.634345"><ele></ele><time>2019-1-17T10:37:32Z</time></trkpt>
<trkpt lat="48.451994" lon="2.634204"><ele></ele><time>2019-1-17T10:37:35Z</time></trkpt>
<trkpt lat="48.451987" lon="2.634064"><ele></ele><time>2019-1-17T10:37:38Z</time></trkpt>
<trkpt lat="48.452032" lon="2.633917"><ele></ele><time>2019-1-17T10:37:41Z</time></trkpt>
<trkpt lat="48.452065" lon="2.633756"><ele></ele><time>2019-1-17T10:37:44Z</time></trkpt>
<trkpt lat="48.452082" lon="2.63359"><ele></ele><time>2019-1-17T10:37:47Z</time></trkpt>
<trkpt lat="48.452189" lon="2.633609"><ele></ele><time>2019-1-17T10:37:50Z</time></trkpt>
<trkpt lat="48.452099" lon="2.633559"><ele></ele><time>2019-1-17T10:37:53Z</time></trkpt>
<trkpt lat="48.452026" lon="2.633654"><ele></ele><time>2019-1-17T10:37:56Z</time></trkpt>
<trkpt lat="48.451993" lon="2.633795"><ele></ele><time>2019-1-17T10:37:59Z</time></trkpt>
<trkpt lat="48.451996" lon="2.633932"><ele></ele><time>2019-1-17T10:38:2Z</time></trkpt>
<trkpt lat="48.451993" lon="2.634101"><ele></ele><time>2019-1-17T10:38:5Z</time></trkpt>
<trkpt lat="48.45197" lon="2.63426"><ele></ele><time>2019-1-17T10:38:8Z</time></trkpt>
<trkpt lat="48.45195" lon="2.634394"><ele></ele><time>2019-1-17T10:38:11Z</time></trkpt>
<trkpt lat="48.451952" lon="2.634566"><ele></ele><time>2019-1-17T10:38:14Z</time></trkpt>
<trkpt lat="48.451952" lon="2.634756"><ele></ele><time>2019-1-17T10:38:17Z</time></trkpt>
<trkpt lat="48.451956" lon="2.634927"><ele></ele><time>2019-1-17T10:38:20Z</time></trkpt>
<trkpt lat="48.451922" lon="2.635112"><ele></ele><time>2019-1-17T10:38:23Z</time></trkpt>
<trkpt lat="48.451883" lon="2.635298"><ele></ele><time>2019-1-17T10:38:26Z</time></trkpt>
<trkpt lat="48.451797" lon="2.635448"><ele></ele><time>2019-1-17T10:38:29Z</time></trkpt>
<trkpt lat="48.451728" lon="2.635605"><ele></ele><time>2019-1-17T10:38:32Z</time></trkpt>
<trkpt lat="48.451734" lon="2.635778"><ele></ele><time>2019-1-17T10:38:35Z</time></trkpt>
<trkpt lat="48.451748" lon="2.635928"><ele></ele><time>2019-1-17T10:38:38Z</time></trkpt>
<trkpt lat="48.451731" lon="2.636086"><ele></ele><time>2019-1-17T10:38:41Z</time></trkpt>
<trkpt lat="48.451672" lon="2.63621"><ele></ele><time>2019-1-17T10:38:44Z</time></trkpt>
<trkpt lat="48.451587" lon="2.636271"><ele></ele><time>2019-1-17T10:38:47Z</time></trkpt>
<trkpt lat="48.451496" lon="2.636318"><ele></ele><time>2019-1-17T10:38:50Z</time></trkpt>
<trkpt lat="48.451386" lon="2.636395"><ele></ele><time>2019-1-17T10:38:53Z</time></trkpt>
<trkpt lat="48.451309" lon="2.636487"><ele></ele><time>2019-1-17T10:38:56Z</time></trkpt>
<trkpt lat="48.451276" lon="2.63662"><ele></ele><time>2019-1-17T10:38:59Z</time></trkpt>
<trkpt lat="48.45122" lon="2.636783"><ele></ele><time>2019-1-17T10:39:2Z</time></trkpt>
<trkpt lat="48.45119" lon="2.636922"><ele></ele><time>2019-1-17T10:39:5Z</time></trkpt>
<trkpt lat="48.451127" lon="2.637024"><ele></ele><time>2019-1-17T10:39:8Z</time></trkpt>
<trkpt lat="48.451042" lon="2.637139"><ele></ele><time>2019-1-17T10:39:11Z</time></trkpt>
<trkpt lat="48.451" lon="2.637323"><ele></ele><time>2019-1-17T10:39:14Z</time></trkpt>
<trkpt lat="48.450962" lon="2.637514"><ele></ele><time>2019-1-17T10:39:17Z</time></trkpt>
<trkpt lat="48.450928" lon="2.637677"><ele></ele><time>2019-1-17T10:39:20Z</time></trkpt>
<trkpt lat="48.450909" lon="2.63785"><ele></ele><time>2019-1-17T10:39:23Z</time></trkpt>
<trkpt lat="48.450885" lon="2.638027"><ele></ele><time>2019-1-17T10:39:26Z</time></trkpt>
<trkpt lat="48.450879" lon="2.638186"><ele></ele><time>2019-1-17T10:39:29Z</time></trkpt>
<trkpt lat="48.450862" lon="2.638341"><ele></ele><time>2019-1-17T10:39:32Z</time></trkpt>
<trkpt lat="48.450854" lon="2.638543"><ele></ele><time>2019-1-17T10:39:35Z</time></trkpt>
<trkpt lat="48.450846" lon="2.638708"><ele></ele><time>2019-1-17T10:39:38Z</time></trkpt>
<trkpt lat="48.450845" lon="2.638863"><ele></ele><time>2019-1-17T10:39:41Z</time></trkpt>
<trkpt lat="48.450844" lon="2.639006"><ele></ele><time>2019-1-17T10:39:44Z</time></trkpt>
<trkpt lat="48.450861" lon="2.639155"><ele></ele><time>2019-1-17T10:39:47Z</time></trkpt>
<trkpt lat="48.450876" lon="2.639323"><ele></ele><time>2019-1-17T10:39:50Z</time></trkpt>
<trkpt lat="48.450883" lon="2.63948"><ele></ele><time>2019-1-17T10:39:53Z</time></trkpt>
<trkpt lat="48.45092" lon="2.639616"><ele></ele><time>2019-1-17T10:39:56Z</time></trkpt>
<trkpt lat="48.450962" lon="2.639745"><ele></ele><time>2019-1-17T10:39:59Z</time></trkpt>
<trkpt lat="48.451007" lon="2.639872"><ele></ele><time>2019-1-17T10:40:2Z</time></trkpt>
<trkpt lat="48.451052" lon="2.640006"><ele></ele><time>2019-1-17T10:40:5Z</time></trkpt>
<trkpt lat="48.451086" lon="2.640165"><ele></ele><time>2019-1-17T10:40:8Z</time></trkpt>
<trkpt lat="48.451059" lon="2.640369"><ele></ele><time>2019-1-17T10:40:11Z</time></trkpt>
<trkpt lat="48.451028" lon="2.640612"><ele></ele><time>2019-1-17T10:40:14Z</time></trkpt>
<trkpt lat="48.450954" lon="2.640807"><ele></ele><time>2019-1-17T10:40:17Z</time></trkpt>
<trkpt lat="48.450834" lon="2.640853"><ele></ele><time>2019-1-17T10:40:20Z</time></trkpt>
<trkpt lat="48.450781" lon="2.641001"><ele></ele><time>2019-1-17T10:40:23Z</time></trkpt>
<trkpt lat="48.450699" lon="2.64107"><ele></ele><time>2019-1-17T10:40:26Z</time></trkpt>
<trkpt lat="48.450624" lon="2.641157"><ele></ele><time>2019-1-17T10:40:29Z</time></trkpt>
<trkpt lat="48.450541" lon="2.641221"><ele></ele><time>2019-1-17T10:40:32Z</time></trkpt>
<trkpt lat="48.450459" lon="2.641336"><ele></ele><time>2019-1-17T10:40:35Z</time></trkpt>
<trkpt lat="48.450375" lon="2.64142"><ele></ele><time>2019-1-17T10:40:38Z</time></trkpt>
<trkpt lat="48.450304" lon="2.641513"><ele></ele><time>2019-1-17T10:40:41Z</time></trkpt>
<trkpt lat="48.450201" lon="2.641611"><ele></ele><time>2019-1-17T10:40:44Z</time></trkpt>
<trkpt lat="48.450129" lon="2.641704"><ele></ele><time>2019-1-17T10:40:47Z</time></trkpt>
<trkpt lat="48.450082" lon="2.641852"><ele></ele><time>2019-1-17T10:40:50Z</time></trkpt>
<trkpt lat="48.450023" lon="2.641964"><ele></ele><time>2019-1-17T10:40:53Z</time></trkpt>
<trkpt lat="48.449946" lon="2.642048"><ele></ele><time>2019-1-17T10:40:56Z</time></trkpt>
<trkpt lat="48.449877" lon="2.642183"><ele></ele><time>2019-1-17T10:40:59Z</time></trkpt>
<trkpt lat="48.44982" lon="2.642293"><ele></ele><time>2019-1-17T10:41:2Z</time></trkpt>
<trkpt lat="48.449718" lon="2.642442"><ele></ele><time>2019-1-17T10:41:5Z</time></trkpt>
<trkpt lat="48.449646" lon="2.642536"><ele></ele><time>2019-1-17T10:41:8Z</time></trkpt>
<trkpt lat="48.449569" lon="2.642621"><ele></ele><time>2019-1-17T10:41:11Z</time></trkpt>
<trkpt lat="48.449514" lon="2.642733"><ele></ele><time>2019-1-17T10:41:14Z</time></trkpt>
<trkpt lat="48.449433" lon="2.642876"><ele></ele><time>2019-1-17T10:41:17Z</time></trkpt>
<trkpt lat="48.449346" lon="2.643005"><ele></ele><time>2019-1-17T10:41:20Z</time></trkpt>
<trkpt lat="48.449302" lon="2.643188"><ele></ele><time>2019-1-17T10:41:23Z</time></trkpt>
<trkpt lat="48.449294" lon="2.643378"><ele></ele><time>2019-1-17T10:41:26Z</time></trkpt>
<trkpt lat="48.449316" lon="2.643512"><ele></ele><time>2019-1-17T10:41:29Z</time></trkpt>
<trkpt lat="48.449375" lon="2.643622"><ele></ele><time>2019-1-17T10:41:32Z</time></trkpt>
<trkpt lat="48.44944" lon="2.643756"><ele></ele><time>2019-1-17T10:41:35Z</time></trkpt>
<trkpt lat="48.449483" lon="2.643888"><ele></ele><time>2019-1-17T10:41:38Z</time></trkpt>
<trkpt lat="48.449529" lon="2.644024"><ele></ele><time>2019-1-17T10:41:41Z</time></trkpt>
<trkpt lat="48.449549" lon="2.644189"><ele></ele><time>2019-1-17T10:41:44Z</time></trkpt>
<trkpt lat="48.449564" lon="2.644327"><ele></ele><time>2019-1-17T10:41:47Z</time></trkpt>
<trkpt lat="48.449561" lon="2.644463"><ele></ele><time>2019-1-17T10:41:50Z</time></trkpt>
<trkpt lat="48.449544" lon="2.644624"><ele></ele><time>2019-1-17T10:41:53Z</time></trkpt>
<trkpt lat="48.449521" lon="2.644788"><ele></ele><time>2019-1-17T10:41:56Z</time></trkpt>
<trkpt lat="48.449555" lon="2.644958"><ele></ele><time>2019-1-17T10:41:59Z</time></trkpt>
<trkpt lat="48.449561" lon="2.645119"><ele></ele><time>2019-1-17T10:42:2Z</time></trkpt>
<trkpt lat="48.449554" lon="2.645274"><ele></ele><time>2019-1-17T10:42:5Z</time></trkpt>
<trkpt lat="48.44956" lon="2.645428"><ele></ele><time>2019-1-17T10:42:8Z</time></trkpt>
<trkpt lat="48.449582" lon="2.64559"><ele></ele><time>2019-1-17T10:42:11Z</time></trkpt>
<trkpt lat="48.449597" lon="2.645761"><ele></ele><time>2019-1-17T10:42:14Z</time></trkpt>
<trkpt lat="48.449595" lon="2.645918"><ele></ele><time>2019-1-17T10:42:17Z</time></trkpt>
<trkpt lat="48.449585" lon="2.646081"><ele></ele><time>2019-1-17T10:42:20Z</time></trkpt>
<trkpt lat="48.4496" lon="2.646229"><ele></ele><time>2019-1-17T10:42:23Z</time></trkpt>
<trkpt lat="48.449597" lon="2.646391"><ele></ele><time>2019-1-17T10:42:26Z</time></trkpt>
<trkpt lat="48.4496" lon="2.646558"><ele></ele><time>2019-1-17T10:42:29Z</time></trkpt>
<trkpt lat="48.449606" lon="2.646717"><ele></ele><time>2019-1-17T10:42:32Z</time></trkpt>
<trkpt lat="48.449606" lon="2.64692"><ele></ele><time>2019-1-17T10:42:35Z</time></trkpt>
<trkpt lat="48.44953" lon="2.647064"><ele></ele><time>2019-1-17T10:42:38Z</time></trkpt>
<trkpt lat="48.449406" lon="2.647088"><ele></ele><time>2019-1-17T10:42:41Z</time></trkpt>
<trkpt lat="48.449302" lon="2.647103"><ele></ele><time>2019-1-17T10:42:44Z</time></trkpt>
<trkpt lat="48.449207" lon="2.647128"><ele></ele><time>2019-1-17T10:42:47Z</time></trkpt>
<trkpt lat="48.449095" lon="2.647133"><ele></ele><time>2019-1-17T10:42:50Z</time></trkpt>
<trkpt lat="48.44905" lon="2.647257"><ele></ele><time>2019-1-17T10:42:53Z</time></trkpt>
<trkpt lat="48.448957" lon="2.647433"><ele></ele><time>2019-1-17T10:42:56Z</time></trkpt>
<trkpt lat="48.4489" lon="2.647587"><ele></ele><time>2019-1-17T10:42:59Z</time></trkpt>
<trkpt lat="48.448844" lon="2.647719"><ele></ele><time>2019-1-17T10:43:2Z</time></trkpt>
<trkpt lat="48.448794" lon="2.647891"><ele></ele><time>2019-1-17T10:43:5Z</time></trkpt>
<trkpt lat="48.448754" lon="2.648025"><ele></ele><time>2019-1-17T10:43:8Z</time></trkpt>
<trkpt lat="48.44871" lon="2.64818"><ele></ele><time>2019-1-17T10:43:11Z</time></trkpt>
<trkpt lat="48.448657" lon="2.648345"><ele></ele><time>2019-1-17T10:43:14Z</time></trkpt>
<trkpt lat="48.448596" lon="2.648474"><ele></ele><time>2019-1-17T10:43:17Z</time></trkpt>
<trkpt lat="48.448554" lon="2.648673"><ele></ele><time>2019-1-17T10:43:20Z</time></trkpt>
<trkpt lat="48.448511" lon="2.648832"><ele></ele><time>2019-1-17T10:43:23Z</time></trkpt>
<trkpt lat="48.44846" lon="2.648983"><ele></ele><time>2019-1-17T10:43:26Z</time></trkpt>
<trkpt lat="48.448402" lon="2.649099"><ele></ele><time>2019-1-17T10:43:29Z</time></trkpt>
<trkpt lat="48.448352" lon="2.649249"><ele></ele><time>2019-1-17T10:43:32Z</time></trkpt>
<trkpt lat="48.448288" lon="2.649413"><ele></ele><time>2019-1-17T10:43:35Z</time></trkpt>
<trkpt lat="48.448212" lon="2.649547"><ele></ele><time>2019-1-17T10:43:38Z</time></trkpt>
<trkpt lat="48.44817" lon="2.649693"><ele></ele><time>2019-1-17T10:43:41Z</time></trkpt>
<trkpt lat="48.448096" lon="2.649823"><ele></ele><time>2019-1-17T10:43:44Z</time></trkpt>
<trkpt lat="48.448028" lon="2.650035"><ele></ele><time>2019-1-17T10:43:47Z</time></trkpt>
<trkpt lat="48.447989" lon="2.650187"><ele></ele><time>2019-1-17T10:43:50Z</time></trkpt>
<trkpt lat="48.447963" lon="2.650342"><ele></ele><time>2019-1-17T10:43:53Z</time></trkpt>
<trkpt lat="48.447925" lon="2.650484"><ele></ele><time>2019-1-17T10:43:56Z</time></trkpt>
<trkpt lat="48.447868" lon="2.6506"><ele></ele><time>2019-1-17T10:43:59Z</time></trkpt>
<trkpt lat="48.447831" lon="2.650749"><ele></ele><time>2019-1-17T10:44:2Z</time></trkpt>
<trkpt lat="48.44781" lon="2.65091"><ele></ele><time>2019-1-17T10:44:5Z</time></trkpt>
<trkpt lat="48.447833" lon="2.651057"><ele></ele><time>2019-1-17T10:44:8Z</time></trkpt>
<trkpt lat="48.447886" lon="2.651234"><ele></ele><time>2019-1-17T10:44:11Z</time></trkpt>
<trkpt lat="48.447959" lon="2.651362"><ele></ele><time>2019-1-17T10:44:14Z</time></trkpt>
<trkpt lat="48.448034" lon="2.651515"><ele></ele><time>2019-1-17T10:44:17Z</time></trkpt>
<trkpt lat="48.448084" lon="2.651638"><ele></ele><time>2019-1-17T10:44:20Z</time></trkpt>
<trkpt lat="48.448141" lon="2.651778"><ele></ele><time>2019-1-17T10:44:23Z</time></trkpt>
<trkpt lat="48.448175" lon="2.651907"><ele></ele><time>2019-1-17T10:44:26Z</time></trkpt>
<trkpt lat="48.448227" lon="2.65206"><ele></ele><time>2019-1-17T10:44:29Z</time></trkpt>
<trkpt lat="48.448272" lon="2.652195"><ele></ele><time>2019-1-17T10:44:32Z</time></trkpt>
<trkpt lat="48.448343" lon="2.652336"><ele></ele><time>2019-1-17T10:44:35Z</time></trkpt>
<trkpt lat="48.448405" lon="2.652503"><ele></ele><time>2019-1-17T10:44:38Z</time></trkpt>
<trkpt lat="48.448463" lon="2.65263"><ele></ele><time>2019-1-17T10:44:41Z</time></trkpt>
<trkpt lat="48.448536" lon="2.652816"><ele></ele><time>2019-1-17T10:44:44Z</time></trkpt>
<trkpt lat="48.448626" lon="2.652909"><ele></ele><time>2019-1-17T10:44:47Z</time></trkpt>
<trkpt lat="48.448671" lon="2.653063"><ele></ele><time>2019-1-17T10:44:50Z</time></trkpt>
<trkpt lat="48.44875" lon="2.653204"><ele></ele><time>2019-1-17T10:44:53Z</time></trkpt>
<trkpt lat="48.448826" lon="2.65331"><ele></ele><time>2019-1-17T10:44:56Z</time></trkpt>
<trkpt lat="48.448937" lon="2.653459"><ele></ele><time>2019-1-17T10:44:59Z</time></trkpt>
<trkpt lat="48.44897" lon="2.653622"><ele></ele><time>2019-1-17T10:45:2Z</time></trkpt>
<trkpt lat="48.449009" lon="2.653793"><ele></ele><time>2019-1-17T10:45:5Z</time></trkpt>
<trkpt lat="48.449034" lon="2.653998"><ele></ele><time>2019-1-17T10:45:8Z</time></trkpt>
<trkpt lat="48.449042" lon="2.654178"><ele></ele><time>2019-1-17T10:45:11Z</time></trkpt>
<trkpt lat="48.448993" lon="2.654344"><ele></ele><time>2019-1-17T10:45:14Z</time></trkpt>
<trkpt lat="48.448982" lon="2.654514"><ele></ele><time>2019-1-17T10:45:17Z</time></trkpt>
<trkpt lat="48.448959" lon="2.654663"><ele></ele><time>2019-1-17T10:45:20Z</time></trkpt>
<trkpt lat="48.448915" lon="2.654798"><ele></ele><time>2019-1-17T10:45:23Z</time></trkpt>
<trkpt lat="48.448884" lon="2.654993"><ele></ele><time>2019-1-17T10:45:26Z</time></trkpt>
<trkpt lat="48.448824" lon="2.65517"><ele></ele><time>2019-1-17T10:45:29Z</time></trkpt>
<trkpt lat="48.448712" lon="2.655196"><ele></ele><time>2019-1-17T10:45:32Z</time></trkpt>
<trkpt lat="48.448641" lon="2.655049"><ele></ele><time>2019-1-17T10:45:35Z</time></trkpt>
<trkpt lat="48.448546" lon="2.655003"><ele></ele><time>2019-1-17T10:45:38Z</time></trkpt>
<trkpt lat="48.448438" lon="2.654947"><ele></ele><time>2019-1-17T10:45:41Z</time></trkpt>
<trkpt lat="48.448334" lon="2.654858"><ele></ele><time>2019-1-17T10:45:44Z</time></trkpt>
<trkpt lat="48.448246" lon="2.654812"><ele></ele><time>2019-1-17T10:45:47Z</time></trkpt>
<trkpt lat="48.448107" lon="2.654866"><ele></ele><time>2019-1-17T10:45:50Z</time></trkpt>
<trkpt lat="48.447959" lon="2.654837"><ele></ele><time>2019-1-17T10:45:53Z</time></trkpt>
<trkpt lat="48.447876" lon="2.654915"><ele></ele><time>2019-1-17T10:45:56Z</time></trkpt>
<trkpt lat="48.447776" lon="2.654903"><ele></ele><time>2019-1-17T10:45:59Z</time></trkpt>
<trkpt lat="48.447685" lon="2.654864"><ele></ele><time>2019-1-17T10:46:2Z</time></trkpt>
<trkpt lat="48.447606" lon="2.654754"><ele></ele><time>2019-1-17T10:46:5Z</time></trkpt>
<trkpt lat="48.447527" lon="2.654644"><ele></ele><time>2019-1-17T10:46:8Z</time></trkpt>
<trkpt lat="48.447462" lon="2.654517"><ele></ele><time>2019-1-17T10:46:11Z</time></trkpt>
<trkpt lat="48.447352" lon="2.65443"><ele></ele><time>2019-1-17T10:46:14Z</time></trkpt>
<trkpt lat="48.447262" lon="2.654314"><ele></ele><time>2019-1-17T10:46:17Z</time></trkpt>
<trkpt lat="48.447169" lon="2.654233"><ele></ele><time>2019-1-17T10:46:20Z</time></trkpt>
<trkpt lat="48.447097" lon="2.654148"><ele></ele><time>2019-1-17T10:46:23Z</time></trkpt>
<trkpt lat="48.447" lon="2.654008"><ele></ele><time>2019-1-17T10:46:26Z</time></trkpt>
<trkpt lat="48.446896" lon="2.653965"><ele></ele><time>2019-1-17T10:46:29Z</time></trkpt>
<trkpt lat="48.446822" lon="2.653858"><ele></ele><time>2019-1-17T10:46:32Z</time></trkpt>
<trkpt lat="48.446741" lon="2.653776"><ele></ele><time>2019-1-17T10:46:35Z</time></trkpt>
<trkpt lat="48.446652" lon="2.653695"><ele></ele><time>2019-1-17T10:46:38Z</time></trkpt>
<trkpt lat="48.446567" lon="2.653597"><ele></ele><time>2019-1-17T10:46:41Z</time></trkpt>
<trkpt lat="48.4465" lon="2.65349"><ele></ele><time>2019-1-17T10:46:44Z</time></trkpt>
<trkpt lat="48.446394" lon="2.653414"><ele></ele><time>2019-1-17T10:46:47Z</time></trkpt>
<trkpt lat="48.446279" lon="2.653362"><ele></ele><time>2019-1-17T10:46:50Z</time></trkpt>
<trkpt lat="48.446193" lon="2.653313"><ele></ele><time>2019-1-17T10:46:53Z</time></trkpt>
<trkpt lat="48.446112" lon="2.653217"><ele></ele><time>2019-1-17T10:46:56Z</time></trkpt>
<trkpt lat="48.44602" lon="2.653191"><ele></ele><time>2019-1-17T10:46:59Z</time></trkpt>
<trkpt lat="48.445925" lon="2.65313"><ele></ele><time>2019-1-17T10:47:2Z</time></trkpt>
<trkpt lat="48.44583" lon="2.653075"><ele></ele><time>2019-1-17T10:47:5Z</time></trkpt>
<trkpt lat="48.445739" lon="2.653064"><ele></ele><time>2019-1-17T10:47:8Z</time></trkpt>
<trkpt lat="48.445626" lon="2.653028"><ele></ele><time>2019-1-17T10:47:11Z</time></trkpt>
<trkpt lat="48.445537" lon="2.653001"><ele></ele><time>2019-1-17T10:47:14Z</time></trkpt>
<trkpt lat="48.445412" lon="2.652989"><ele></ele><time>2019-1-17T10:47:17Z</time></trkpt>
<trkpt lat="48.445291" lon="2.652962"><ele></ele><time>2019-1-17T10:47:20Z</time></trkpt>
<trkpt lat="48.445192" lon="2.652961"><ele></ele><time>2019-1-17T10:47:23Z</time></trkpt>
<trkpt lat="48.445087" lon="2.652974"><ele></ele><time>2019-1-17T10:47:26Z</time></trkpt>
<trkpt lat="48.444968" lon="2.653031"><ele></ele><time>2019-1-17T10:47:29Z</time></trkpt>
<trkpt lat="48.444863" lon="2.652978"><ele></ele><time>2019-1-17T10:47:32Z</time></trkpt>
<trkpt lat="48.444773" lon="2.652886"><ele></ele><time>2019-1-17T10:47:35Z</time></trkpt>
<trkpt lat="48.4447" lon="2.652786"><ele></ele><time>2019-1-17T10:47:38Z</time></trkpt>
<trkpt lat="48.444635" lon="2.652679"><ele></ele><time>2019-1-17T10:47:41Z</time></trkpt>
<trkpt lat="48.444562" lon="2.652591"><ele></ele><time>2019-1-17T10:47:44Z</time></trkpt>
<trkpt lat="48.444483" lon="2.652478"><ele></ele><time>2019-1-17T10:47:47Z</time></trkpt>
<trkpt lat="48.444411" lon="2.652363"><ele></ele><time>2019-1-17T10:47:50Z</time></trkpt>
<trkpt lat="48.444334" lon="2.652249"><ele></ele><time>2019-1-17T10:47:53Z</time></trkpt>
<trkpt lat="48.444229" lon="2.652171"><ele></ele><time>2019-1-17T10:47:56Z</time></trkpt>
<trkpt lat="48.444112" lon="2.652017"><ele></ele><time>2019-1-17T10:47:59Z</time></trkpt>
<trkpt lat="48.44401" lon="2.651906"><ele></ele><time>2019-1-17T10:48:2Z</time></trkpt>
<trkpt lat="48.443918" lon="2.651858"><ele></ele><time>2019-1-17T10:48:5Z</time></trkpt>
<trkpt lat="48.443828" lon="2.651867"><ele></ele><time>2019-1-17T10:48:8Z</time></trkpt>
<trkpt lat="48.443769" lon="2.652005"><ele></ele><time>2019-1-17T10:48:11Z</time></trkpt>
<trkpt lat="48.443732" lon="2.652132"><ele></ele><time>2019-1-17T10:48:14Z</time></trkpt>
<trkpt lat="48.443689" lon="2.652296"><ele></ele><time>2019-1-17T10:48:17Z</time></trkpt>
<trkpt lat="48.443612" lon="2.652406"><ele></ele><time>2019-1-17T10:48:20Z</time></trkpt>
<trkpt lat="48.443565" lon="2.652551"><ele></ele><time>2019-1-17T10:48:23Z</time></trkpt>
<trkpt lat="48.443533" lon="2.652721"><ele></ele><time>2019-1-17T10:48:26Z</time></trkpt>
<trkpt lat="48.443504" lon="2.65288"><ele></ele><time>2019-1-17T10:48:29Z</time></trkpt>
<trkpt lat="48.443475" lon="2.653023"><ele></ele><time>2019-1-17T10:48:32Z</time></trkpt>
<trkpt lat="48.443451" lon="2.653167"><ele></ele><time>2019-1-17T10:48:35Z</time></trkpt>
<trkpt lat="48.443425" lon="2.653347"><ele></ele><time>2019-1-17T10:48:38Z</time></trkpt>
<trkpt lat="48.443395" lon="2.653489"><ele></ele><time>2019-1-17T10:48:41Z</time></trkpt>
<trkpt lat="48.443368" lon="2.653665"><ele></ele><time>2019-1-17T10:48:44Z</time></trkpt>
<trkpt lat="48.443344" lon="2.65384"><ele></ele><time>2019-1-17T10:48:47Z</time></trkpt>
<trkpt lat="48.443309" lon="2.654"><ele></ele><time>2019-1-17T10:48:50Z</time></trkpt>
<trkpt lat="48.443276" lon="2.654173"><ele></ele><time>2019-1-17T10:48:53Z</time></trkpt>
<trkpt lat="48.443256" lon="2.654308"><ele></ele><time>2019-1-17T10:48:56Z</time></trkpt>
<trkpt lat="48.44323" lon="2.654441"><ele></ele><time>2019-1-17T10:48:59Z</time></trkpt>
<trkpt lat="48.443204" lon="2.654622"><ele></ele><time>2019-1-17T10:49:2Z</time></trkpt>
<trkpt lat="48.443183" lon="2.654791"><ele></ele><time>2019-1-17T10:49:5Z</time></trkpt>
<trkpt lat="48.443172" lon="2.654946"><ele></ele><time>2019-1-17T10:49:8Z</time></trkpt>
<trkpt lat="48.44316" lon="2.655087"><ele></ele><time>2019-1-17T10:49:11Z</time></trkpt>
<trkpt lat="48.443144" lon="2.655232"><ele></ele><time>2019-1-17T10:49:14Z</time></trkpt>
<trkpt lat="48.443104" lon="2.655378"><ele></ele><time>2019-1-17T10:49:17Z</time></trkpt>
<trkpt lat="48.443096" lon="2.655534"><ele></ele><time>2019-1-17T10:49:20Z</time></trkpt>
<trkpt lat="48.443055" lon="2.655722"><ele></ele><time>2019-1-17T10:49:23Z</time></trkpt>
<trkpt lat="48.443003" lon="2.655873"><ele></ele><time>2019-1-17T10:49:26Z</time></trkpt>
<trkpt lat="48.442965" lon="2.656036"><ele></ele><time>2019-1-17T10:49:29Z</time></trkpt>
<trkpt lat="48.4429" lon="2.656247"><ele></ele><time>2019-1-17T10:49:32Z</time></trkpt>
<trkpt lat="48.442814" lon="2.656333"><ele></ele><time>2019-1-17T10:49:35Z</time></trkpt>
<trkpt lat="48.442755" lon="2.656498"><ele></ele><time>2019-1-17T10:49:38Z</time></trkpt>
<trkpt lat="48.442725" lon="2.656667"><ele></ele><time>2019-1-17T10:49:41Z</time></trkpt>
<trkpt lat="48.44272" lon="2.656815"><ele></ele><time>2019-1-17T10:49:44Z</time></trkpt>
<trkpt lat="48.442706" lon="2.656953"><ele></ele><time>2019-1-17T10:49:47Z</time></trkpt>
<trkpt lat="48.442668" lon="2.657116"><ele></ele><time>2019-1-17T10:49:50Z</time></trkpt>
<trkpt lat="48.4426" lon="2.657295"><ele></ele><time>2019-1-17T10:49:53Z</time></trkpt>
<trkpt lat="48.442554" lon="2.657434"><ele></ele><time>2019-1-17T10:49:56Z</time></trkpt>
<trkpt lat="48.442507" lon="2.657598"><ele></ele><time>2019-1-17T10:49:59Z</time></trkpt>
<trkpt lat="48.442484" lon="2.657757"><ele></ele><time>2019-1-17T10:50:2Z</time></trkpt>
<trkpt lat="48.442443" lon="2.657904"><ele></ele><time>2019-1-17T10:50:5Z</time></trkpt>
<trkpt lat="48.442413" lon="2.658048"><ele></ele><time>2019-1-17T10:50:8Z</time></trkpt>
<trkpt lat="48.442362" lon="2.658194"><ele></ele><time>2019-1-17T10:50:11Z</time></trkpt>
<trkpt lat="48.442313" lon="2.658325"><ele></ele><time>2019-1-17T10:50:14Z</time></trkpt>
<trkpt lat="48.442253" lon="2.658523"><ele></ele><time>2019-1-17T10:50:17Z</time></trkpt>
<trkpt lat="48.442227" lon="2.658673"><ele></ele><time>2019-1-17T10:50:20Z</time></trkpt>
<trkpt lat="48.442183" lon="2.658801"><ele></ele><time>2019-1-17T10:50:23Z</time></trkpt>
<trkpt lat="48.442145" lon="2.658943"><ele></ele><time>2019-1-17T10:50:26Z</time></trkpt>
<trkpt lat="48.442106" lon="2.659081"><ele></ele><time>2019-1-17T10:50:29Z</time></trkpt>
<trkpt lat="48.4421" lon="2.65925"><ele></ele><time>2019-1-17T10:50:32Z</time></trkpt>
<trkpt lat="48.442066" lon="2.659391"><ele></ele><time>2019-1-17T10:50:35Z</time></trkpt>
<trkpt lat="48.442043" lon="2.659527"><ele></ele><time>2019-1-17T10:50:38Z</time></trkpt>
<trkpt lat="48.442033" lon="2.659762"><ele></ele><time>2019-1-17T10:50:41Z</time></trkpt>
<trkpt lat="48.441987" lon="2.659905"><ele></ele><time>2019-1-17T10:50:44Z</time></trkpt>
<trkpt lat="48.441954" lon="2.660058"><ele></ele><time>2019-1-17T10:50:47Z</time></trkpt>
<trkpt lat="48.441959" lon="2.660194"><ele></ele><time>2019-1-17T10:50:50Z</time></trkpt>
<trkpt lat="48.441943" lon="2.660361"><ele></ele><time>2019-1-17T10:50:53Z</time></trkpt>
<trkpt lat="48.441954" lon="2.66054"><ele></ele><time>2019-1-17T10:50:56Z</time></trkpt>
<trkpt lat="48.441957" lon="2.660714"><ele></ele><time>2019-1-17T10:50:59Z</time></trkpt>
<trkpt lat="48.441944" lon="2.660864"><ele></ele><time>2019-1-17T10:51:2Z</time></trkpt>
<trkpt lat="48.441924" lon="2.66101"><ele></ele><time>2019-1-17T10:51:5Z</time></trkpt>
<trkpt lat="48.441896" lon="2.661162"><ele></ele><time>2019-1-17T10:51:8Z</time></trkpt>
<trkpt lat="48.441845" lon="2.661295"><ele></ele><time>2019-1-17T10:51:11Z</time></trkpt>
<trkpt lat="48.441845" lon="2.661442"><ele></ele><time>2019-1-17T10:51:14Z</time></trkpt>
<trkpt lat="48.441829" lon="2.661585"><ele></ele><time>2019-1-17T10:51:17Z</time></trkpt>
<trkpt lat="48.441831" lon="2.661764"><ele></ele><time>2019-1-17T10:51:20Z</time></trkpt>
<trkpt lat="48.441812" lon="2.661902"><ele></ele><time>2019-1-17T10:51:23Z</time></trkpt>
<trkpt lat="48.441787" lon="2.662034"><ele></ele><time>2019-1-17T10:51:26Z</time></trkpt>
<trkpt lat="48.441773" lon="2.662174"><ele></ele><time>2019-1-17T10:51:29Z</time></trkpt>
<trkpt lat="48.441766" lon="2.662309"><ele></ele><time>2019-1-17T10:51:32Z</time></trkpt>
<trkpt lat="48.441743" lon="2.662458"><ele></ele><time>2019-1-17T10:51:35Z</time></trkpt>
<trkpt lat="48.441697" lon="2.662593"><ele></ele><time>2019-1-17T10:51:38Z</time></trkpt>
<trkpt lat="48.441684" lon="2.662747"><ele></ele><time>2019-1-17T10:51:41Z</time></trkpt>
<trkpt lat="48.441666" lon="2.662884"><ele></ele><time>2019-1-17T10:51:44Z</time></trkpt>
<trkpt lat="48.441643" lon="2.663044"><ele></ele><time>2019-1-17T10:51:47Z</time></trkpt>
<trkpt lat="48.441643" lon="2.663204"><ele></ele><time>2019-1-17T10:51:50Z</time></trkpt>
<trkpt lat="48.441648" lon="2.663361"><ele></ele><time>2019-1-17T10:51:53Z</time></trkpt>
<trkpt lat="48.441634" lon="2.663509"><ele></ele><time>2019-1-17T10:51:56Z</time></trkpt>
<trkpt lat="48.441612" lon="2.663665"><ele></ele><time>2019-1-17T10:51:59Z</time></trkpt>
<trkpt lat="48.441606" lon="2.663803"><ele></ele><time>2019-1-17T10:52:2Z</time></trkpt>
<trkpt lat="48.441623" lon="2.663949"><ele></ele><time>2019-1-17T10:52:5Z</time></trkpt>
<trkpt lat="48.441634" lon="2.664108"><ele></ele><time>2019-1-17T10:52:8Z</time></trkpt>
<trkpt lat="48.4416" lon="2.664266"><ele></ele><time>2019-1-17T10:52:11Z</time></trkpt>
<trkpt lat="48.441567" lon="2.664409"><ele></ele><time>2019-1-17T10:52:14Z</time></trkpt>
<trkpt lat="48.441553" lon="2.664547"><ele></ele><time>2019-1-17T10:52:17Z</time></trkpt>
<trkpt lat="48.441514" lon="2.664669"><ele></ele><time>2019-1-17T10:52:20Z</time></trkpt>
<trkpt lat="48.441508" lon="2.664831"><ele></ele><time>2019-1-17T10:52:23Z</time></trkpt>
<trkpt lat="48.441494" lon="2.664986"><ele></ele><time>2019-1-17T10:52:26Z</time></trkpt>
<trkpt lat="48.441515" lon="2.665136"><ele></ele><time>2019-1-17T10:52:29Z</time></trkpt>
<trkpt lat="48.44152" lon="2.665277"><ele></ele><time>2019-1-17T10:52:32Z</time></trkpt>
<trkpt lat="48.441561" lon="2.665409"><ele></ele><time>2019-1-17T10:52:35Z</time></trkpt>
<trkpt lat="48.441519" lon="2.66555"><ele></ele><time>2019-1-17T10:52:38Z</time></trkpt>
<trkpt lat="48.441507" lon="2.665685"><ele></ele><time>2019-1-17T10:52:41Z</time></trkpt>
<trkpt lat="48.441515" lon="2.665823"><ele></ele><time>2019-1-17T10:52:44Z</time></trkpt>
<trkpt lat="48.441506" lon="2.665979"><ele></ele><time>2019-1-17T10:52:47Z</time></trkpt>
<trkpt lat="48.441481" lon="2.66612"><ele></ele><time>2019-1-17T10:52:50Z</time></trkpt>
<trkpt lat="48.441484" lon="2.666262"><ele></ele><time>2019-1-17T10:52:53Z</time></trkpt>
<trkpt lat="48.441497" lon="2.666399"><ele></ele><time>2019-1-17T10:52:56Z</time></trkpt>
<trkpt lat="48.441527" lon="2.666538"><ele></ele><time>2019-1-17T10:52:59Z</time></trkpt>
<trkpt lat="48.44156" lon="2.666707"><ele></ele><time>2019-1-17T10:53:2Z</time></trkpt>
<trkpt lat="48.441542" lon="2.666844"><ele></ele><time>2019-1-17T10:53:5Z</time></trkpt>
<trkpt lat="48.441547" lon="2.666999"><ele></ele><time>2019-1-17T10:53:8Z</time></trkpt>
<trkpt lat="48.441566" lon="2.667183"><ele></ele><time>2019-1-17T10:53:11Z</time></trkpt>
<trkpt lat="48.441568" lon="2.667334"><ele></ele><time>2019-1-17T10:53:14Z</time></trkpt>
<trkpt lat="48.441563" lon="2.667486"><ele></ele><time>2019-1-17T10:53:17Z</time></trkpt>
<trkpt lat="48.441563" lon="2.667646"><ele></ele><time>2019-1-17T10:53:20Z</time></trkpt>
<trkpt lat="48.441556" lon="2.667796"><ele></ele><time>2019-1-17T10:53:23Z</time></trkpt>
<trkpt lat="48.441551" lon="2.667952"><ele></ele><time>2019-1-17T10:53:26Z</time></trkpt>
<trkpt lat="48.44158" lon="2.66812"><ele></ele><time>2019-1-17T10:53:29Z</time></trkpt>
<trkpt lat="48.441583" lon="2.668263"><ele></ele><time>2019-1-17T10:53:32Z</time></trkpt>
<trkpt lat="48.441597" lon="2.668408"><ele></ele><time>2019-1-17T10:53:35Z</time></trkpt>
<trkpt lat="48.441563" lon="2.668545"><ele></ele><time>2019-1-17T10:53:38Z</time></trkpt>
<trkpt lat="48.441473" lon="2.668571"><ele></ele><time>2019-1-17T10:53:41Z</time></trkpt>
<trkpt lat="48.441382" lon="2.668597"><ele></ele><time>2019-1-17T10:53:44Z</time></trkpt>
<trkpt lat="48.441353" lon="2.668758"><ele></ele><time>2019-1-17T10:53:47Z</time></trkpt>
<trkpt lat="48.441257" lon="2.668696"><ele></ele><time>2019-1-17T10:53:50Z</time></trkpt>
<trkpt lat="48.441131" lon="2.668675"><ele></ele><time>2019-1-17T10:53:53Z</time></trkpt>
<trkpt lat="48.441051" lon="2.668568"><ele></ele><time>2019-1-17T10:53:56Z</time></trkpt>
<trkpt lat="48.440955" lon="2.668565"><ele></ele><time>2019-1-17T10:53:59Z</time></trkpt>
<trkpt lat="48.440858" lon="2.668489"><ele></ele><time>2019-1-17T10:54:2Z</time></trkpt>
<trkpt lat="48.440767" lon="2.668435"><ele></ele><time>2019-1-17T10:54:5Z</time></trkpt>
<trkpt lat="48.440662" lon="2.668367"><ele></ele><time>2019-1-17T10:54:8Z</time></trkpt>
<trkpt lat="48.440568" lon="2.668313"><ele></ele><time>2019-1-17T10:54:11Z</time></trkpt>
<trkpt lat="48.440473" lon="2.66826"><ele></ele><time>2019-1-17T10:54:14Z</time></trkpt>
<trkpt lat="48.440344" lon="2.668196"><ele></ele><time>2019-1-17T10:54:17Z</time></trkpt>
<trkpt lat="48.440252" lon="2.668164"><ele></ele><time>2019-1-17T10:54:20Z</time></trkpt>
<trkpt lat="48.440121" lon="2.668076"><ele></ele><time>2019-1-17T10:54:23Z</time></trkpt>
<trkpt lat="48.440013" lon="2.66802"><ele></ele><time>2019-1-17T10:54:26Z</time></trkpt>
<trkpt lat="48.43992" lon="2.66796"><ele></ele><time>2019-1-17T10:54:29Z</time></trkpt>
<trkpt lat="48.439806" lon="2.667897"><ele></ele><time>2019-1-17T10:54:32Z</time></trkpt>
<trkpt lat="48.43969" lon="2.667864"><ele></ele><time>2019-1-17T10:54:35Z</time></trkpt>
<trkpt lat="48.439554" lon="2.667871"><ele></ele><time>2019-1-17T10:54:38Z</time></trkpt>
<trkpt lat="48.439465" lon="2.667839"><ele></ele><time>2019-1-17T10:54:41Z</time></trkpt>
<trkpt lat="48.439373" lon="2.667852"><ele></ele><time>2019-1-17T10:54:44Z</time></trkpt>
<trkpt lat="48.439234" lon="2.667867"><ele></ele><time>2019-1-17T10:54:47Z</time></trkpt>
<trkpt lat="48.439059" lon="2.667905"><ele></ele><time>2019-1-17T10:54:50Z</time></trkpt>
<trkpt lat="48.438961" lon="2.667882"><ele></ele><time>2019-1-17T10:54:53Z</time></trkpt>
<trkpt lat="48.438837" lon="2.667894"><ele></ele><time>2019-1-17T10:54:56Z</time></trkpt>
<trkpt lat="48.438745" lon="2.667857"><ele></ele><time>2019-1-17T10:54:59Z</time></trkpt>
<trkpt lat="48.438615" lon="2.667791"><ele></ele><time>2019-1-17T10:55:2Z</time></trkpt>
<trkpt lat="48.438521" lon="2.667755"><ele></ele><time>2019-1-17T10:55:5Z</time></trkpt>
<trkpt lat="48.438414" lon="2.667719"><ele></ele><time>2019-1-17T10:55:8Z</time></trkpt>
<trkpt lat="48.438321" lon="2.667662"><ele></ele><time>2019-1-17T10:55:11Z</time></trkpt>
<trkpt lat="48.438191" lon="2.667593"><ele></ele><time>2019-1-17T10:55:14Z</time></trkpt>
<trkpt lat="48.438107" lon="2.667489"><ele></ele><time>2019-1-17T10:55:17Z</time></trkpt>
<trkpt lat="48.437984" lon="2.667445"><ele></ele><time>2019-1-17T10:55:20Z</time></trkpt>
<trkpt lat="48.437887" lon="2.667382"><ele></ele><time>2019-1-17T10:55:23Z</time></trkpt>
<trkpt lat="48.437793" lon="2.667319"><ele></ele><time>2019-1-17T10:55:26Z</time></trkpt>
<trkpt lat="48.437693" lon="2.667299"><ele></ele><time>2019-1-17T10:55:29Z</time></trkpt>
<trkpt lat="48.437582" lon="2.667256"><ele></ele><time>2019-1-17T10:55:32Z</time></trkpt>
<trkpt lat="48.43747" lon="2.667209"><ele></ele><time>2019-1-17T10:55:35Z</time></trkpt>
<trkpt lat="48.437361" lon="2.667156"><ele></ele><time>2019-1-17T10:55:38Z</time></trkpt>
<trkpt lat="48.437274" lon="2.667123"><ele></ele><time>2019-1-17T10:55:41Z</time></trkpt>
<trkpt lat="48.437162" lon="2.667101"><ele></ele><time>2019-1-17T10:55:44Z</time></trkpt>
<trkpt lat="48.437071" lon="2.6671"><ele></ele><time>2019-1-17T10:55:47Z</time></trkpt>
<trkpt lat="48.43698" lon="2.667086"><ele></ele><time>2019-1-17T10:55:50Z</time></trkpt>
<trkpt lat="48.436879" lon="2.667091"><ele></ele><time>2019-1-17T10:55:53Z</time></trkpt>
<trkpt lat="48.436785" lon="2.667115"><ele></ele><time>2019-1-17T10:55:56Z</time></trkpt>
<trkpt lat="48.436678" lon="2.667107"><ele></ele><time>2019-1-17T10:55:59Z</time></trkpt>
<trkpt lat="48.436568" lon="2.66714"><ele></ele><time>2019-1-17T10:56:2Z</time></trkpt>
<trkpt lat="48.436462" lon="2.667174"><ele></ele><time>2019-1-17T10:56:5Z</time></trkpt>
<trkpt lat="48.436344" lon="2.667157"><ele></ele><time>2019-1-17T10:56:8Z</time></trkpt>
<trkpt lat="48.436235" lon="2.667173"><ele></ele><time>2019-1-17T10:56:11Z</time></trkpt>
<trkpt lat="48.436133" lon="2.667144"><ele></ele><time>2019-1-17T10:56:14Z</time></trkpt>
<trkpt lat="48.436037" lon="2.667019"><ele></ele><time>2019-1-17T10:56:17Z</time></trkpt>
<trkpt lat="48.435946" lon="2.667021"><ele></ele><time>2019-1-17T10:56:20Z</time></trkpt>
<trkpt lat="48.43586" lon="2.666892"><ele></ele><time>2019-1-17T10:56:23Z</time></trkpt>
<trkpt lat="48.435765" lon="2.666814"><ele></ele><time>2019-1-17T10:56:26Z</time></trkpt>
<trkpt lat="48.435666" lon="2.666773"><ele></ele><time>2019-1-17T10:56:29Z</time></trkpt>
<trkpt lat="48.435554" lon="2.666664"><ele></ele><time>2019-1-17T10:56:32Z</time></trkpt>
<trkpt lat="48.435494" lon="2.666556"><ele></ele><time>2019-1-17T10:56:35Z</time></trkpt>
<trkpt lat="48.435436" lon="2.666448"><ele></ele><time>2019-1-17T10:56:38Z</time></trkpt>
<trkpt lat="48.435345" lon="2.666424"><ele></ele><time>2019-1-17T10:56:41Z</time></trkpt>
<trkpt lat="48.435252" lon="2.666403"><ele></ele><time>2019-1-17T10:56:44Z</time></trkpt>
<trkpt lat="48.435153" lon="2.666388"><ele></ele><time>2019-1-17T10:56:47Z</time></trkpt>
<trkpt lat="48.435057" lon="2.666386"><ele></ele><time>2019-1-17T10:56:50Z</time></trkpt>
<trkpt lat="48.434966" lon="2.666377"><ele></ele><time>2019-1-17T10:56:53Z</time></trkpt>
<trkpt lat="48.434867" lon="2.666356"><ele></ele><time>2019-1-17T10:56:56Z</time></trkpt>
<trkpt lat="48.434772" lon="2.666337"><ele></ele><time>2019-1-17T10:56:59Z</time></trkpt>
<trkpt lat="48.434663" lon="2.666331"><ele></ele><time>2019-1-17T10:57:2Z</time></trkpt>
<trkpt lat="48.434573" lon="2.666313"><ele></ele><time>2019-1-17T10:57:5Z</time></trkpt>
<trkpt lat="48.434475" lon="2.666297"><ele></ele><time>2019-1-17T10:57:8Z</time></trkpt>
<trkpt lat="48.434369" lon="2.666234"><ele></ele><time>2019-1-17T10:57:11Z</time></trkpt>
<trkpt lat="48.434265" lon="2.666226"><ele></ele><time>2019-1-17T10:57:14Z</time></trkpt>
<trkpt lat="48.434143" lon="2.66618"><ele></ele><time>2019-1-17T10:57:17Z</time></trkpt>
<trkpt lat="48.434028" lon="2.666146"><ele></ele><time>2019-1-17T10:57:20Z</time></trkpt>
<trkpt lat="48.433919" lon="2.666111"><ele></ele><time>2019-1-17T10:57:23Z</time></trkpt>
<trkpt lat="48.433821" lon="2.666103"><ele></ele><time>2019-1-17T10:57:26Z</time></trkpt>
<trkpt lat="48.433703" lon="2.666055"><ele></ele><time>2019-1-17T10:57:29Z</time></trkpt>
<trkpt lat="48.433609" lon="2.666028"><ele></ele><time>2019-1-17T10:57:32Z</time></trkpt>
<trkpt lat="48.433491" lon="2.665981"><ele></ele><time>2019-1-17T10:57:35Z</time></trkpt>
<trkpt lat="48.433381" lon="2.665994"><ele></ele><time>2019-1-17T10:57:38Z</time></trkpt>
<trkpt lat="48.433264" lon="2.665963"><ele></ele><time>2019-1-17T10:57:41Z</time></trkpt>
<trkpt lat="48.433172" lon="2.665964"><ele></ele><time>2019-1-17T10:57:44Z</time></trkpt>
<trkpt lat="48.433051" lon="2.665892"><ele></ele><time>2019-1-17T10:57:47Z</time></trkpt>
<trkpt lat="48.432946" lon="2.66583"><ele></ele><time>2019-1-17T10:57:50Z</time></trkpt>
<trkpt lat="48.432858" lon="2.665797"><ele></ele><time>2019-1-17T10:57:53Z</time></trkpt>
<trkpt lat="48.432734" lon="2.665845"><ele></ele><time>2019-1-17T10:57:56Z</time></trkpt>
<trkpt lat="48.432628" lon="2.665836"><ele></ele><time>2019-1-17T10:57:59Z</time></trkpt>
<trkpt lat="48.432505" lon="2.665806"><ele></ele><time>2019-1-17T10:58:2Z</time></trkpt>
<trkpt lat="48.432384" lon="2.665822"><ele></ele><time>2019-1-17T10:58:5Z</time></trkpt>
<trkpt lat="48.432298" lon="2.665743"><ele></ele><time>2019-1-17T10:58:8Z</time></trkpt>
<trkpt lat="48.432188" lon="2.665734"><ele></ele><time>2019-1-17T10:58:11Z</time></trkpt>
<trkpt lat="48.432061" lon="2.665741"><ele></ele><time>2019-1-17T10:58:14Z</time></trkpt>
<trkpt lat="48.431915" lon="2.665718"><ele></ele><time>2019-1-17T10:58:17Z</time></trkpt>
<trkpt lat="48.43179" lon="2.665712"><ele></ele><time>2019-1-17T10:58:20Z</time></trkpt>
<trkpt lat="48.431693" lon="2.665716"><ele></ele><time>2019-1-17T10:58:23Z</time></trkpt>
<trkpt lat="48.431581" lon="2.665705"><ele></ele><time>2019-1-17T10:58:26Z</time></trkpt>
<trkpt lat="48.431466" lon="2.665657"><ele></ele><time>2019-1-17T10:58:29Z</time></trkpt>
<trkpt lat="48.431358" lon="2.665621"><ele></ele><time>2019-1-17T10:58:32Z</time></trkpt>
<trkpt lat="48.431229" lon="2.665603"><ele></ele><time>2019-1-17T10:58:35Z</time></trkpt>
<trkpt lat="48.431112" lon="2.665556"><ele></ele><time>2019-1-17T10:58:38Z</time></trkpt>
<trkpt lat="48.430966" lon="2.665583"><ele></ele><time>2019-1-17T10:58:41Z</time></trkpt>
<trkpt lat="48.43085" lon="2.665651"><ele></ele><time>2019-1-17T10:58:44Z</time></trkpt>
<trkpt lat="48.430757" lon="2.665724"><ele></ele><time>2019-1-17T10:58:47Z</time></trkpt>
<trkpt lat="48.430678" lon="2.665813"><ele></ele><time>2019-1-17T10:58:50Z</time></trkpt>
<trkpt lat="48.430602" lon="2.665921"><ele></ele><time>2019-1-17T10:58:53Z</time></trkpt>
<trkpt lat="48.430526" lon="2.666041"><ele></ele><time>2019-1-17T10:58:56Z</time></trkpt>
<trkpt lat="48.430457" lon="2.666147"><ele></ele><time>2019-1-17T10:58:59Z</time></trkpt>
<trkpt lat="48.430401" lon="2.666292"><ele></ele><time>2019-1-17T10:59:2Z</time></trkpt>
<trkpt lat="48.430343" lon="2.666405"><ele></ele><time>2019-1-17T10:59:5Z</time></trkpt>
<trkpt lat="48.430255" lon="2.666511"><ele></ele><time>2019-1-17T10:59:8Z</time></trkpt>
<trkpt lat="48.430164" lon="2.666569"><ele></ele><time>2019-1-17T10:59:11Z</time></trkpt>
<trkpt lat="48.430098" lon="2.666673"><ele></ele><time>2019-1-17T10:59:14Z</time></trkpt>
<trkpt lat="48.430045" lon="2.666825"><ele></ele><time>2019-1-17T10:59:17Z</time></trkpt>
<trkpt lat="48.429997" lon="2.666944"><ele></ele><time>2019-1-17T10:59:20Z</time></trkpt>
<trkpt lat="48.429982" lon="2.667094"><ele></ele><time>2019-1-17T10:59:23Z</time></trkpt>
<trkpt lat="48.429985" lon="2.667256"><ele></ele><time>2019-1-17T10:59:26Z</time></trkpt>
<trkpt lat="48.430043" lon="2.667393"><ele></ele><time>2019-1-17T10:59:29Z</time></trkpt>
<trkpt lat="48.43006" lon="2.667566"><ele></ele><time>2019-1-17T10:59:32Z</time></trkpt>
<trkpt lat="48.429998" lon="2.667684"><ele></ele><time>2019-1-17T10:59:35Z</time></trkpt>
<trkpt lat="48.42996" lon="2.667829"><ele></ele><time>2019-1-17T10:59:38Z</time></trkpt>
<trkpt lat="48.429905" lon="2.66794"><ele></ele><time>2019-1-17T10:59:41Z</time></trkpt>
<trkpt lat="48.429845" lon="2.66807"><ele></ele><time>2019-1-17T10:59:44Z</time></trkpt>
<trkpt lat="48.429925" lon="2.668139"><ele></ele><time>2019-1-17T10:59:47Z</time></trkpt>
<trkpt lat="48.429872" lon="2.668261"><ele></ele><time>2019-1-17T10:59:50Z</time></trkpt>
<trkpt lat="48.429821" lon="2.66814"><ele></ele><time>2019-1-17T10:59:53Z</time></trkpt>
<trkpt lat="48.429739" lon="2.668079"><ele></ele><time>2019-1-17T10:59:56Z</time></trkpt>
<trkpt lat="48.429646" lon="2.668029"><ele></ele><time>2019-1-17T10:59:59Z</time></trkpt>
<trkpt lat="48.429582" lon="2.667926"><ele></ele><time>2019-1-17T11:0:2Z</time></trkpt>
<trkpt lat="48.429511" lon="2.667832"><ele></ele><time>2019-1-17T11:0:5Z</time></trkpt>
<trkpt lat="48.429432" lon="2.667725"><ele></ele><time>2019-1-17T11:0:8Z</time></trkpt>
<trkpt lat="48.429331" lon="2.667682"><ele></ele><time>2019-1-17T11:0:11Z</time></trkpt>
<trkpt lat="48.429256" lon="2.667579"><ele></ele><time>2019-1-17T11:0:14Z</time></trkpt>
<trkpt lat="48.429161" lon="2.667503"><ele></ele><time>2019-1-17T11:0:17Z</time></trkpt>
<trkpt lat="48.429118" lon="2.667369"><ele></ele><time>2019-1-17T11:0:20Z</time></trkpt>
<trkpt lat="48.429074" lon="2.667235"><ele></ele><time>2019-1-17T11:0:23Z</time></trkpt>
<trkpt lat="48.428996" lon="2.667092"><ele></ele><time>2019-1-17T11:0:26Z</time></trkpt>
<trkpt lat="48.428931" lon="2.666979"><ele></ele><time>2019-1-17T11:0:29Z</time></trkpt>
<trkpt lat="48.428824" lon="2.6669"><ele></ele><time>2019-1-17T11:0:32Z</time></trkpt>
<trkpt lat="48.428768" lon="2.666774"><ele></ele><time>2019-1-17T11:0:35Z</time></trkpt>
<trkpt lat="48.428707" lon="2.66665"><ele></ele><time>2019-1-17T11:0:38Z</time></trkpt>
<trkpt lat="48.428618" lon="2.66657"><ele></ele><time>2019-1-17T11:0:41Z</time></trkpt>
<trkpt lat="48.428523" lon="2.666558"><ele></ele><time>2019-1-17T11:0:44Z</time></trkpt>
<trkpt lat="48.428418" lon="2.666516"><ele></ele><time>2019-1-17T11:0:47Z</time></trkpt>
<trkpt lat="48.428313" lon="2.666558"><ele></ele><time>2019-1-17T11:0:50Z</time></trkpt>
<trkpt lat="48.428222" lon="2.666584"><ele></ele><time>2019-1-17T11:0:53Z</time></trkpt>
<trkpt lat="48.428127" lon="2.666526"><ele></ele><time>2019-1-17T11:0:56Z</time></trkpt>
<trkpt lat="48.428024" lon="2.666561"><ele></ele><time>2019-1-17T11:0:59Z</time></trkpt>
<trkpt lat="48.427935" lon="2.666616"><ele></ele><time>2019-1-17T11:1:2Z</time></trkpt>
<trkpt lat="48.427839" lon="2.666668"><ele></ele><time>2019-1-17T11:1:5Z</time></trkpt>
<trkpt lat="48.427738" lon="2.666738"><ele></ele><time>2019-1-17T11:1:8Z</time></trkpt>
<trkpt lat="48.427649" lon="2.666811"><ele></ele><time>2019-1-17T11:1:11Z</time></trkpt>
<trkpt lat="48.427556" lon="2.666863"><ele></ele><time>2019-1-17T11:1:14Z</time></trkpt>
<trkpt lat="48.427448" lon="2.666936"><ele></ele><time>2019-1-17T11:1:17Z</time></trkpt>
<trkpt lat="48.427363" lon="2.666992"><ele></ele><time>2019-1-17T11:1:20Z</time></trkpt>
<trkpt lat="48.427261" lon="2.667046"><ele></ele><time>2019-1-17T11:1:23Z</time></trkpt>
<trkpt lat="48.427157" lon="2.667084"><ele></ele><time>2019-1-17T11:1:26Z</time></trkpt>
<trkpt lat="48.427054" lon="2.667121"><ele></ele><time>2019-1-17T11:1:29Z</time></trkpt>
<trkpt lat="48.426955" lon="2.66718"><ele></ele><time>2019-1-17T11:1:32Z</time></trkpt>
<trkpt lat="48.426858" lon="2.66723"><ele></ele><time>2019-1-17T11:1:35Z</time></trkpt>
<trkpt lat="48.426774" lon="2.667295"><ele></ele><time>2019-1-17T11:1:38Z</time></trkpt>
<trkpt lat="48.426654" lon="2.667383"><ele></ele><time>2019-1-17T11:1:41Z</time></trkpt>
<trkpt lat="48.426544" lon="2.667446"><ele></ele><time>2019-1-17T11:1:44Z</time></trkpt>
<trkpt lat="48.426456" lon="2.667549"><ele></ele><time>2019-1-17T11:1:47Z</time></trkpt>
<trkpt lat="48.426357" lon="2.667631"><ele></ele><time>2019-1-17T11:1:50Z</time></trkpt>
<trkpt lat="48.426268" lon="2.667737"><ele></ele><time>2019-1-17T11:1:53Z</time></trkpt>
<trkpt lat="48.426144" lon="2.667747"><ele></ele><time>2019-1-17T11:1:56Z</time></trkpt>
<trkpt lat="48.426049" lon="2.667795"><ele></ele><time>2019-1-17T11:1:59Z</time></trkpt>
<trkpt lat="48.425951" lon="2.667832"><ele></ele><time>2019-1-17T11:2:2Z</time></trkpt>
<trkpt lat="48.425834" lon="2.667891"><ele></ele><time>2019-1-17T11:2:5Z</time></trkpt>
<trkpt lat="48.425704" lon="2.667936"><ele></ele><time>2019-1-17T11:2:8Z</time></trkpt>
<trkpt lat="48.42562" lon="2.668011"><ele></ele><time>2019-1-17T11:2:11Z</time></trkpt>
<trkpt lat="48.425522" lon="2.668066"><ele></ele><time>2019-1-17T11:2:14Z</time></trkpt>
<trkpt lat="48.425406" lon="2.668159"><ele></ele><time>2019-1-17T11:2:17Z</time></trkpt>
<trkpt lat="48.425315" lon="2.668257"><ele></ele><time>2019-1-17T11:2:20Z</time></trkpt>
<trkpt lat="48.425192" lon="2.668418"><ele></ele><time>2019-1-17T11:2:23Z</time></trkpt>
<trkpt lat="48.425098" lon="2.668477"><ele></ele><time>2019-1-17T11:2:26Z</time></trkpt>
<trkpt lat="48.425024" lon="2.668565"><ele></ele><time>2019-1-17T11:2:29Z</time></trkpt>
<trkpt lat="48.424919" lon="2.668622"><ele></ele><time>2019-1-17T11:2:32Z</time></trkpt>
<trkpt lat="48.424782" lon="2.668633"><ele></ele><time>2019-1-17T11:2:35Z</time></trkpt>
<trkpt lat="48.424706" lon="2.668727"><ele></ele><time>2019-1-17T11:2:38Z</time></trkpt>
<trkpt lat="48.424585" lon="2.668816"><ele></ele><time>2019-1-17T11:2:41Z</time></trkpt>
<trkpt lat="48.424484" lon="2.668841"><ele></ele><time>2019-1-17T11:2:44Z</time></trkpt>
<trkpt lat="48.42438" lon="2.668899"><ele></ele><time>2019-1-17T11:2:47Z</time></trkpt>
<trkpt lat="48.424284" lon="2.668905"><ele></ele><time>2019-1-17T11:2:50Z</time></trkpt>
<trkpt lat="48.424175" lon="2.668989"><ele></ele><time>2019-1-17T11:2:53Z</time></trkpt>
<trkpt lat="48.424076" lon="2.669094"><ele></ele><time>2019-1-17T11:2:56Z</time></trkpt>
<trkpt lat="48.423966" lon="2.669139"><ele></ele><time>2019-1-17T11:2:59Z</time></trkpt>
<trkpt lat="48.423869" lon="2.669209"><ele></ele><time>2019-1-17T11:3:2Z</time></trkpt>
<trkpt lat="48.423749" lon="2.669271"><ele></ele><time>2019-1-17T11:3:5Z</time></trkpt>
<trkpt lat="48.423665" lon="2.669345"><ele></ele><time>2019-1-17T11:3:8Z</time></trkpt>
<trkpt lat="48.423584" lon="2.669406"><ele></ele><time>2019-1-17T11:3:11Z</time></trkpt>
<trkpt lat="48.423471" lon="2.669528"><ele></ele><time>2019-1-17T11:3:14Z</time></trkpt>
<trkpt lat="48.423368" lon="2.669594"><ele></ele><time>2019-1-17T11:3:17Z</time></trkpt>
<trkpt lat="48.423254" lon="2.669635"><ele></ele><time>2019-1-17T11:3:20Z</time></trkpt>
<trkpt lat="48.423169" lon="2.669705"><ele></ele><time>2019-1-17T11:3:23Z</time></trkpt>
<trkpt lat="48.423065" lon="2.669818"><ele></ele><time>2019-1-17T11:3:26Z</time></trkpt>
<trkpt lat="48.422976" lon="2.669908"><ele></ele><time>2019-1-17T11:3:29Z</time></trkpt>
<trkpt lat="48.422892" lon="2.669959"><ele></ele><time>2019-1-17T11:3:32Z</time></trkpt>
<trkpt lat="48.422801" lon="2.670004"><ele></ele><time>2019-1-17T11:3:35Z</time></trkpt>
<trkpt lat="48.422697" lon="2.670098"><ele></ele><time>2019-1-17T11:3:38Z</time></trkpt>
<trkpt lat="48.422603" lon="2.670144"><ele></ele><time>2019-1-17T11:3:41Z</time></trkpt>
<trkpt lat="48.422509" lon="2.67021"><ele></ele><time>2019-1-17T11:3:44Z</time></trkpt>
<trkpt lat="48.422416" lon="2.670265"><ele></ele><time>2019-1-17T11:3:47Z</time></trkpt>
<trkpt lat="48.422293" lon="2.670397"><ele></ele><time>2019-1-17T11:3:50Z</time></trkpt>
<trkpt lat="48.422209" lon="2.670479"><ele></ele><time>2019-1-17T11:3:53Z</time></trkpt>
<trkpt lat="48.42211" lon="2.670573"><ele></ele><time>2019-1-17T11:3:56Z</time></trkpt>
<trkpt lat="48.422041" lon="2.670682"><ele></ele><time>2019-1-17T11:3:59Z</time></trkpt>
<trkpt lat="48.421933" lon="2.67074"><ele></ele><time>2019-1-17T11:4:2Z</time></trkpt>
<trkpt lat="48.421847" lon="2.670796"><ele></ele><time>2019-1-17T11:4:5Z</time></trkpt>
<trkpt lat="48.421749" lon="2.670845"><ele></ele><time>2019-1-17T11:4:8Z</time></trkpt>
<trkpt lat="48.421622" lon="2.67093"><ele></ele><time>2019-1-17T11:4:11Z</time></trkpt>
<trkpt lat="48.421532" lon="2.671036"><ele></ele><time>2019-1-17T11:4:14Z</time></trkpt>
<trkpt lat="48.421435" lon="2.671081"><ele></ele><time>2019-1-17T11:4:17Z</time></trkpt>
<trkpt lat="48.421316" lon="2.67118"><ele></ele><time>2019-1-17T11:4:20Z</time></trkpt>
<trkpt lat="48.421222" lon="2.671265"><ele></ele><time>2019-1-17T11:4:23Z</time></trkpt>
<trkpt lat="48.421141" lon="2.671341"><ele></ele><time>2019-1-17T11:4:26Z</time></trkpt>
<trkpt lat="48.421016" lon="2.671422"><ele></ele><time>2019-1-17T11:4:29Z</time></trkpt>
<trkpt lat="48.420929" lon="2.671567"><ele></ele><time>2019-1-17T11:4:32Z</time></trkpt>
<trkpt lat="48.420806" lon="2.671677"><ele></ele><time>2019-1-17T11:4:35Z</time></trkpt>
<trkpt lat="48.420759" lon="2.671801"><ele></ele><time>2019-1-17T11:4:38Z</time></trkpt>
<trkpt lat="48.420659" lon="2.6719"><ele></ele><time>2019-1-17T11:4:41Z</time></trkpt>
<trkpt lat="48.420571" lon="2.671951"><ele></ele><time>2019-1-17T11:4:44Z</time></trkpt>
<trkpt lat="48.420458" lon="2.671974"><ele></ele><time>2019-1-17T11:4:47Z</time></trkpt>
<trkpt lat="48.420372" lon="2.67204"><ele></ele><time>2019-1-17T11:4:50Z</time></trkpt>
<trkpt lat="48.420253" lon="2.672096"><ele></ele><time>2019-1-17T11:4:53Z</time></trkpt>
<trkpt lat="48.420172" lon="2.672176"><ele></ele><time>2019-1-17T11:4:56Z</time></trkpt>
<trkpt lat="48.420061" lon="2.67223"><ele></ele><time>2019-1-17T11:4:59Z</time></trkpt>
<trkpt lat="48.419936" lon="2.672337"><ele></ele><time>2019-1-17T11:5:2Z</time></trkpt>
<trkpt lat="48.419861" lon="2.672455"><ele></ele><time>2019-1-17T11:5:5Z</time></trkpt>
<trkpt lat="48.419776" lon="2.672511"><ele></ele><time>2019-1-17T11:5:8Z</time></trkpt>
<trkpt lat="48.419669" lon="2.672571"><ele></ele><time>2019-1-17T11:5:11Z</time></trkpt>
<trkpt lat="48.41955" lon="2.672644"><ele></ele><time>2019-1-17T11:5:14Z</time></trkpt>
<trkpt lat="48.419436" lon="2.672705"><ele></ele><time>2019-1-17T11:5:17Z</time></trkpt>
<trkpt lat="48.419347" lon="2.67275"><ele></ele><time>2019-1-17T11:5:20Z</time></trkpt>
<trkpt lat="48.419256" lon="2.67277"><ele></ele><time>2019-1-17T11:5:23Z</time></trkpt>
<trkpt lat="48.419149" lon="2.672848"><ele></ele><time>2019-1-17T11:5:26Z</time></trkpt>
<trkpt lat="48.419039" lon="2.672879"><ele></ele><time>2019-1-17T11:5:29Z</time></trkpt>
<trkpt lat="48.418917" lon="2.672886"><ele></ele><time>2019-1-17T11:5:32Z</time></trkpt>
<trkpt lat="48.418811" lon="2.672982"><ele></ele><time>2019-1-17T11:5:35Z</time></trkpt>
<trkpt lat="48.418747" lon="2.67308"><ele></ele><time>2019-1-17T11:5:38Z</time></trkpt>
<trkpt lat="48.418661" lon="2.673161"><ele></ele><time>2019-1-17T11:5:41Z</time></trkpt>
<trkpt lat="48.418544" lon="2.673224"><ele></ele><time>2019-1-17T11:5:44Z</time></trkpt>
<trkpt lat="48.418454" lon="2.673318"><ele></ele><time>2019-1-17T11:5:47Z</time></trkpt>
<trkpt lat="48.418361" lon="2.673431"><ele></ele><time>2019-1-17T11:5:50Z</time></trkpt>
<trkpt lat="48.418324" lon="2.673575"><ele></ele><time>2019-1-17T11:5:53Z</time></trkpt>
<trkpt lat="48.418248" lon="2.673706"><ele></ele><time>2019-1-17T11:5:56Z</time></trkpt>
<trkpt lat="48.418166" lon="2.673784"><ele></ele><time>2019-1-17T11:5:59Z</time></trkpt>
<trkpt lat="48.418107" lon="2.673917"><ele></ele><time>2019-1-17T11:6:2Z</time></trkpt>
<trkpt lat="48.418051" lon="2.67403"><ele></ele><time>2019-1-17T11:6:5Z</time></trkpt>
<trkpt lat="48.418018" lon="2.674188"><ele></ele><time>2019-1-17T11:6:8Z</time></trkpt>
<trkpt lat="48.417955" lon="2.67439"><ele></ele><time>2019-1-17T11:6:11Z</time></trkpt>
<trkpt lat="48.417888" lon="2.674516"><ele></ele><time>2019-1-17T11:6:14Z</time></trkpt>
<trkpt lat="48.417904" lon="2.674371"><ele></ele><time>2019-1-17T11:6:17Z</time></trkpt>
<trkpt lat="48.417959" lon="2.674252"><ele></ele><time>2019-1-17T11:6:20Z</time></trkpt>
<trkpt lat="48.418014" lon="2.674111"><ele></ele><time>2019-1-17T11:6:23Z</time></trkpt>
<trkpt lat="48.418039" lon="2.673967"><ele></ele><time>2019-1-17T11:6:26Z</time></trkpt>
<trkpt lat="48.4181" lon="2.67384"><ele></ele><time>2019-1-17T11:6:29Z</time></trkpt>
<trkpt lat="48.418176" lon="2.673711"><ele></ele><time>2019-1-17T11:6:32Z</time></trkpt>
<trkpt lat="48.41821" lon="2.673571"><ele></ele><time>2019-1-17T11:6:35Z</time></trkpt>
<trkpt lat="48.418252" lon="2.673422"><ele></ele><time>2019-1-17T11:6:38Z</time></trkpt>
<trkpt lat="48.418231" lon="2.67326"><ele></ele><time>2019-1-17T11:6:41Z</time></trkpt>
<trkpt lat="48.418142" lon="2.673222"><ele></ele><time>2019-1-17T11:6:44Z</time></trkpt>
<trkpt lat="48.418117" lon="2.673076"><ele></ele><time>2019-1-17T11:6:47Z</time></trkpt>
<trkpt lat="48.418087" lon="2.672936"><ele></ele><time>2019-1-17T11:6:50Z</time></trkpt>
<trkpt lat="48.418077" lon="2.672763"><ele></ele><time>2019-1-17T11:6:53Z</time></trkpt>
<trkpt lat="48.418064" lon="2.672617"><ele></ele><time>2019-1-17T11:6:56Z</time></trkpt>
<trkpt lat="48.418032" lon="2.672436"><ele></ele><time>2019-1-17T11:6:59Z</time></trkpt>
<trkpt lat="48.418028" lon="2.672238"><ele></ele><time>2019-1-17T11:7:2Z</time></trkpt>
<trkpt lat="48.41805" lon="2.672062"><ele></ele><time>2019-1-17T11:7:5Z</time></trkpt>
<trkpt lat="48.418006" lon="2.671885"><ele></ele><time>2019-1-17T11:7:8Z</time></trkpt>
<trkpt lat="48.417999" lon="2.671737"><ele></ele><time>2019-1-17T11:7:11Z</time></trkpt>
<trkpt lat="48.417993" lon="2.671593"><ele></ele><time>2019-1-17T11:7:14Z</time></trkpt>
<trkpt lat="48.417967" lon="2.671442"><ele></ele><time>2019-1-17T11:7:17Z</time></trkpt>
<trkpt lat="48.41791" lon="2.671256"><ele></ele><time>2019-1-17T11:7:20Z</time></trkpt>
<trkpt lat="48.417907" lon="2.671061"><ele></ele><time>2019-1-17T11:7:23Z</time></trkpt>
<trkpt lat="48.417896" lon="2.670926"><ele></ele><time>2019-1-17T11:7:26Z</time></trkpt>
<trkpt lat="48.417896" lon="2.670774"><ele></ele><time>2019-1-17T11:7:29Z</time></trkpt>
<trkpt lat="48.417873" lon="2.670607"><ele></ele><time>2019-1-17T11:7:32Z</time></trkpt>
<trkpt lat="48.417834" lon="2.670449"><ele></ele><time>2019-1-17T11:7:35Z</time></trkpt>
<trkpt lat="48.417818" lon="2.670283"><ele></ele><time>2019-1-17T11:7:38Z</time></trkpt>
<trkpt lat="48.417801" lon="2.670087"><ele></ele><time>2019-1-17T11:7:41Z</time></trkpt>
<trkpt lat="48.417737" lon="2.669853"><ele></ele><time>2019-1-17T11:7:44Z</time></trkpt>
<trkpt lat="48.417703" lon="2.669595"><ele></ele><time>2019-1-17T11:7:47Z</time></trkpt>
<trkpt lat="48.417679" lon="2.66944"><ele></ele><time>2019-1-17T11:7:50Z</time></trkpt>
<trkpt lat="48.417637" lon="2.669283"><ele></ele><time>2019-1-17T11:7:53Z</time></trkpt>
<trkpt lat="48.417607" lon="2.669117"><ele></ele><time>2019-1-17T11:7:56Z</time></trkpt>
<trkpt lat="48.417597" lon="2.668874"><ele></ele><time>2019-1-17T11:7:59Z</time></trkpt>
<trkpt lat="48.417578" lon="2.668711"><ele></ele><time>2019-1-17T11:8:2Z</time></trkpt>
<trkpt lat="48.417562" lon="2.668432"><ele></ele><time>2019-1-17T11:8:5Z</time></trkpt>
<trkpt lat="48.417541" lon="2.668284"><ele></ele><time>2019-1-17T11:8:8Z</time></trkpt>
<trkpt lat="48.41751" lon="2.668117"><ele></ele><time>2019-1-17T11:8:11Z</time></trkpt>
<trkpt lat="48.417474" lon="2.667928"><ele></ele><time>2019-1-17T11:8:14Z</time></trkpt>
<trkpt lat="48.417444" lon="2.667737"><ele></ele><time>2019-1-17T11:8:17Z</time></trkpt>
<trkpt lat="48.417409" lon="2.667578"><ele></ele><time>2019-1-17T11:8:20Z</time></trkpt>
<trkpt lat="48.417369" lon="2.667444"><ele></ele><time>2019-1-17T11:8:23Z</time></trkpt>
<trkpt lat="48.417343" lon="2.667294"><ele></ele><time>2019-1-17T11:8:26Z</time></trkpt>
<trkpt lat="48.417297" lon="2.667177"><ele></ele><time>2019-1-17T11:8:29Z</time></trkpt>
<trkpt lat="48.417265" lon="2.667047"><ele></ele><time>2019-1-17T11:8:32Z</time></trkpt>
<trkpt lat="48.417213" lon="2.666921"><ele></ele><time>2019-1-17T11:8:35Z</time></trkpt>
<trkpt lat="48.417187" lon="2.666755"><ele></ele><time>2019-1-17T11:8:38Z</time></trkpt>
<trkpt lat="48.417134" lon="2.666608"><ele></ele><time>2019-1-17T11:8:41Z</time></trkpt>
<trkpt lat="48.417097" lon="2.66644"><ele></ele><time>2019-1-17T11:8:44Z</time></trkpt>
<trkpt lat="48.417059" lon="2.666314"><ele></ele><time>2019-1-17T11:8:47Z</time></trkpt>
<trkpt lat="48.417021" lon="2.666157"><ele></ele><time>2019-1-17T11:8:50Z</time></trkpt>
<trkpt lat="48.416975" lon="2.66601"><ele></ele><time>2019-1-17T11:8:53Z</time></trkpt>
<trkpt lat="48.41693" lon="2.665886"><ele></ele><time>2019-1-17T11:8:56Z</time></trkpt>
<trkpt lat="48.416876" lon="2.66575"><ele></ele><time>2019-1-17T11:8:59Z</time></trkpt>
<trkpt lat="48.416822" lon="2.665601"><ele></ele><time>2019-1-17T11:9:2Z</time></trkpt>
<trkpt lat="48.416786" lon="2.665459"><ele></ele><time>2019-1-17T11:9:5Z</time></trkpt>
<trkpt lat="48.416743" lon="2.665328"><ele></ele><time>2019-1-17T11:9:8Z</time></trkpt>
<trkpt lat="48.416687" lon="2.665168"><ele></ele><time>2019-1-17T11:9:11Z</time></trkpt>
<trkpt lat="48.41664" lon="2.665009"><ele></ele><time>2019-1-17T11:9:14Z</time></trkpt>
<trkpt lat="48.41661" lon="2.664873"><ele></ele><time>2019-1-17T11:9:17Z</time></trkpt>
<trkpt lat="48.416551" lon="2.664707"><ele></ele><time>2019-1-17T11:9:20Z</time></trkpt>
<trkpt lat="48.416471" lon="2.664548"><ele></ele><time>2019-1-17T11:9:23Z</time></trkpt>
<trkpt lat="48.416403" lon="2.664418"><ele></ele><time>2019-1-17T11:9:26Z</time></trkpt>
<trkpt lat="48.41634" lon="2.664278"><ele></ele><time>2019-1-17T11:9:29Z</time></trkpt>
<trkpt lat="48.416278" lon="2.664154"><ele></ele><time>2019-1-17T11:9:32Z</time></trkpt>
<trkpt lat="48.416221" lon="2.664033"><ele></ele><time>2019-1-17T11:9:35Z</time></trkpt>
<trkpt lat="48.416147" lon="2.663862"><ele></ele><time>2019-1-17T11:9:38Z</time></trkpt>
<trkpt lat="48.416065" lon="2.663728"><ele></ele><time>2019-1-17T11:9:41Z</time></trkpt>
<trkpt lat="48.416001" lon="2.663623"><ele></ele><time>2019-1-17T11:9:44Z</time></trkpt>
<trkpt lat="48.415925" lon="2.663486"><ele></ele><time>2019-1-17T11:9:47Z</time></trkpt>
<trkpt lat="48.415843" lon="2.663334"><ele></ele><time>2019-1-17T11:9:50Z</time></trkpt>
<trkpt lat="48.415756" lon="2.663226"><ele></ele><time>2019-1-17T11:9:53Z</time></trkpt>
<trkpt lat="48.415671" lon="2.663086"><ele></ele><time>2019-1-17T11:9:56Z</time></trkpt>
<trkpt lat="48.41559" lon="2.662937"><ele></ele><time>2019-1-17T11:9:59Z</time></trkpt>
<trkpt lat="48.41551" lon="2.66281"><ele></ele><time>2019-1-17T11:10:2Z</time></trkpt>
<trkpt lat="48.415439" lon="2.662695"><ele></ele><time>2019-1-17T11:10:5Z</time></trkpt>
<trkpt lat="48.415346" lon="2.662604"><ele></ele><time>2019-1-17T11:10:8Z</time></trkpt>
<trkpt lat="48.415269" lon="2.662476"><ele></ele><time>2019-1-17T11:10:11Z</time></trkpt>
<trkpt lat="48.415191" lon="2.662342"><ele></ele><time>2019-1-17T11:10:14Z</time></trkpt>
<trkpt lat="48.415139" lon="2.662225"><ele></ele><time>2019-1-17T11:10:17Z</time></trkpt>
<trkpt lat="48.415075" lon="2.662115"><ele></ele><time>2019-1-17T11:10:20Z</time></trkpt>
<trkpt lat="48.415018" lon="2.662006"><ele></ele><time>2019-1-17T11:10:23Z</time></trkpt>
<trkpt lat="48.414941" lon="2.661921"><ele></ele><time>2019-1-17T11:10:26Z</time></trkpt>
<trkpt lat="48.414874" lon="2.661755"><ele></ele><time>2019-1-17T11:10:29Z</time></trkpt>
<trkpt lat="48.414781" lon="2.661637"><ele></ele><time>2019-1-17T11:10:32Z</time></trkpt>
<trkpt lat="48.414697" lon="2.661477"><ele></ele><time>2019-1-17T11:10:35Z</time></trkpt>
<trkpt lat="48.414635" lon="2.661378"><ele></ele><time>2019-1-17T11:10:38Z</time></trkpt>
<trkpt lat="48.414566" lon="2.661226"><ele></ele><time>2019-1-17T11:10:41Z</time></trkpt>
<trkpt lat="48.414483" lon="2.661072"><ele></ele><time>2019-1-17T11:10:44Z</time></trkpt>
<trkpt lat="48.414399" lon="2.660918"><ele></ele><time>2019-1-17T11:10:47Z</time></trkpt>
<trkpt lat="48.414334" lon="2.660803"><ele></ele><time>2019-1-17T11:10:50Z</time></trkpt>
<trkpt lat="48.414259" lon="2.66066"><ele></ele><time>2019-1-17T11:10:53Z</time></trkpt>
<trkpt lat="48.414175" lon="2.660554"><ele></ele><time>2019-1-17T11:10:56Z</time></trkpt>
<trkpt lat="48.414106" lon="2.660459"><ele></ele><time>2019-1-17T11:10:59Z</time></trkpt>
<trkpt lat="48.414015" lon="2.660311"><ele></ele><time>2019-1-17T11:11:2Z</time></trkpt>
<trkpt lat="48.413939" lon="2.660146"><ele></ele><time>2019-1-17T11:11:5Z</time></trkpt>
<trkpt lat="48.413855" lon="2.660052"><ele></ele><time>2019-1-17T11:11:8Z</time></trkpt>
<trkpt lat="48.413768" lon="2.659965"><ele></ele><time>2019-1-17T11:11:11Z</time></trkpt>
<trkpt lat="48.413701" lon="2.65986"><ele></ele><time>2019-1-17T11:11:14Z</time></trkpt>
<trkpt lat="48.413621" lon="2.659723"><ele></ele><time>2019-1-17T11:11:17Z</time></trkpt>
<trkpt lat="48.41355" lon="2.659615"><ele></ele><time>2019-1-17T11:11:20Z</time></trkpt>
<trkpt lat="48.413488" lon="2.659504"><ele></ele><time>2019-1-17T11:11:23Z</time></trkpt>
<trkpt lat="48.413432" lon="2.659374"><ele></ele><time>2019-1-17T11:11:26Z</time></trkpt>
<trkpt lat="48.413359" lon="2.659249"><ele></ele><time>2019-1-17T11:11:29Z</time></trkpt>
<trkpt lat="48.41329" lon="2.659136"><ele></ele><time>2019-1-17T11:11:32Z</time></trkpt>
<trkpt lat="48.413228" lon="2.659016"><ele></ele><time>2019-1-17T11:11:35Z</time></trkpt>
<trkpt lat="48.413139" lon="2.658896"><ele></ele><time>2019-1-17T11:11:38Z</time></trkpt>
<trkpt lat="48.413049" lon="2.658745"><ele></ele><time>2019-1-17T11:11:41Z</time></trkpt>
<trkpt lat="48.412986" lon="2.658634"><ele></ele><time>2019-1-17T11:11:44Z</time></trkpt>
<trkpt lat="48.412906" lon="2.658508"><ele></ele><time>2019-1-17T11:11:47Z</time></trkpt>
<trkpt lat="48.412808" lon="2.65836"><ele></ele><time>2019-1-17T11:11:50Z</time></trkpt>
<trkpt lat="48.412744" lon="2.658247"><ele></ele><time>2019-1-17T11:11:53Z</time></trkpt>
<trkpt lat="48.41266" lon="2.658111"><ele></ele><time>2019-1-17T11:11:56Z</time></trkpt>
<trkpt lat="48.412599" lon="2.658001"><ele></ele><time>2019-1-17T11:11:59Z</time></trkpt>
<trkpt lat="48.412534" lon="2.657889"><ele></ele><time>2019-1-17T11:12:2Z</time></trkpt>
<trkpt lat="48.412469" lon="2.657774"><ele></ele><time>2019-1-17T11:12:5Z</time></trkpt>
<trkpt lat="48.412376" lon="2.657655"><ele></ele><time>2019-1-17T11:12:8Z</time></trkpt>
<trkpt lat="48.412312" lon="2.657545"><ele></ele><time>2019-1-17T11:12:11Z</time></trkpt>
<trkpt lat="48.412226" lon="2.657391"><ele></ele><time>2019-1-17T11:12:14Z</time></trkpt>
<trkpt lat="48.412158" lon="2.657283"><ele></ele><time>2019-1-17T11:12:17Z</time></trkpt>
<trkpt lat="48.412084" lon="2.657152"><ele></ele><time>2019-1-17T11:12:20Z</time></trkpt>
<trkpt lat="48.412021" lon="2.657005"><ele></ele><time>2019-1-17T11:12:23Z</time></trkpt>
<trkpt lat="48.411963" lon="2.65687"><ele></ele><time>2019-1-17T11:12:26Z</time></trkpt>
<trkpt lat="48.411879" lon="2.656768"><ele></ele><time>2019-1-17T11:12:29Z</time></trkpt>
<trkpt lat="48.41181" lon="2.65665"><ele></ele><time>2019-1-17T11:12:32Z</time></trkpt>
<trkpt lat="48.411749" lon="2.656518"><ele></ele><time>2019-1-17T11:12:35Z</time></trkpt>
<trkpt lat="48.411715" lon="2.656362"><ele></ele><time>2019-1-17T11:12:38Z</time></trkpt>
<trkpt lat="48.411707" lon="2.656187"><ele></ele><time>2019-1-17T11:12:41Z</time></trkpt>
<trkpt lat="48.411633" lon="2.656072"><ele></ele><time>2019-1-17T11:12:44Z</time></trkpt>
<trkpt lat="48.411539" lon="2.656047"><ele></ele><time>2019-1-17T11:12:47Z</time></trkpt>
<trkpt lat="48.411441" lon="2.655994"><ele></ele><time>2019-1-17T11:12:50Z</time></trkpt>
<trkpt lat="48.41135" lon="2.655922"><ele></ele><time>2019-1-17T11:12:53Z</time></trkpt>
<trkpt lat="48.41123" lon="2.655919"><ele></ele><time>2019-1-17T11:12:56Z</time></trkpt>
<trkpt lat="48.411138" lon="2.655875"><ele></ele><time>2019-1-17T11:12:59Z</time></trkpt>
<trkpt lat="48.411033" lon="2.655828"><ele></ele><time>2019-1-17T11:13:2Z</time></trkpt>
<trkpt lat="48.410933" lon="2.655769"><ele></ele><time>2019-1-17T11:13:5Z</time></trkpt>
<trkpt lat="48.410837" lon="2.655739"><ele></ele><time>2019-1-17T11:13:8Z</time></trkpt>
<trkpt lat="48.41072" lon="2.655678"><ele></ele><time>2019-1-17T11:13:11Z</time></trkpt>
<trkpt lat="48.41063" lon="2.655648"><ele></ele><time>2019-1-17T11:13:14Z</time></trkpt>
<trkpt lat="48.410534" lon="2.655603"><ele></ele><time>2019-1-17T11:13:17Z</time></trkpt>
<trkpt lat="48.410426" lon="2.655558"><ele></ele><time>2019-1-17T11:13:20Z</time></trkpt>
<trkpt lat="48.41032" lon="2.655506"><ele></ele><time>2019-1-17T11:13:23Z</time></trkpt>
<trkpt lat="48.41022" lon="2.655472"><ele></ele><time>2019-1-17T11:13:26Z</time></trkpt>
<trkpt lat="48.410117" lon="2.655414"><ele></ele><time>2019-1-17T11:13:29Z</time></trkpt>
<trkpt lat="48.41002" lon="2.655389"><ele></ele><time>2019-1-17T11:13:32Z</time></trkpt>
<trkpt lat="48.40992" lon="2.655341"><ele></ele><time>2019-1-17T11:13:35Z</time></trkpt>
<trkpt lat="48.409811" lon="2.655301"><ele></ele><time>2019-1-17T11:13:38Z</time></trkpt>
<trkpt lat="48.409708" lon="2.655247"><ele></ele><time>2019-1-17T11:13:41Z</time></trkpt>
<trkpt lat="48.409606" lon="2.655232"><ele></ele><time>2019-1-17T11:13:44Z</time></trkpt>
<trkpt lat="48.409517" lon="2.655162"><ele></ele><time>2019-1-17T11:13:47Z</time></trkpt>
<trkpt lat="48.409407" lon="2.655123"><ele></ele><time>2019-1-17T11:13:50Z</time></trkpt>
<trkpt lat="48.409292" lon="2.655099"><ele></ele><time>2019-1-17T11:13:53Z</time></trkpt>
<trkpt lat="48.409173" lon="2.655047"><ele></ele><time>2019-1-17T11:13:56Z</time></trkpt>
<trkpt lat="48.409083" lon="2.655032"><ele></ele><time>2019-1-17T11:13:59Z</time></trkpt>
<trkpt lat="48.408972" lon="2.654982"><ele></ele><time>2019-1-17T11:14:2Z</time></trkpt>
<trkpt lat="48.408872" lon="2.654991"><ele></ele><time>2019-1-17T11:14:5Z</time></trkpt>
<trkpt lat="48.408757" lon="2.654981"><ele></ele><time>2019-1-17T11:14:8Z</time></trkpt>
<trkpt lat="48.408656" lon="2.654923"><ele></ele><time>2019-1-17T11:14:11Z</time></trkpt>
<trkpt lat="48.408548" lon="2.654831"><ele></ele><time>2019-1-17T11:14:14Z</time></trkpt>
<trkpt lat="48.408447" lon="2.654836"><ele></ele><time>2019-1-17T11:14:17Z</time></trkpt>
<trkpt lat="48.408356" lon="2.654761"><ele></ele><time>2019-1-17T11:14:20Z</time></trkpt>
<trkpt lat="48.408261" lon="2.654708"><ele></ele><time>2019-1-17T11:14:23Z</time></trkpt>
<trkpt lat="48.408161" lon="2.654661"><ele></ele><time>2019-1-17T11:14:26Z</time></trkpt>
<trkpt lat="48.408054" lon="2.654611"><ele></ele><time>2019-1-17T11:14:29Z</time></trkpt>
<trkpt lat="48.407957" lon="2.65455"><ele></ele><time>2019-1-17T11:14:32Z</time></trkpt>
<trkpt lat="48.407849" lon="2.654475"><ele></ele><time>2019-1-17T11:14:35Z</time></trkpt>
<trkpt lat="48.407753" lon="2.654428"><ele></ele><time>2019-1-17T11:14:38Z</time></trkpt>
<trkpt lat="48.407767" lon="2.654282"><ele></ele><time>2019-1-17T11:14:41Z</time></trkpt>
<trkpt lat="48.407811" lon="2.654159"><ele></ele><time>2019-1-17T11:14:44Z</time></trkpt>
<trkpt lat="48.407842" lon="2.653987"><ele></ele><time>2019-1-17T11:14:47Z</time></trkpt>
<trkpt lat="48.40784" lon="2.653849"><ele></ele><time>2019-1-17T11:14:50Z</time></trkpt>
<trkpt lat="48.407855" lon="2.65371"><ele></ele><time>2019-1-17T11:14:53Z</time></trkpt>
<trkpt lat="48.407841" lon="2.653527"><ele></ele><time>2019-1-17T11:14:56Z</time></trkpt>
<trkpt lat="48.407814" lon="2.653323"><ele></ele><time>2019-1-17T11:14:59Z</time></trkpt>
<trkpt lat="48.407838" lon="2.653145"><ele></ele><time>2019-1-17T11:15:2Z</time></trkpt>
<trkpt lat="48.407812" lon="2.65296"><ele></ele><time>2019-1-17T11:15:5Z</time></trkpt>
<trkpt lat="48.407834" lon="2.652815"><ele></ele><time>2019-1-17T11:15:8Z</time></trkpt>
<trkpt lat="48.407876" lon="2.652693"><ele></ele><time>2019-1-17T11:15:11Z</time></trkpt>
<trkpt lat="48.407925" lon="2.652506"><ele></ele><time>2019-1-17T11:15:14Z</time></trkpt>
<trkpt lat="48.407921" lon="2.6523"><ele></ele><time>2019-1-17T11:15:17Z</time></trkpt>
<trkpt lat="48.407921" lon="2.652139"><ele></ele><time>2019-1-17T11:15:20Z</time></trkpt>
<trkpt lat="48.407881" lon="2.651975"><ele></ele><time>2019-1-17T11:15:23Z</time></trkpt>
<trkpt lat="48.407846" lon="2.651834"><ele></ele><time>2019-1-17T11:15:26Z</time></trkpt>
<trkpt lat="48.407885" lon="2.651684"><ele></ele><time>2019-1-17T11:15:29Z</time></trkpt>
<trkpt lat="48.407898" lon="2.65155"><ele></ele><time>2019-1-17T11:15:32Z</time></trkpt>
<trkpt lat="48.407872" lon="2.651398"><ele></ele><time>2019-1-17T11:15:35Z</time></trkpt>
<trkpt lat="48.407757" lon="2.651263"><ele></ele><time>2019-1-17T11:15:38Z</time></trkpt>
<trkpt lat="48.40766" lon="2.651131"><ele></ele><time>2019-1-17T11:15:41Z</time></trkpt>
<trkpt lat="48.407549" lon="2.650986"><ele></ele><time>2019-1-17T11:15:44Z</time></trkpt>
<trkpt lat="48.407428" lon="2.650901"><ele></ele><time>2019-1-17T11:15:47Z</time></trkpt>
<trkpt lat="48.407331" lon="2.650804"><ele></ele><time>2019-1-17T11:15:50Z</time></trkpt>
<trkpt lat="48.407241" lon="2.65074"><ele></ele><time>2019-1-17T11:15:53Z</time></trkpt>
<trkpt lat="48.407223" lon="2.650591"><ele></ele><time>2019-1-17T11:15:56Z</time></trkpt>
<trkpt lat="48.407158" lon="2.65047"><ele></ele><time>2019-1-17T11:15:59Z</time></trkpt>
<trkpt lat="48.407131" lon="2.650324"><ele></ele><time>2019-1-17T11:16:2Z</time></trkpt>
<trkpt lat="48.407067" lon="2.650196"><ele></ele><time>2019-1-17T11:16:5Z</time></trkpt>
<trkpt lat="48.407006" lon="2.650073"><ele></ele><time>2019-1-17T11:16:8Z</time></trkpt>
<trkpt lat="48.406966" lon="2.649923"><ele></ele><time>2019-1-17T11:16:11Z</time></trkpt>
<trkpt lat="48.406861" lon="2.649811"><ele></ele><time>2019-1-17T11:16:14Z</time></trkpt>
<trkpt lat="48.406796" lon="2.6497"><ele></ele><time>2019-1-17T11:16:17Z</time></trkpt>
<trkpt lat="48.406711" lon="2.649545"><ele></ele><time>2019-1-17T11:16:20Z</time></trkpt>
<trkpt lat="48.406641" lon="2.649412"><ele></ele><time>2019-1-17T11:16:23Z</time></trkpt>
<trkpt lat="48.406603" lon="2.649281"><ele></ele><time>2019-1-17T11:16:26Z</time></trkpt>
<trkpt lat="48.406659" lon="2.649113"><ele></ele><time>2019-1-17T11:16:29Z</time></trkpt>
<trkpt lat="48.406603" lon="2.648992"><ele></ele><time>2019-1-17T11:16:32Z</time></trkpt>
<trkpt lat="48.40661" lon="2.648844"><ele></ele><time>2019-1-17T11:16:35Z</time></trkpt>
<trkpt lat="48.4066" lon="2.648675"><ele></ele><time>2019-1-17T11:16:38Z</time></trkpt>
<trkpt lat="48.406543" lon="2.648536"><ele></ele><time>2019-1-17T11:16:41Z</time></trkpt>
<trkpt lat="48.406486" lon="2.648407"><ele></ele><time>2019-1-17T11:16:44Z</time></trkpt>
<trkpt lat="48.406468" lon="2.648262"><ele></ele><time>2019-1-17T11:16:47Z</time></trkpt>
<trkpt lat="48.40651" lon="2.648139"><ele></ele><time>2019-1-17T11:16:50Z</time></trkpt>
<trkpt lat="48.406514" lon="2.647995"><ele></ele><time>2019-1-17T11:16:53Z</time></trkpt>
<trkpt lat="48.406431" lon="2.647941"><ele></ele><time>2019-1-17T11:16:56Z</time></trkpt>
<trkpt lat="48.406337" lon="2.647839"><ele></ele><time>2019-1-17T11:16:59Z</time></trkpt>
<trkpt lat="48.4063" lon="2.647712"><ele></ele><time>2019-1-17T11:17:2Z</time></trkpt>
<trkpt lat="48.406254" lon="2.647575"><ele></ele><time>2019-1-17T11:17:5Z</time></trkpt>
<trkpt lat="48.406255" lon="2.647438"><ele></ele><time>2019-1-17T11:17:8Z</time></trkpt>
<trkpt lat="48.406223" lon="2.6473"><ele></ele><time>2019-1-17T11:17:11Z</time></trkpt>
<trkpt lat="48.406253" lon="2.647132"><ele></ele><time>2019-1-17T11:17:14Z</time></trkpt>
<trkpt lat="48.406238" lon="2.646961"><ele></ele><time>2019-1-17T11:17:17Z</time></trkpt>
<trkpt lat="48.406186" lon="2.64684"><ele></ele><time>2019-1-17T11:17:20Z</time></trkpt>
<trkpt lat="48.406096" lon="2.646806"><ele></ele><time>2019-1-17T11:17:23Z</time></trkpt>
<trkpt lat="48.406033" lon="2.646709"><ele></ele><time>2019-1-17T11:17:26Z</time></trkpt>
<trkpt lat="48.406092" lon="2.646601"><ele></ele><time>2019-1-17T11:17:29Z</time></trkpt>
<trkpt lat="48.406136" lon="2.646474"><ele></ele><time>2019-1-17T11:17:32Z</time></trkpt>
<trkpt lat="48.406171" lon="2.646345"><ele></ele><time>2019-1-17T11:17:35Z</time></trkpt>
<trkpt lat="48.406134" lon="2.646194"><ele></ele><time>2019-1-17T11:17:38Z</time></trkpt>
<trkpt lat="48.406125" lon="2.646059"><ele></ele><time>2019-1-17T11:17:41Z</time></trkpt>
<trkpt lat="48.406125" lon="2.645914"><ele></ele><time>2019-1-17T11:17:44Z</time></trkpt>
<trkpt lat="48.406092" lon="2.645763"><ele></ele><time>2019-1-17T11:17:47Z</time></trkpt>
<trkpt lat="48.406062" lon="2.645609"><ele></ele><time>2019-1-17T11:17:50Z</time></trkpt>
<trkpt lat="48.406032" lon="2.645464"><ele></ele><time>2019-1-17T11:17:53Z</time></trkpt>
<trkpt lat="48.406003" lon="2.645314"><ele></ele><time>2019-1-17T11:17:56Z</time></trkpt>
<trkpt lat="48.405981" lon="2.645163"><ele></ele><time>2019-1-17T11:17:59Z</time></trkpt>
<trkpt lat="48.405991" lon="2.645013"><ele></ele><time>2019-1-17T11:18:2Z</time></trkpt>
<trkpt lat="48.40597" lon="2.644863"><ele></ele><time>2019-1-17T11:18:5Z</time></trkpt>
<trkpt lat="48.405981" lon="2.644722"><ele></ele><time>2019-1-17T11:18:8Z</time></trkpt>
<trkpt lat="48.406012" lon="2.644589"><ele></ele><time>2019-1-17T11:18:11Z</time></trkpt>
<trkpt lat="48.406049" lon="2.644457"><ele></ele><time>2019-1-17T11:18:14Z</time></trkpt>
<trkpt lat="48.406092" lon="2.644318"><ele></ele><time>2019-1-17T11:18:17Z</time></trkpt>
<trkpt lat="48.406171" lon="2.644208"><ele></ele><time>2019-1-17T11:18:20Z</time></trkpt>
<trkpt lat="48.406243" lon="2.644098"><ele></ele><time>2019-1-17T11:18:23Z</time></trkpt>
<trkpt lat="48.406279" lon="2.643926"><ele></ele><time>2019-1-17T11:18:26Z</time></trkpt>
<trkpt lat="48.406292" lon="2.643782"><ele></ele><time>2019-1-17T11:18:29Z</time></trkpt>
<trkpt lat="48.406284" lon="2.643645"><ele></ele><time>2019-1-17T11:18:32Z</time></trkpt>
<trkpt lat="48.406286" lon="2.643499"><ele></ele><time>2019-1-17T11:18:35Z</time></trkpt>
<trkpt lat="48.406292" lon="2.643362"><ele></ele><time>2019-1-17T11:18:38Z</time></trkpt>
<trkpt lat="48.406299" lon="2.643199"><ele></ele><time>2019-1-17T11:18:41Z</time></trkpt>
<trkpt lat="48.406294" lon="2.643057"><ele></ele><time>2019-1-17T11:18:44Z</time></trkpt>
<trkpt lat="48.406256" lon="2.642919"><ele></ele><time>2019-1-17T11:18:47Z</time></trkpt>
<trkpt lat="48.406282" lon="2.642785"><ele></ele><time>2019-1-17T11:18:50Z</time></trkpt>
<trkpt lat="48.406333" lon="2.642656"><ele></ele><time>2019-1-17T11:18:53Z</time></trkpt>
<trkpt lat="48.406427" lon="2.642597"><ele></ele><time>2019-1-17T11:18:56Z</time></trkpt>
<trkpt lat="48.406522" lon="2.642558"><ele></ele><time>2019-1-17T11:18:59Z</time></trkpt>
<trkpt lat="48.406519" lon="2.642403"><ele></ele><time>2019-1-17T11:19:2Z</time></trkpt>
<trkpt lat="48.406585" lon="2.642285"><ele></ele><time>2019-1-17T11:19:5Z</time></trkpt>
<trkpt lat="48.40664" lon="2.642163"><ele></ele><time>2019-1-17T11:19:8Z</time></trkpt>
<trkpt lat="48.406683" lon="2.642019"><ele></ele><time>2019-1-17T11:19:11Z</time></trkpt>
<trkpt lat="48.406738" lon="2.641874"><ele></ele><time>2019-1-17T11:19:14Z</time></trkpt>
<trkpt lat="48.406793" lon="2.641747"><ele></ele><time>2019-1-17T11:19:17Z</time></trkpt>
<trkpt lat="48.406803" lon="2.641595"><ele></ele><time>2019-1-17T11:19:20Z</time></trkpt>
<trkpt lat="48.406854" lon="2.641446"><ele></ele><time>2019-1-17T11:19:23Z</time></trkpt>
<trkpt lat="48.406911" lon="2.641301"><ele></ele><time>2019-1-17T11:19:26Z</time></trkpt>
<trkpt lat="48.406948" lon="2.641149"><ele></ele><time>2019-1-17T11:19:29Z</time></trkpt>
<trkpt lat="48.406974" lon="2.640986"><ele></ele><time>2019-1-17T11:19:32Z</time></trkpt>
<trkpt lat="48.407002" lon="2.640824"><ele></ele><time>2019-1-17T11:19:35Z</time></trkpt>
<trkpt lat="48.407041" lon="2.640695"><ele></ele><time>2019-1-17T11:19:38Z</time></trkpt>
<trkpt lat="48.407119" lon="2.640601"><ele></ele><time>2019-1-17T11:19:41Z</time></trkpt>
<trkpt lat="48.407219" lon="2.64051"><ele></ele><time>2019-1-17T11:19:44Z</time></trkpt>
<trkpt lat="48.407298" lon="2.640421"><ele></ele><time>2019-1-17T11:19:47Z</time></trkpt>
<trkpt lat="48.407409" lon="2.640348"><ele></ele><time>2019-1-17T11:19:50Z</time></trkpt>
<trkpt lat="48.4075" lon="2.640317"><ele></ele><time>2019-1-17T11:19:53Z</time></trkpt>
<trkpt lat="48.407565" lon="2.640153"><ele></ele><time>2019-1-17T11:19:56Z</time></trkpt>
<trkpt lat="48.407624" lon="2.64003"><ele></ele><time>2019-1-17T11:19:59Z</time></trkpt>
<trkpt lat="48.407702" lon="2.639942"><ele></ele><time>2019-1-17T11:20:2Z</time></trkpt>
<trkpt lat="48.407782" lon="2.639809"><ele></ele><time>2019-1-17T11:20:5Z</time></trkpt>
<trkpt lat="48.407869" lon="2.639739"><ele></ele><time>2019-1-17T11:20:8Z</time></trkpt>
<trkpt lat="48.407959" lon="2.639654"><ele></ele><time>2019-1-17T11:20:11Z</time></trkpt>
<trkpt lat="48.408046" lon="2.63959"><ele></ele><time>2019-1-17T11:20:14Z</time></trkpt>
<trkpt lat="48.408093" lon="2.639447"><ele></ele><time>2019-1-17T11:20:17Z</time></trkpt>
<trkpt lat="48.408176" lon="2.639386"><ele></ele><time>2019-1-17T11:20:20Z</time></trkpt>
<trkpt lat="48.408243" lon="2.639261"><ele></ele><time>2019-1-17T11:20:23Z</time></trkpt>
<trkpt lat="48.408329" lon="2.639165"><ele></ele><time>2019-1-17T11:20:26Z</time></trkpt>
<trkpt lat="48.408445" lon="2.639085"><ele></ele><time>2019-1-17T11:20:29Z</time></trkpt>
<trkpt lat="48.40856" lon="2.639101"><ele></ele><time>2019-1-17T11:20:32Z</time></trkpt>
<trkpt lat="48.408657" lon="2.639152"><ele></ele><time>2019-1-17T11:20:35Z</time></trkpt>
<trkpt lat="48.40875" lon="2.639143"><ele></ele><time>2019-1-17T11:20:38Z</time></trkpt>
<trkpt lat="48.40881" lon="2.639028"><ele></ele><time>2019-1-17T11:20:41Z</time></trkpt>
<trkpt lat="48.408873" lon="2.638927"><ele></ele><time>2019-1-17T11:20:44Z</time></trkpt>
<trkpt lat="48.408872" lon="2.638783"><ele></ele><time>2019-1-17T11:20:47Z</time></trkpt>
<trkpt lat="48.408819" lon="2.63864"><ele></ele><time>2019-1-17T11:20:50Z</time></trkpt>
<trkpt lat="48.408747" lon="2.638511"><ele></ele><time>2019-1-17T11:20:53Z</time></trkpt>
<trkpt lat="48.408681" lon="2.63836"><ele></ele><time>2019-1-17T11:20:56Z</time></trkpt>
<trkpt lat="48.408631" lon="2.63821"><ele></ele><time>2019-1-17T11:20:59Z</time></trkpt>
<trkpt lat="48.408629" lon="2.638048"><ele></ele><time>2019-1-17T11:21:2Z</time></trkpt>
<trkpt lat="48.408691" lon="2.637886"><ele></ele><time>2019-1-17T11:21:5Z</time></trkpt>
<trkpt lat="48.40873" lon="2.637742"><ele></ele><time>2019-1-17T11:21:8Z</time></trkpt>
<trkpt lat="48.408749" lon="2.637605"><ele></ele><time>2019-1-17T11:21:11Z</time></trkpt>
<trkpt lat="48.408815" lon="2.637449"><ele></ele><time>2019-1-17T11:21:14Z</time></trkpt>
<trkpt lat="48.408845" lon="2.637297"><ele></ele><time>2019-1-17T11:21:17Z</time></trkpt>
<trkpt lat="48.40887" lon="2.637147"><ele></ele><time>2019-1-17T11:21:20Z</time></trkpt>
<trkpt lat="48.408902" lon="2.63698"><ele></ele><time>2019-1-17T11:21:23Z</time></trkpt>
<trkpt lat="48.408943" lon="2.636855"><ele></ele><time>2019-1-17T11:21:26Z</time></trkpt>
<trkpt lat="48.408977" lon="2.636666"><ele></ele><time>2019-1-17T11:21:29Z</time></trkpt>
<trkpt lat="48.409014" lon="2.636491"><ele></ele><time>2019-1-17T11:21:32Z</time></trkpt>
<trkpt lat="48.409027" lon="2.636327"><ele></ele><time>2019-1-17T11:21:35Z</time></trkpt>
<trkpt lat="48.409062" lon="2.636151"><ele></ele><time>2019-1-17T11:21:38Z</time></trkpt>
<trkpt lat="48.409072" lon="2.635975"><ele></ele><time>2019-1-17T11:21:41Z</time></trkpt>
<trkpt lat="48.409106" lon="2.635777"><ele></ele><time>2019-1-17T11:21:44Z</time></trkpt>
<trkpt lat="48.409104" lon="2.635572"><ele></ele><time>2019-1-17T11:21:47Z</time></trkpt>
<trkpt lat="48.409099" lon="2.635356"><ele></ele><time>2019-1-17T11:21:50Z</time></trkpt>
<trkpt lat="48.409122" lon="2.635201"><ele></ele><time>2019-1-17T11:21:53Z</time></trkpt>
<trkpt lat="48.409205" lon="2.635068"><ele></ele><time>2019-1-17T11:21:56Z</time></trkpt>
<trkpt lat="48.409202" lon="2.634911"><ele></ele><time>2019-1-17T11:21:59Z</time></trkpt>
<trkpt lat="48.409208" lon="2.634752"><ele></ele><time>2019-1-17T11:22:2Z</time></trkpt>
<trkpt lat="48.409258" lon="2.634584"><ele></ele><time>2019-1-17T11:22:5Z</time></trkpt>
<trkpt lat="48.409297" lon="2.634421"><ele></ele><time>2019-1-17T11:22:8Z</time></trkpt>
<trkpt lat="48.409335" lon="2.634257"><ele></ele><time>2019-1-17T11:22:11Z</time></trkpt>
<trkpt lat="48.409382" lon="2.634106"><ele></ele><time>2019-1-17T11:22:14Z</time></trkpt>
<trkpt lat="48.409413" lon="2.633977"><ele></ele><time>2019-1-17T11:22:17Z</time></trkpt>
<trkpt lat="48.409465" lon="2.633808"><ele></ele><time>2019-1-17T11:22:20Z</time></trkpt>
<trkpt lat="48.409449" lon="2.633667"><ele></ele><time>2019-1-17T11:22:23Z</time></trkpt>
<trkpt lat="48.409502" lon="2.633544"><ele></ele><time>2019-1-17T11:22:26Z</time></trkpt>
<trkpt lat="48.409524" lon="2.633369"><ele></ele><time>2019-1-17T11:22:29Z</time></trkpt>
<trkpt lat="48.409522" lon="2.633204"><ele></ele><time>2019-1-17T11:22:32Z</time></trkpt>
<trkpt lat="48.40955" lon="2.633037"><ele></ele><time>2019-1-17T11:22:35Z</time></trkpt>
<trkpt lat="48.40959" lon="2.632904"><ele></ele><time>2019-1-17T11:22:38Z</time></trkpt>
<trkpt lat="48.409649" lon="2.63274"><ele></ele><time>2019-1-17T11:22:41Z</time></trkpt>
<trkpt lat="48.409668" lon="2.632573"><ele></ele><time>2019-1-17T11:22:44Z</time></trkpt>
<trkpt lat="48.409724" lon="2.63238"><ele></ele><time>2019-1-17T11:22:47Z</time></trkpt>
<trkpt lat="48.409753" lon="2.632244"><ele></ele><time>2019-1-17T11:22:50Z</time></trkpt>
<trkpt lat="48.409822" lon="2.632103"><ele></ele><time>2019-1-17T11:22:53Z</time></trkpt>
<trkpt lat="48.409873" lon="2.631942"><ele></ele><time>2019-1-17T11:22:56Z</time></trkpt>
<trkpt lat="48.409924" lon="2.631796"><ele></ele><time>2019-1-17T11:22:59Z</time></trkpt>
<trkpt lat="48.409977" lon="2.631642"><ele></ele><time>2019-1-17T11:23:2Z</time></trkpt>
<trkpt lat="48.410014" lon="2.631504"><ele></ele><time>2019-1-17T11:23:5Z</time></trkpt>
<trkpt lat="48.410088" lon="2.631351"><ele></ele><time>2019-1-17T11:23:8Z</time></trkpt>
<trkpt lat="48.410119" lon="2.631207"><ele></ele><time>2019-1-17T11:23:11Z</time></trkpt>
<trkpt lat="48.410182" lon="2.631051"><ele></ele><time>2019-1-17T11:23:14Z</time></trkpt>
<trkpt lat="48.410239" lon="2.630882"><ele></ele><time>2019-1-17T11:23:17Z</time></trkpt>
<trkpt lat="48.410271" lon="2.630667"><ele></ele><time>2019-1-17T11:23:20Z</time></trkpt>
<trkpt lat="48.410235" lon="2.63048"><ele></ele><time>2019-1-17T11:23:23Z</time></trkpt>
<trkpt lat="48.410212" lon="2.630209"><ele></ele><time>2019-1-17T11:23:26Z</time></trkpt>
<trkpt lat="48.410177" lon="2.630056"><ele></ele><time>2019-1-17T11:23:29Z</time></trkpt>
<trkpt lat="48.410094" lon="2.629828"><ele></ele><time>2019-1-17T11:23:32Z</time></trkpt>
<trkpt lat="48.410062" lon="2.629671"><ele></ele><time>2019-1-17T11:23:35Z</time></trkpt>
<trkpt lat="48.409998" lon="2.629516"><ele></ele><time>2019-1-17T11:23:38Z</time></trkpt>
<trkpt lat="48.409962" lon="2.629391"><ele></ele><time>2019-1-17T11:23:41Z</time></trkpt>
<trkpt lat="48.4099" lon="2.629228"><ele></ele><time>2019-1-17T11:23:44Z</time></trkpt>
<trkpt lat="48.409878" lon="2.62907"><ele></ele><time>2019-1-17T11:23:47Z</time></trkpt>
<trkpt lat="48.409836" lon="2.628911"><ele></ele><time>2019-1-17T11:23:50Z</time></trkpt>
<trkpt lat="48.409809" lon="2.628747"><ele></ele><time>2019-1-17T11:23:53Z</time></trkpt>
<trkpt lat="48.409765" lon="2.628597"><ele></ele><time>2019-1-17T11:23:56Z</time></trkpt>
<trkpt lat="48.40969" lon="2.62845"><ele></ele><time>2019-1-17T11:23:59Z</time></trkpt>
<trkpt lat="48.409594" lon="2.628395"><ele></ele><time>2019-1-17T11:24:2Z</time></trkpt>
<trkpt lat="48.409441" lon="2.628291"><ele></ele><time>2019-1-17T11:24:5Z</time></trkpt>
<trkpt lat="48.40937" lon="2.6282"><ele></ele><time>2019-1-17T11:24:8Z</time></trkpt>
<trkpt lat="48.409349" lon="2.628055"><ele></ele><time>2019-1-17T11:24:11Z</time></trkpt>
<trkpt lat="48.409326" lon="2.627916"><ele></ele><time>2019-1-17T11:24:14Z</time></trkpt>
<trkpt lat="48.409326" lon="2.627676"><ele></ele><time>2019-1-17T11:24:17Z</time></trkpt>
<trkpt lat="48.409358" lon="2.62749"><ele></ele><time>2019-1-17T11:24:20Z</time></trkpt>
<trkpt lat="48.409357" lon="2.627303"><ele></ele><time>2019-1-17T11:24:23Z</time></trkpt>
<trkpt lat="48.409332" lon="2.627169"><ele></ele><time>2019-1-17T11:24:26Z</time></trkpt>
<trkpt lat="48.409358" lon="2.626991"><ele></ele><time>2019-1-17T11:24:29Z</time></trkpt>
<trkpt lat="48.409363" lon="2.626849"><ele></ele><time>2019-1-17T11:24:32Z</time></trkpt>
<trkpt lat="48.409292" lon="2.626746"><ele></ele><time>2019-1-17T11:24:35Z</time></trkpt>
<trkpt lat="48.409228" lon="2.626618"><ele></ele><time>2019-1-17T11:24:38Z</time></trkpt>
<trkpt lat="48.409157" lon="2.626473"><ele></ele><time>2019-1-17T11:24:41Z</time></trkpt>
<trkpt lat="48.409116" lon="2.626334"><ele></ele><time>2019-1-17T11:24:44Z</time></trkpt>
<trkpt lat="48.409072" lon="2.626141"><ele></ele><time>2019-1-17T11:24:47Z</time></trkpt>
<trkpt lat="48.409043" lon="2.625973"><ele></ele><time>2019-1-17T11:24:50Z</time></trkpt>
<trkpt lat="48.409012" lon="2.62584"><ele></ele><time>2019-1-17T11:24:53Z</time></trkpt>
<trkpt lat="48.40902" lon="2.625651"><ele></ele><time>2019-1-17T11:24:56Z</time></trkpt>
<trkpt lat="48.40902" lon="2.625512"><ele></ele><time>2019-1-17T11:24:59Z</time></trkpt>
<trkpt lat="48.409019" lon="2.625368"><ele></ele><time>2019-1-17T11:25:2Z</time></trkpt>
<trkpt lat="48.409019" lon="2.625195"><ele></ele><time>2019-1-17T11:25:5Z</time></trkpt>
<trkpt lat="48.409037" lon="2.625037"><ele></ele><time>2019-1-17T11:25:8Z</time></trkpt>
<trkpt lat="48.409088" lon="2.624882"><ele></ele><time>2019-1-17T11:25:11Z</time></trkpt>
<trkpt lat="48.40911" lon="2.624719"><ele></ele><time>2019-1-17T11:25:14Z</time></trkpt>
<trkpt lat="48.409167" lon="2.624594"><ele></ele><time>2019-1-17T11:25:17Z</time></trkpt>
<trkpt lat="48.409252" lon="2.624435"><ele></ele><time>2019-1-17T11:25:20Z</time></trkpt>
<trkpt lat="48.409311" lon="2.624329"><ele></ele><time>2019-1-17T11:25:23Z</time></trkpt>
<trkpt lat="48.409328" lon="2.624191"><ele></ele><time>2019-1-17T11:25:26Z</time></trkpt>
<trkpt lat="48.409319" lon="2.624029"><ele></ele><time>2019-1-17T11:25:29Z</time></trkpt>
<trkpt lat="48.409385" lon="2.623864"><ele></ele><time>2019-1-17T11:25:32Z</time></trkpt>
<trkpt lat="48.409479" lon="2.623773"><ele></ele><time>2019-1-17T11:25:35Z</time></trkpt>
<trkpt lat="48.409541" lon="2.623669"><ele></ele><time>2019-1-17T11:25:38Z</time></trkpt>
<trkpt lat="48.4095" lon="2.623528"><ele></ele><time>2019-1-17T11:25:41Z</time></trkpt>
<trkpt lat="48.40951" lon="2.623318"><ele></ele><time>2019-1-17T11:25:44Z</time></trkpt>
<trkpt lat="48.409521" lon="2.623164"><ele></ele><time>2019-1-17T11:25:47Z</time></trkpt>
<trkpt lat="48.409487" lon="2.622987"><ele></ele><time>2019-1-17T11:25:50Z</time></trkpt>
<trkpt lat="48.409591" lon="2.622937"><ele></ele><time>2019-1-17T11:25:53Z</time></trkpt>
<trkpt lat="48.409566" lon="2.622758"><ele></ele><time>2019-1-17T11:25:56Z</time></trkpt>
<trkpt lat="48.409469" lon="2.622721"><ele></ele><time>2019-1-17T11:25:59Z</time></trkpt>
<trkpt lat="48.409375" lon="2.62265"><ele></ele><time>2019-1-17T11:26:2Z</time></trkpt>
<trkpt lat="48.409284" lon="2.622678"><ele></ele><time>2019-1-17T11:26:5Z</time></trkpt>
<trkpt lat="48.409169" lon="2.622626"><ele></ele><time>2019-1-17T11:26:8Z</time></trkpt>
<trkpt lat="48.409119" lon="2.622513"><ele></ele><time>2019-1-17T11:26:11Z</time></trkpt>
<trkpt lat="48.409096" lon="2.622371"><ele></ele><time>2019-1-17T11:26:14Z</time></trkpt>
<trkpt lat="48.40912" lon="2.622237"><ele></ele><time>2019-1-17T11:26:17Z</time></trkpt>
<trkpt lat="48.409076" lon="2.6221"><ele></ele><time>2019-1-17T11:26:20Z</time></trkpt>
<trkpt lat="48.409023" lon="2.621991"><ele></ele><time>2019-1-17T11:26:23Z</time></trkpt>
<trkpt lat="48.409041" lon="2.621779"><ele></ele><time>2019-1-17T11:26:26Z</time></trkpt>
<trkpt lat="48.409056" lon="2.621626"><ele></ele><time>2019-1-17T11:26:29Z</time></trkpt>
<trkpt lat="48.40908" lon="2.621427"><ele></ele><time>2019-1-17T11:26:32Z</time></trkpt>
<trkpt lat="48.40914" lon="2.621532"><ele></ele><time>2019-1-17T11:26:35Z</time></trkpt>
<trkpt lat="48.409067" lon="2.621444"><ele></ele><time>2019-1-17T11:26:38Z</time></trkpt>
<trkpt lat="48.409155" lon="2.621398"><ele></ele><time>2019-1-17T11:26:41Z</time></trkpt>
<trkpt lat="48.409245" lon="2.621377"><ele></ele><time>2019-1-17T11:26:44Z</time></trkpt>
<trkpt lat="48.409342" lon="2.62125"><ele></ele><time>2019-1-17T11:26:47Z</time></trkpt>
<trkpt lat="48.409406" lon="2.621141"><ele></ele><time>2019-1-17T11:26:50Z</time></trkpt>
<trkpt lat="48.409514" lon="2.621083"><ele></ele><time>2019-1-17T11:26:53Z</time></trkpt>
<trkpt lat="48.409614" lon="2.621032"><ele></ele><time>2019-1-17T11:26:56Z</time></trkpt>
<trkpt lat="48.409769" lon="2.621113"><ele></ele><time>2019-1-17T11:26:59Z</time></trkpt>
<trkpt lat="48.409715" lon="2.621235"><ele></ele><time>2019-1-17T11:27:2Z</time></trkpt>
<trkpt lat="48.409703" lon="2.621392"><ele></ele><time>2019-1-17T11:27:5Z</time></trkpt>
<trkpt lat="48.40973" lon="2.621546"><ele></ele><time>2019-1-17T11:27:8Z</time></trkpt>
<trkpt lat="48.409786" lon="2.621668"><ele></ele><time>2019-1-17T11:27:11Z</time></trkpt>
<trkpt lat="48.409882" lon="2.621639"><ele></ele><time>2019-1-17T11:27:14Z</time></trkpt>
<trkpt lat="48.409976" lon="2.621552"><ele></ele><time>2019-1-17T11:27:17Z</time></trkpt>
<trkpt lat="48.410031" lon="2.621661"><ele></ele><time>2019-1-17T11:27:20Z</time></trkpt>
<trkpt lat="48.410088" lon="2.621519"><ele></ele><time>2019-1-17T11:27:23Z</time></trkpt>
<trkpt lat="48.410231" lon="2.621446"><ele></ele><time>2019-1-17T11:27:26Z</time></trkpt>
<trkpt lat="48.410333" lon="2.621378"><ele></ele><time>2019-1-17T11:27:29Z</time></trkpt>
<trkpt lat="48.410429" lon="2.621339"><ele></ele><time>2019-1-17T11:27:32Z</time></trkpt>
<trkpt lat="48.410514" lon="2.621201"><ele></ele><time>2019-1-17T11:27:35Z</time></trkpt>
<trkpt lat="48.410591" lon="2.621015"><ele></ele><time>2019-1-17T11:27:38Z</time></trkpt>
<trkpt lat="48.410602" lon="2.620824"><ele></ele><time>2019-1-17T11:27:41Z</time></trkpt>
<trkpt lat="48.410633" lon="2.620659"><ele></ele><time>2019-1-17T11:27:44Z</time></trkpt>
<trkpt lat="48.410678" lon="2.620481"><ele></ele><time>2019-1-17T11:27:47Z</time></trkpt>
<trkpt lat="48.410723" lon="2.620294"><ele></ele><time>2019-1-17T11:27:50Z</time></trkpt>
<trkpt lat="48.410754" lon="2.620114"><ele></ele><time>2019-1-17T11:27:53Z</time></trkpt>
<trkpt lat="48.410758" lon="2.619955"><ele></ele><time>2019-1-17T11:27:56Z</time></trkpt>
<trkpt lat="48.410779" lon="2.619742"><ele></ele><time>2019-1-17T11:27:59Z</time></trkpt>
<trkpt lat="48.410822" lon="2.619532"><ele></ele><time>2019-1-17T11:28:2Z</time></trkpt>
<trkpt lat="48.410851" lon="2.6193"><ele></ele><time>2019-1-17T11:28:5Z</time></trkpt>
<trkpt lat="48.410871" lon="2.619159"><ele></ele><time>2019-1-17T11:28:8Z</time></trkpt>
<trkpt lat="48.410875" lon="2.618919"><ele></ele><time>2019-1-17T11:28:11Z</time></trkpt>
<trkpt lat="48.410871" lon="2.618667"><ele></ele><time>2019-1-17T11:28:14Z</time></trkpt>
<trkpt lat="48.410881" lon="2.618469"><ele></ele><time>2019-1-17T11:28:17Z</time></trkpt>
<trkpt lat="48.410915" lon="2.618324"><ele></ele><time>2019-1-17T11:28:20Z</time></trkpt>
<trkpt lat="48.411001" lon="2.618133"><ele></ele><time>2019-1-17T11:28:23Z</time></trkpt>
<trkpt lat="48.411046" lon="2.617992"><ele></ele><time>2019-1-17T11:28:26Z</time></trkpt>
<trkpt lat="48.411092" lon="2.6178"><ele></ele><time>2019-1-17T11:28:29Z</time></trkpt>
<trkpt lat="48.411152" lon="2.617605"><ele></ele><time>2019-1-17T11:28:32Z</time></trkpt>
<trkpt lat="48.411176" lon="2.617381"><ele></ele><time>2019-1-17T11:28:35Z</time></trkpt>
<trkpt lat="48.411211" lon="2.617203"><ele></ele><time>2019-1-17T11:28:38Z</time></trkpt>
<trkpt lat="48.411265" lon="2.617009"><ele></ele><time>2019-1-17T11:28:41Z</time></trkpt>
<trkpt lat="48.411279" lon="2.616857"><ele></ele><time>2019-1-17T11:28:44Z</time></trkpt>
<trkpt lat="48.41129" lon="2.61671"><ele></ele><time>2019-1-17T11:28:47Z</time></trkpt>
<trkpt lat="48.411326" lon="2.616527"><ele></ele><time>2019-1-17T11:28:50Z</time></trkpt>
<trkpt lat="48.41138" lon="2.616299"><ele></ele><time>2019-1-17T11:28:53Z</time></trkpt>
<trkpt lat="48.411403" lon="2.616051"><ele></ele><time>2019-1-17T11:28:56Z</time></trkpt>
<trkpt lat="48.411466" lon="2.615846"><ele></ele><time>2019-1-17T11:28:59Z</time></trkpt>
<trkpt lat="48.411468" lon="2.615705"><ele></ele><time>2019-1-17T11:29:2Z</time></trkpt>
<trkpt lat="48.411498" lon="2.615569"><ele></ele><time>2019-1-17T11:29:5Z</time></trkpt>
<trkpt lat="48.411539" lon="2.615443"><ele></ele><time>2019-1-17T11:29:8Z</time></trkpt>
<trkpt lat="48.411578" lon="2.615315"><ele></ele><time>2019-1-17T11:29:11Z</time></trkpt>
<trkpt lat="48.411607" lon="2.615177"><ele></ele><time>2019-1-17T11:29:14Z</time></trkpt>
<trkpt lat="48.411637" lon="2.615044"><ele></ele><time>2019-1-17T11:29:17Z</time></trkpt>
<trkpt lat="48.41164" lon="2.614895"><ele></ele><time>2019-1-17T11:29:20Z</time></trkpt>
<trkpt lat="48.411585" lon="2.614788"><ele></ele><time>2019-1-17T11:29:23Z</time></trkpt>
<trkpt lat="48.411568" lon="2.614636"><ele></ele><time>2019-1-17T11:29:26Z</time></trkpt>
<trkpt lat="48.411568" lon="2.61449"><ele></ele><time>2019-1-17T11:29:29Z</time></trkpt>
<trkpt lat="48.411566" lon="2.614347"><ele></ele><time>2019-1-17T11:29:32Z</time></trkpt>
<trkpt lat="48.411577" lon="2.614209"><ele></ele><time>2019-1-17T11:29:35Z</time></trkpt>
<trkpt lat="48.411554" lon="2.614047"><ele></ele><time>2019-1-17T11:29:38Z</time></trkpt>
<trkpt lat="48.411526" lon="2.613863"><ele></ele><time>2019-1-17T11:29:41Z</time></trkpt>
<trkpt lat="48.411484" lon="2.613732"><ele></ele><time>2019-1-17T11:29:44Z</time></trkpt>
<trkpt lat="48.411484" lon="2.613566"><ele></ele><time>2019-1-17T11:29:47Z</time></trkpt>
<trkpt lat="48.411494" lon="2.613413"><ele></ele><time>2019-1-17T11:29:50Z</time></trkpt>
<trkpt lat="48.411518" lon="2.61322"><ele></ele><time>2019-1-17T11:29:53Z</time></trkpt>
<trkpt lat="48.411484" lon="2.613085"><ele></ele><time>2019-1-17T11:29:56Z</time></trkpt>
<trkpt lat="48.411522" lon="2.612926"><ele></ele><time>2019-1-17T11:29:59Z</time></trkpt>
<trkpt lat="48.411525" lon="2.612778"><ele></ele><time>2019-1-17T11:30:2Z</time></trkpt>
<trkpt lat="48.411516" lon="2.61263"><ele></ele><time>2019-1-17T11:30:5Z</time></trkpt>
<trkpt lat="48.411532" lon="2.612492"><ele></ele><time>2019-1-17T11:30:8Z</time></trkpt>
<trkpt lat="48.411494" lon="2.612264"><ele></ele><time>2019-1-17T11:30:11Z</time></trkpt>
<trkpt lat="48.41142" lon="2.612049"><ele></ele><time>2019-1-17T11:30:14Z</time></trkpt>
<trkpt lat="48.411367" lon="2.611921"><ele></ele><time>2019-1-17T11:30:17Z</time></trkpt>
<trkpt lat="48.411382" lon="2.611738"><ele></ele><time>2019-1-17T11:30:20Z</time></trkpt>
<trkpt lat="48.411357" lon="2.611543"><ele></ele><time>2019-1-17T11:30:23Z</time></trkpt>
<trkpt lat="48.411329" lon="2.611362"><ele></ele><time>2019-1-17T11:30:26Z</time></trkpt>
<trkpt lat="48.411287" lon="2.611177"><ele></ele><time>2019-1-17T11:30:29Z</time></trkpt>
<trkpt lat="48.411288" lon="2.610961"><ele></ele><time>2019-1-17T11:30:32Z</time></trkpt>
<trkpt lat="48.411287" lon="2.610811"><ele></ele><time>2019-1-17T11:30:35Z</time></trkpt>
<trkpt lat="48.411289" lon="2.61065"><ele></ele><time>2019-1-17T11:30:38Z</time></trkpt>
<trkpt lat="48.411273" lon="2.610513"><ele></ele><time>2019-1-17T11:30:41Z</time></trkpt>
<trkpt lat="48.411248" lon="2.610346"><ele></ele><time>2019-1-17T11:30:44Z</time></trkpt>
<trkpt lat="48.411222" lon="2.610171"><ele></ele><time>2019-1-17T11:30:47Z</time></trkpt>
<trkpt lat="48.411212" lon="2.609999"><ele></ele><time>2019-1-17T11:30:50Z</time></trkpt>
<trkpt lat="48.41118" lon="2.609845"><ele></ele><time>2019-1-17T11:30:53Z</time></trkpt>
<trkpt lat="48.411183" lon="2.609687"><ele></ele><time>2019-1-17T11:30:56Z</time></trkpt>
<trkpt lat="48.411108" lon="2.60961"><ele></ele><time>2019-1-17T11:30:59Z</time></trkpt>
<trkpt lat="48.411003" lon="2.60953"><ele></ele><time>2019-1-17T11:31:2Z</time></trkpt>
<trkpt lat="48.410902" lon="2.609566"><ele></ele><time>2019-1-17T11:31:5Z</time></trkpt>
<trkpt lat="48.410794" lon="2.609518"><ele></ele><time>2019-1-17T11:31:8Z</time></trkpt>
<trkpt lat="48.4107" lon="2.609574"><ele></ele><time>2019-1-17T11:31:11Z</time></trkpt>
<trkpt lat="48.410625" lon="2.609676"><ele></ele><time>2019-1-17T11:31:14Z</time></trkpt>
<trkpt lat="48.410529" lon="2.609678"><ele></ele><time>2019-1-17T11:31:17Z</time></trkpt>
<trkpt lat="48.410432" lon="2.609723"><ele></ele><time>2019-1-17T11:31:20Z</time></trkpt>
<trkpt lat="48.410335" lon="2.60975"><ele></ele><time>2019-1-17T11:31:23Z</time></trkpt>
<trkpt lat="48.410236" lon="2.609711"><ele></ele><time>2019-1-17T11:31:26Z</time></trkpt>
<trkpt lat="48.410136" lon="2.609735"><ele></ele><time>2019-1-17T11:31:29Z</time></trkpt>
<trkpt lat="48.41002" lon="2.609706"><ele></ele><time>2019-1-17T11:31:32Z</time></trkpt>
<trkpt lat="48.409927" lon="2.609695"><ele></ele><time>2019-1-17T11:31:35Z</time></trkpt>
<trkpt lat="48.409829" lon="2.609645"><ele></ele><time>2019-1-17T11:31:38Z</time></trkpt>
<trkpt lat="48.40974" lon="2.609671"><ele></ele><time>2019-1-17T11:31:41Z</time></trkpt>
<trkpt lat="48.40963" lon="2.609702"><ele></ele><time>2019-1-17T11:31:44Z</time></trkpt>
<trkpt lat="48.409539" lon="2.609717"><ele></ele><time>2019-1-17T11:31:47Z</time></trkpt>
<trkpt lat="48.409469" lon="2.609806"><ele></ele><time>2019-1-17T11:31:50Z</time></trkpt>
<trkpt lat="48.409392" lon="2.609912"><ele></ele><time>2019-1-17T11:31:53Z</time></trkpt>
<trkpt lat="48.409302" lon="2.609972"><ele></ele><time>2019-1-17T11:31:56Z</time></trkpt>
<trkpt lat="48.409234" lon="2.610068"><ele></ele><time>2019-1-17T11:31:59Z</time></trkpt>
<trkpt lat="48.409153" lon="2.610176"><ele></ele><time>2019-1-17T11:32:2Z</time></trkpt>
<trkpt lat="48.409026" lon="2.610218"><ele></ele><time>2019-1-17T11:32:5Z</time></trkpt>
<trkpt lat="48.408943" lon="2.610323"><ele></ele><time>2019-1-17T11:32:8Z</time></trkpt>
<trkpt lat="48.408897" lon="2.610442"><ele></ele><time>2019-1-17T11:32:11Z</time></trkpt>
<trkpt lat="48.408847" lon="2.610592"><ele></ele><time>2019-1-17T11:32:14Z</time></trkpt>
<trkpt lat="48.408836" lon="2.610775"><ele></ele><time>2019-1-17T11:32:17Z</time></trkpt>
<trkpt lat="48.408859" lon="2.610955"><ele></ele><time>2019-1-17T11:32:20Z</time></trkpt>
<trkpt lat="48.408907" lon="2.611088"><ele></ele><time>2019-1-17T11:32:23Z</time></trkpt>
<trkpt lat="48.40897" lon="2.611238"><ele></ele><time>2019-1-17T11:32:26Z</time></trkpt>
<trkpt lat="48.409018" lon="2.611388"><ele></ele><time>2019-1-17T11:32:29Z</time></trkpt>
<trkpt lat="48.409054" lon="2.611598"><ele></ele><time>2019-1-17T11:32:32Z</time></trkpt>
<trkpt lat="48.409013" lon="2.611794"><ele></ele><time>2019-1-17T11:32:35Z</time></trkpt>
<trkpt lat="48.409007" lon="2.611979"><ele></ele><time>2019-1-17T11:32:38Z</time></trkpt>
<trkpt lat="48.409043" lon="2.612147"><ele></ele><time>2019-1-17T11:32:41Z</time></trkpt>
<trkpt lat="48.409075" lon="2.612297"><ele></ele><time>2019-1-17T11:32:44Z</time></trkpt>
<trkpt lat="48.409118" lon="2.61246"><ele></ele><time>2019-1-17T11:32:47Z</time></trkpt>
<trkpt lat="48.409121" lon="2.612598"><ele></ele><time>2019-1-17T11:32:50Z</time></trkpt>
<trkpt lat="48.409145" lon="2.612797"><ele></ele><time>2019-1-17T11:32:53Z</time></trkpt>
<trkpt lat="48.409176" lon="2.612939"><ele></ele><time>2019-1-17T11:32:56Z</time></trkpt>
<trkpt lat="48.409166" lon="2.613124"><ele></ele><time>2019-1-17T11:32:59Z</time></trkpt>
<trkpt lat="48.409183" lon="2.613261"><ele></ele><time>2019-1-17T11:33:2Z</time></trkpt>
<trkpt lat="48.409226" lon="2.613391"><ele></ele><time>2019-1-17T11:33:5Z</time></trkpt>
<trkpt lat="48.409228" lon="2.613568"><ele></ele><time>2019-1-17T11:33:8Z</time></trkpt>
<trkpt lat="48.409217" lon="2.613738"><ele></ele><time>2019-1-17T11:33:11Z</time></trkpt>
<trkpt lat="48.409182" lon="2.613889"><ele></ele><time>2019-1-17T11:33:14Z</time></trkpt>
<trkpt lat="48.409171" lon="2.614064"><ele></ele><time>2019-1-17T11:33:17Z</time></trkpt>
<trkpt lat="48.409177" lon="2.614205"><ele></ele><time>2019-1-17T11:33:20Z</time></trkpt>
<trkpt lat="48.40915" lon="2.614347"><ele></ele><time>2019-1-17T11:33:23Z</time></trkpt>
<trkpt lat="48.409115" lon="2.614512"><ele></ele><time>2019-1-17T11:33:26Z</time></trkpt>
<trkpt lat="48.409077" lon="2.614637"><ele></ele><time>2019-1-17T11:33:29Z</time></trkpt>
<trkpt lat="48.40903" lon="2.61478"><ele></ele><time>2019-1-17T11:33:32Z</time></trkpt>
<trkpt lat="48.409061" lon="2.614921"><ele></ele><time>2019-1-17T11:33:35Z</time></trkpt>
<trkpt lat="48.408978" lon="2.615028"><ele></ele><time>2019-1-17T11:33:38Z</time></trkpt>
<trkpt lat="48.408899" lon="2.615137"><ele></ele><time>2019-1-17T11:33:41Z</time></trkpt>
<trkpt lat="48.40883" lon="2.615248"><ele></ele><time>2019-1-17T11:33:44Z</time></trkpt>
<trkpt lat="48.40875" lon="2.61538"><ele></ele><time>2019-1-17T11:33:47Z</time></trkpt>
<trkpt lat="48.408658" lon="2.615494"><ele></ele><time>2019-1-17T11:33:50Z</time></trkpt>
<trkpt lat="48.408577" lon="2.615618"><ele></ele><time>2019-1-17T11:33:53Z</time></trkpt>
<trkpt lat="48.408528" lon="2.615774"><ele></ele><time>2019-1-17T11:33:56Z</time></trkpt>
<trkpt lat="48.408475" lon="2.615963"><ele></ele><time>2019-1-17T11:33:59Z</time></trkpt>
<trkpt lat="48.408479" lon="2.61613"><ele></ele><time>2019-1-17T11:34:2Z</time></trkpt>
<trkpt lat="48.408434" lon="2.616275"><ele></ele><time>2019-1-17T11:34:5Z</time></trkpt>
<trkpt lat="48.408413" lon="2.616426"><ele></ele><time>2019-1-17T11:34:8Z</time></trkpt>
<trkpt lat="48.408435" lon="2.616567"><ele></ele><time>2019-1-17T11:34:11Z</time></trkpt>
<trkpt lat="48.408439" lon="2.616734"><ele></ele><time>2019-1-17T11:34:14Z</time></trkpt>
<trkpt lat="48.408433" lon="2.616884"><ele></ele><time>2019-1-17T11:34:17Z</time></trkpt>
<trkpt lat="48.408436" lon="2.617068"><ele></ele><time>2019-1-17T11:34:20Z</time></trkpt>
<trkpt lat="48.408448" lon="2.617226"><ele></ele><time>2019-1-17T11:34:23Z</time></trkpt>
<trkpt lat="48.408368" lon="2.61733"><ele></ele><time>2019-1-17T11:34:26Z</time></trkpt>
<trkpt lat="48.408329" lon="2.617456"><ele></ele><time>2019-1-17T11:34:29Z</time></trkpt>
<trkpt lat="48.408321" lon="2.617597"><ele></ele><time>2019-1-17T11:34:32Z</time></trkpt>
<trkpt lat="48.408289" lon="2.617746"><ele></ele><time>2019-1-17T11:34:35Z</time></trkpt>
<trkpt lat="48.408265" lon="2.617878"><ele></ele><time>2019-1-17T11:34:38Z</time></trkpt>
<trkpt lat="48.408223" lon="2.618024"><ele></ele><time>2019-1-17T11:34:41Z</time></trkpt>
<trkpt lat="48.408183" lon="2.618185"><ele></ele><time>2019-1-17T11:34:44Z</time></trkpt>
<trkpt lat="48.408156" lon="2.618319"><ele></ele><time>2019-1-17T11:34:47Z</time></trkpt>
<trkpt lat="48.408175" lon="2.618466"><ele></ele><time>2019-1-17T11:34:50Z</time></trkpt>
<trkpt lat="48.408159" lon="2.618605"><ele></ele><time>2019-1-17T11:34:53Z</time></trkpt>
<trkpt lat="48.408184" lon="2.618747"><ele></ele><time>2019-1-17T11:34:56Z</time></trkpt>
<trkpt lat="48.408172" lon="2.618886"><ele></ele><time>2019-1-17T11:34:59Z</time></trkpt>
<trkpt lat="48.408106" lon="2.619087"><ele></ele><time>2019-1-17T11:35:2Z</time></trkpt>
<trkpt lat="48.408046" lon="2.619282"><ele></ele><time>2019-1-17T11:35:5Z</time></trkpt>
<trkpt lat="48.407992" lon="2.619451"><ele></ele><time>2019-1-17T11:35:8Z</time></trkpt>
<trkpt lat="48.407967" lon="2.619581"><ele></ele><time>2019-1-17T11:35:11Z</time></trkpt>
<trkpt lat="48.407965" lon="2.619733"><ele></ele><time>2019-1-17T11:35:14Z</time></trkpt>
<trkpt lat="48.407974" lon="2.619868"><ele></ele><time>2019-1-17T11:35:17Z</time></trkpt>
<trkpt lat="48.407978" lon="2.620022"><ele></ele><time>2019-1-17T11:35:20Z</time></trkpt>
<trkpt lat="48.408043" lon="2.62015"><ele></ele><time>2019-1-17T11:35:23Z</time></trkpt>
<trkpt lat="48.408044" lon="2.620356"><ele></ele><time>2019-1-17T11:35:26Z</time></trkpt>
<trkpt lat="48.408033" lon="2.620559"><ele></ele><time>2019-1-17T11:35:29Z</time></trkpt>
<trkpt lat="48.408" lon="2.620686"><ele></ele><time>2019-1-17T11:35:32Z</time></trkpt>
<trkpt lat="48.408049" lon="2.620815"><ele></ele><time>2019-1-17T11:35:35Z</time></trkpt>
<trkpt lat="48.40806" lon="2.620962"><ele></ele><time>2019-1-17T11:35:38Z</time></trkpt>
<trkpt lat="48.408098" lon="2.621128"><ele></ele><time>2019-1-17T11:35:41Z</time></trkpt>
<trkpt lat="48.408113" lon="2.621282"><ele></ele><time>2019-1-17T11:35:44Z</time></trkpt>
<trkpt lat="48.40807" lon="2.621402"><ele></ele><time>2019-1-17T11:35:47Z</time></trkpt>
<trkpt lat="48.408096" lon="2.62154"><ele></ele><time>2019-1-17T11:35:50Z</time></trkpt>
<trkpt lat="48.40805" lon="2.621661"><ele></ele><time>2019-1-17T11:35:53Z</time></trkpt>
<trkpt lat="48.407998" lon="2.621779"><ele></ele><time>2019-1-17T11:35:56Z</time></trkpt>
<trkpt lat="48.407972" lon="2.621971"><ele></ele><time>2019-1-17T11:35:59Z</time></trkpt>
<trkpt lat="48.407933" lon="2.622144"><ele></ele><time>2019-1-17T11:36:2Z</time></trkpt>
<trkpt lat="48.407868" lon="2.622284"><ele></ele><time>2019-1-17T11:36:5Z</time></trkpt>
<trkpt lat="48.4078" lon="2.622415"><ele></ele><time>2019-1-17T11:36:8Z</time></trkpt>
<trkpt lat="48.407751" lon="2.622607"><ele></ele><time>2019-1-17T11:36:11Z</time></trkpt>
<trkpt lat="48.40772" lon="2.622746"><ele></ele><time>2019-1-17T11:36:14Z</time></trkpt>
<trkpt lat="48.407633" lon="2.622873"><ele></ele><time>2019-1-17T11:36:17Z</time></trkpt>
<trkpt lat="48.407629" lon="2.623037"><ele></ele><time>2019-1-17T11:36:20Z</time></trkpt>
<trkpt lat="48.407579" lon="2.623194"><ele></ele><time>2019-1-17T11:36:23Z</time></trkpt>
<trkpt lat="48.407534" lon="2.623324"><ele></ele><time>2019-1-17T11:36:26Z</time></trkpt>
<trkpt lat="48.407468" lon="2.623534"><ele></ele><time>2019-1-17T11:36:29Z</time></trkpt>
<trkpt lat="48.407362" lon="2.623679"><ele></ele><time>2019-1-17T11:36:32Z</time></trkpt>
<trkpt lat="48.407312" lon="2.623808"><ele></ele><time>2019-1-17T11:36:35Z</time></trkpt>
<trkpt lat="48.40727" lon="2.623934"><ele></ele><time>2019-1-17T11:36:38Z</time></trkpt>
<trkpt lat="48.407216" lon="2.624077"><ele></ele><time>2019-1-17T11:36:41Z</time></trkpt>
<trkpt lat="48.407291" lon="2.624203"><ele></ele><time>2019-1-17T11:36:44Z</time></trkpt>
<trkpt lat="48.407237" lon="2.624354"><ele></ele><time>2019-1-17T11:36:47Z</time></trkpt>
<trkpt lat="48.407128" lon="2.624431"><ele></ele><time>2019-1-17T11:36:50Z</time></trkpt>
<trkpt lat="48.40709" lon="2.624581"><ele></ele><time>2019-1-17T11:36:53Z</time></trkpt>
<trkpt lat="48.40709" lon="2.624741"><ele></ele><time>2019-1-17T11:36:56Z</time></trkpt>
<trkpt lat="48.407154" lon="2.624873"><ele></ele><time>2019-1-17T11:36:59Z</time></trkpt>
<trkpt lat="48.407125" lon="2.625031"><ele></ele><time>2019-1-17T11:37:2Z</time></trkpt>
<trkpt lat="48.407141" lon="2.625168"><ele></ele><time>2019-1-17T11:37:5Z</time></trkpt>
<trkpt lat="48.40718" lon="2.625291"><ele></ele><time>2019-1-17T11:37:8Z</time></trkpt>
<trkpt lat="48.407144" lon="2.625436"><ele></ele><time>2019-1-17T11:37:11Z</time></trkpt>
<trkpt lat="48.407162" lon="2.625575"><ele></ele><time>2019-1-17T11:37:14Z</time></trkpt>
<trkpt lat="48.407143" lon="2.625718"><ele></ele><time>2019-1-17T11:37:17Z</time></trkpt>
<trkpt lat="48.407115" lon="2.625881"><ele></ele><time>2019-1-17T11:37:20Z</time></trkpt>
<trkpt lat="48.407115" lon="2.626024"><ele></ele><time>2019-1-17T11:37:23Z</time></trkpt>
<trkpt lat="48.407125" lon="2.626179"><ele></ele><time>2019-1-17T11:37:26Z</time></trkpt>
<trkpt lat="48.407128" lon="2.626352"><ele></ele><time>2019-1-17T11:37:29Z</time></trkpt>
<trkpt lat="48.407101" lon="2.626506"><ele></ele><time>2019-1-17T11:37:32Z</time></trkpt>
<trkpt lat="48.406995" lon="2.62661"><ele></ele><time>2019-1-17T11:37:35Z</time></trkpt>
<trkpt lat="48.406901" lon="2.626599"><ele></ele><time>2019-1-17T11:37:38Z</time></trkpt>
<trkpt lat="48.406826" lon="2.626485"><ele></ele><time>2019-1-17T11:37:41Z</time></trkpt>
<trkpt lat="48.406766" lon="2.62638"><ele></ele><time>2019-1-17T11:37:44Z</time></trkpt>
<trkpt lat="48.4067" lon="2.626206"><ele></ele><time>2019-1-17T11:37:47Z</time></trkpt>
<trkpt lat="48.40663" lon="2.626106"><ele></ele><time>2019-1-17T11:37:50Z</time></trkpt>
<trkpt lat="48.406556" lon="2.626022"><ele></ele><time>2019-1-17T11:37:53Z</time></trkpt>
<trkpt lat="48.406524" lon="2.625883"><ele></ele><time>2019-1-17T11:37:56Z</time></trkpt>
<trkpt lat="48.40645" lon="2.62579"><ele></ele><time>2019-1-17T11:37:59Z</time></trkpt>
<trkpt lat="48.406366" lon="2.625698"><ele></ele><time>2019-1-17T11:38:2Z</time></trkpt>
<trkpt lat="48.406262" lon="2.625672"><ele></ele><time>2019-1-17T11:38:5Z</time></trkpt>
<trkpt lat="48.40615" lon="2.625594"><ele></ele><time>2019-1-17T11:38:8Z</time></trkpt>
<trkpt lat="48.406051" lon="2.625597"><ele></ele><time>2019-1-17T11:38:11Z</time></trkpt>
<trkpt lat="48.40594" lon="2.6256"><ele></ele><time>2019-1-17T11:38:14Z</time></trkpt>
<trkpt lat="48.405862" lon="2.625531"><ele></ele><time>2019-1-17T11:38:17Z</time></trkpt>
<trkpt lat="48.405773" lon="2.625477"><ele></ele><time>2019-1-17T11:38:20Z</time></trkpt>
<trkpt lat="48.405681" lon="2.625493"><ele></ele><time>2019-1-17T11:38:23Z</time></trkpt>
<trkpt lat="48.405607" lon="2.625572"><ele></ele><time>2019-1-17T11:38:26Z</time></trkpt>
<trkpt lat="48.405604" lon="2.625721"><ele></ele><time>2019-1-17T11:38:29Z</time></trkpt>
<trkpt lat="48.405526" lon="2.625841"><ele></ele><time>2019-1-17T11:38:32Z</time></trkpt>
<trkpt lat="48.405491" lon="2.626058"><ele></ele><time>2019-1-17T11:38:35Z</time></trkpt>
<trkpt lat="48.405428" lon="2.626186"><ele></ele><time>2019-1-17T11:38:38Z</time></trkpt>
<trkpt lat="48.405465" lon="2.626316"><ele></ele><time>2019-1-17T11:38:41Z</time></trkpt>
<trkpt lat="48.405432" lon="2.626479"><ele></ele><time>2019-1-17T11:38:44Z</time></trkpt>
<trkpt lat="48.40542" lon="2.626615"><ele></ele><time>2019-1-17T11:38:47Z</time></trkpt>
<trkpt lat="48.405382" lon="2.626794"><ele></ele><time>2019-1-17T11:38:50Z</time></trkpt>
<trkpt lat="48.405297" lon="2.626925"><ele></ele><time>2019-1-17T11:38:53Z</time></trkpt>
<trkpt lat="48.405331" lon="2.627057"><ele></ele><time>2019-1-17T11:38:56Z</time></trkpt>
<trkpt lat="48.40535" lon="2.627205"><ele></ele><time>2019-1-17T11:38:59Z</time></trkpt>
<trkpt lat="48.405339" lon="2.627345"><ele></ele><time>2019-1-17T11:39:2Z</time></trkpt>
<trkpt lat="48.405332" lon="2.627481"><ele></ele><time>2019-1-17T11:39:5Z</time></trkpt>
<trkpt lat="48.405254" lon="2.627582"><ele></ele><time>2019-1-17T11:39:8Z</time></trkpt>
<trkpt lat="48.405294" lon="2.627707"><ele></ele><time>2019-1-17T11:39:11Z</time></trkpt>
<trkpt lat="48.405324" lon="2.627872"><ele></ele><time>2019-1-17T11:39:14Z</time></trkpt>
<trkpt lat="48.405277" lon="2.628013"><ele></ele><time>2019-1-17T11:39:17Z</time></trkpt>
<trkpt lat="48.405236" lon="2.628183"><ele></ele><time>2019-1-17T11:39:20Z</time></trkpt>
<trkpt lat="48.405193" lon="2.628315"><ele></ele><time>2019-1-17T11:39:23Z</time></trkpt>
<trkpt lat="48.405182" lon="2.628462"><ele></ele><time>2019-1-17T11:39:26Z</time></trkpt>
<trkpt lat="48.405174" lon="2.628619"><ele></ele><time>2019-1-17T11:39:29Z</time></trkpt>
<trkpt lat="48.405176" lon="2.628778"><ele></ele><time>2019-1-17T11:39:32Z</time></trkpt>
<trkpt lat="48.405168" lon="2.62894"><ele></ele><time>2019-1-17T11:39:35Z</time></trkpt>
<trkpt lat="48.405157" lon="2.629083"><ele></ele><time>2019-1-17T11:39:38Z</time></trkpt>
<trkpt lat="48.40513" lon="2.629232"><ele></ele><time>2019-1-17T11:39:41Z</time></trkpt>
<trkpt lat="48.405134" lon="2.62942"><ele></ele><time>2019-1-17T11:39:44Z</time></trkpt>
<trkpt lat="48.405175" lon="2.629556"><ele></ele><time>2019-1-17T11:39:47Z</time></trkpt>
<trkpt lat="48.405171" lon="2.629719"><ele></ele><time>2019-1-17T11:39:50Z</time></trkpt>
<trkpt lat="48.405248" lon="2.629845"><ele></ele><time>2019-1-17T11:39:53Z</time></trkpt>
<trkpt lat="48.405165" lon="2.629942"><ele></ele><time>2019-1-17T11:39:56Z</time></trkpt>
<trkpt lat="48.40518" lon="2.630077"><ele></ele><time>2019-1-17T11:39:59Z</time></trkpt>
<trkpt lat="48.405096" lon="2.630185"><ele></ele><time>2019-1-17T11:40:2Z</time></trkpt>
<trkpt lat="48.405084" lon="2.63034"><ele></ele><time>2019-1-17T11:40:5Z</time></trkpt>
<trkpt lat="48.405143" lon="2.630454"><ele></ele><time>2019-1-17T11:40:8Z</time></trkpt>
<trkpt lat="48.405091" lon="2.630586"><ele></ele><time>2019-1-17T11:40:11Z</time></trkpt>
<trkpt lat="48.405063" lon="2.630727"><ele></ele><time>2019-1-17T11:40:14Z</time></trkpt>
<trkpt lat="48.405003" lon="2.630845"><ele></ele><time>2019-1-17T11:40:17Z</time></trkpt>
<trkpt lat="48.405035" lon="2.630992"><ele></ele><time>2019-1-17T11:40:20Z</time></trkpt>
<trkpt lat="48.405067" lon="2.631124"><ele></ele><time>2019-1-17T11:40:23Z</time></trkpt>
<trkpt lat="48.405024" lon="2.631277"><ele></ele><time>2019-1-17T11:40:26Z</time></trkpt>
<trkpt lat="48.405088" lon="2.631403"><ele></ele><time>2019-1-17T11:40:29Z</time></trkpt>
<trkpt lat="48.405055" lon="2.631542"><ele></ele><time>2019-1-17T11:40:32Z</time></trkpt>
<trkpt lat="48.405041" lon="2.631678"><ele></ele><time>2019-1-17T11:40:35Z</time></trkpt>
<trkpt lat="48.40505" lon="2.631821"><ele></ele><time>2019-1-17T11:40:38Z</time></trkpt>
<trkpt lat="48.405019" lon="2.631983"><ele></ele><time>2019-1-17T11:40:41Z</time></trkpt>
<trkpt lat="48.405013" lon="2.632126"><ele></ele><time>2019-1-17T11:40:44Z</time></trkpt>
<trkpt lat="48.404954" lon="2.632288"><ele></ele><time>2019-1-17T11:40:47Z</time></trkpt>
<trkpt lat="48.404933" lon="2.632425"><ele></ele><time>2019-1-17T11:40:50Z</time></trkpt>
<trkpt lat="48.404932" lon="2.632574"><ele></ele><time>2019-1-17T11:40:53Z</time></trkpt>
<trkpt lat="48.404905" lon="2.632708"><ele></ele><time>2019-1-17T11:40:56Z</time></trkpt>
<trkpt lat="48.404858" lon="2.632839"><ele></ele><time>2019-1-17T11:40:59Z</time></trkpt>
<trkpt lat="48.404827" lon="2.633009"><ele></ele><time>2019-1-17T11:41:2Z</time></trkpt>
<trkpt lat="48.404836" lon="2.633153"><ele></ele><time>2019-1-17T11:41:5Z</time></trkpt>
<trkpt lat="48.404775" lon="2.633283"><ele></ele><time>2019-1-17T11:41:8Z</time></trkpt>
<trkpt lat="48.404772" lon="2.633507"><ele></ele><time>2019-1-17T11:41:11Z</time></trkpt>
<trkpt lat="48.404846" lon="2.633414"><ele></ele><time>2019-1-17T11:41:14Z</time></trkpt>
<trkpt lat="48.404844" lon="2.633576"><ele></ele><time>2019-1-17T11:41:17Z</time></trkpt>
<trkpt lat="48.404853" lon="2.633735"><ele></ele><time>2019-1-17T11:41:20Z</time></trkpt>
<trkpt lat="48.404845" lon="2.633907"><ele></ele><time>2019-1-17T11:41:23Z</time></trkpt>
<trkpt lat="48.404768" lon="2.634011"><ele></ele><time>2019-1-17T11:41:26Z</time></trkpt>
<trkpt lat="48.404757" lon="2.634158"><ele></ele><time>2019-1-17T11:41:29Z</time></trkpt>
<trkpt lat="48.404723" lon="2.634329"><ele></ele><time>2019-1-17T11:41:32Z</time></trkpt>
<trkpt lat="48.404721" lon="2.634505"><ele></ele><time>2019-1-17T11:41:35Z</time></trkpt>
<trkpt lat="48.404671" lon="2.63469"><ele></ele><time>2019-1-17T11:41:38Z</time></trkpt>
<trkpt lat="48.404644" lon="2.634861"><ele></ele><time>2019-1-17T11:41:41Z</time></trkpt>
<trkpt lat="48.4046" lon="2.634997"><ele></ele><time>2019-1-17T11:41:44Z</time></trkpt>
<trkpt lat="48.404557" lon="2.635155"><ele></ele><time>2019-1-17T11:41:47Z</time></trkpt>
<trkpt lat="48.40456" lon="2.635312"><ele></ele><time>2019-1-17T11:41:50Z</time></trkpt>
<trkpt lat="48.404527" lon="2.635462"><ele></ele><time>2019-1-17T11:41:53Z</time></trkpt>
<trkpt lat="48.40456" lon="2.635635"><ele></ele><time>2019-1-17T11:41:56Z</time></trkpt>
<trkpt lat="48.404541" lon="2.635768"><ele></ele><time>2019-1-17T11:41:59Z</time></trkpt>
<trkpt lat="48.404532" lon="2.635945"><ele></ele><time>2019-1-17T11:42:2Z</time></trkpt>
<trkpt lat="48.404499" lon="2.636073"><ele></ele><time>2019-1-17T11:42:5Z</time></trkpt>
<trkpt lat="48.404489" lon="2.636226"><ele></ele><time>2019-1-17T11:42:8Z</time></trkpt>
<trkpt lat="48.404455" lon="2.636357"><ele></ele><time>2019-1-17T11:42:11Z</time></trkpt>
<trkpt lat="48.404408" lon="2.636527"><ele></ele><time>2019-1-17T11:42:14Z</time></trkpt>
<trkpt lat="48.404354" lon="2.636707"><ele></ele><time>2019-1-17T11:42:17Z</time></trkpt>
<trkpt lat="48.404331" lon="2.636847"><ele></ele><time>2019-1-17T11:42:20Z</time></trkpt>
<trkpt lat="48.404338" lon="2.636991"><ele></ele><time>2019-1-17T11:42:23Z</time></trkpt>
<trkpt lat="48.404353" lon="2.637167"><ele></ele><time>2019-1-17T11:42:26Z</time></trkpt>
<trkpt lat="48.404273" lon="2.637263"><ele></ele><time>2019-1-17T11:42:29Z</time></trkpt>
<trkpt lat="48.404249" lon="2.637408"><ele></ele><time>2019-1-17T11:42:32Z</time></trkpt>
<trkpt lat="48.404264" lon="2.63757"><ele></ele><time>2019-1-17T11:42:35Z</time></trkpt>
<trkpt lat="48.404236" lon="2.637729"><ele></ele><time>2019-1-17T11:42:38Z</time></trkpt>
<trkpt lat="48.40427" lon="2.637877"><ele></ele><time>2019-1-17T11:42:41Z</time></trkpt>
<trkpt lat="48.40436" lon="2.637911"><ele></ele><time>2019-1-17T11:42:44Z</time></trkpt>
<trkpt lat="48.404458" lon="2.637854"><ele></ele><time>2019-1-17T11:42:47Z</time></trkpt>
<trkpt lat="48.404531" lon="2.63774"><ele></ele><time>2019-1-17T11:42:50Z</time></trkpt>
<trkpt lat="48.404602" lon="2.637627"><ele></ele><time>2019-1-17T11:42:53Z</time></trkpt>
<trkpt lat="48.404688" lon="2.637567"><ele></ele><time>2019-1-17T11:42:56Z</time></trkpt>
<trkpt lat="48.404777" lon="2.637594"><ele></ele><time>2019-1-17T11:42:59Z</time></trkpt>
<trkpt lat="48.404865" lon="2.637564"><ele></ele><time>2019-1-17T11:43:2Z</time></trkpt>
<trkpt lat="48.404959" lon="2.637456"><ele></ele><time>2019-1-17T11:43:5Z</time></trkpt>
<trkpt lat="48.405058" lon="2.637388"><ele></ele><time>2019-1-17T11:43:8Z</time></trkpt>
<trkpt lat="48.405153" lon="2.637335"><ele></ele><time>2019-1-17T11:43:11Z</time></trkpt>
<trkpt lat="48.405283" lon="2.637264"><ele></ele><time>2019-1-17T11:43:14Z</time></trkpt>
<trkpt lat="48.405408" lon="2.637257"><ele></ele><time>2019-1-17T11:43:17Z</time></trkpt>
<trkpt lat="48.405505" lon="2.637262"><ele></ele><time>2019-1-17T11:43:20Z</time></trkpt>
<trkpt lat="48.405638" lon="2.637196"><ele></ele><time>2019-1-17T11:43:23Z</time></trkpt>
<trkpt lat="48.40576" lon="2.637083"><ele></ele><time>2019-1-17T11:43:26Z</time></trkpt>
<trkpt lat="48.405877" lon="2.636998"><ele></ele><time>2019-1-17T11:43:29Z</time></trkpt>
<trkpt lat="48.405966" lon="2.636941"><ele></ele><time>2019-1-17T11:43:32Z</time></trkpt>
<trkpt lat="48.406071" lon="2.636912"><ele></ele><time>2019-1-17T11:43:35Z</time></trkpt>
<trkpt lat="48.406173" lon="2.636888"><ele></ele><time>2019-1-17T11:43:38Z</time></trkpt>
<trkpt lat="48.406293" lon="2.636846"><ele></ele><time>2019-1-17T11:43:41Z</time></trkpt>
<trkpt lat="48.406386" lon="2.636839"><ele></ele><time>2019-1-17T11:43:44Z</time></trkpt>
<trkpt lat="48.406496" lon="2.636822"><ele></ele><time>2019-1-17T11:43:47Z</time></trkpt>
<trkpt lat="48.406623" lon="2.636762"><ele></ele><time>2019-1-17T11:43:50Z</time></trkpt>
<trkpt lat="48.406755" lon="2.636726"><ele></ele><time>2019-1-17T11:43:53Z</time></trkpt>
<trkpt lat="48.40686" lon="2.63671"><ele></ele><time>2019-1-17T11:43:56Z</time></trkpt>
<trkpt lat="48.406964" lon="2.636668"><ele></ele><time>2019-1-17T11:43:59Z</time></trkpt>
<trkpt lat="48.40707" lon="2.636606"><ele></ele><time>2019-1-17T11:44:2Z</time></trkpt>
<trkpt lat="48.40715" lon="2.636541"><ele></ele><time>2019-1-17T11:44:5Z</time></trkpt>
<trkpt lat="48.407226" lon="2.636428"><ele></ele><time>2019-1-17T11:44:8Z</time></trkpt>
<trkpt lat="48.407324" lon="2.636358"><ele></ele><time>2019-1-17T11:44:11Z</time></trkpt>
<trkpt lat="48.407453" lon="2.636287"><ele></ele><time>2019-1-17T11:44:14Z</time></trkpt>
<trkpt lat="48.407548" lon="2.636233"><ele></ele><time>2019-1-17T11:44:17Z</time></trkpt>
<trkpt lat="48.407636" lon="2.636154"><ele></ele><time>2019-1-17T11:44:20Z</time></trkpt>
<trkpt lat="48.407695" lon="2.636052"><ele></ele><time>2019-1-17T11:44:23Z</time></trkpt>
<trkpt lat="48.407776" lon="2.635932"><ele></ele><time>2019-1-17T11:44:26Z</time></trkpt>
<trkpt lat="48.407845" lon="2.635826"><ele></ele><time>2019-1-17T11:44:29Z</time></trkpt>
<trkpt lat="48.407858" lon="2.635674"><ele></ele><time>2019-1-17T11:44:32Z</time></trkpt>
<trkpt lat="48.407886" lon="2.635516"><ele></ele><time>2019-1-17T11:44:35Z</time></trkpt>
<trkpt lat="48.407934" lon="2.635371"><ele></ele><time>2019-1-17T11:44:38Z</time></trkpt>
<trkpt lat="48.407953" lon="2.635231"><ele></ele><time>2019-1-17T11:44:41Z</time></trkpt>
<trkpt lat="48.407979" lon="2.635079"><ele></ele><time>2019-1-17T11:44:44Z</time></trkpt>
<trkpt lat="48.407986" lon="2.634914"><ele></ele><time>2019-1-17T11:44:47Z</time></trkpt>
<trkpt lat="48.408017" lon="2.634751"><ele></ele><time>2019-1-17T11:44:50Z</time></trkpt>
<trkpt lat="48.408023" lon="2.634592"><ele></ele><time>2019-1-17T11:44:53Z</time></trkpt>
<trkpt lat="48.408065" lon="2.634465"><ele></ele><time>2019-1-17T11:44:56Z</time></trkpt>
<trkpt lat="48.408065" lon="2.634327"><ele></ele><time>2019-1-17T11:44:59Z</time></trkpt>
<trkpt lat="48.408083" lon="2.63416"><ele></ele><time>2019-1-17T11:45:2Z</time></trkpt>
<trkpt lat="48.408138" lon="2.634006"><ele></ele><time>2019-1-17T11:45:5Z</time></trkpt>
<trkpt lat="48.408187" lon="2.633879"><ele></ele><time>2019-1-17T11:45:8Z</time></trkpt>
<trkpt lat="48.408209" lon="2.633745"><ele></ele><time>2019-1-17T11:45:11Z</time></trkpt>
<trkpt lat="48.408219" lon="2.633609"><ele></ele><time>2019-1-17T11:45:14Z</time></trkpt>
<trkpt lat="48.408257" lon="2.633451"><ele></ele><time>2019-1-17T11:45:17Z</time></trkpt>
<trkpt lat="48.408261" lon="2.633308"><ele></ele><time>2019-1-17T11:45:20Z</time></trkpt>
<trkpt lat="48.408342" lon="2.633182"><ele></ele><time>2019-1-17T11:45:23Z</time></trkpt>
<trkpt lat="48.408448" lon="2.633088"><ele></ele><time>2019-1-17T11:45:26Z</time></trkpt>
<trkpt lat="48.40853" lon="2.633158"><ele></ele><time>2019-1-17T11:45:29Z</time></trkpt>
<trkpt lat="48.408609" lon="2.633252"><ele></ele><time>2019-1-17T11:45:32Z</time></trkpt>
<trkpt lat="48.408692" lon="2.633356"><ele></ele><time>2019-1-17T11:45:35Z</time></trkpt>
<trkpt lat="48.408799" lon="2.633442"><ele></ele><time>2019-1-17T11:45:38Z</time></trkpt>
<trkpt lat="48.408849" lon="2.633563"><ele></ele><time>2019-1-17T11:45:41Z</time></trkpt>
<trkpt lat="48.40887" lon="2.633719"><ele></ele><time>2019-1-17T11:45:44Z</time></trkpt>
<trkpt lat="48.408891" lon="2.633862"><ele></ele><time>2019-1-17T11:45:47Z</time></trkpt>
<trkpt lat="48.408826" lon="2.63396"><ele></ele><time>2019-1-17T11:45:50Z</time></trkpt>
<trkpt lat="48.408929" lon="2.633984"><ele></ele><time>2019-1-17T11:45:53Z</time></trkpt>
<trkpt lat="48.408977" lon="2.633854"><ele></ele><time>2019-1-17T11:45:56Z</time></trkpt>
<trkpt lat="48.409026" lon="2.633713"><ele></ele><time>2019-1-17T11:45:59Z</time></trkpt>
<trkpt lat="48.4091" lon="2.633615"><ele></ele><time>2019-1-17T11:46:2Z</time></trkpt>
<trkpt lat="48.409171" lon="2.633532"><ele></ele><time>2019-1-17T11:46:5Z</time></trkpt>
<trkpt lat="48.40924" lon="2.633382"><ele></ele><time>2019-1-17T11:46:8Z</time></trkpt>
<trkpt lat="48.409306" lon="2.633259"><ele></ele><time>2019-1-17T11:46:11Z</time></trkpt>
<trkpt lat="48.409392" lon="2.633145"><ele></ele><time>2019-1-17T11:46:14Z</time></trkpt>
<trkpt lat="48.409488" lon="2.633075"><ele></ele><time>2019-1-17T11:46:17Z</time></trkpt>
<trkpt lat="48.409573" lon="2.633014"><ele></ele><time>2019-1-17T11:46:20Z</time></trkpt>
<trkpt lat="48.409668" lon="2.632962"><ele></ele><time>2019-1-17T11:46:23Z</time></trkpt>
<trkpt lat="48.409769" lon="2.63296"><ele></ele><time>2019-1-17T11:46:26Z</time></trkpt>
<trkpt lat="48.409889" lon="2.632958"><ele></ele><time>2019-1-17T11:46:29Z</time></trkpt>
<trkpt lat="48.410006" lon="2.632929"><ele></ele><time>2019-1-17T11:46:32Z</time></trkpt>
<trkpt lat="48.410126" lon="2.632926"><ele></ele><time>2019-1-17T11:46:35Z</time></trkpt>
<trkpt lat="48.41022" lon="2.632923"><ele></ele><time>2019-1-17T11:46:38Z</time></trkpt>
<trkpt lat="48.410316" lon="2.632945"><ele></ele><time>2019-1-17T11:46:41Z</time></trkpt>
<trkpt lat="48.410404" lon="2.632879"><ele></ele><time>2019-1-17T11:46:44Z</time></trkpt>
<trkpt lat="48.410497" lon="2.632848"><ele></ele><time>2019-1-17T11:46:47Z</time></trkpt>
<trkpt lat="48.410592" lon="2.632865"><ele></ele><time>2019-1-17T11:46:50Z</time></trkpt>
<trkpt lat="48.410698" lon="2.632825"><ele></ele><time>2019-1-17T11:46:53Z</time></trkpt>
<trkpt lat="48.410841" lon="2.63279"><ele></ele><time>2019-1-17T11:46:56Z</time></trkpt>
<trkpt lat="48.411013" lon="2.632776"><ele></ele><time>2019-1-17T11:46:59Z</time></trkpt>
<trkpt lat="48.411102" lon="2.632756"><ele></ele><time>2019-1-17T11:47:2Z</time></trkpt>
<trkpt lat="48.411283" lon="2.632708"><ele></ele><time>2019-1-17T11:47:5Z</time></trkpt>
<trkpt lat="48.411455" lon="2.632636"><ele></ele><time>2019-1-17T11:47:8Z</time></trkpt>
<trkpt lat="48.411636" lon="2.632581"><ele></ele><time>2019-1-17T11:47:11Z</time></trkpt>
<trkpt lat="48.411753" lon="2.632576"><ele></ele><time>2019-1-17T11:47:14Z</time></trkpt>
<trkpt lat="48.411852" lon="2.632557"><ele></ele><time>2019-1-17T11:47:17Z</time></trkpt>
<trkpt lat="48.411956" lon="2.632557"><ele></ele><time>2019-1-17T11:47:20Z</time></trkpt>
<trkpt lat="48.412061" lon="2.632556"><ele></ele><time>2019-1-17T11:47:23Z</time></trkpt>
<trkpt lat="48.412155" lon="2.632548"><ele></ele><time>2019-1-17T11:47:26Z</time></trkpt>
<trkpt lat="48.412245" lon="2.632515"><ele></ele><time>2019-1-17T11:47:29Z</time></trkpt>
<trkpt lat="48.412385" lon="2.632494"><ele></ele><time>2019-1-17T11:47:32Z</time></trkpt>
<trkpt lat="48.412541" lon="2.632486"><ele></ele><time>2019-1-17T11:47:35Z</time></trkpt>
<trkpt lat="48.412644" lon="2.632455"><ele></ele><time>2019-1-17T11:47:38Z</time></trkpt>
<trkpt lat="48.412758" lon="2.632414"><ele></ele><time>2019-1-17T11:47:41Z</time></trkpt>
<trkpt lat="48.412866" lon="2.632387"><ele></ele><time>2019-1-17T11:47:44Z</time></trkpt>
<trkpt lat="48.412978" lon="2.632313"><ele></ele><time>2019-1-17T11:47:47Z</time></trkpt>
<trkpt lat="48.413099" lon="2.632301"><ele></ele><time>2019-1-17T11:47:50Z</time></trkpt>
<trkpt lat="48.413253" lon="2.632287"><ele></ele><time>2019-1-17T11:47:53Z</time></trkpt>
<trkpt lat="48.413344" lon="2.632324"><ele></ele><time>2019-1-17T11:47:56Z</time></trkpt>
<trkpt lat="48.413442" lon="2.632327"><ele></ele><time>2019-1-17T11:47:59Z</time></trkpt>
<trkpt lat="48.413567" lon="2.632343"><ele></ele><time>2019-1-17T11:48:2Z</time></trkpt>
<trkpt lat="48.413669" lon="2.632331"><ele></ele><time>2019-1-17T11:48:5Z</time></trkpt>
<trkpt lat="48.413798" lon="2.632265"><ele></ele><time>2019-1-17T11:48:8Z</time></trkpt>
<trkpt lat="48.413876" lon="2.632169"><ele></ele><time>2019-1-17T11:48:11Z</time></trkpt>
<trkpt lat="48.413978" lon="2.632211"><ele></ele><time>2019-1-17T11:48:14Z</time></trkpt>
<trkpt lat="48.414101" lon="2.63223"><ele></ele><time>2019-1-17T11:48:17Z</time></trkpt>
<trkpt lat="48.414229" lon="2.632202"><ele></ele><time>2019-1-17T11:48:20Z</time></trkpt>
<trkpt lat="48.414328" lon="2.632174"><ele></ele><time>2019-1-17T11:48:23Z</time></trkpt>
<trkpt lat="48.414418" lon="2.632141"><ele></ele><time>2019-1-17T11:48:26Z</time></trkpt>
<trkpt lat="48.414541" lon="2.632124"><ele></ele><time>2019-1-17T11:48:29Z</time></trkpt>
<trkpt lat="48.414682" lon="2.632109"><ele></ele><time>2019-1-17T11:48:32Z</time></trkpt>
<trkpt lat="48.414813" lon="2.632081"><ele></ele><time>2019-1-17T11:48:35Z</time></trkpt>
<trkpt lat="48.414955" lon="2.632055"><ele></ele><time>2019-1-17T11:48:38Z</time></trkpt>
<trkpt lat="48.415105" lon="2.63203"><ele></ele><time>2019-1-17T11:48:41Z</time></trkpt>
<trkpt lat="48.415197" lon="2.632066"><ele></ele><time>2019-1-17T11:48:44Z</time></trkpt>
<trkpt lat="48.415146" lon="2.632193"><ele></ele><time>2019-1-17T11:48:47Z</time></trkpt>
<trkpt lat="48.415183" lon="2.632335"><ele></ele><time>2019-1-17T11:48:50Z</time></trkpt>
<trkpt lat="48.415195" lon="2.632479"><ele></ele><time>2019-1-17T11:48:53Z</time></trkpt>
<trkpt lat="48.41526" lon="2.632579"><ele></ele><time>2019-1-17T11:48:56Z</time></trkpt>
<trkpt lat="48.415351" lon="2.632638"><ele></ele><time>2019-1-17T11:48:59Z</time></trkpt>
<trkpt lat="48.415394" lon="2.632762"><ele></ele><time>2019-1-17T11:49:2Z</time></trkpt>
<trkpt lat="48.415465" lon="2.632864"><ele></ele><time>2019-1-17T11:49:5Z</time></trkpt>
<trkpt lat="48.415453" lon="2.633011"><ele></ele><time>2019-1-17T11:49:8Z</time></trkpt>
<trkpt lat="48.415507" lon="2.63315"><ele></ele><time>2019-1-17T11:49:11Z</time></trkpt>
<trkpt lat="48.41555" lon="2.633276"><ele></ele><time>2019-1-17T11:49:14Z</time></trkpt>
<trkpt lat="48.415575" lon="2.633439"><ele></ele><time>2019-1-17T11:49:17Z</time></trkpt>
<trkpt lat="48.415629" lon="2.63358"><ele></ele><time>2019-1-17T11:49:20Z</time></trkpt>
<trkpt lat="48.41569" lon="2.63368"><ele></ele><time>2019-1-17T11:49:23Z</time></trkpt>
<trkpt lat="48.415763" lon="2.633781"><ele></ele><time>2019-1-17T11:49:26Z</time></trkpt>
<trkpt lat="48.415869" lon="2.633901"><ele></ele><time>2019-1-17T11:49:29Z</time></trkpt>
<trkpt lat="48.415948" lon="2.633976"><ele></ele><time>2019-1-17T11:49:32Z</time></trkpt>
<trkpt lat="48.415986" lon="2.634121"><ele></ele><time>2019-1-17T11:49:35Z</time></trkpt>
<trkpt lat="48.416058" lon="2.634225"><ele></ele><time>2019-1-17T11:49:38Z</time></trkpt>
<trkpt lat="48.416109" lon="2.63434"><ele></ele><time>2019-1-17T11:49:41Z</time></trkpt>
<trkpt lat="48.416168" lon="2.634485"><ele></ele><time>2019-1-17T11:49:44Z</time></trkpt>
<trkpt lat="48.416196" lon="2.634658"><ele></ele><time>2019-1-17T11:49:47Z</time></trkpt>
<trkpt lat="48.416204" lon="2.63481"><ele></ele><time>2019-1-17T11:49:50Z</time></trkpt>
<trkpt lat="48.416276" lon="2.63493"><ele></ele><time>2019-1-17T11:49:53Z</time></trkpt>
<trkpt lat="48.416353" lon="2.635012"><ele></ele><time>2019-1-17T11:49:56Z</time></trkpt>
<trkpt lat="48.416434" lon="2.635133"><ele></ele><time>2019-1-17T11:49:59Z</time></trkpt>
<trkpt lat="48.416438" lon="2.635315"><ele></ele><time>2019-1-17T11:50:2Z</time></trkpt>
<trkpt lat="48.416435" lon="2.635458"><ele></ele><time>2019-1-17T11:50:5Z</time></trkpt>
<trkpt lat="48.416475" lon="2.635609"><ele></ele><time>2019-1-17T11:50:8Z</time></trkpt>
<trkpt lat="48.416547" lon="2.635691"><ele></ele><time>2019-1-17T11:50:11Z</time></trkpt>
<trkpt lat="48.416621" lon="2.635824"><ele></ele><time>2019-1-17T11:50:14Z</time></trkpt>
<trkpt lat="48.416604" lon="2.635972"><ele></ele><time>2019-1-17T11:50:17Z</time></trkpt>
<trkpt lat="48.416583" lon="2.636125"><ele></ele><time>2019-1-17T11:50:20Z</time></trkpt>
<trkpt lat="48.416664" lon="2.636221"><ele></ele><time>2019-1-17T11:50:23Z</time></trkpt>
<trkpt lat="48.416787" lon="2.636306"><ele></ele><time>2019-1-17T11:50:26Z</time></trkpt>
<trkpt lat="48.416837" lon="2.636419"><ele></ele><time>2019-1-17T11:50:29Z</time></trkpt>
<trkpt lat="48.416864" lon="2.636587"><ele></ele><time>2019-1-17T11:50:32Z</time></trkpt>
<trkpt lat="48.41697" lon="2.636675"><ele></ele><time>2019-1-17T11:50:35Z</time></trkpt>
<trkpt lat="48.417042" lon="2.6368"><ele></ele><time>2019-1-17T11:50:38Z</time></trkpt>
<trkpt lat="48.417074" lon="2.63699"><ele></ele><time>2019-1-17T11:50:41Z</time></trkpt>
<trkpt lat="48.417132" lon="2.637128"><ele></ele><time>2019-1-17T11:50:44Z</time></trkpt>
<trkpt lat="48.417191" lon="2.637282"><ele></ele><time>2019-1-17T11:50:47Z</time></trkpt>
<trkpt lat="48.417257" lon="2.637403"><ele></ele><time>2019-1-17T11:50:50Z</time></trkpt>
<trkpt lat="48.4173" lon="2.637525"><ele></ele><time>2019-1-17T11:50:53Z</time></trkpt>
<trkpt lat="48.417356" lon="2.637707"><ele></ele><time>2019-1-17T11:50:56Z</time></trkpt>
<trkpt lat="48.417407" lon="2.637858"><ele></ele><time>2019-1-17T11:50:59Z</time></trkpt>
<trkpt lat="48.41743" lon="2.638035"><ele></ele><time>2019-1-17T11:51:2Z</time></trkpt>
<trkpt lat="48.417454" lon="2.638244"><ele></ele><time>2019-1-17T11:51:5Z</time></trkpt>
<trkpt lat="48.417506" lon="2.638423"><ele></ele><time>2019-1-17T11:51:8Z</time></trkpt>
<trkpt lat="48.417597" lon="2.638589"><ele></ele><time>2019-1-17T11:51:11Z</time></trkpt>
<trkpt lat="48.41765" lon="2.638709"><ele></ele><time>2019-1-17T11:51:14Z</time></trkpt>
<trkpt lat="48.417665" lon="2.638851"><ele></ele><time>2019-1-17T11:51:17Z</time></trkpt>
<trkpt lat="48.417745" lon="2.638984"><ele></ele><time>2019-1-17T11:51:20Z</time></trkpt>
<trkpt lat="48.417731" lon="2.63914"><ele></ele><time>2019-1-17T11:51:23Z</time></trkpt>
<trkpt lat="48.417647" lon="2.639215"><ele></ele><time>2019-1-17T11:51:26Z</time></trkpt>
<trkpt lat="48.417549" lon="2.639237"><ele></ele><time>2019-1-17T11:51:29Z</time></trkpt>
<trkpt lat="48.417432" lon="2.639303"><ele></ele><time>2019-1-17T11:51:32Z</time></trkpt>
<trkpt lat="48.417297" lon="2.639376"><ele></ele><time>2019-1-17T11:51:35Z</time></trkpt>
<trkpt lat="48.417193" lon="2.63952"><ele></ele><time>2019-1-17T11:51:38Z</time></trkpt>
<trkpt lat="48.417299" lon="2.639532"><ele></ele><time>2019-1-17T11:51:41Z</time></trkpt>
<trkpt lat="48.417406" lon="2.639429"><ele></ele><time>2019-1-17T11:51:44Z</time></trkpt>
<trkpt lat="48.417502" lon="2.639363"><ele></ele><time>2019-1-17T11:51:47Z</time></trkpt>
<trkpt lat="48.417585" lon="2.639305"><ele></ele><time>2019-1-17T11:51:50Z</time></trkpt>
<trkpt lat="48.417696" lon="2.639251"><ele></ele><time>2019-1-17T11:51:53Z</time></trkpt>
<trkpt lat="48.417785" lon="2.63928"><ele></ele><time>2019-1-17T11:51:56Z</time></trkpt>
<trkpt lat="48.417863" lon="2.639383"><ele></ele><time>2019-1-17T11:51:59Z</time></trkpt>
<trkpt lat="48.417975" lon="2.639491"><ele></ele><time>2019-1-17T11:52:2Z</time></trkpt>
<trkpt lat="48.418082" lon="2.639569"><ele></ele><time>2019-1-17T11:52:5Z</time></trkpt>
<trkpt lat="48.418191" lon="2.639661"><ele></ele><time>2019-1-17T11:52:8Z</time></trkpt>
<trkpt lat="48.418308" lon="2.639729"><ele></ele><time>2019-1-17T11:52:11Z</time></trkpt>
<trkpt lat="48.418421" lon="2.639819"><ele></ele><time>2019-1-17T11:52:14Z</time></trkpt>
<trkpt lat="48.418504" lon="2.63988"><ele></ele><time>2019-1-17T11:52:17Z</time></trkpt>
<trkpt lat="48.418614" lon="2.639972"><ele></ele><time>2019-1-17T11:52:20Z</time></trkpt>
<trkpt lat="48.41873" lon="2.640038"><ele></ele><time>2019-1-17T11:52:23Z</time></trkpt>
<trkpt lat="48.418807" lon="2.640108"><ele></ele><time>2019-1-17T11:52:26Z</time></trkpt>
<trkpt lat="48.418894" lon="2.640173"><ele></ele><time>2019-1-17T11:52:29Z</time></trkpt>
<trkpt lat="48.418992" lon="2.640202"><ele></ele><time>2019-1-17T11:52:32Z</time></trkpt>
<trkpt lat="48.419073" lon="2.640268"><ele></ele><time>2019-1-17T11:52:35Z</time></trkpt>
<trkpt lat="48.419168" lon="2.64033"><ele></ele><time>2019-1-17T11:52:38Z</time></trkpt>
<trkpt lat="48.41925" lon="2.640386"><ele></ele><time>2019-1-17T11:52:41Z</time></trkpt>
<trkpt lat="48.419347" lon="2.640444"><ele></ele><time>2019-1-17T11:52:44Z</time></trkpt>
<trkpt lat="48.419444" lon="2.640562"><ele></ele><time>2019-1-17T11:52:47Z</time></trkpt>
<trkpt lat="48.419528" lon="2.640621"><ele></ele><time>2019-1-17T11:52:50Z</time></trkpt>
<trkpt lat="48.419619" lon="2.640682"><ele></ele><time>2019-1-17T11:52:53Z</time></trkpt>
<trkpt lat="48.419733" lon="2.640743"><ele></ele><time>2019-1-17T11:52:56Z</time></trkpt>
<trkpt lat="48.419838" lon="2.640805"><ele></ele><time>2019-1-17T11:52:59Z</time></trkpt>
<trkpt lat="48.419952" lon="2.64091"><ele></ele><time>2019-1-17T11:53:2Z</time></trkpt>
<trkpt lat="48.420035" lon="2.641021"><ele></ele><time>2019-1-17T11:53:5Z</time></trkpt>
<trkpt lat="48.420173" lon="2.641032"><ele></ele><time>2019-1-17T11:53:8Z</time></trkpt>
<trkpt lat="48.420236" lon="2.641132"><ele></ele><time>2019-1-17T11:53:11Z</time></trkpt>
<trkpt lat="48.42033" lon="2.641226"><ele></ele><time>2019-1-17T11:53:14Z</time></trkpt>
<trkpt lat="48.420423" lon="2.641343"><ele></ele><time>2019-1-17T11:53:17Z</time></trkpt>
<trkpt lat="48.420516" lon="2.641459"><ele></ele><time>2019-1-17T11:53:20Z</time></trkpt>
<trkpt lat="48.420634" lon="2.641571"><ele></ele><time>2019-1-17T11:53:23Z</time></trkpt>
<trkpt lat="48.42069" lon="2.641681"><ele></ele><time>2019-1-17T11:53:26Z</time></trkpt>
<trkpt lat="48.420755" lon="2.64184"><ele></ele><time>2019-1-17T11:53:29Z</time></trkpt>
<trkpt lat="48.420846" lon="2.641868"><ele></ele><time>2019-1-17T11:53:32Z</time></trkpt>
<trkpt lat="48.42094" lon="2.641917"><ele></ele><time>2019-1-17T11:53:35Z</time></trkpt>
<trkpt lat="48.421056" lon="2.641925"><ele></ele><time>2019-1-17T11:53:38Z</time></trkpt>
<trkpt lat="48.421171" lon="2.64197"><ele></ele><time>2019-1-17T11:53:41Z</time></trkpt>
<trkpt lat="48.421311" lon="2.642013"><ele></ele><time>2019-1-17T11:53:44Z</time></trkpt>
<trkpt lat="48.421366" lon="2.642156"><ele></ele><time>2019-1-17T11:53:47Z</time></trkpt>
<trkpt lat="48.421447" lon="2.642258"><ele></ele><time>2019-1-17T11:53:50Z</time></trkpt>
<trkpt lat="48.421602" lon="2.642343"><ele></ele><time>2019-1-17T11:53:53Z</time></trkpt>
<trkpt lat="48.421682" lon="2.642509"><ele></ele><time>2019-1-17T11:53:56Z</time></trkpt>
<trkpt lat="48.421801" lon="2.642516"><ele></ele><time>2019-1-17T11:53:59Z</time></trkpt>
<trkpt lat="48.421936" lon="2.642591"><ele></ele><time>2019-1-17T11:54:2Z</time></trkpt>
<trkpt lat="48.422025" lon="2.642659"><ele></ele><time>2019-1-17T11:54:5Z</time></trkpt>
<trkpt lat="48.422113" lon="2.642759"><ele></ele><time>2019-1-17T11:54:8Z</time></trkpt>
<trkpt lat="48.422219" lon="2.642873"><ele></ele><time>2019-1-17T11:54:11Z</time></trkpt>
<trkpt lat="48.422317" lon="2.642932"><ele></ele><time>2019-1-17T11:54:14Z</time></trkpt>
<trkpt lat="48.42245" lon="2.643013"><ele></ele><time>2019-1-17T11:54:17Z</time></trkpt>
<trkpt lat="48.422573" lon="2.643067"><ele></ele><time>2019-1-17T11:54:20Z</time></trkpt>
<trkpt lat="48.422669" lon="2.643095"><ele></ele><time>2019-1-17T11:54:23Z</time></trkpt>
<trkpt lat="48.422748" lon="2.643162"><ele></ele><time>2019-1-17T11:54:26Z</time></trkpt>
<trkpt lat="48.422847" lon="2.643219"><ele></ele><time>2019-1-17T11:54:29Z</time></trkpt>
<trkpt lat="48.422898" lon="2.64334"><ele></ele><time>2019-1-17T11:54:32Z</time></trkpt>
<trkpt lat="48.423013" lon="2.643424"><ele></ele><time>2019-1-17T11:54:35Z</time></trkpt>
<trkpt lat="48.42308" lon="2.643523"><ele></ele><time>2019-1-17T11:54:38Z</time></trkpt>
<trkpt lat="48.423163" lon="2.643669"><ele></ele><time>2019-1-17T11:54:41Z</time></trkpt>
<trkpt lat="48.423293" lon="2.643776"><ele></ele><time>2019-1-17T11:54:44Z</time></trkpt>
<trkpt lat="48.423376" lon="2.643849"><ele></ele><time>2019-1-17T11:54:47Z</time></trkpt>
<trkpt lat="48.42354" lon="2.643946"><ele></ele><time>2019-1-17T11:54:50Z</time></trkpt>
<trkpt lat="48.423689" lon="2.644058"><ele></ele><time>2019-1-17T11:54:53Z</time></trkpt>
<trkpt lat="48.423826" lon="2.644145"><ele></ele><time>2019-1-17T11:54:56Z</time></trkpt>
<trkpt lat="48.423927" lon="2.644256"><ele></ele><time>2019-1-17T11:54:59Z</time></trkpt>
<trkpt lat="48.424027" lon="2.644331"><ele></ele><time>2019-1-17T11:55:2Z</time></trkpt>
<trkpt lat="48.424114" lon="2.644489"><ele></ele><time>2019-1-17T11:55:5Z</time></trkpt>
<trkpt lat="48.424212" lon="2.644549"><ele></ele><time>2019-1-17T11:55:8Z</time></trkpt>
<trkpt lat="48.424276" lon="2.644662"><ele></ele><time>2019-1-17T11:55:11Z</time></trkpt>
<trkpt lat="48.424353" lon="2.644768"><ele></ele><time>2019-1-17T11:55:14Z</time></trkpt>
<trkpt lat="48.424431" lon="2.644881"><ele></ele><time>2019-1-17T11:55:17Z</time></trkpt>
<trkpt lat="48.42447" lon="2.645021"><ele></ele><time>2019-1-17T11:55:20Z</time></trkpt>
<trkpt lat="48.424547" lon="2.645144"><ele></ele><time>2019-1-17T11:55:23Z</time></trkpt>
<trkpt lat="48.424642" lon="2.645221"><ele></ele><time>2019-1-17T11:55:26Z</time></trkpt>
<trkpt lat="48.424717" lon="2.645341"><ele></ele><time>2019-1-17T11:55:29Z</time></trkpt>
<trkpt lat="48.424746" lon="2.645484"><ele></ele><time>2019-1-17T11:55:32Z</time></trkpt>
<trkpt lat="48.424844" lon="2.645605"><ele></ele><time>2019-1-17T11:55:35Z</time></trkpt>
<trkpt lat="48.424921" lon="2.645717"><ele></ele><time>2019-1-17T11:55:38Z</time></trkpt>
<trkpt lat="48.425007" lon="2.645811"><ele></ele><time>2019-1-17T11:55:41Z</time></trkpt>
<trkpt lat="48.42508" lon="2.645926"><ele></ele><time>2019-1-17T11:55:44Z</time></trkpt>
<trkpt lat="48.425165" lon="2.646001"><ele></ele><time>2019-1-17T11:55:47Z</time></trkpt>
<trkpt lat="48.425206" lon="2.646134"><ele></ele><time>2019-1-17T11:55:50Z</time></trkpt>
<trkpt lat="48.425223" lon="2.646288"><ele></ele><time>2019-1-17T11:55:53Z</time></trkpt>
<trkpt lat="48.425281" lon="2.646418"><ele></ele><time>2019-1-17T11:55:56Z</time></trkpt>
<trkpt lat="48.425353" lon="2.646557"><ele></ele><time>2019-1-17T11:55:59Z</time></trkpt>
<trkpt lat="48.425351" lon="2.646729"><ele></ele><time>2019-1-17T11:56:2Z</time></trkpt>
<trkpt lat="48.425452" lon="2.646728"><ele></ele><time>2019-1-17T11:56:5Z</time></trkpt>
<trkpt lat="48.425507" lon="2.646846"><ele></ele><time>2019-1-17T11:56:8Z</time></trkpt>
<trkpt lat="48.425612" lon="2.646924"><ele></ele><time>2019-1-17T11:56:11Z</time></trkpt>
<trkpt lat="48.425651" lon="2.647068"><ele></ele><time>2019-1-17T11:56:14Z</time></trkpt>
<trkpt lat="48.425745" lon="2.647145"><ele></ele><time>2019-1-17T11:56:17Z</time></trkpt>
<trkpt lat="48.4258" lon="2.647276"><ele></ele><time>2019-1-17T11:56:20Z</time></trkpt>
<trkpt lat="48.425854" lon="2.647385"><ele></ele><time>2019-1-17T11:56:23Z</time></trkpt>
<trkpt lat="48.425958" lon="2.64743"><ele></ele><time>2019-1-17T11:56:26Z</time></trkpt>
<trkpt lat="48.426031" lon="2.647341"><ele></ele><time>2019-1-17T11:56:29Z</time></trkpt>
<trkpt lat="48.42604" lon="2.647191"><ele></ele><time>2019-1-17T11:56:32Z</time></trkpt>
<trkpt lat="48.426143" lon="2.647067"><ele></ele><time>2019-1-17T11:56:35Z</time></trkpt>
<trkpt lat="48.426225" lon="2.647151"><ele></ele><time>2019-1-17T11:56:38Z</time></trkpt>
<trkpt lat="48.426306" lon="2.647043"><ele></ele><time>2019-1-17T11:56:41Z</time></trkpt>
<trkpt lat="48.426385" lon="2.646976"><ele></ele><time>2019-1-17T11:56:44Z</time></trkpt>
<trkpt lat="48.426459" lon="2.646894"><ele></ele><time>2019-1-17T11:56:47Z</time></trkpt>
<trkpt lat="48.426566" lon="2.646868"><ele></ele><time>2019-1-17T11:56:50Z</time></trkpt>
<trkpt lat="48.426662" lon="2.646811"><ele></ele><time>2019-1-17T11:56:53Z</time></trkpt>
<trkpt lat="48.426767" lon="2.646767"><ele></ele><time>2019-1-17T11:56:56Z</time></trkpt>
<trkpt lat="48.426842" lon="2.646656"><ele></ele><time>2019-1-17T11:56:59Z</time></trkpt>
<trkpt lat="48.426931" lon="2.646574"><ele></ele><time>2019-1-17T11:57:2Z</time></trkpt>
<trkpt lat="48.426962" lon="2.646444"><ele></ele><time>2019-1-17T11:57:5Z</time></trkpt>
<trkpt lat="48.42704" lon="2.646361"><ele></ele><time>2019-1-17T11:57:8Z</time></trkpt>
<trkpt lat="48.427133" lon="2.646342"><ele></ele><time>2019-1-17T11:57:11Z</time></trkpt>
<trkpt lat="48.427238" lon="2.646308"><ele></ele><time>2019-1-17T11:57:14Z</time></trkpt>
<trkpt lat="48.427306" lon="2.646208"><ele></ele><time>2019-1-17T11:57:17Z</time></trkpt>
<trkpt lat="48.427413" lon="2.64617"><ele></ele><time>2019-1-17T11:57:20Z</time></trkpt>
<trkpt lat="48.427507" lon="2.646092"><ele></ele><time>2019-1-17T11:57:23Z</time></trkpt>
<trkpt lat="48.427574" lon="2.645956"><ele></ele><time>2019-1-17T11:57:26Z</time></trkpt>
<trkpt lat="48.427643" lon="2.645774"><ele></ele><time>2019-1-17T11:57:29Z</time></trkpt>
<trkpt lat="48.427735" lon="2.645554"><ele></ele><time>2019-1-17T11:57:32Z</time></trkpt>
<trkpt lat="48.427799" lon="2.645365"><ele></ele><time>2019-1-17T11:57:35Z</time></trkpt>
<trkpt lat="48.427897" lon="2.64528"><ele></ele><time>2019-1-17T11:57:38Z</time></trkpt>
<trkpt lat="48.427978" lon="2.645136"><ele></ele><time>2019-1-17T11:57:41Z</time></trkpt>
<trkpt lat="48.428014" lon="2.644923"><ele></ele><time>2019-1-17T11:57:44Z</time></trkpt>
<trkpt lat="48.428111" lon="2.644718"><ele></ele><time>2019-1-17T11:57:47Z</time></trkpt>
<trkpt lat="48.428194" lon="2.64459"><ele></ele><time>2019-1-17T11:57:50Z</time></trkpt>
<trkpt lat="48.428278" lon="2.644421"><ele></ele><time>2019-1-17T11:57:53Z</time></trkpt>
<trkpt lat="48.42835" lon="2.644288"><ele></ele><time>2019-1-17T11:57:56Z</time></trkpt>
<trkpt lat="48.428415" lon="2.64415"><ele></ele><time>2019-1-17T11:57:59Z</time></trkpt>
<trkpt lat="48.428503" lon="2.644042"><ele></ele><time>2019-1-17T11:58:2Z</time></trkpt>
<trkpt lat="48.428604" lon="2.643923"><ele></ele><time>2019-1-17T11:58:5Z</time></trkpt>
<trkpt lat="48.428672" lon="2.643745"><ele></ele><time>2019-1-17T11:58:8Z</time></trkpt>
<trkpt lat="48.428731" lon="2.643576"><ele></ele><time>2019-1-17T11:58:11Z</time></trkpt>
<trkpt lat="48.428747" lon="2.643443"><ele></ele><time>2019-1-17T11:58:14Z</time></trkpt>
<trkpt lat="48.428868" lon="2.643283"><ele></ele><time>2019-1-17T11:58:17Z</time></trkpt>
<trkpt lat="48.428921" lon="2.643172"><ele></ele><time>2019-1-17T11:58:20Z</time></trkpt>
<trkpt lat="48.428956" lon="2.643025"><ele></ele><time>2019-1-17T11:58:23Z</time></trkpt>
<trkpt lat="48.429005" lon="2.643245"><ele></ele><time>2019-1-17T11:58:26Z</time></trkpt>
<trkpt lat="48.428983" lon="2.643439"><ele></ele><time>2019-1-17T11:58:29Z</time></trkpt>
<trkpt lat="48.428986" lon="2.643609"><ele></ele><time>2019-1-17T11:58:32Z</time></trkpt>
<trkpt lat="48.428977" lon="2.643833"><ele></ele><time>2019-1-17T11:58:35Z</time></trkpt>
<trkpt lat="48.429008" lon="2.644021"><ele></ele><time>2019-1-17T11:58:38Z</time></trkpt>
<trkpt lat="48.428974" lon="2.64431"><ele></ele><time>2019-1-17T11:58:41Z</time></trkpt>
<trkpt lat="48.428962" lon="2.644473"><ele></ele><time>2019-1-17T11:58:44Z</time></trkpt>
<trkpt lat="48.428928" lon="2.644722"><ele></ele><time>2019-1-17T11:58:47Z</time></trkpt>
<trkpt lat="48.428858" lon="2.644866"><ele></ele><time>2019-1-17T11:58:50Z</time></trkpt>
<trkpt lat="48.428815" lon="2.645098"><ele></ele><time>2019-1-17T11:58:53Z</time></trkpt>
<trkpt lat="48.428767" lon="2.645231"><ele></ele><time>2019-1-17T11:58:56Z</time></trkpt>
<trkpt lat="48.428792" lon="2.645384"><ele></ele><time>2019-1-17T11:58:59Z</time></trkpt>
<trkpt lat="48.42887" lon="2.64551"><ele></ele><time>2019-1-17T11:59:2Z</time></trkpt>
<trkpt lat="48.428956" lon="2.645553"><ele></ele><time>2019-1-17T11:59:5Z</time></trkpt>
<trkpt lat="48.429032" lon="2.645769"><ele></ele><time>2019-1-17T11:59:8Z</time></trkpt>
<trkpt lat="48.429054" lon="2.645903"><ele></ele><time>2019-1-17T11:59:11Z</time></trkpt>
<trkpt lat="48.429158" lon="2.646019"><ele></ele><time>2019-1-17T11:59:14Z</time></trkpt>
<trkpt lat="48.429238" lon="2.646099"><ele></ele><time>2019-1-17T11:59:17Z</time></trkpt>
<trkpt lat="48.42933" lon="2.646179"><ele></ele><time>2019-1-17T11:59:20Z</time></trkpt>
<trkpt lat="48.429484" lon="2.646134"><ele></ele><time>2019-1-17T11:59:23Z</time></trkpt>
<trkpt lat="48.429586" lon="2.64621"><ele></ele><time>2019-1-17T11:59:26Z</time></trkpt>
<trkpt lat="48.429641" lon="2.646322"><ele></ele><time>2019-1-17T11:59:29Z</time></trkpt>
<trkpt lat="48.429738" lon="2.646454"><ele></ele><time>2019-1-17T11:59:32Z</time></trkpt>
<trkpt lat="48.429852" lon="2.646483"><ele></ele><time>2019-1-17T11:59:35Z</time></trkpt>
<trkpt lat="48.429979" lon="2.646487"><ele></ele><time>2019-1-17T11:59:38Z</time></trkpt>
<trkpt lat="48.430081" lon="2.646502"><ele></ele><time>2019-1-17T11:59:41Z</time></trkpt>
<trkpt lat="48.43016" lon="2.646582"><ele></ele><time>2019-1-17T11:59:44Z</time></trkpt>
<trkpt lat="48.430205" lon="2.646701"><ele></ele><time>2019-1-17T11:59:47Z</time></trkpt>
<trkpt lat="48.430273" lon="2.646817"><ele></ele><time>2019-1-17T11:59:50Z</time></trkpt>
<trkpt lat="48.430347" lon="2.646899"><ele></ele><time>2019-1-17T11:59:53Z</time></trkpt>
<trkpt lat="48.430434" lon="2.646982"><ele></ele><time>2019-1-17T11:59:56Z</time></trkpt>
<trkpt lat="48.430504" lon="2.647092"><ele></ele><time>2019-1-17T11:59:59Z</time></trkpt>
<trkpt lat="48.430568" lon="2.64722"><ele></ele><time>2019-1-17T12:0:2Z</time></trkpt>
<trkpt lat="48.430635" lon="2.647336"><ele></ele><time>2019-1-17T12:0:5Z</time></trkpt>
<trkpt lat="48.430696" lon="2.647458"><ele></ele><time>2019-1-17T12:0:8Z</time></trkpt>
<trkpt lat="48.430742" lon="2.64765"><ele></ele><time>2019-1-17T12:0:11Z</time></trkpt>
<trkpt lat="48.430731" lon="2.647839"><ele></ele><time>2019-1-17T12:0:14Z</time></trkpt>
<trkpt lat="48.430748" lon="2.648006"><ele></ele><time>2019-1-17T12:0:17Z</time></trkpt>
<trkpt lat="48.430795" lon="2.648162"><ele></ele><time>2019-1-17T12:0:20Z</time></trkpt>
<trkpt lat="48.430845" lon="2.648306"><ele></ele><time>2019-1-17T12:0:23Z</time></trkpt>
<trkpt lat="48.430855" lon="2.648473"><ele></ele><time>2019-1-17T12:0:26Z</time></trkpt>
<trkpt lat="48.430936" lon="2.648562"><ele></ele><time>2019-1-17T12:0:29Z</time></trkpt>
<trkpt lat="48.431003" lon="2.648667"><ele></ele><time>2019-1-17T12:0:32Z</time></trkpt>
<trkpt lat="48.431095" lon="2.648617"><ele></ele><time>2019-1-17T12:0:35Z</time></trkpt>
<trkpt lat="48.431207" lon="2.648546"><ele></ele><time>2019-1-17T12:0:38Z</time></trkpt>
<trkpt lat="48.431323" lon="2.648473"><ele></ele><time>2019-1-17T12:0:41Z</time></trkpt>
<trkpt lat="48.431381" lon="2.648365"><ele></ele><time>2019-1-17T12:0:44Z</time></trkpt>
<trkpt lat="48.431493" lon="2.648305"><ele></ele><time>2019-1-17T12:0:47Z</time></trkpt>
<trkpt lat="48.431592" lon="2.64824"><ele></ele><time>2019-1-17T12:0:50Z</time></trkpt>
<trkpt lat="48.43169" lon="2.648225"><ele></ele><time>2019-1-17T12:0:53Z</time></trkpt>
<trkpt lat="48.431786" lon="2.648132"><ele></ele><time>2019-1-17T12:0:56Z</time></trkpt>
<trkpt lat="48.431917" lon="2.648019"><ele></ele><time>2019-1-17T12:0:59Z</time></trkpt>
<trkpt lat="48.431998" lon="2.647958"><ele></ele><time>2019-1-17T12:1:2Z</time></trkpt>
<trkpt lat="48.432095" lon="2.647917"><ele></ele><time>2019-1-17T12:1:5Z</time></trkpt>
<trkpt lat="48.43221" lon="2.647905"><ele></ele><time>2019-1-17T12:1:8Z</time></trkpt>
<trkpt lat="48.432262" lon="2.647747"><ele></ele><time>2019-1-17T12:1:11Z</time></trkpt>
<trkpt lat="48.432382" lon="2.647673"><ele></ele><time>2019-1-17T12:1:14Z</time></trkpt>
<trkpt lat="48.432475" lon="2.647615"><ele></ele><time>2019-1-17T12:1:17Z</time></trkpt>
<trkpt lat="48.432583" lon="2.647546"><ele></ele><time>2019-1-17T12:1:20Z</time></trkpt>
<trkpt lat="48.432668" lon="2.647466"><ele></ele><time>2019-1-17T12:1:23Z</time></trkpt>
<trkpt lat="48.432788" lon="2.64738"><ele></ele><time>2019-1-17T12:1:26Z</time></trkpt>
<trkpt lat="48.432875" lon="2.647328"><ele></ele><time>2019-1-17T12:1:29Z</time></trkpt>
<trkpt lat="48.432994" lon="2.647252"><ele></ele><time>2019-1-17T12:1:32Z</time></trkpt>
<trkpt lat="48.433086" lon="2.647257"><ele></ele><time>2019-1-17T12:1:35Z</time></trkpt>
<trkpt lat="48.433176" lon="2.647188"><ele></ele><time>2019-1-17T12:1:38Z</time></trkpt>
<trkpt lat="48.433274" lon="2.647116"><ele></ele><time>2019-1-17T12:1:41Z</time></trkpt>
<trkpt lat="48.433372" lon="2.646974"><ele></ele><time>2019-1-17T12:1:44Z</time></trkpt>
<trkpt lat="48.433502" lon="2.646907"><ele></ele><time>2019-1-17T12:1:47Z</time></trkpt>
<trkpt lat="48.43363" lon="2.646855"><ele></ele><time>2019-1-17T12:1:50Z</time></trkpt>
<trkpt lat="48.433716" lon="2.646797"><ele></ele><time>2019-1-17T12:1:53Z</time></trkpt>
<trkpt lat="48.433811" lon="2.646818"><ele></ele><time>2019-1-17T12:1:56Z</time></trkpt>
<trkpt lat="48.433868" lon="2.646709"><ele></ele><time>2019-1-17T12:1:59Z</time></trkpt>
<trkpt lat="48.433957" lon="2.64668"><ele></ele><time>2019-1-17T12:2:2Z</time></trkpt>
<trkpt lat="48.434049" lon="2.646628"><ele></ele><time>2019-1-17T12:2:5Z</time></trkpt>
<trkpt lat="48.434154" lon="2.646636"><ele></ele><time>2019-1-17T12:2:8Z</time></trkpt>
<trkpt lat="48.434297" lon="2.646552"><ele></ele><time>2019-1-17T12:2:11Z</time></trkpt>
<trkpt lat="48.434396" lon="2.646478"><ele></ele><time>2019-1-17T12:2:14Z</time></trkpt>
<trkpt lat="48.434499" lon="2.646405"><ele></ele><time>2019-1-17T12:2:17Z</time></trkpt>
<trkpt lat="48.434601" lon="2.64637"><ele></ele><time>2019-1-17T12:2:20Z</time></trkpt>
<trkpt lat="48.434704" lon="2.646285"><ele></ele><time>2019-1-17T12:2:23Z</time></trkpt>
<trkpt lat="48.434832" lon="2.646221"><ele></ele><time>2019-1-17T12:2:26Z</time></trkpt>
<trkpt lat="48.434924" lon="2.646175"><ele></ele><time>2019-1-17T12:2:29Z</time></trkpt>
<trkpt lat="48.435051" lon="2.646099"><ele></ele><time>2019-1-17T12:2:32Z</time></trkpt>
<trkpt lat="48.435149" lon="2.646058"><ele></ele><time>2019-1-17T12:2:35Z</time></trkpt>
<trkpt lat="48.435243" lon="2.645991"><ele></ele><time>2019-1-17T12:2:38Z</time></trkpt>
<trkpt lat="48.435349" lon="2.645932"><ele></ele><time>2019-1-17T12:2:41Z</time></trkpt>
<trkpt lat="48.43546" lon="2.645866"><ele></ele><time>2019-1-17T12:2:44Z</time></trkpt>
<trkpt lat="48.435568" lon="2.645711"><ele></ele><time>2019-1-17T12:2:47Z</time></trkpt>
<trkpt lat="48.435595" lon="2.645568"><ele></ele><time>2019-1-17T12:2:50Z</time></trkpt>
<trkpt lat="48.435662" lon="2.645426"><ele></ele><time>2019-1-17T12:2:53Z</time></trkpt>
<trkpt lat="48.435807" lon="2.645308"><ele></ele><time>2019-1-17T12:2:56Z</time></trkpt>
<trkpt lat="48.435849" lon="2.645143"><ele></ele><time>2019-1-17T12:2:59Z</time></trkpt>
<trkpt lat="48.435902" lon="2.645018"><ele></ele><time>2019-1-17T12:3:2Z</time></trkpt>
<trkpt lat="48.435949" lon="2.644903"><ele></ele><time>2019-1-17T12:3:5Z</time></trkpt>
<trkpt lat="48.436004" lon="2.644783"><ele></ele><time>2019-1-17T12:3:8Z</time></trkpt>
<trkpt lat="48.436073" lon="2.64466"><ele></ele><time>2019-1-17T12:3:11Z</time></trkpt>
<trkpt lat="48.436128" lon="2.644477"><ele></ele><time>2019-1-17T12:3:14Z</time></trkpt>
<trkpt lat="48.436131" lon="2.644334"><ele></ele><time>2019-1-17T12:3:17Z</time></trkpt>
<trkpt lat="48.436193" lon="2.644171"><ele></ele><time>2019-1-17T12:3:20Z</time></trkpt>
<trkpt lat="48.436276" lon="2.644071"><ele></ele><time>2019-1-17T12:3:23Z</time></trkpt>
<trkpt lat="48.436356" lon="2.643963"><ele></ele><time>2019-1-17T12:3:26Z</time></trkpt>
<trkpt lat="48.436465" lon="2.643805"><ele></ele><time>2019-1-17T12:3:29Z</time></trkpt>
<trkpt lat="48.436543" lon="2.643683"><ele></ele><time>2019-1-17T12:3:32Z</time></trkpt>
<trkpt lat="48.436613" lon="2.643574"><ele></ele><time>2019-1-17T12:3:35Z</time></trkpt>
<trkpt lat="48.436728" lon="2.64348"><ele></ele><time>2019-1-17T12:3:38Z</time></trkpt>
<trkpt lat="48.436836" lon="2.643405"><ele></ele><time>2019-1-17T12:3:41Z</time></trkpt>
<trkpt lat="48.436964" lon="2.643408"><ele></ele><time>2019-1-17T12:3:44Z</time></trkpt>
<trkpt lat="48.43707" lon="2.643417"><ele></ele><time>2019-1-17T12:3:47Z</time></trkpt>
<trkpt lat="48.437198" lon="2.643421"><ele></ele><time>2019-1-17T12:3:50Z</time></trkpt>
<trkpt lat="48.437335" lon="2.643407"><ele></ele><time>2019-1-17T12:3:53Z</time></trkpt>
<trkpt lat="48.43745" lon="2.643404"><ele></ele><time>2019-1-17T12:3:56Z</time></trkpt>
<trkpt lat="48.437577" lon="2.643418"><ele></ele><time>2019-1-17T12:3:59Z</time></trkpt>
<trkpt lat="48.437671" lon="2.643368"><ele></ele><time>2019-1-17T12:4:2Z</time></trkpt>
<trkpt lat="48.437778" lon="2.643292"><ele></ele><time>2019-1-17T12:4:5Z</time></trkpt>
<trkpt lat="48.437873" lon="2.643194"><ele></ele><time>2019-1-17T12:4:8Z</time></trkpt>
<trkpt lat="48.437989" lon="2.643162"><ele></ele><time>2019-1-17T12:4:11Z</time></trkpt>
<trkpt lat="48.438111" lon="2.643106"><ele></ele><time>2019-1-17T12:4:14Z</time></trkpt>
<trkpt lat="48.438229" lon="2.643033"><ele></ele><time>2019-1-17T12:4:17Z</time></trkpt>
<trkpt lat="48.438334" lon="2.642994"><ele></ele><time>2019-1-17T12:4:20Z</time></trkpt>
<trkpt lat="48.438429" lon="2.642938"><ele></ele><time>2019-1-17T12:4:23Z</time></trkpt>
<trkpt lat="48.43853" lon="2.642868"><ele></ele><time>2019-1-17T12:4:26Z</time></trkpt>
<trkpt lat="48.438623" lon="2.642814"><ele></ele><time>2019-1-17T12:4:29Z</time></trkpt>
<trkpt lat="48.438759" lon="2.642743"><ele></ele><time>2019-1-17T12:4:32Z</time></trkpt>
<trkpt lat="48.438912" lon="2.642636"><ele></ele><time>2019-1-17T12:4:35Z</time></trkpt>
<trkpt lat="48.439021" lon="2.642578"><ele></ele><time>2019-1-17T12:4:38Z</time></trkpt>
<trkpt lat="48.439159" lon="2.642498"><ele></ele><time>2019-1-17T12:4:41Z</time></trkpt>
<trkpt lat="48.439317" lon="2.642422"><ele></ele><time>2019-1-17T12:4:44Z</time></trkpt>
<trkpt lat="48.43943" lon="2.642346"><ele></ele><time>2019-1-17T12:4:47Z</time></trkpt>
<trkpt lat="48.439515" lon="2.642247"><ele></ele><time>2019-1-17T12:4:50Z</time></trkpt>
<trkpt lat="48.439603" lon="2.642275"><ele></ele><time>2019-1-17T12:4:53Z</time></trkpt>
<trkpt lat="48.439808" lon="2.642189"><ele></ele><time>2019-1-17T12:4:56Z</time></trkpt>
<trkpt lat="48.439931" lon="2.642073"><ele></ele><time>2019-1-17T12:4:59Z</time></trkpt>
<trkpt lat="48.439971" lon="2.641942"><ele></ele><time>2019-1-17T12:5:2Z</time></trkpt>
<trkpt lat="48.440058" lon="2.641874"><ele></ele><time>2019-1-17T12:5:5Z</time></trkpt>
<trkpt lat="48.440193" lon="2.641846"><ele></ele><time>2019-1-17T12:5:8Z</time></trkpt>
<trkpt lat="48.440303" lon="2.641749"><ele></ele><time>2019-1-17T12:5:11Z</time></trkpt>
<trkpt lat="48.440378" lon="2.641669"><ele></ele><time>2019-1-17T12:5:14Z</time></trkpt>
<trkpt lat="48.440495" lon="2.641606"><ele></ele><time>2019-1-17T12:5:17Z</time></trkpt>
<trkpt lat="48.440598" lon="2.641506"><ele></ele><time>2019-1-17T12:5:20Z</time></trkpt>
<trkpt lat="48.440743" lon="2.641444"><ele></ele><time>2019-1-17T12:5:23Z</time></trkpt>
<trkpt lat="48.440847" lon="2.641384"><ele></ele><time>2019-1-17T12:5:26Z</time></trkpt>
<trkpt lat="48.440977" lon="2.641317"><ele></ele><time>2019-1-17T12:5:29Z</time></trkpt>
<trkpt lat="48.44108" lon="2.641294"><ele></ele><time>2019-1-17T12:5:32Z</time></trkpt>
<trkpt lat="48.441171" lon="2.641119"><ele></ele><time>2019-1-17T12:5:35Z</time></trkpt>
<trkpt lat="48.441334" lon="2.641021"><ele></ele><time>2019-1-17T12:5:38Z</time></trkpt>
<trkpt lat="48.441441" lon="2.640991"><ele></ele><time>2019-1-17T12:5:41Z</time></trkpt>
<trkpt lat="48.44153" lon="2.640941"><ele></ele><time>2019-1-17T12:5:44Z</time></trkpt>
<trkpt lat="48.441614" lon="2.640876"><ele></ele><time>2019-1-17T12:5:47Z</time></trkpt>
<trkpt lat="48.441753" lon="2.640812"><ele></ele><time>2019-1-17T12:5:50Z</time></trkpt>
<trkpt lat="48.441864" lon="2.640743"><ele></ele><time>2019-1-17T12:5:53Z</time></trkpt>
<trkpt lat="48.441979" lon="2.640685"><ele></ele><time>2019-1-17T12:5:56Z</time></trkpt>
<trkpt lat="48.442075" lon="2.640587"><ele></ele><time>2019-1-17T12:5:59Z</time></trkpt>
<trkpt lat="48.442164" lon="2.640507"><ele></ele><time>2019-1-17T12:6:2Z</time></trkpt>
<trkpt lat="48.442267" lon="2.640471"><ele></ele><time>2019-1-17T12:6:5Z</time></trkpt>
<trkpt lat="48.442358" lon="2.640396"><ele></ele><time>2019-1-17T12:6:8Z</time></trkpt>
<trkpt lat="48.442466" lon="2.640315"><ele></ele><time>2019-1-17T12:6:11Z</time></trkpt>
<trkpt lat="48.442558" lon="2.640288"><ele></ele><time>2019-1-17T12:6:14Z</time></trkpt>
<trkpt lat="48.442666" lon="2.640234"><ele></ele><time>2019-1-17T12:6:17Z</time></trkpt>
<trkpt lat="48.442757" lon="2.64014"><ele></ele><time>2019-1-17T12:6:20Z</time></trkpt>
<trkpt lat="48.442839" lon="2.640055"><ele></ele><time>2019-1-17T12:6:23Z</time></trkpt>
<trkpt lat="48.442924" lon="2.639999"><ele></ele><time>2019-1-17T12:6:26Z</time></trkpt>
<trkpt lat="48.443041" lon="2.639897"><ele></ele><time>2019-1-17T12:6:29Z</time></trkpt>
<trkpt lat="48.443146" lon="2.6398"><ele></ele><time>2019-1-17T12:6:32Z</time></trkpt>
<trkpt lat="48.443258" lon="2.639704"><ele></ele><time>2019-1-17T12:6:35Z</time></trkpt>
<trkpt lat="48.443345" lon="2.639609"><ele></ele><time>2019-1-17T12:6:38Z</time></trkpt>
<trkpt lat="48.443461" lon="2.639467"><ele></ele><time>2019-1-17T12:6:41Z</time></trkpt>
<trkpt lat="48.443573" lon="2.639307"><ele></ele><time>2019-1-17T12:6:44Z</time></trkpt>
<trkpt lat="48.443671" lon="2.639255"><ele></ele><time>2019-1-17T12:6:47Z</time></trkpt>
<trkpt lat="48.443774" lon="2.639246"><ele></ele><time>2019-1-17T12:6:50Z</time></trkpt>
<trkpt lat="48.443869" lon="2.639124"><ele></ele><time>2019-1-17T12:6:53Z</time></trkpt>
<trkpt lat="48.443957" lon="2.639064"><ele></ele><time>2019-1-17T12:6:56Z</time></trkpt>
<trkpt lat="48.444038" lon="2.638987"><ele></ele><time>2019-1-17T12:6:59Z</time></trkpt>
<trkpt lat="48.444125" lon="2.638865"><ele></ele><time>2019-1-17T12:7:2Z</time></trkpt>
<trkpt lat="48.444215" lon="2.638788"><ele></ele><time>2019-1-17T12:7:5Z</time></trkpt>
<trkpt lat="48.444303" lon="2.6387"><ele></ele><time>2019-1-17T12:7:8Z</time></trkpt>
<trkpt lat="48.444439" lon="2.638581"><ele></ele><time>2019-1-17T12:7:11Z</time></trkpt>
<trkpt lat="48.444539" lon="2.63848"><ele></ele><time>2019-1-17T12:7:14Z</time></trkpt>
<trkpt lat="48.444622" lon="2.638394"><ele></ele><time>2019-1-17T12:7:17Z</time></trkpt>
<trkpt lat="48.444701" lon="2.638315"><ele></ele><time>2019-1-17T12:7:20Z</time></trkpt>
<trkpt lat="48.444789" lon="2.638272"><ele></ele><time>2019-1-17T12:7:23Z</time></trkpt>
<trkpt lat="48.444877" lon="2.638174"><ele></ele><time>2019-1-17T12:7:26Z</time></trkpt>
<trkpt lat="48.444971" lon="2.638029"><ele></ele><time>2019-1-17T12:7:29Z</time></trkpt>
<trkpt lat="48.445047" lon="2.637934"><ele></ele><time>2019-1-17T12:7:32Z</time></trkpt>
<trkpt lat="48.44515" lon="2.637875"><ele></ele><time>2019-1-17T12:7:35Z</time></trkpt>
<trkpt lat="48.445248" lon="2.637777"><ele></ele><time>2019-1-17T12:7:38Z</time></trkpt>
<trkpt lat="48.445355" lon="2.637671"><ele></ele><time>2019-1-17T12:7:41Z</time></trkpt>
<trkpt lat="48.445339" lon="2.637525"><ele></ele><time>2019-1-17T12:7:44Z</time></trkpt>
<trkpt lat="48.445363" lon="2.637376"><ele></ele><time>2019-1-17T12:7:47Z</time></trkpt>
<trkpt lat="48.445467" lon="2.637317"><ele></ele><time>2019-1-17T12:7:50Z</time></trkpt>
<trkpt lat="48.445564" lon="2.637346"><ele></ele><time>2019-1-17T12:7:53Z</time></trkpt>
<trkpt lat="48.445794" lon="2.637371"><ele></ele><time>2019-1-17T12:7:56Z</time></trkpt>
<trkpt lat="48.445864" lon="2.637483"><ele></ele><time>2019-1-17T12:7:59Z</time></trkpt>
<trkpt lat="48.445933" lon="2.637618"><ele></ele><time>2019-1-17T12:8:2Z</time></trkpt>
<trkpt lat="48.445998" lon="2.637734"><ele></ele><time>2019-1-17T12:8:5Z</time></trkpt>
<trkpt lat="48.44608" lon="2.637856"><ele></ele><time>2019-1-17T12:8:8Z</time></trkpt>
<trkpt lat="48.446123" lon="2.637981"><ele></ele><time>2019-1-17T12:8:11Z</time></trkpt>
<trkpt lat="48.446148" lon="2.638153"><ele></ele><time>2019-1-17T12:8:14Z</time></trkpt>
<trkpt lat="48.446141" lon="2.638305"><ele></ele><time>2019-1-17T12:8:17Z</time></trkpt>
<trkpt lat="48.44612" lon="2.638457"><ele></ele><time>2019-1-17T12:8:20Z</time></trkpt>
<trkpt lat="48.446074" lon="2.638621"><ele></ele><time>2019-1-17T12:8:23Z</time></trkpt>
<trkpt lat="48.446051" lon="2.638799"><ele></ele><time>2019-1-17T12:8:26Z</time></trkpt>
<trkpt lat="48.446032" lon="2.63894"><ele></ele><time>2019-1-17T12:8:29Z</time></trkpt>
<trkpt lat="48.446029" lon="2.639131"><ele></ele><time>2019-1-17T12:8:32Z</time></trkpt>
<trkpt lat="48.445993" lon="2.639313"><ele></ele><time>2019-1-17T12:8:35Z</time></trkpt>
<trkpt lat="48.446006" lon="2.639461"><ele></ele><time>2019-1-17T12:8:38Z</time></trkpt>
<trkpt lat="48.445977" lon="2.639628"><ele></ele><time>2019-1-17T12:8:41Z</time></trkpt>
<trkpt lat="48.445939" lon="2.639816"><ele></ele><time>2019-1-17T12:8:44Z</time></trkpt>
<trkpt lat="48.44591" lon="2.639953"><ele></ele><time>2019-1-17T12:8:47Z</time></trkpt>
<trkpt lat="48.445861" lon="2.640101"><ele></ele><time>2019-1-17T12:8:50Z</time></trkpt>
<trkpt lat="48.44583" lon="2.640249"><ele></ele><time>2019-1-17T12:8:53Z</time></trkpt>
<trkpt lat="48.445805" lon="2.640381"><ele></ele><time>2019-1-17T12:8:56Z</time></trkpt>
<trkpt lat="48.445805" lon="2.640525"><ele></ele><time>2019-1-17T12:8:59Z</time></trkpt>
<trkpt lat="48.445755" lon="2.640652"><ele></ele><time>2019-1-17T12:9:2Z</time></trkpt>
<trkpt lat="48.445701" lon="2.640801"><ele></ele><time>2019-1-17T12:9:5Z</time></trkpt>
<trkpt lat="48.445633" lon="2.640925"><ele></ele><time>2019-1-17T12:9:8Z</time></trkpt>
<trkpt lat="48.445585" lon="2.641048"><ele></ele><time>2019-1-17T12:9:11Z</time></trkpt>
<trkpt lat="48.445576" lon="2.641208"><ele></ele><time>2019-1-17T12:9:14Z</time></trkpt>
<trkpt lat="48.445577" lon="2.64135"><ele></ele><time>2019-1-17T12:9:17Z</time></trkpt>
<trkpt lat="48.445542" lon="2.641495"><ele></ele><time>2019-1-17T12:9:20Z</time></trkpt>
<trkpt lat="48.445518" lon="2.641647"><ele></ele><time>2019-1-17T12:9:23Z</time></trkpt>
<trkpt lat="48.445511" lon="2.641832"><ele></ele><time>2019-1-17T12:9:26Z</time></trkpt>
<trkpt lat="48.445544" lon="2.641961"><ele></ele><time>2019-1-17T12:9:29Z</time></trkpt>
<trkpt lat="48.445554" lon="2.642147"><ele></ele><time>2019-1-17T12:9:32Z</time></trkpt>
<trkpt lat="48.445543" lon="2.642311"><ele></ele><time>2019-1-17T12:9:35Z</time></trkpt>
<trkpt lat="48.445529" lon="2.642475"><ele></ele><time>2019-1-17T12:9:38Z</time></trkpt>
<trkpt lat="48.445539" lon="2.642675"><ele></ele><time>2019-1-17T12:9:41Z</time></trkpt>
<trkpt lat="48.445546" lon="2.642861"><ele></ele><time>2019-1-17T12:9:44Z</time></trkpt>
<trkpt lat="48.445563" lon="2.64304"><ele></ele><time>2019-1-17T12:9:47Z</time></trkpt>
<trkpt lat="48.445515" lon="2.643175"><ele></ele><time>2019-1-17T12:9:50Z</time></trkpt>
<trkpt lat="48.445508" lon="2.643353"><ele></ele><time>2019-1-17T12:9:53Z</time></trkpt>
<trkpt lat="48.445524" lon="2.643514"><ele></ele><time>2019-1-17T12:9:56Z</time></trkpt>
<trkpt lat="48.445571" lon="2.643732"><ele></ele><time>2019-1-17T12:9:59Z</time></trkpt>
<trkpt lat="48.445717" lon="2.64381"><ele></ele><time>2019-1-17T12:10:2Z</time></trkpt>
<trkpt lat="48.445836" lon="2.643877"><ele></ele><time>2019-1-17T12:10:5Z</time></trkpt>
<trkpt lat="48.445945" lon="2.64382"><ele></ele><time>2019-1-17T12:10:8Z</time></trkpt>
<trkpt lat="48.446027" lon="2.643744"><ele></ele><time>2019-1-17T12:10:11Z</time></trkpt>
<trkpt lat="48.446138" lon="2.643662"><ele></ele><time>2019-1-17T12:10:14Z</time></trkpt>
<trkpt lat="48.446227" lon="2.643648"><ele></ele><time>2019-1-17T12:10:17Z</time></trkpt>
<trkpt lat="48.446327" lon="2.643663"><ele></ele><time>2019-1-17T12:10:20Z</time></trkpt>
<trkpt lat="48.446421" lon="2.643692"><ele></ele><time>2019-1-17T12:10:23Z</time></trkpt>
<trkpt lat="48.446507" lon="2.64377"><ele></ele><time>2019-1-17T12:10:26Z</time></trkpt>
<trkpt lat="48.44654" lon="2.643941"><ele></ele><time>2019-1-17T12:10:29Z</time></trkpt>
<trkpt lat="48.446556" lon="2.644085"><ele></ele><time>2019-1-17T12:10:32Z</time></trkpt>
<trkpt lat="48.446479" lon="2.6442"><ele></ele><time>2019-1-17T12:10:35Z</time></trkpt>
<trkpt lat="48.446499" lon="2.644374"><ele></ele><time>2019-1-17T12:10:38Z</time></trkpt>
<trkpt lat="48.446552" lon="2.644491"><ele></ele><time>2019-1-17T12:10:41Z</time></trkpt>
<trkpt lat="48.446615" lon="2.644607"><ele></ele><time>2019-1-17T12:10:44Z</time></trkpt>
<trkpt lat="48.446729" lon="2.644649"><ele></ele><time>2019-1-17T12:10:47Z</time></trkpt>
<trkpt lat="48.446851" lon="2.644617"><ele></ele><time>2019-1-17T12:10:50Z</time></trkpt>
<trkpt lat="48.446936" lon="2.644673"><ele></ele><time>2019-1-17T12:10:53Z</time></trkpt>
<trkpt lat="48.447009" lon="2.644785"><ele></ele><time>2019-1-17T12:10:56Z</time></trkpt>
<trkpt lat="48.447107" lon="2.6449"><ele></ele><time>2019-1-17T12:10:59Z</time></trkpt>
<trkpt lat="48.44721" lon="2.644939"><ele></ele><time>2019-1-17T12:11:2Z</time></trkpt>
<trkpt lat="48.4473" lon="2.645001"><ele></ele><time>2019-1-17T12:11:5Z</time></trkpt>
<trkpt lat="48.447396" lon="2.645059"><ele></ele><time>2019-1-17T12:11:8Z</time></trkpt>
<trkpt lat="48.447486" lon="2.645121"><ele></ele><time>2019-1-17T12:11:11Z</time></trkpt>
<trkpt lat="48.447535" lon="2.645239"><ele></ele><time>2019-1-17T12:11:14Z</time></trkpt>
<trkpt lat="48.447618" lon="2.645298"><ele></ele><time>2019-1-17T12:11:17Z</time></trkpt>
<trkpt lat="48.447707" lon="2.645352"><ele></ele><time>2019-1-17T12:11:20Z</time></trkpt>
<trkpt lat="48.447797" lon="2.645381"><ele></ele><time>2019-1-17T12:11:23Z</time></trkpt>
<trkpt lat="48.44789" lon="2.645365"><ele></ele><time>2019-1-17T12:11:26Z</time></trkpt>
<trkpt lat="48.447984" lon="2.645302"><ele></ele><time>2019-1-17T12:11:29Z</time></trkpt>
<trkpt lat="48.448075" lon="2.645262"><ele></ele><time>2019-1-17T12:11:32Z</time></trkpt>
<trkpt lat="48.448123" lon="2.645383"><ele></ele><time>2019-1-17T12:11:35Z</time></trkpt>
<trkpt lat="48.448167" lon="2.645504"><ele></ele><time>2019-1-17T12:11:38Z</time></trkpt>
<trkpt lat="48.448209" lon="2.645634"><ele></ele><time>2019-1-17T12:11:41Z</time></trkpt>
<trkpt lat="48.44827" lon="2.645736"><ele></ele><time>2019-1-17T12:11:44Z</time></trkpt>
<trkpt lat="48.448368" lon="2.645701"><ele></ele><time>2019-1-17T12:11:47Z</time></trkpt>
<trkpt lat="48.448454" lon="2.645657"><ele></ele><time>2019-1-17T12:11:50Z</time></trkpt>
<trkpt lat="48.448519" lon="2.645552"><ele></ele><time>2019-1-17T12:11:53Z</time></trkpt>
<trkpt lat="48.4486" lon="2.645443"><ele></ele><time>2019-1-17T12:11:56Z</time></trkpt>
<trkpt lat="48.448659" lon="2.645335"><ele></ele><time>2019-1-17T12:11:59Z</time></trkpt>
<trkpt lat="48.448761" lon="2.645278"><ele></ele><time>2019-1-17T12:12:2Z</time></trkpt>
<trkpt lat="48.448859" lon="2.645281"><ele></ele><time>2019-1-17T12:12:5Z</time></trkpt>
<trkpt lat="48.448941" lon="2.645354"><ele></ele><time>2019-1-17T12:12:8Z</time></trkpt>
<trkpt lat="48.448983" lon="2.645511"><ele></ele><time>2019-1-17T12:12:11Z</time></trkpt>
<trkpt lat="48.449008" lon="2.645657"><ele></ele><time>2019-1-17T12:12:14Z</time></trkpt>
<trkpt lat="48.449036" lon="2.645798"><ele></ele><time>2019-1-17T12:12:17Z</time></trkpt>
<trkpt lat="48.449041" lon="2.645935"><ele></ele><time>2019-1-17T12:12:20Z</time></trkpt>
<trkpt lat="48.449084" lon="2.646085"><ele></ele><time>2019-1-17T12:12:23Z</time></trkpt>
<trkpt lat="48.449147" lon="2.646198"><ele></ele><time>2019-1-17T12:12:26Z</time></trkpt>
<trkpt lat="48.449227" lon="2.64629"><ele></ele><time>2019-1-17T12:12:29Z</time></trkpt>
<trkpt lat="48.449304" lon="2.646368"><ele></ele><time>2019-1-17T12:12:32Z</time></trkpt>
<trkpt lat="48.449403" lon="2.646419"><ele></ele><time>2019-1-17T12:12:35Z</time></trkpt>
<trkpt lat="48.449469" lon="2.646521"><ele></ele><time>2019-1-17T12:12:38Z</time></trkpt>
<trkpt lat="48.449502" lon="2.646664"><ele></ele><time>2019-1-17T12:12:41Z</time></trkpt>
<trkpt lat="48.449548" lon="2.646801"><ele></ele><time>2019-1-17T12:12:44Z</time></trkpt>
<trkpt lat="48.449595" lon="2.64692"><ele></ele><time>2019-1-17T12:12:47Z</time></trkpt>
<trkpt lat="48.449693" lon="2.646915"><ele></ele><time>2019-1-17T12:12:50Z</time></trkpt>
<trkpt lat="48.449763" lon="2.6468"><ele></ele><time>2019-1-17T12:12:53Z</time></trkpt>
<trkpt lat="48.449827" lon="2.646676"><ele></ele><time>2019-1-17T12:12:56Z</time></trkpt>
<trkpt lat="48.449931" lon="2.646612"><ele></ele><time>2019-1-17T12:12:59Z</time></trkpt>
<trkpt lat="48.449997" lon="2.646725"><ele></ele><time>2019-1-17T12:13:2Z</time></trkpt>
<trkpt lat="48.45007" lon="2.646819"><ele></ele><time>2019-1-17T12:13:5Z</time></trkpt>
<trkpt lat="48.450169" lon="2.646876"><ele></ele><time>2019-1-17T12:13:8Z</time></trkpt>
<trkpt lat="48.450245" lon="2.646998"><ele></ele><time>2019-1-17T12:13:11Z</time></trkpt>
<trkpt lat="48.450326" lon="2.647071"><ele></ele><time>2019-1-17T12:13:14Z</time></trkpt>
<trkpt lat="48.450424" lon="2.647118"><ele></ele><time>2019-1-17T12:13:17Z</time></trkpt>
<trkpt lat="48.450534" lon="2.647222"><ele></ele><time>2019-1-17T12:13:20Z</time></trkpt>
<trkpt lat="48.450629" lon="2.647306"><ele></ele><time>2019-1-17T12:13:23Z</time></trkpt>
<trkpt lat="48.450745" lon="2.647322"><ele></ele><time>2019-1-17T12:13:26Z</time></trkpt>
<trkpt lat="48.450809" lon="2.64744"><ele></ele><time>2019-1-17T12:13:29Z</time></trkpt>
<trkpt lat="48.450895" lon="2.647527"><ele></ele><time>2019-1-17T12:13:32Z</time></trkpt>
<trkpt lat="48.450972" lon="2.647612"><ele></ele><time>2019-1-17T12:13:35Z</time></trkpt>
<trkpt lat="48.451057" lon="2.647713"><ele></ele><time>2019-1-17T12:13:38Z</time></trkpt>
<trkpt lat="48.451155" lon="2.647764"><ele></ele><time>2019-1-17T12:13:41Z</time></trkpt>
<trkpt lat="48.451241" lon="2.647836"><ele></ele><time>2019-1-17T12:13:44Z</time></trkpt>
<trkpt lat="48.451335" lon="2.647901"><ele></ele><time>2019-1-17T12:13:47Z</time></trkpt>
<trkpt lat="48.45147" lon="2.64797"><ele></ele><time>2019-1-17T12:13:50Z</time></trkpt>
<trkpt lat="48.451577" lon="2.647973"><ele></ele><time>2019-1-17T12:13:53Z</time></trkpt>
<trkpt lat="48.451675" lon="2.648051"><ele></ele><time>2019-1-17T12:13:56Z</time></trkpt>
<trkpt lat="48.451783" lon="2.64813"><ele></ele><time>2019-1-17T12:13:59Z</time></trkpt>
<trkpt lat="48.451869" lon="2.648204"><ele></ele><time>2019-1-17T12:14:2Z</time></trkpt>
<trkpt lat="48.451935" lon="2.648309"><ele></ele><time>2019-1-17T12:14:5Z</time></trkpt>
<trkpt lat="48.452025" lon="2.648398"><ele></ele><time>2019-1-17T12:14:8Z</time></trkpt>
<trkpt lat="48.452127" lon="2.648496"><ele></ele><time>2019-1-17T12:14:11Z</time></trkpt>
<trkpt lat="48.452215" lon="2.648554"><ele></ele><time>2019-1-17T12:14:14Z</time></trkpt>
<trkpt lat="48.452312" lon="2.648601"><ele></ele><time>2019-1-17T12:14:17Z</time></trkpt>
<trkpt lat="48.452409" lon="2.648698"><ele></ele><time>2019-1-17T12:14:20Z</time></trkpt>
<trkpt lat="48.452554" lon="2.648819"><ele></ele><time>2019-1-17T12:14:23Z</time></trkpt>
<trkpt lat="48.452665" lon="2.648944"><ele></ele><time>2019-1-17T12:14:26Z</time></trkpt>
<trkpt lat="48.452763" lon="2.649027"><ele></ele><time>2019-1-17T12:14:29Z</time></trkpt>
<trkpt lat="48.452856" lon="2.649065"><ele></ele><time>2019-1-17T12:14:32Z</time></trkpt>
<trkpt lat="48.452966" lon="2.649134"><ele></ele><time>2019-1-17T12:14:35Z</time></trkpt>
<trkpt lat="48.45305" lon="2.6492"><ele></ele><time>2019-1-17T12:14:38Z</time></trkpt>
<trkpt lat="48.453156" lon="2.649303"><ele></ele><time>2019-1-17T12:14:41Z</time></trkpt>
<trkpt lat="48.453233" lon="2.649389"><ele></ele><time>2019-1-17T12:14:44Z</time></trkpt>
<trkpt lat="48.453333" lon="2.649492"><ele></ele><time>2019-1-17T12:14:47Z</time></trkpt>
<trkpt lat="48.453431" lon="2.649604"><ele></ele><time>2019-1-17T12:14:50Z</time></trkpt>
<trkpt lat="48.453514" lon="2.649659"><ele></ele><time>2019-1-17T12:14:53Z</time></trkpt>
<trkpt lat="48.453622" lon="2.649706"><ele></ele><time>2019-1-17T12:14:56Z</time></trkpt>
<trkpt lat="48.45378" lon="2.649724"><ele></ele><time>2019-1-17T12:14:59Z</time></trkpt>
<trkpt lat="48.453861" lon="2.649818"><ele></ele><time>2019-1-17T12:15:2Z</time></trkpt>
<trkpt lat="48.453986" lon="2.64994"><ele></ele><time>2019-1-17T12:15:5Z</time></trkpt>
<trkpt lat="48.454087" lon="2.650051"><ele></ele><time>2019-1-17T12:15:8Z</time></trkpt>
<trkpt lat="48.454195" lon="2.650048"><ele></ele><time>2019-1-17T12:15:11Z</time></trkpt>
<trkpt lat="48.454265" lon="2.650133"><ele></ele><time>2019-1-17T12:15:14Z</time></trkpt>
<trkpt lat="48.45434" lon="2.65022"><ele></ele><time>2019-1-17T12:15:17Z</time></trkpt>
<trkpt lat="48.454458" lon="2.650358"><ele></ele><time>2019-1-17T12:15:20Z</time></trkpt>
<trkpt lat="48.454558" lon="2.650395"><ele></ele><time>2019-1-17T12:15:23Z</time></trkpt>
<trkpt lat="48.454665" lon="2.650448"><ele></ele><time>2019-1-17T12:15:26Z</time></trkpt>
<trkpt lat="48.454781" lon="2.650485"><ele></ele><time>2019-1-17T12:15:29Z</time></trkpt>
<trkpt lat="48.4549" lon="2.650634"><ele></ele><time>2019-1-17T12:15:32Z</time></trkpt>
<trkpt lat="48.455035" lon="2.650734"><ele></ele><time>2019-1-17T12:15:35Z</time></trkpt>
<trkpt lat="48.455156" lon="2.650772"><ele></ele><time>2019-1-17T12:15:38Z</time></trkpt>
<trkpt lat="48.455269" lon="2.65083"><ele></ele><time>2019-1-17T12:15:41Z</time></trkpt>
<trkpt lat="48.45537" lon="2.650928"><ele></ele><time>2019-1-17T12:15:44Z</time></trkpt>
<trkpt lat="48.455436" lon="2.651033"><ele></ele><time>2019-1-17T12:15:47Z</time></trkpt>
<trkpt lat="48.455516" lon="2.651117"><ele></ele><time>2019-1-17T12:15:50Z</time></trkpt>
<trkpt lat="48.455652" lon="2.65121"><ele></ele><time>2019-1-17T12:15:53Z</time></trkpt>
<trkpt lat="48.455757" lon="2.651281"><ele></ele><time>2019-1-17T12:15:56Z</time></trkpt>
<trkpt lat="48.455828" lon="2.651375"><ele></ele><time>2019-1-17T12:15:59Z</time></trkpt>
<trkpt lat="48.455921" lon="2.65144"><ele></ele><time>2019-1-17T12:16:2Z</time></trkpt>
<trkpt lat="48.45602" lon="2.651504"><ele></ele><time>2019-1-17T12:16:5Z</time></trkpt>
<trkpt lat="48.456099" lon="2.651581"><ele></ele><time>2019-1-17T12:16:8Z</time></trkpt>
<trkpt lat="48.456231" lon="2.651683"><ele></ele><time>2019-1-17T12:16:11Z</time></trkpt>
<trkpt lat="48.456314" lon="2.65176"><ele></ele><time>2019-1-17T12:16:14Z</time></trkpt>
<trkpt lat="48.456391" lon="2.651864"><ele></ele><time>2019-1-17T12:16:17Z</time></trkpt>
<trkpt lat="48.456508" lon="2.651957"><ele></ele><time>2019-1-17T12:16:20Z</time></trkpt>
<trkpt lat="48.456638" lon="2.652014"><ele></ele><time>2019-1-17T12:16:23Z</time></trkpt>
<trkpt lat="48.456742" lon="2.652098"><ele></ele><time>2019-1-17T12:16:26Z</time></trkpt>
<trkpt lat="48.456847" lon="2.652165"><ele></ele><time>2019-1-17T12:16:29Z</time></trkpt>
<trkpt lat="48.456951" lon="2.652277"><ele></ele><time>2019-1-17T12:16:32Z</time></trkpt>
<trkpt lat="48.457072" lon="2.652337"><ele></ele><time>2019-1-17T12:16:35Z</time></trkpt>
<trkpt lat="48.45719" lon="2.652378"><ele></ele><time>2019-1-17T12:16:38Z</time></trkpt>
<trkpt lat="48.457271" lon="2.652443"><ele></ele><time>2019-1-17T12:16:41Z</time></trkpt>
<trkpt lat="48.457372" lon="2.652505"><ele></ele><time>2019-1-17T12:16:44Z</time></trkpt>
<trkpt lat="48.457468" lon="2.652633"><ele></ele><time>2019-1-17T12:16:47Z</time></trkpt>
<trkpt lat="48.457571" lon="2.652633"><ele></ele><time>2019-1-17T12:16:50Z</time></trkpt>
<trkpt lat="48.457605" lon="2.652476"><ele></ele><time>2019-1-17T12:16:53Z</time></trkpt>
<trkpt lat="48.45758" lon="2.652336"><ele></ele><time>2019-1-17T12:16:56Z</time></trkpt>
<trkpt lat="48.457664" lon="2.652225"><ele></ele><time>2019-1-17T12:16:59Z</time></trkpt>
<trkpt lat="48.457723" lon="2.652069"><ele></ele><time>2019-1-17T12:17:2Z</time></trkpt>
<trkpt lat="48.457742" lon="2.65193"><ele></ele><time>2019-1-17T12:17:5Z</time></trkpt>
<trkpt lat="48.457857" lon="2.651766"><ele></ele><time>2019-1-17T12:17:8Z</time></trkpt>
<trkpt lat="48.45796" lon="2.651695"><ele></ele><time>2019-1-17T12:17:11Z</time></trkpt>
<trkpt lat="48.458063" lon="2.651619"><ele></ele><time>2019-1-17T12:17:14Z</time></trkpt>
<trkpt lat="48.458134" lon="2.651535"><ele></ele><time>2019-1-17T12:17:17Z</time></trkpt>
<trkpt lat="48.458237" lon="2.651508"><ele></ele><time>2019-1-17T12:17:20Z</time></trkpt>
<trkpt lat="48.458363" lon="2.65148"><ele></ele><time>2019-1-17T12:17:23Z</time></trkpt>
<trkpt lat="48.458424" lon="2.651377"><ele></ele><time>2019-1-17T12:17:26Z</time></trkpt>
<trkpt lat="48.458512" lon="2.651244"><ele></ele><time>2019-1-17T12:17:29Z</time></trkpt>
<trkpt lat="48.458592" lon="2.651113"><ele></ele><time>2019-1-17T12:17:32Z</time></trkpt>
<trkpt lat="48.458644" lon="2.650995"><ele></ele><time>2019-1-17T12:17:35Z</time></trkpt>
<trkpt lat="48.458664" lon="2.650818"><ele></ele><time>2019-1-17T12:17:38Z</time></trkpt>
<trkpt lat="48.458635" lon="2.65062"><ele></ele><time>2019-1-17T12:17:41Z</time></trkpt>
<trkpt lat="48.458565" lon="2.650465"><ele></ele><time>2019-1-17T12:17:44Z</time></trkpt>
<trkpt lat="48.458568" lon="2.650312"><ele></ele><time>2019-1-17T12:17:47Z</time></trkpt>
<trkpt lat="48.458517" lon="2.650163"><ele></ele><time>2019-1-17T12:17:50Z</time></trkpt>
<trkpt lat="48.458466" lon="2.650047"><ele></ele><time>2019-1-17T12:17:53Z</time></trkpt>
<trkpt lat="48.458435" lon="2.649908"><ele></ele><time>2019-1-17T12:17:56Z</time></trkpt>
<trkpt lat="48.458369" lon="2.649746"><ele></ele><time>2019-1-17T12:17:59Z</time></trkpt>
<trkpt lat="48.458264" lon="2.649621"><ele></ele><time>2019-1-17T12:18:2Z</time></trkpt>
<trkpt lat="48.458216" lon="2.649497"><ele></ele><time>2019-1-17T12:18:5Z</time></trkpt>
<trkpt lat="48.458198" lon="2.649328"><ele></ele><time>2019-1-17T12:18:8Z</time></trkpt>
<trkpt lat="48.45815" lon="2.649163"><ele></ele><time>2019-1-17T12:18:11Z</time></trkpt>
<trkpt lat="48.458131" lon="2.648978"><ele></ele><time>2019-1-17T12:18:14Z</time></trkpt>
<trkpt lat="48.458127" lon="2.648807"><ele></ele><time>2019-1-17T12:18:17Z</time></trkpt>
<trkpt lat="48.45814" lon="2.648624"><ele></ele><time>2019-1-17T12:18:20Z</time></trkpt>
<trkpt lat="48.458272" lon="2.648564"><ele></ele><time>2019-1-17T12:18:23Z</time></trkpt>
<trkpt lat="48.458362" lon="2.648525"><ele></ele><time>2019-1-17T12:18:26Z</time></trkpt>
<trkpt lat="48.458474" lon="2.648459"><ele></ele><time>2019-1-17T12:18:29Z</time></trkpt>
<trkpt lat="48.458581" lon="2.648397"><ele></ele><time>2019-1-17T12:18:32Z</time></trkpt>
<trkpt lat="48.458658" lon="2.648328"><ele></ele><time>2019-1-17T12:18:35Z</time></trkpt>
<trkpt lat="48.458816" lon="2.648247"><ele></ele><time>2019-1-17T12:18:38Z</time></trkpt>
<trkpt lat="48.458942" lon="2.648263"><ele></ele><time>2019-1-17T12:18:41Z</time></trkpt>
<trkpt lat="48.459089" lon="2.64831"><ele></ele><time>2019-1-17T12:18:44Z</time></trkpt>
<trkpt lat="48.459226" lon="2.648408"><ele></ele><time>2019-1-17T12:18:47Z</time></trkpt>
<trkpt lat="48.459349" lon="2.648506"><ele></ele><time>2019-1-17T12:18:50Z</time></trkpt>
<trkpt lat="48.45952" lon="2.648594"><ele></ele><time>2019-1-17T12:18:53Z</time></trkpt>
<trkpt lat="48.459605" lon="2.648682"><ele></ele><time>2019-1-17T12:18:56Z</time></trkpt>
<trkpt lat="48.459692" lon="2.64882"><ele></ele><time>2019-1-17T12:18:59Z</time></trkpt>
<trkpt lat="48.45974" lon="2.648951"><ele></ele><time>2019-1-17T12:19:2Z</time></trkpt>
<trkpt lat="48.459837" lon="2.649086"><ele></ele><time>2019-1-17T12:19:5Z</time></trkpt>
<trkpt lat="48.4599" lon="2.649212"><ele></ele><time>2019-1-17T12:19:8Z</time></trkpt>
<trkpt lat="48.460009" lon="2.649308"><ele></ele><time>2019-1-17T12:19:11Z</time></trkpt>
<trkpt lat="48.460104" lon="2.649376"><ele></ele><time>2019-1-17T12:19:14Z</time></trkpt>
<trkpt lat="48.460188" lon="2.649493"><ele></ele><time>2019-1-17T12:19:17Z</time></trkpt>
<trkpt lat="48.460256" lon="2.649595"><ele></ele><time>2019-1-17T12:19:20Z</time></trkpt>
<trkpt lat="48.460317" lon="2.649727"><ele></ele><time>2019-1-17T12:19:23Z</time></trkpt>
<trkpt lat="48.460419" lon="2.649796"><ele></ele><time>2019-1-17T12:19:26Z</time></trkpt>
<trkpt lat="48.460507" lon="2.649863"><ele></ele><time>2019-1-17T12:19:29Z</time></trkpt>
<trkpt lat="48.460628" lon="2.64992"><ele></ele><time>2019-1-17T12:19:32Z</time></trkpt>
<trkpt lat="48.460745" lon="2.649966"><ele></ele><time>2019-1-17T12:19:35Z</time></trkpt>
<trkpt lat="48.460829" lon="2.650066"><ele></ele><time>2019-1-17T12:19:38Z</time></trkpt>
<trkpt lat="48.460906" lon="2.650166"><ele></ele><time>2019-1-17T12:19:41Z</time></trkpt>
<trkpt lat="48.460972" lon="2.65029"><ele></ele><time>2019-1-17T12:19:44Z</time></trkpt>
<trkpt lat="48.461056" lon="2.650369"><ele></ele><time>2019-1-17T12:19:47Z</time></trkpt>
<trkpt lat="48.461171" lon="2.650445"><ele></ele><time>2019-1-17T12:19:50Z</time></trkpt>
<trkpt lat="48.461239" lon="2.650553"><ele></ele><time>2019-1-17T12:19:53Z</time></trkpt>
<trkpt lat="48.461321" lon="2.650667"><ele></ele><time>2019-1-17T12:19:56Z</time></trkpt>
<trkpt lat="48.461418" lon="2.650695"><ele></ele><time>2019-1-17T12:19:59Z</time></trkpt>
<trkpt lat="48.46151" lon="2.650748"><ele></ele><time>2019-1-17T12:20:2Z</time></trkpt>
<trkpt lat="48.461622" lon="2.650802"><ele></ele><time>2019-1-17T12:20:5Z</time></trkpt>
<trkpt lat="48.461708" lon="2.650865"><ele></ele><time>2019-1-17T12:20:8Z</time></trkpt>
<trkpt lat="48.461818" lon="2.650916"><ele></ele><time>2019-1-17T12:20:11Z</time></trkpt>
<trkpt lat="48.461929" lon="2.650914"><ele></ele><time>2019-1-17T12:20:14Z</time></trkpt>
<trkpt lat="48.462044" lon="2.650914"><ele></ele><time>2019-1-17T12:20:17Z</time></trkpt>
<trkpt lat="48.462156" lon="2.650908"><ele></ele><time>2019-1-17T12:20:20Z</time></trkpt>
<trkpt lat="48.462284" lon="2.650928"><ele></ele><time>2019-1-17T12:20:23Z</time></trkpt>
<trkpt lat="48.46239" lon="2.65096"><ele></ele><time>2019-1-17T12:20:26Z</time></trkpt>
<trkpt lat="48.462486" lon="2.650995"><ele></ele><time>2019-1-17T12:20:29Z</time></trkpt>
<trkpt lat="48.462581" lon="2.651076"><ele></ele><time>2019-1-17T12:20:32Z</time></trkpt>
<trkpt lat="48.462673" lon="2.651155"><ele></ele><time>2019-1-17T12:20:35Z</time></trkpt>
<trkpt lat="48.46276" lon="2.651236"><ele></ele><time>2019-1-17T12:20:38Z</time></trkpt>
<trkpt lat="48.462839" lon="2.651304"><ele></ele><time>2019-1-17T12:20:41Z</time></trkpt>
<trkpt lat="48.462928" lon="2.651336"><ele></ele><time>2019-1-17T12:20:44Z</time></trkpt>
<trkpt lat="48.46301" lon="2.651403"><ele></ele><time>2019-1-17T12:20:47Z</time></trkpt>
<trkpt lat="48.463104" lon="2.651481"><ele></ele><time>2019-1-17T12:20:50Z</time></trkpt>
<trkpt lat="48.463224" lon="2.651555"><ele></ele><time>2019-1-17T12:20:53Z</time></trkpt>
<trkpt lat="48.463305" lon="2.651641"><ele></ele><time>2019-1-17T12:20:56Z</time></trkpt>
<trkpt lat="48.463405" lon="2.651751"><ele></ele><time>2019-1-17T12:20:59Z</time></trkpt>
<trkpt lat="48.463534" lon="2.651848"><ele></ele><time>2019-1-17T12:21:2Z</time></trkpt>
<trkpt lat="48.463649" lon="2.651962"><ele></ele><time>2019-1-17T12:21:5Z</time></trkpt>
<trkpt lat="48.463736" lon="2.652117"><ele></ele><time>2019-1-17T12:21:8Z</time></trkpt>
<trkpt lat="48.463793" lon="2.65226"><ele></ele><time>2019-1-17T12:21:11Z</time></trkpt>
<trkpt lat="48.463761" lon="2.65241"><ele></ele><time>2019-1-17T12:21:14Z</time></trkpt>
<trkpt lat="48.463725" lon="2.652543"><ele></ele><time>2019-1-17T12:21:17Z</time></trkpt>
<trkpt lat="48.463765" lon="2.652687"><ele></ele><time>2019-1-17T12:21:20Z</time></trkpt>
<trkpt lat="48.463708" lon="2.652849"><ele></ele><time>2019-1-17T12:21:23Z</time></trkpt>
<trkpt lat="48.463594" lon="2.652995"><ele></ele><time>2019-1-17T12:21:26Z</time></trkpt>
<trkpt lat="48.463539" lon="2.653125"><ele></ele><time>2019-1-17T12:21:29Z</time></trkpt>
<trkpt lat="48.463517" lon="2.653273"><ele></ele><time>2019-1-17T12:21:32Z</time></trkpt>
<trkpt lat="48.463485" lon="2.653412"><ele></ele><time>2019-1-17T12:21:35Z</time></trkpt>
<trkpt lat="48.463434" lon="2.65357"><ele></ele><time>2019-1-17T12:21:38Z</time></trkpt>
<trkpt lat="48.463378" lon="2.653677"><ele></ele><time>2019-1-17T12:21:41Z</time></trkpt>
<trkpt lat="48.463378" lon="2.653822"><ele></ele><time>2019-1-17T12:21:44Z</time></trkpt>
<trkpt lat="48.46331" lon="2.653947"><ele></ele><time>2019-1-17T12:21:47Z</time></trkpt>
<trkpt lat="48.463249" lon="2.654084"><ele></ele><time>2019-1-17T12:21:50Z</time></trkpt>
<trkpt lat="48.463193" lon="2.654219"><ele></ele><time>2019-1-17T12:21:53Z</time></trkpt>
<trkpt lat="48.463067" lon="2.654362"><ele></ele><time>2019-1-17T12:21:56Z</time></trkpt>
<trkpt lat="48.462991" lon="2.654457"><ele></ele><time>2019-1-17T12:21:59Z</time></trkpt>
<trkpt lat="48.46295" lon="2.654605"><ele></ele><time>2019-1-17T12:22:2Z</time></trkpt>
<trkpt lat="48.462907" lon="2.654781"><ele></ele><time>2019-1-17T12:22:5Z</time></trkpt>
<trkpt lat="48.462827" lon="2.654928"><ele></ele><time>2019-1-17T12:22:8Z</time></trkpt>
<trkpt lat="48.462709" lon="2.655115"><ele></ele><time>2019-1-17T12:22:11Z</time></trkpt>
<trkpt lat="48.462675" lon="2.65528"><ele></ele><time>2019-1-17T12:22:14Z</time></trkpt>
<trkpt lat="48.462683" lon="2.655488"><ele></ele><time>2019-1-17T12:22:17Z</time></trkpt>
<trkpt lat="48.462659" lon="2.655673"><ele></ele><time>2019-1-17T12:22:20Z</time></trkpt>
<trkpt lat="48.462593" lon="2.65587"><ele></ele><time>2019-1-17T12:22:23Z</time></trkpt>
<trkpt lat="48.462544" lon="2.65603"><ele></ele><time>2019-1-17T12:22:26Z</time></trkpt>
<trkpt lat="48.462548" lon="2.656184"><ele></ele><time>2019-1-17T12:22:29Z</time></trkpt>
<trkpt lat="48.462591" lon="2.656383"><ele></ele><time>2019-1-17T12:22:32Z</time></trkpt>
<trkpt lat="48.462669" lon="2.656547"><ele></ele><time>2019-1-17T12:22:35Z</time></trkpt>
<trkpt lat="48.462692" lon="2.656729"><ele></ele><time>2019-1-17T12:22:38Z</time></trkpt>
<trkpt lat="48.462667" lon="2.656906"><ele></ele><time>2019-1-17T12:22:41Z</time></trkpt>
<trkpt lat="48.4626" lon="2.657045"><ele></ele><time>2019-1-17T12:22:44Z</time></trkpt>
<trkpt lat="48.462607" lon="2.657227"><ele></ele><time>2019-1-17T12:22:47Z</time></trkpt>
<trkpt lat="48.462642" lon="2.65741"><ele></ele><time>2019-1-17T12:22:50Z</time></trkpt>
<trkpt lat="48.462718" lon="2.6576"><ele></ele><time>2019-1-17T12:22:53Z</time></trkpt>
<trkpt lat="48.462672" lon="2.65776"><ele></ele><time>2019-1-17T12:22:56Z</time></trkpt>
<trkpt lat="48.462652" lon="2.657907"><ele></ele><time>2019-1-17T12:22:59Z</time></trkpt>
<trkpt lat="48.462648" lon="2.658053"><ele></ele><time>2019-1-17T12:23:2Z</time></trkpt>
<trkpt lat="48.462591" lon="2.658189"><ele></ele><time>2019-1-17T12:23:5Z</time></trkpt>
<trkpt lat="48.462486" lon="2.658322"><ele></ele><time>2019-1-17T12:23:8Z</time></trkpt>
<trkpt lat="48.462549" lon="2.658451"><ele></ele><time>2019-1-17T12:23:11Z</time></trkpt>
<trkpt lat="48.462528" lon="2.658607"><ele></ele><time>2019-1-17T12:23:14Z</time></trkpt>
<trkpt lat="48.462505" lon="2.658746"><ele></ele><time>2019-1-17T12:23:17Z</time></trkpt>
<trkpt lat="48.462522" lon="2.658884"><ele></ele><time>2019-1-17T12:23:20Z</time></trkpt>
<trkpt lat="48.462445" lon="2.659044"><ele></ele><time>2019-1-17T12:23:23Z</time></trkpt>
<trkpt lat="48.462429" lon="2.659181"><ele></ele><time>2019-1-17T12:23:26Z</time></trkpt>
<trkpt lat="48.462389" lon="2.659341"><ele></ele><time>2019-1-17T12:23:29Z</time></trkpt>
<trkpt lat="48.462363" lon="2.65949"><ele></ele><time>2019-1-17T12:23:32Z</time></trkpt>
<trkpt lat="48.462365" lon="2.659666"><ele></ele><time>2019-1-17T12:23:35Z</time></trkpt>
<trkpt lat="48.462358" lon="2.659822"><ele></ele><time>2019-1-17T12:23:38Z</time></trkpt>
<trkpt lat="48.462374" lon="2.659966"><ele></ele><time>2019-1-17T12:23:41Z</time></trkpt>
<trkpt lat="48.462407" lon="2.660098"><ele></ele><time>2019-1-17T12:23:44Z</time></trkpt>
<trkpt lat="48.462466" lon="2.660209"><ele></ele><time>2019-1-17T12:23:47Z</time></trkpt>
<trkpt lat="48.462534" lon="2.660321"><ele></ele><time>2019-1-17T12:23:50Z</time></trkpt>
<trkpt lat="48.462643" lon="2.660317"><ele></ele><time>2019-1-17T12:23:53Z</time></trkpt>
<trkpt lat="48.462748" lon="2.660312"><ele></ele><time>2019-1-17T12:23:56Z</time></trkpt>
<trkpt lat="48.462843" lon="2.660355"><ele></ele><time>2019-1-17T12:23:59Z</time></trkpt>
<trkpt lat="48.462934" lon="2.660425"><ele></ele><time>2019-1-17T12:24:2Z</time></trkpt>
<trkpt lat="48.463038" lon="2.660453"><ele></ele><time>2019-1-17T12:24:5Z</time></trkpt>
<trkpt lat="48.463122" lon="2.660505"><ele></ele><time>2019-1-17T12:24:8Z</time></trkpt>
<trkpt lat="48.463199" lon="2.660577"><ele></ele><time>2019-1-17T12:24:11Z</time></trkpt>
<trkpt lat="48.463309" lon="2.660606"><ele></ele><time>2019-1-17T12:24:14Z</time></trkpt>
<trkpt lat="48.463414" lon="2.660589"><ele></ele><time>2019-1-17T12:24:17Z</time></trkpt>
<trkpt lat="48.463591" lon="2.660571"><ele></ele><time>2019-1-17T12:24:20Z</time></trkpt>
<trkpt lat="48.463699" lon="2.660549"><ele></ele><time>2019-1-17T12:24:23Z</time></trkpt>
<trkpt lat="48.463845" lon="2.660605"><ele></ele><time>2019-1-17T12:24:26Z</time></trkpt>
<trkpt lat="48.463972" lon="2.660632"><ele></ele><time>2019-1-17T12:24:29Z</time></trkpt>
<trkpt lat="48.464091" lon="2.660635"><ele></ele><time>2019-1-17T12:24:32Z</time></trkpt>
<trkpt lat="48.46423" lon="2.660687"><ele></ele><time>2019-1-17T12:24:35Z</time></trkpt>
<trkpt lat="48.464323" lon="2.660741"><ele></ele><time>2019-1-17T12:24:38Z</time></trkpt>
<trkpt lat="48.464429" lon="2.66079"><ele></ele><time>2019-1-17T12:24:41Z</time></trkpt>
<trkpt lat="48.46451" lon="2.660875"><ele></ele><time>2019-1-17T12:24:44Z</time></trkpt>
<trkpt lat="48.464626" lon="2.660956"><ele></ele><time>2019-1-17T12:24:47Z</time></trkpt>
<trkpt lat="48.464739" lon="2.661077"><ele></ele><time>2019-1-17T12:24:50Z</time></trkpt>
<trkpt lat="48.464881" lon="2.66118"><ele></ele><time>2019-1-17T12:24:53Z</time></trkpt>
<trkpt lat="48.464973" lon="2.661221"><ele></ele><time>2019-1-17T12:24:56Z</time></trkpt>
<trkpt lat="48.46508" lon="2.661237"><ele></ele><time>2019-1-17T12:24:59Z</time></trkpt>
<trkpt lat="48.465159" lon="2.661313"><ele></ele><time>2019-1-17T12:25:2Z</time></trkpt>
<trkpt lat="48.465268" lon="2.66138"><ele></ele><time>2019-1-17T12:25:5Z</time></trkpt>
<trkpt lat="48.46535" lon="2.661433"><ele></ele><time>2019-1-17T12:25:8Z</time></trkpt>
<trkpt lat="48.465464" lon="2.661517"><ele></ele><time>2019-1-17T12:25:11Z</time></trkpt>
<trkpt lat="48.46555" lon="2.661586"><ele></ele><time>2019-1-17T12:25:14Z</time></trkpt>
<trkpt lat="48.46566" lon="2.66165"><ele></ele><time>2019-1-17T12:25:17Z</time></trkpt>
<trkpt lat="48.465777" lon="2.66172"><ele></ele><time>2019-1-17T12:25:20Z</time></trkpt>
<trkpt lat="48.465902" lon="2.661789"><ele></ele><time>2019-1-17T12:25:23Z</time></trkpt>
<trkpt lat="48.466019" lon="2.661872"><ele></ele><time>2019-1-17T12:25:26Z</time></trkpt>
<trkpt lat="48.466124" lon="2.66191"><ele></ele><time>2019-1-17T12:25:29Z</time></trkpt>
<trkpt lat="48.466153" lon="2.662049"><ele></ele><time>2019-1-17T12:25:32Z</time></trkpt>
<trkpt lat="48.466259" lon="2.662096"><ele></ele><time>2019-1-17T12:25:35Z</time></trkpt>
<trkpt lat="48.466365" lon="2.662137"><ele></ele><time>2019-1-17T12:25:38Z</time></trkpt>
<trkpt lat="48.466475" lon="2.662195"><ele></ele><time>2019-1-17T12:25:41Z</time></trkpt>
<trkpt lat="48.466562" lon="2.662247"><ele></ele><time>2019-1-17T12:25:44Z</time></trkpt>
<trkpt lat="48.466645" lon="2.662318"><ele></ele><time>2019-1-17T12:25:47Z</time></trkpt>
<trkpt lat="48.466724" lon="2.662393"><ele></ele><time>2019-1-17T12:25:50Z</time></trkpt>
<trkpt lat="48.466839" lon="2.662427"><ele></ele><time>2019-1-17T12:25:53Z</time></trkpt>
<trkpt lat="48.466924" lon="2.662513"><ele></ele><time>2019-1-17T12:25:56Z</time></trkpt>
<trkpt lat="48.467063" lon="2.662579"><ele></ele><time>2019-1-17T12:25:59Z</time></trkpt>
<trkpt lat="48.467158" lon="2.662689"><ele></ele><time>2019-1-17T12:26:2Z</time></trkpt>
<trkpt lat="48.467268" lon="2.662746"><ele></ele><time>2019-1-17T12:26:5Z</time></trkpt>
<trkpt lat="48.467366" lon="2.662803"><ele></ele><time>2019-1-17T12:26:8Z</time></trkpt>
<trkpt lat="48.467472" lon="2.662883"><ele></ele><time>2019-1-17T12:26:11Z</time></trkpt>
<trkpt lat="48.467596" lon="2.662924"><ele></ele><time>2019-1-17T12:26:14Z</time></trkpt>
<trkpt lat="48.467686" lon="2.662971"><ele></ele><time>2019-1-17T12:26:17Z</time></trkpt>
<trkpt lat="48.467788" lon="2.663033"><ele></ele><time>2019-1-17T12:26:20Z</time></trkpt>
<trkpt lat="48.467874" lon="2.663109"><ele></ele><time>2019-1-17T12:26:23Z</time></trkpt>
<trkpt lat="48.467964" lon="2.66306"><ele></ele><time>2019-1-17T12:26:26Z</time></trkpt>
<trkpt lat="48.468062" lon="2.663026"><ele></ele><time>2019-1-17T12:26:29Z</time></trkpt>
<trkpt lat="48.468166" lon="2.662973"><ele></ele><time>2019-1-17T12:26:32Z</time></trkpt>
<trkpt lat="48.46829" lon="2.662934"><ele></ele><time>2019-1-17T12:26:35Z</time></trkpt>
<trkpt lat="48.468382" lon="2.662882"><ele></ele><time>2019-1-17T12:26:38Z</time></trkpt>
<trkpt lat="48.468467" lon="2.66283"><ele></ele><time>2019-1-17T12:26:41Z</time></trkpt>
<trkpt lat="48.468559" lon="2.662773"><ele></ele><time>2019-1-17T12:26:44Z</time></trkpt>
<trkpt lat="48.468662" lon="2.662733"><ele></ele><time>2019-1-17T12:26:47Z</time></trkpt>
<trkpt lat="48.468764" lon="2.662683"><ele></ele><time>2019-1-17T12:26:50Z</time></trkpt>
<trkpt lat="48.468852" lon="2.66264"><ele></ele><time>2019-1-17T12:26:53Z</time></trkpt>
<trkpt lat="48.46896" lon="2.662559"><ele></ele><time>2019-1-17T12:26:56Z</time></trkpt>
<trkpt lat="48.469053" lon="2.662492"><ele></ele><time>2019-1-17T12:26:59Z</time></trkpt>
<trkpt lat="48.46915" lon="2.662441"><ele></ele><time>2019-1-17T12:27:2Z</time></trkpt>
<trkpt lat="48.469261" lon="2.662416"><ele></ele><time>2019-1-17T12:27:5Z</time></trkpt>
<trkpt lat="48.469379" lon="2.662374"><ele></ele><time>2019-1-17T12:27:8Z</time></trkpt>
<trkpt lat="48.469467" lon="2.6623"><ele></ele><time>2019-1-17T12:27:11Z</time></trkpt>
<trkpt lat="48.469551" lon="2.662249"><ele></ele><time>2019-1-17T12:27:14Z</time></trkpt>
<trkpt lat="48.469648" lon="2.662231"><ele></ele><time>2019-1-17T12:27:17Z</time></trkpt>
<trkpt lat="48.469751" lon="2.662206"><ele></ele><time>2019-1-17T12:27:20Z</time></trkpt>
<trkpt lat="48.469869" lon="2.662141"><ele></ele><time>2019-1-17T12:27:23Z</time></trkpt>
<trkpt lat="48.470024" lon="2.662043"><ele></ele><time>2019-1-17T12:27:26Z</time></trkpt>
<trkpt lat="48.470127" lon="2.661984"><ele></ele><time>2019-1-17T12:27:29Z</time></trkpt>
<trkpt lat="48.470221" lon="2.661978"><ele></ele><time>2019-1-17T12:27:32Z</time></trkpt>
<trkpt lat="48.47031" lon="2.661938"><ele></ele><time>2019-1-17T12:27:35Z</time></trkpt>
<trkpt lat="48.4704" lon="2.661929"><ele></ele><time>2019-1-17T12:27:38Z</time></trkpt>
<trkpt lat="48.470519" lon="2.661843"><ele></ele><time>2019-1-17T12:27:41Z</time></trkpt>
<trkpt lat="48.470619" lon="2.661795"><ele></ele><time>2019-1-17T12:27:44Z</time></trkpt>
<trkpt lat="48.470723" lon="2.661733"><ele></ele><time>2019-1-17T12:27:47Z</time></trkpt>
<trkpt lat="48.470844" lon="2.661666"><ele></ele><time>2019-1-17T12:27:50Z</time></trkpt>
<trkpt lat="48.470947" lon="2.661616"><ele></ele><time>2019-1-17T12:27:53Z</time></trkpt>
<trkpt lat="48.471034" lon="2.661552"><ele></ele><time>2019-1-17T12:27:56Z</time></trkpt>
<trkpt lat="48.471154" lon="2.661494"><ele></ele><time>2019-1-17T12:27:59Z</time></trkpt>
<trkpt lat="48.471277" lon="2.661415"><ele></ele><time>2019-1-17T12:28:2Z</time></trkpt>
<trkpt lat="48.471366" lon="2.661341"><ele></ele><time>2019-1-17T12:28:5Z</time></trkpt>
<trkpt lat="48.471461" lon="2.661277"><ele></ele><time>2019-1-17T12:28:8Z</time></trkpt>
<trkpt lat="48.471593" lon="2.661247"><ele></ele><time>2019-1-17T12:28:11Z</time></trkpt>
<trkpt lat="48.471722" lon="2.661133"><ele></ele><time>2019-1-17T12:28:14Z</time></trkpt>
<trkpt lat="48.471869" lon="2.661071"><ele></ele><time>2019-1-17T12:28:17Z</time></trkpt>
<trkpt lat="48.471994" lon="2.661017"><ele></ele><time>2019-1-17T12:28:20Z</time></trkpt>
<trkpt lat="48.472084" lon="2.660901"><ele></ele><time>2019-1-17T12:28:23Z</time></trkpt>
<trkpt lat="48.472159" lon="2.660776"><ele></ele><time>2019-1-17T12:28:26Z</time></trkpt>
<trkpt lat="48.472237" lon="2.660618"><ele></ele><time>2019-1-17T12:28:29Z</time></trkpt>
<trkpt lat="48.472339" lon="2.660467"><ele></ele><time>2019-1-17T12:28:32Z</time></trkpt>
<trkpt lat="48.472411" lon="2.660306"><ele></ele><time>2019-1-17T12:28:35Z</time></trkpt>
<trkpt lat="48.472478" lon="2.660176"><ele></ele><time>2019-1-17T12:28:38Z</time></trkpt>
<trkpt lat="48.472538" lon="2.660069"><ele></ele><time>2019-1-17T12:28:41Z</time></trkpt>
<trkpt lat="48.472602" lon="2.659909"><ele></ele><time>2019-1-17T12:28:44Z</time></trkpt>
<trkpt lat="48.472658" lon="2.659772"><ele></ele><time>2019-1-17T12:28:47Z</time></trkpt>
<trkpt lat="48.472677" lon="2.659631"><ele></ele><time>2019-1-17T12:28:50Z</time></trkpt>
<trkpt lat="48.472738" lon="2.659474"><ele></ele><time>2019-1-17T12:28:53Z</time></trkpt>
<trkpt lat="48.472797" lon="2.659345"><ele></ele><time>2019-1-17T12:28:56Z</time></trkpt>
<trkpt lat="48.472838" lon="2.659141"><ele></ele><time>2019-1-17T12:28:59Z</time></trkpt>
<trkpt lat="48.472886" lon="2.659021"><ele></ele><time>2019-1-17T12:29:2Z</time></trkpt>
<trkpt lat="48.472958" lon="2.658889"><ele></ele><time>2019-1-17T12:29:5Z</time></trkpt>
<trkpt lat="48.472997" lon="2.658731"><ele></ele><time>2019-1-17T12:29:8Z</time></trkpt>
<trkpt lat="48.473043" lon="2.65861"><ele></ele><time>2019-1-17T12:29:11Z</time></trkpt>
<trkpt lat="48.473088" lon="2.65849"><ele></ele><time>2019-1-17T12:29:14Z</time></trkpt>
<trkpt lat="48.473176" lon="2.658352"><ele></ele><time>2019-1-17T12:29:17Z</time></trkpt>
<trkpt lat="48.473226" lon="2.658199"><ele></ele><time>2019-1-17T12:29:20Z</time></trkpt>
<trkpt lat="48.473232" lon="2.658036"><ele></ele><time>2019-1-17T12:29:23Z</time></trkpt>
<trkpt lat="48.473238" lon="2.657885"><ele></ele><time>2019-1-17T12:29:26Z</time></trkpt>
<trkpt lat="48.47327" lon="2.65774"><ele></ele><time>2019-1-17T12:29:29Z</time></trkpt>
<trkpt lat="48.473346" lon="2.657662"><ele></ele><time>2019-1-17T12:29:32Z</time></trkpt>
<trkpt lat="48.47343" lon="2.657495"><ele></ele><time>2019-1-17T12:29:35Z</time></trkpt>
<trkpt lat="48.473506" lon="2.657385"><ele></ele><time>2019-1-17T12:29:38Z</time></trkpt>
<trkpt lat="48.47357" lon="2.657236"><ele></ele><time>2019-1-17T12:29:41Z</time></trkpt>
<trkpt lat="48.473642" lon="2.657123"><ele></ele><time>2019-1-17T12:29:44Z</time></trkpt>
<trkpt lat="48.473713" lon="2.657012"><ele></ele><time>2019-1-17T12:29:47Z</time></trkpt>
<trkpt lat="48.473766" lon="2.656826"><ele></ele><time>2019-1-17T12:29:50Z</time></trkpt>
<trkpt lat="48.473818" lon="2.656687"><ele></ele><time>2019-1-17T12:29:53Z</time></trkpt>
<trkpt lat="48.47389" lon="2.656574"><ele></ele><time>2019-1-17T12:29:56Z</time></trkpt>
<trkpt lat="48.474031" lon="2.656523"><ele></ele><time>2019-1-17T12:29:59Z</time></trkpt>
<trkpt lat="48.474132" lon="2.656379"><ele></ele><time>2019-1-17T12:30:2Z</time></trkpt>
<trkpt lat="48.474227" lon="2.656318"><ele></ele><time>2019-1-17T12:30:5Z</time></trkpt>
<trkpt lat="48.474321" lon="2.656259"><ele></ele><time>2019-1-17T12:30:8Z</time></trkpt>
<trkpt lat="48.474408" lon="2.656184"><ele></ele><time>2019-1-17T12:30:11Z</time></trkpt>
<trkpt lat="48.474491" lon="2.656105"><ele></ele><time>2019-1-17T12:30:14Z</time></trkpt>
<trkpt lat="48.474589" lon="2.656031"><ele></ele><time>2019-1-17T12:30:17Z</time></trkpt>
<trkpt lat="48.47469" lon="2.655914"><ele></ele><time>2019-1-17T12:30:20Z</time></trkpt>
<trkpt lat="48.474797" lon="2.65583"><ele></ele><time>2019-1-17T12:30:23Z</time></trkpt>
<trkpt lat="48.474884" lon="2.655762"><ele></ele><time>2019-1-17T12:30:26Z</time></trkpt>
<trkpt lat="48.474966" lon="2.655681"><ele></ele><time>2019-1-17T12:30:29Z</time></trkpt>
<trkpt lat="48.475065" lon="2.655592"><ele></ele><time>2019-1-17T12:30:32Z</time></trkpt>
<trkpt lat="48.475148" lon="2.655522"><ele></ele><time>2019-1-17T12:30:35Z</time></trkpt>
<trkpt lat="48.475283" lon="2.655452"><ele></ele><time>2019-1-17T12:30:38Z</time></trkpt>
<trkpt lat="48.475367" lon="2.6554"><ele></ele><time>2019-1-17T12:30:41Z</time></trkpt>
<trkpt lat="48.475451" lon="2.655282"><ele></ele><time>2019-1-17T12:30:44Z</time></trkpt>
<trkpt lat="48.475517" lon="2.655183"><ele></ele><time>2019-1-17T12:30:47Z</time></trkpt>
<trkpt lat="48.475563" lon="2.655049"><ele></ele><time>2019-1-17T12:30:50Z</time></trkpt>
<trkpt lat="48.475685" lon="2.654999"><ele></ele><time>2019-1-17T12:30:53Z</time></trkpt>
<trkpt lat="48.475794" lon="2.654883"><ele></ele><time>2019-1-17T12:30:56Z</time></trkpt>
<trkpt lat="48.475917" lon="2.654783"><ele></ele><time>2019-1-17T12:30:59Z</time></trkpt>
<trkpt lat="48.475996" lon="2.654706"><ele></ele><time>2019-1-17T12:31:2Z</time></trkpt>
<trkpt lat="48.476081" lon="2.654598"><ele></ele><time>2019-1-17T12:31:5Z</time></trkpt>
<trkpt lat="48.476173" lon="2.654542"><ele></ele><time>2019-1-17T12:31:8Z</time></trkpt>
<trkpt lat="48.476294" lon="2.654504"><ele></ele><time>2019-1-17T12:31:11Z</time></trkpt>
<trkpt lat="48.476375" lon="2.654391"><ele></ele><time>2019-1-17T12:31:14Z</time></trkpt>
<trkpt lat="48.476452" lon="2.654258"><ele></ele><time>2019-1-17T12:31:17Z</time></trkpt>
<trkpt lat="48.476592" lon="2.654149"><ele></ele><time>2019-1-17T12:31:20Z</time></trkpt>
<trkpt lat="48.47673" lon="2.654061"><ele></ele><time>2019-1-17T12:31:23Z</time></trkpt>
<trkpt lat="48.476846" lon="2.65392"><ele></ele><time>2019-1-17T12:31:26Z</time></trkpt>
<trkpt lat="48.476944" lon="2.653858"><ele></ele><time>2019-1-17T12:31:29Z</time></trkpt>
<trkpt lat="48.477029" lon="2.65377"><ele></ele><time>2019-1-17T12:31:32Z</time></trkpt>
<trkpt lat="48.477123" lon="2.653694"><ele></ele><time>2019-1-17T12:31:35Z</time></trkpt>
<trkpt lat="48.477214" lon="2.653635"><ele></ele><time>2019-1-17T12:31:38Z</time></trkpt>
<trkpt lat="48.47732" lon="2.653569"><ele></ele><time>2019-1-17T12:31:41Z</time></trkpt>
<trkpt lat="48.477422" lon="2.653502"><ele></ele><time>2019-1-17T12:31:44Z</time></trkpt>
<trkpt lat="48.4775" lon="2.653384"><ele></ele><time>2019-1-17T12:31:47Z</time></trkpt>
<trkpt lat="48.477606" lon="2.653284"><ele></ele><time>2019-1-17T12:31:50Z</time></trkpt>
<trkpt lat="48.477689" lon="2.65319"><ele></ele><time>2019-1-17T12:31:53Z</time></trkpt>
<trkpt lat="48.47778" lon="2.653085"><ele></ele><time>2019-1-17T12:31:56Z</time></trkpt>
<trkpt lat="48.477878" lon="2.653087"><ele></ele><time>2019-1-17T12:31:59Z</time></trkpt>
<trkpt lat="48.477967" lon="2.653008"><ele></ele><time>2019-1-17T12:32:2Z</time></trkpt>
<trkpt lat="48.478083" lon="2.652929"><ele></ele><time>2019-1-17T12:32:5Z</time></trkpt>
<trkpt lat="48.478152" lon="2.652841"><ele></ele><time>2019-1-17T12:32:8Z</time></trkpt>
<trkpt lat="48.478269" lon="2.652784"><ele></ele><time>2019-1-17T12:32:11Z</time></trkpt>
<trkpt lat="48.478387" lon="2.652719"><ele></ele><time>2019-1-17T12:32:14Z</time></trkpt>
<trkpt lat="48.478474" lon="2.652674"><ele></ele><time>2019-1-17T12:32:17Z</time></trkpt>
<trkpt lat="48.478633" lon="2.652592"><ele></ele><time>2019-1-17T12:32:20Z</time></trkpt>
<trkpt lat="48.478727" lon="2.652497"><ele></ele><time>2019-1-17T12:32:23Z</time></trkpt>
<trkpt lat="48.478846" lon="2.652448"><ele></ele><time>2019-1-17T12:32:26Z</time></trkpt>
<trkpt lat="48.478953" lon="2.652327"><ele></ele><time>2019-1-17T12:32:29Z</time></trkpt>
<trkpt lat="48.479043" lon="2.652184"><ele></ele><time>2019-1-17T12:32:32Z</time></trkpt>
<trkpt lat="48.479108" lon="2.652075"><ele></ele><time>2019-1-17T12:32:35Z</time></trkpt>
<trkpt lat="48.479216" lon="2.652006"><ele></ele><time>2019-1-17T12:32:38Z</time></trkpt>
<trkpt lat="48.479305" lon="2.651949"><ele></ele><time>2019-1-17T12:32:41Z</time></trkpt>
<trkpt lat="48.479395" lon="2.651871"><ele></ele><time>2019-1-17T12:32:44Z</time></trkpt>
<trkpt lat="48.479483" lon="2.651789"><ele></ele><time>2019-1-17T12:32:47Z</time></trkpt>
<trkpt lat="48.479564" lon="2.651722"><ele></ele><time>2019-1-17T12:32:50Z</time></trkpt>
<trkpt lat="48.479655" lon="2.651606"><ele></ele><time>2019-1-17T12:32:53Z</time></trkpt>
<trkpt lat="48.479724" lon="2.651475"><ele></ele><time>2019-1-17T12:32:56Z</time></trkpt>
<trkpt lat="48.479839" lon="2.651409"><ele></ele><time>2019-1-17T12:32:59Z</time></trkpt>
<trkpt lat="48.479994" lon="2.651346"><ele></ele><time>2019-1-17T12:33:2Z</time></trkpt>
<trkpt lat="48.480104" lon="2.65131"><ele></ele><time>2019-1-17T12:33:5Z</time></trkpt>
<trkpt lat="48.480195" lon="2.651235"><ele></ele><time>2019-1-17T12:33:8Z</time></trkpt>
<trkpt lat="48.48029" lon="2.65113"><ele></ele><time>2019-1-17T12:33:11Z</time></trkpt>
<trkpt lat="48.480377" lon="2.650975"><ele></ele><time>2019-1-17T12:33:14Z</time></trkpt>
<trkpt lat="48.480462" lon="2.650886"><ele></ele><time>2019-1-17T12:33:17Z</time></trkpt>
<trkpt lat="48.480581" lon="2.650808"><ele></ele><time>2019-1-17T12:33:20Z</time></trkpt>
<trkpt lat="48.480703" lon="2.650734"><ele></ele><time>2019-1-17T12:33:23Z</time></trkpt>
<trkpt lat="48.48082" lon="2.650708"><ele></ele><time>2019-1-17T12:33:26Z</time></trkpt>
<trkpt lat="48.480917" lon="2.650594"><ele></ele><time>2019-1-17T12:33:29Z</time></trkpt>
<trkpt lat="48.481008" lon="2.650495"><ele></ele><time>2019-1-17T12:33:32Z</time></trkpt>
<trkpt lat="48.481088" lon="2.650426"><ele></ele><time>2019-1-17T12:33:35Z</time></trkpt>
<trkpt lat="48.48117" lon="2.650342"><ele></ele><time>2019-1-17T12:33:38Z</time></trkpt>
<trkpt lat="48.481259" lon="2.650282"><ele></ele><time>2019-1-17T12:33:41Z</time></trkpt>
<trkpt lat="48.481361" lon="2.650193"><ele></ele><time>2019-1-17T12:33:44Z</time></trkpt>
<trkpt lat="48.481463" lon="2.650139"><ele></ele><time>2019-1-17T12:33:47Z</time></trkpt>
<trkpt lat="48.481528" lon="2.650041"><ele></ele><time>2019-1-17T12:33:50Z</time></trkpt>
<trkpt lat="48.481609" lon="2.649936"><ele></ele><time>2019-1-17T12:33:53Z</time></trkpt>
<trkpt lat="48.481716" lon="2.649897"><ele></ele><time>2019-1-17T12:33:56Z</time></trkpt>
<trkpt lat="48.481808" lon="2.649845"><ele></ele><time>2019-1-17T12:33:59Z</time></trkpt>
<trkpt lat="48.481878" lon="2.649744"><ele></ele><time>2019-1-17T12:34:2Z</time></trkpt>
<trkpt lat="48.48196" lon="2.649668"><ele></ele><time>2019-1-17T12:34:5Z</time></trkpt>
<trkpt lat="48.482054" lon="2.649644"><ele></ele><time>2019-1-17T12:34:8Z</time></trkpt>
<trkpt lat="48.482152" lon="2.649541"><ele></ele><time>2019-1-17T12:34:11Z</time></trkpt>
<trkpt lat="48.482238" lon="2.649455"><ele></ele><time>2019-1-17T12:34:14Z</time></trkpt>
<trkpt lat="48.482331" lon="2.649358"><ele></ele><time>2019-1-17T12:34:17Z</time></trkpt>
<trkpt lat="48.482415" lon="2.649278"><ele></ele><time>2019-1-17T12:34:20Z</time></trkpt>
<trkpt lat="48.482503" lon="2.649232"><ele></ele><time>2019-1-17T12:34:23Z</time></trkpt>
<trkpt lat="48.482602" lon="2.649121"><ele></ele><time>2019-1-17T12:34:26Z</time></trkpt>
<trkpt lat="48.482688" lon="2.648959"><ele></ele><time>2019-1-17T12:34:29Z</time></trkpt>
<trkpt lat="48.482816" lon="2.648901"><ele></ele><time>2019-1-17T12:34:32Z</time></trkpt>
<trkpt lat="48.482932" lon="2.648854"><ele></ele><time>2019-1-17T12:34:35Z</time></trkpt>
<trkpt lat="48.483017" lon="2.648791"><ele></ele><time>2019-1-17T12:34:38Z</time></trkpt>
<trkpt lat="48.483108" lon="2.648729"><ele></ele><time>2019-1-17T12:34:41Z</time></trkpt>
<trkpt lat="48.483221" lon="2.64866"><ele></ele><time>2019-1-17T12:34:44Z</time></trkpt>
<trkpt lat="48.483307" lon="2.648576"><ele></ele><time>2019-1-17T12:34:47Z</time></trkpt>
<trkpt lat="48.483399" lon="2.648457"><ele></ele><time>2019-1-17T12:34:50Z</time></trkpt>
<trkpt lat="48.483494" lon="2.648358"><ele></ele><time>2019-1-17T12:34:53Z</time></trkpt>
<trkpt lat="48.483595" lon="2.648236"><ele></ele><time>2019-1-17T12:34:56Z</time></trkpt>
<trkpt lat="48.483689" lon="2.648169"><ele></ele><time>2019-1-17T12:34:59Z</time></trkpt>
<trkpt lat="48.483788" lon="2.648093"><ele></ele><time>2019-1-17T12:35:2Z</time></trkpt>
<trkpt lat="48.483884" lon="2.648039"><ele></ele><time>2019-1-17T12:35:5Z</time></trkpt>
<trkpt lat="48.483997" lon="2.647979"><ele></ele><time>2019-1-17T12:35:8Z</time></trkpt>
<trkpt lat="48.484081" lon="2.647907"><ele></ele><time>2019-1-17T12:35:11Z</time></trkpt>
<trkpt lat="48.48417" lon="2.647786"><ele></ele><time>2019-1-17T12:35:14Z</time></trkpt>
<trkpt lat="48.484276" lon="2.647676"><ele></ele><time>2019-1-17T12:35:17Z</time></trkpt>
<trkpt lat="48.484391" lon="2.647621"><ele></ele><time>2019-1-17T12:35:20Z</time></trkpt>
<trkpt lat="48.484476" lon="2.647536"><ele></ele><time>2019-1-17T12:35:23Z</time></trkpt>
<trkpt lat="48.484579" lon="2.647464"><ele></ele><time>2019-1-17T12:35:26Z</time></trkpt>
<trkpt lat="48.4847" lon="2.647433"><ele></ele><time>2019-1-17T12:35:29Z</time></trkpt>
<trkpt lat="48.4848" lon="2.647378"><ele></ele><time>2019-1-17T12:35:32Z</time></trkpt>
<trkpt lat="48.484883" lon="2.64728"><ele></ele><time>2019-1-17T12:35:35Z</time></trkpt>
<trkpt lat="48.484958" lon="2.647194"><ele></ele><time>2019-1-17T12:35:38Z</time></trkpt>
<trkpt lat="48.485059" lon="2.647101"><ele></ele><time>2019-1-17T12:35:41Z</time></trkpt>
<trkpt lat="48.48514" lon="2.647035"><ele></ele><time>2019-1-17T12:35:44Z</time></trkpt>
<trkpt lat="48.485261" lon="2.646966"><ele></ele><time>2019-1-17T12:35:47Z</time></trkpt>
<trkpt lat="48.485387" lon="2.646889"><ele></ele><time>2019-1-17T12:35:50Z</time></trkpt>
<trkpt lat="48.485527" lon="2.646802"><ele></ele><time>2019-1-17T12:35:53Z</time></trkpt>
<trkpt lat="48.485599" lon="2.646712"><ele></ele><time>2019-1-17T12:35:56Z</time></trkpt>
<trkpt lat="48.485672" lon="2.646626"><ele></ele><time>2019-1-17T12:35:59Z</time></trkpt>
<trkpt lat="48.485803" lon="2.646538"><ele></ele><time>2019-1-17T12:36:2Z</time></trkpt>
<trkpt lat="48.485922" lon="2.646438"><ele></ele><time>2019-1-17T12:36:5Z</time></trkpt>
<trkpt lat="48.486001" lon="2.646361"><ele></ele><time>2019-1-17T12:36:8Z</time></trkpt>
<trkpt lat="48.486096" lon="2.646271"><ele></ele><time>2019-1-17T12:36:11Z</time></trkpt>
<trkpt lat="48.486173" lon="2.646189"><ele></ele><time>2019-1-17T12:36:14Z</time></trkpt>
<trkpt lat="48.486246" lon="2.646097"><ele></ele><time>2019-1-17T12:36:17Z</time></trkpt>
<trkpt lat="48.48633" lon="2.645994"><ele></ele><time>2019-1-17T12:36:20Z</time></trkpt>
<trkpt lat="48.486409" lon="2.645878"><ele></ele><time>2019-1-17T12:36:23Z</time></trkpt>
<trkpt lat="48.486482" lon="2.645776"><ele></ele><time>2019-1-17T12:36:26Z</time></trkpt>
<trkpt lat="48.486568" lon="2.645734"><ele></ele><time>2019-1-17T12:36:29Z</time></trkpt>
<trkpt lat="48.486674" lon="2.645662"><ele></ele><time>2019-1-17T12:36:32Z</time></trkpt>
<trkpt lat="48.486755" lon="2.645569"><ele></ele><time>2019-1-17T12:36:35Z</time></trkpt>
<trkpt lat="48.48686" lon="2.645502"><ele></ele><time>2019-1-17T12:36:38Z</time></trkpt>
<trkpt lat="48.486978" lon="2.645462"><ele></ele><time>2019-1-17T12:36:41Z</time></trkpt>
<trkpt lat="48.487041" lon="2.645347"><ele></ele><time>2019-1-17T12:36:44Z</time></trkpt>
<trkpt lat="48.487137" lon="2.645277"><ele></ele><time>2019-1-17T12:36:47Z</time></trkpt>
<trkpt lat="48.487217" lon="2.645181"><ele></ele><time>2019-1-17T12:36:50Z</time></trkpt>
<trkpt lat="48.487302" lon="2.645035"><ele></ele><time>2019-1-17T12:36:53Z</time></trkpt>
<trkpt lat="48.48741" lon="2.644923"><ele></ele><time>2019-1-17T12:36:56Z</time></trkpt>
<trkpt lat="48.48752" lon="2.644856"><ele></ele><time>2019-1-17T12:36:59Z</time></trkpt>
<trkpt lat="48.487626" lon="2.644769"><ele></ele><time>2019-1-17T12:37:2Z</time></trkpt>
<trkpt lat="48.487713" lon="2.644663"><ele></ele><time>2019-1-17T12:37:5Z</time></trkpt>
<trkpt lat="48.487801" lon="2.644577"><ele></ele><time>2019-1-17T12:37:8Z</time></trkpt>
<trkpt lat="48.487885" lon="2.644494"><ele></ele><time>2019-1-17T12:37:11Z</time></trkpt>
<trkpt lat="48.48799" lon="2.644393"><ele></ele><time>2019-1-17T12:37:14Z</time></trkpt>
<trkpt lat="48.488069" lon="2.644317"><ele></ele><time>2019-1-17T12:37:17Z</time></trkpt>
<trkpt lat="48.488157" lon="2.644261"><ele></ele><time>2019-1-17T12:37:20Z</time></trkpt>
<trkpt lat="48.488246" lon="2.644199"><ele></ele><time>2019-1-17T12:37:23Z</time></trkpt>
<trkpt lat="48.488347" lon="2.644148"><ele></ele><time>2019-1-17T12:37:26Z</time></trkpt>
<trkpt lat="48.488449" lon="2.64411"><ele></ele><time>2019-1-17T12:37:29Z</time></trkpt>
<trkpt lat="48.488541" lon="2.644092"><ele></ele><time>2019-1-17T12:37:32Z</time></trkpt>
<trkpt lat="48.488679" lon="2.644024"><ele></ele><time>2019-1-17T12:37:35Z</time></trkpt>
<trkpt lat="48.488774" lon="2.64397"><ele></ele><time>2019-1-17T12:37:38Z</time></trkpt>
<trkpt lat="48.488876" lon="2.64391"><ele></ele><time>2019-1-17T12:37:41Z</time></trkpt>
<trkpt lat="48.488967" lon="2.643871"><ele></ele><time>2019-1-17T12:37:44Z</time></trkpt>
<trkpt lat="48.489086" lon="2.643842"><ele></ele><time>2019-1-17T12:37:47Z</time></trkpt>
<trkpt lat="48.489179" lon="2.643796"><ele></ele><time>2019-1-17T12:37:50Z</time></trkpt>
<trkpt lat="48.489285" lon="2.643772"><ele></ele><time>2019-1-17T12:37:53Z</time></trkpt>
<trkpt lat="48.489397" lon="2.643712"><ele></ele><time>2019-1-17T12:37:56Z</time></trkpt>
<trkpt lat="48.489477" lon="2.643636"><ele></ele><time>2019-1-17T12:37:59Z</time></trkpt>
<trkpt lat="48.489584" lon="2.64354"><ele></ele><time>2019-1-17T12:38:2Z</time></trkpt>
<trkpt lat="48.489682" lon="2.643399"><ele></ele><time>2019-1-17T12:38:5Z</time></trkpt>
<trkpt lat="48.489769" lon="2.643325"><ele></ele><time>2019-1-17T12:38:8Z</time></trkpt>
<trkpt lat="48.48989" lon="2.643182"><ele></ele><time>2019-1-17T12:38:11Z</time></trkpt>
<trkpt lat="48.489949" lon="2.643078"><ele></ele><time>2019-1-17T12:38:14Z</time></trkpt>
<trkpt lat="48.490027" lon="2.642949"><ele></ele><time>2019-1-17T12:38:17Z</time></trkpt>
<trkpt lat="48.490134" lon="2.642895"><ele></ele><time>2019-1-17T12:38:20Z</time></trkpt>
<trkpt lat="48.490239" lon="2.642812"><ele></ele><time>2019-1-17T12:38:23Z</time></trkpt>
<trkpt lat="48.490313" lon="2.642711"><ele></ele><time>2019-1-17T12:38:26Z</time></trkpt>
<trkpt lat="48.490394" lon="2.642591"><ele></ele><time>2019-1-17T12:38:29Z</time></trkpt>
<trkpt lat="48.490451" lon="2.642432"><ele></ele><time>2019-1-17T12:38:32Z</time></trkpt>
<trkpt lat="48.490564" lon="2.642337"><ele></ele><time>2019-1-17T12:38:35Z</time></trkpt>
<trkpt lat="48.490649" lon="2.64224"><ele></ele><time>2019-1-17T12:38:38Z</time></trkpt>
<trkpt lat="48.490741" lon="2.642124"><ele></ele><time>2019-1-17T12:38:41Z</time></trkpt>
<trkpt lat="48.490824" lon="2.642064"><ele></ele><time>2019-1-17T12:38:44Z</time></trkpt>
<trkpt lat="48.490935" lon="2.641933"><ele></ele><time>2019-1-17T12:38:47Z</time></trkpt>
<trkpt lat="48.491043" lon="2.641779"><ele></ele><time>2019-1-17T12:38:50Z</time></trkpt>
<trkpt lat="48.491106" lon="2.641668"><ele></ele><time>2019-1-17T12:38:53Z</time></trkpt>
<trkpt lat="48.491188" lon="2.641559"><ele></ele><time>2019-1-17T12:38:56Z</time></trkpt>
<trkpt lat="48.491269" lon="2.641437"><ele></ele><time>2019-1-17T12:38:59Z</time></trkpt>
<trkpt lat="48.491369" lon="2.641328"><ele></ele><time>2019-1-17T12:39:2Z</time></trkpt>
<trkpt lat="48.491461" lon="2.641212"><ele></ele><time>2019-1-17T12:39:5Z</time></trkpt>
<trkpt lat="48.491529" lon="2.641078"><ele></ele><time>2019-1-17T12:39:8Z</time></trkpt>
<trkpt lat="48.491599" lon="2.64091"><ele></ele><time>2019-1-17T12:39:11Z</time></trkpt>
<trkpt lat="48.491662" lon="2.640773"><ele></ele><time>2019-1-17T12:39:14Z</time></trkpt>
<trkpt lat="48.491766" lon="2.640661"><ele></ele><time>2019-1-17T12:39:17Z</time></trkpt>
<trkpt lat="48.491904" lon="2.640521"><ele></ele><time>2019-1-17T12:39:20Z</time></trkpt>
<trkpt lat="48.492003" lon="2.640449"><ele></ele><time>2019-1-17T12:39:23Z</time></trkpt>
<trkpt lat="48.492134" lon="2.640323"><ele></ele><time>2019-1-17T12:39:26Z</time></trkpt>
<trkpt lat="48.492201" lon="2.640224"><ele></ele><time>2019-1-17T12:39:29Z</time></trkpt>
<trkpt lat="48.492265" lon="2.640111"><ele></ele><time>2019-1-17T12:39:32Z</time></trkpt>
<trkpt lat="48.492387" lon="2.640019"><ele></ele><time>2019-1-17T12:39:35Z</time></trkpt>
<trkpt lat="48.492477" lon="2.639879"><ele></ele><time>2019-1-17T12:39:38Z</time></trkpt>
<trkpt lat="48.492571" lon="2.639813"><ele></ele><time>2019-1-17T12:39:41Z</time></trkpt>
<trkpt lat="48.492674" lon="2.639739"><ele></ele><time>2019-1-17T12:39:44Z</time></trkpt>
<trkpt lat="48.492793" lon="2.639674"><ele></ele><time>2019-1-17T12:39:47Z</time></trkpt>
<trkpt lat="48.492911" lon="2.639523"><ele></ele><time>2019-1-17T12:39:50Z</time></trkpt>
<trkpt lat="48.493006" lon="2.63946"><ele></ele><time>2019-1-17T12:39:53Z</time></trkpt>
<trkpt lat="48.493065" lon="2.639344"><ele></ele><time>2019-1-17T12:39:56Z</time></trkpt>
<trkpt lat="48.493146" lon="2.6392"><ele></ele><time>2019-1-17T12:39:59Z</time></trkpt>
<trkpt lat="48.493251" lon="2.639082"><ele></ele><time>2019-1-17T12:40:2Z</time></trkpt>
<trkpt lat="48.493335" lon="2.638982"><ele></ele><time>2019-1-17T12:40:5Z</time></trkpt>
<trkpt lat="48.493422" lon="2.638903"><ele></ele><time>2019-1-17T12:40:8Z</time></trkpt>
<trkpt lat="48.493499" lon="2.638815"><ele></ele><time>2019-1-17T12:40:11Z</time></trkpt>
<trkpt lat="48.493606" lon="2.638671"><ele></ele><time>2019-1-17T12:40:14Z</time></trkpt>
<trkpt lat="48.493697" lon="2.638579"><ele></ele><time>2019-1-17T12:40:17Z</time></trkpt>
<trkpt lat="48.493782" lon="2.638433"><ele></ele><time>2019-1-17T12:40:20Z</time></trkpt>
<trkpt lat="48.493873" lon="2.638284"><ele></ele><time>2019-1-17T12:40:23Z</time></trkpt>
<trkpt lat="48.493965" lon="2.638193"><ele></ele><time>2019-1-17T12:40:26Z</time></trkpt>
<trkpt lat="48.494035" lon="2.638107"><ele></ele><time>2019-1-17T12:40:29Z</time></trkpt>
<trkpt lat="48.49413" lon="2.63797"><ele></ele><time>2019-1-17T12:40:32Z</time></trkpt>
<trkpt lat="48.494216" lon="2.637846"><ele></ele><time>2019-1-17T12:40:35Z</time></trkpt>
<trkpt lat="48.4943" lon="2.637764"><ele></ele><time>2019-1-17T12:40:38Z</time></trkpt>
<trkpt lat="48.494397" lon="2.637636"><ele></ele><time>2019-1-17T12:40:41Z</time></trkpt>
<trkpt lat="48.49447" lon="2.637528"><ele></ele><time>2019-1-17T12:40:44Z</time></trkpt>
<trkpt lat="48.494562" lon="2.637406"><ele></ele><time>2019-1-17T12:40:47Z</time></trkpt>
<trkpt lat="48.494641" lon="2.637305"><ele></ele><time>2019-1-17T12:40:50Z</time></trkpt>
<trkpt lat="48.494711" lon="2.637195"><ele></ele><time>2019-1-17T12:40:53Z</time></trkpt>
<trkpt lat="48.494804" lon="2.637099"><ele></ele><time>2019-1-17T12:40:56Z</time></trkpt>
<trkpt lat="48.494881" lon="2.636985"><ele></ele><time>2019-1-17T12:40:59Z</time></trkpt>
<trkpt lat="48.494982" lon="2.636932"><ele></ele><time>2019-1-17T12:41:2Z</time></trkpt>
<trkpt lat="48.495067" lon="2.636811"><ele></ele><time>2019-1-17T12:41:5Z</time></trkpt>
<trkpt lat="48.495154" lon="2.636742"><ele></ele><time>2019-1-17T12:41:8Z</time></trkpt>
<trkpt lat="48.495246" lon="2.636633"><ele></ele><time>2019-1-17T12:41:11Z</time></trkpt>
<trkpt lat="48.495325" lon="2.636486"><ele></ele><time>2019-1-17T12:41:14Z</time></trkpt>
<trkpt lat="48.495403" lon="2.636395"><ele></ele><time>2019-1-17T12:41:17Z</time></trkpt>
<trkpt lat="48.49549" lon="2.636283"><ele></ele><time>2019-1-17T12:41:20Z</time></trkpt>
<trkpt lat="48.495588" lon="2.636189"><ele></ele><time>2019-1-17T12:41:23Z</time></trkpt>
<trkpt lat="48.495678" lon="2.636071"><ele></ele><time>2019-1-17T12:41:26Z</time></trkpt>
<trkpt lat="48.495781" lon="2.635982"><ele></ele><time>2019-1-17T12:41:29Z</time></trkpt>
<trkpt lat="48.495884" lon="2.635932"><ele></ele><time>2019-1-17T12:41:32Z</time></trkpt>
<trkpt lat="48.495979" lon="2.635803"><ele></ele><time>2019-1-17T12:41:35Z</time></trkpt>
<trkpt lat="48.496007" lon="2.635635"><ele></ele><time>2019-1-17T12:41:38Z</time></trkpt>
<trkpt lat="48.49609" lon="2.635512"><ele></ele><time>2019-1-17T12:41:41Z</time></trkpt>
<trkpt lat="48.496177" lon="2.635391"><ele></ele><time>2019-1-17T12:41:44Z</time></trkpt>
<trkpt lat="48.496304" lon="2.635297"><ele></ele><time>2019-1-17T12:41:47Z</time></trkpt>
<trkpt lat="48.496388" lon="2.635209"><ele></ele><time>2019-1-17T12:41:50Z</time></trkpt>
<trkpt lat="48.49649" lon="2.635085"><ele></ele><time>2019-1-17T12:41:53Z</time></trkpt>
<trkpt lat="48.496569" lon="2.634973"><ele></ele><time>2019-1-17T12:41:56Z</time></trkpt>
<trkpt lat="48.496676" lon="2.634901"><ele></ele><time>2019-1-17T12:41:59Z</time></trkpt>
<trkpt lat="48.496711" lon="2.634755"><ele></ele><time>2019-1-17T12:42:2Z</time></trkpt>
<trkpt lat="48.496665" lon="2.634746"><ele></ele><time>2019-1-17T12:42:5Z</time></trkpt>
</trkseg></trk></gpx>